<?xml version="1.0" encoding="UTF-8" standalone="no" ?>
<gpx xmlns="http://www.topografix.com/GPX/1/1" xmlns:xsi="http://www.w3.org/2001/XMLSchema-instance" xsi:schemaLocation="http://www.topografix.com/GPX/1/1 http://www.topografix.com/GPX/1/1/gpx.xsd" version="1.1" creator="VisuGPX - https://www.visugpx.com">
  <metadata>
    <name>Fréchencourt</name>
  </metadata>
  <wpt lat="49.97919" lon="2.44487">
    <ele>51.2</ele>
    <name><![CDATA[Photo]]></name>
  </wpt>
  <wpt lat="49.96752" lon="2.43239">
    <ele>51.3</ele>
    <name><![CDATA[Photo]]></name>
  </wpt>
  <wpt lat="49.96176" lon="2.43663">
    <ele>49.9</ele>
    <name><![CDATA[Photo]]></name>
  </wpt>
  <trk>
    <name><![CDATA[Fréchencourt]]></name>
    <trkseg>
      <trkpt lat="49.96501" lon="2.43973">
        <ele>55.084</ele>
        <time>2020-08-23T06:30:24Z</time>
      </trkpt>
      <trkpt lat="49.96493" lon="2.43978">
        <ele>55.007</ele>
        <time>2020-08-23T06:30:25Z</time>
      </trkpt>
      <trkpt lat="49.96498" lon="2.43975">
        <ele>55.317</ele>
        <time>2020-08-23T06:30:29Z</time>
      </trkpt>
      <trkpt lat="49.96494" lon="2.43977">
        <ele>55.108</ele>
        <time>2020-08-23T06:30:33Z</time>
      </trkpt>
      <trkpt lat="49.96493" lon="2.43984">
        <ele>54.883</ele>
        <time>2020-08-23T06:30:38Z</time>
      </trkpt>
      <trkpt lat="49.96495" lon="2.43991">
        <ele>54.583</ele>
        <time>2020-08-23T06:30:43Z</time>
      </trkpt>
      <trkpt lat="49.96497" lon="2.43997">
        <ele>54.371</ele>
        <time>2020-08-23T06:30:49Z</time>
      </trkpt>
      <trkpt lat="49.965" lon="2.44003">
        <ele>54.379</ele>
        <time>2020-08-23T06:30:57Z</time>
      </trkpt>
      <trkpt lat="49.96508" lon="2.44023">
        <ele>53.459</ele>
        <time>2020-08-23T06:33:34Z</time>
      </trkpt>
      <trkpt lat="49.96508" lon="2.44031">
        <ele>53.244</ele>
        <time>2020-08-23T06:33:38Z</time>
      </trkpt>
      <trkpt lat="49.96508" lon="2.44039">
        <ele>53.155</ele>
        <time>2020-08-23T06:33:44Z</time>
      </trkpt>
      <trkpt lat="49.96504" lon="2.44043">
        <ele>52.94</ele>
        <time>2020-08-23T06:33:50Z</time>
      </trkpt>
      <trkpt lat="49.96502" lon="2.44049">
        <ele>52.884</ele>
        <time>2020-08-23T06:33:53Z</time>
      </trkpt>
      <trkpt lat="49.96502" lon="2.44056">
        <ele>52.407</ele>
        <time>2020-08-23T06:33:59Z</time>
      </trkpt>
      <trkpt lat="49.96503" lon="2.44063">
        <ele>52.117</ele>
        <time>2020-08-23T06:34:03Z</time>
      </trkpt>
      <trkpt lat="49.96505" lon="2.44071">
        <ele>52.008</ele>
        <time>2020-08-23T06:34:08Z</time>
      </trkpt>
      <trkpt lat="49.96505" lon="2.44079">
        <ele>51.833</ele>
        <time>2020-08-23T06:34:12Z</time>
      </trkpt>
      <trkpt lat="49.96506" lon="2.44086">
        <ele>51.443</ele>
        <time>2020-08-23T06:34:17Z</time>
      </trkpt>
      <trkpt lat="49.96507" lon="2.44093">
        <ele>51.231</ele>
        <time>2020-08-23T06:34:21Z</time>
      </trkpt>
      <trkpt lat="49.96507" lon="2.441">
        <ele>51.099</ele>
        <time>2020-08-23T06:34:25Z</time>
      </trkpt>
      <trkpt lat="49.96507" lon="2.44108">
        <ele>50.659</ele>
        <time>2020-08-23T06:34:31Z</time>
      </trkpt>
      <trkpt lat="49.96509" lon="2.44115">
        <ele>50.354</ele>
        <time>2020-08-23T06:34:36Z</time>
      </trkpt>
      <trkpt lat="49.96511" lon="2.44122">
        <ele>50.225</ele>
        <time>2020-08-23T06:34:40Z</time>
      </trkpt>
      <trkpt lat="49.96512" lon="2.44129">
        <ele>49.97</ele>
        <time>2020-08-23T06:34:44Z</time>
      </trkpt>
      <trkpt lat="49.96513" lon="2.44137">
        <ele>49.642</ele>
        <time>2020-08-23T06:34:48Z</time>
      </trkpt>
      <trkpt lat="49.96513" lon="2.44144">
        <ele>49.422</ele>
        <time>2020-08-23T06:34:52Z</time>
      </trkpt>
      <trkpt lat="49.96514" lon="2.44152">
        <ele>49.214</ele>
        <time>2020-08-23T06:34:57Z</time>
      </trkpt>
      <trkpt lat="49.96515" lon="2.4416">
        <ele>48.908</ele>
        <time>2020-08-23T06:35:02Z</time>
      </trkpt>
      <trkpt lat="49.96515" lon="2.44169">
        <ele>48.879</ele>
        <time>2020-08-23T06:35:06Z</time>
      </trkpt>
      <trkpt lat="49.96517" lon="2.44176">
        <ele>48.579</ele>
        <time>2020-08-23T06:35:11Z</time>
      </trkpt>
      <trkpt lat="49.96519" lon="2.44184">
        <ele>48.357</ele>
        <time>2020-08-23T06:35:15Z</time>
      </trkpt>
      <trkpt lat="49.96519" lon="2.44191">
        <ele>48.165</ele>
        <time>2020-08-23T06:35:18Z</time>
      </trkpt>
      <trkpt lat="49.96518" lon="2.44198">
        <ele>47.965</ele>
        <time>2020-08-23T06:35:21Z</time>
      </trkpt>
      <trkpt lat="49.96519" lon="2.44205">
        <ele>47.74</ele>
        <time>2020-08-23T06:35:24Z</time>
      </trkpt>
      <trkpt lat="49.96519" lon="2.44212">
        <ele>47.541</ele>
        <time>2020-08-23T06:35:28Z</time>
      </trkpt>
      <trkpt lat="49.9652" lon="2.44221">
        <ele>47.436</ele>
        <time>2020-08-23T06:35:32Z</time>
      </trkpt>
      <trkpt lat="49.96522" lon="2.44229">
        <ele>47.326</ele>
        <time>2020-08-23T06:35:36Z</time>
      </trkpt>
      <trkpt lat="49.96523" lon="2.44238">
        <ele>47.247</ele>
        <time>2020-08-23T06:35:40Z</time>
      </trkpt>
      <trkpt lat="49.96523" lon="2.44246">
        <ele>47.111</ele>
        <time>2020-08-23T06:35:44Z</time>
      </trkpt>
      <trkpt lat="49.96525" lon="2.44253">
        <ele>47.008</ele>
        <time>2020-08-23T06:35:48Z</time>
      </trkpt>
      <trkpt lat="49.96526" lon="2.4426">
        <ele>47.027</ele>
        <time>2020-08-23T06:35:51Z</time>
      </trkpt>
      <trkpt lat="49.96525" lon="2.44268">
        <ele>46.937</ele>
        <time>2020-08-23T06:35:54Z</time>
      </trkpt>
      <trkpt lat="49.96526" lon="2.44275">
        <ele>46.825</ele>
        <time>2020-08-23T06:35:57Z</time>
      </trkpt>
      <trkpt lat="49.96525" lon="2.44282">
        <ele>46.763</ele>
        <time>2020-08-23T06:36:01Z</time>
      </trkpt>
      <trkpt lat="49.96525" lon="2.44291">
        <ele>46.663</ele>
        <time>2020-08-23T06:36:05Z</time>
      </trkpt>
      <trkpt lat="49.96526" lon="2.44297">
        <ele>46.298</ele>
        <time>2020-08-23T06:36:09Z</time>
      </trkpt>
      <trkpt lat="49.96525" lon="2.44305">
        <ele>46.569</ele>
        <time>2020-08-23T06:36:12Z</time>
      </trkpt>
      <trkpt lat="49.96525" lon="2.44313">
        <ele>46.384</ele>
        <time>2020-08-23T06:36:15Z</time>
      </trkpt>
      <trkpt lat="49.96526" lon="2.44321">
        <ele>46.217</ele>
        <time>2020-08-23T06:36:19Z</time>
      </trkpt>
      <trkpt lat="49.96527" lon="2.44329">
        <ele>46.287</ele>
        <time>2020-08-23T06:36:24Z</time>
      </trkpt>
      <trkpt lat="49.96528" lon="2.44337">
        <ele>46.115</ele>
        <time>2020-08-23T06:36:28Z</time>
      </trkpt>
      <trkpt lat="49.96529" lon="2.44347">
        <ele>46.008</ele>
        <time>2020-08-23T06:36:32Z</time>
      </trkpt>
      <trkpt lat="49.9653" lon="2.44355">
        <ele>45.876</ele>
        <time>2020-08-23T06:36:36Z</time>
      </trkpt>
      <trkpt lat="49.9653" lon="2.44362">
        <ele>45.736</ele>
        <time>2020-08-23T06:36:39Z</time>
      </trkpt>
      <trkpt lat="49.9653" lon="2.4437">
        <ele>45.754</ele>
        <time>2020-08-23T06:36:43Z</time>
      </trkpt>
      <trkpt lat="49.96531" lon="2.44378">
        <ele>45.692</ele>
        <time>2020-08-23T06:36:47Z</time>
      </trkpt>
      <trkpt lat="49.96532" lon="2.44386">
        <ele>45.572</ele>
        <time>2020-08-23T06:36:51Z</time>
      </trkpt>
      <trkpt lat="49.96531" lon="2.44393">
        <ele>45.437</ele>
        <time>2020-08-23T06:36:55Z</time>
      </trkpt>
      <trkpt lat="49.96532" lon="2.44402">
        <ele>45.478</ele>
        <time>2020-08-23T06:36:59Z</time>
      </trkpt>
      <trkpt lat="49.96533" lon="2.44409">
        <ele>45.473</ele>
        <time>2020-08-23T06:37:03Z</time>
      </trkpt>
      <trkpt lat="49.96533" lon="2.44416">
        <ele>45.391</ele>
        <time>2020-08-23T06:37:06Z</time>
      </trkpt>
      <trkpt lat="49.96533" lon="2.44425">
        <ele>45.281</ele>
        <time>2020-08-23T06:37:10Z</time>
      </trkpt>
      <trkpt lat="49.96534" lon="2.44433">
        <ele>45.119</ele>
        <time>2020-08-23T06:37:14Z</time>
      </trkpt>
      <trkpt lat="49.96534" lon="2.44441">
        <ele>45.208</ele>
        <time>2020-08-23T06:37:18Z</time>
      </trkpt>
      <trkpt lat="49.96534" lon="2.44449">
        <ele>45.244</ele>
        <time>2020-08-23T06:37:22Z</time>
      </trkpt>
      <trkpt lat="49.96535" lon="2.44458">
        <ele>45.134</ele>
        <time>2020-08-23T06:37:25Z</time>
      </trkpt>
      <trkpt lat="49.96536" lon="2.44466">
        <ele>44.962</ele>
        <time>2020-08-23T06:37:29Z</time>
      </trkpt>
      <trkpt lat="49.96537" lon="2.44475">
        <ele>44.83</ele>
        <time>2020-08-23T06:37:33Z</time>
      </trkpt>
      <trkpt lat="49.96536" lon="2.44483">
        <ele>44.81</ele>
        <time>2020-08-23T06:37:37Z</time>
      </trkpt>
      <trkpt lat="49.96536" lon="2.4449">
        <ele>44.865</ele>
        <time>2020-08-23T06:37:41Z</time>
      </trkpt>
      <trkpt lat="49.96537" lon="2.44498">
        <ele>44.996</ele>
        <time>2020-08-23T06:37:45Z</time>
      </trkpt>
      <trkpt lat="49.96538" lon="2.44505">
        <ele>44.861</ele>
        <time>2020-08-23T06:37:49Z</time>
      </trkpt>
      <trkpt lat="49.96539" lon="2.44513">
        <ele>44.756</ele>
        <time>2020-08-23T06:37:53Z</time>
      </trkpt>
      <trkpt lat="49.9654" lon="2.44519">
        <ele>44.859</ele>
        <time>2020-08-23T06:37:56Z</time>
      </trkpt>
      <trkpt lat="49.96542" lon="2.44526">
        <ele>44.914</ele>
        <time>2020-08-23T06:37:59Z</time>
      </trkpt>
      <trkpt lat="49.96544" lon="2.44533">
        <ele>45.008</ele>
        <time>2020-08-23T06:38:03Z</time>
      </trkpt>
      <trkpt lat="49.96544" lon="2.44541">
        <ele>45.23</ele>
        <time>2020-08-23T06:38:07Z</time>
      </trkpt>
      <trkpt lat="49.96544" lon="2.4455">
        <ele>45.24</ele>
        <time>2020-08-23T06:38:11Z</time>
      </trkpt>
      <trkpt lat="49.96544" lon="2.44558">
        <ele>45.268</ele>
        <time>2020-08-23T06:38:15Z</time>
      </trkpt>
      <trkpt lat="49.96545" lon="2.44566">
        <ele>45.376</ele>
        <time>2020-08-23T06:38:20Z</time>
      </trkpt>
      <trkpt lat="49.96546" lon="2.44575">
        <ele>45.526</ele>
        <time>2020-08-23T06:38:24Z</time>
      </trkpt>
      <trkpt lat="49.96545" lon="2.44583">
        <ele>45.781</ele>
        <time>2020-08-23T06:38:30Z</time>
      </trkpt>
      <trkpt lat="49.96544" lon="2.4459">
        <ele>45.962</ele>
        <time>2020-08-23T06:38:34Z</time>
      </trkpt>
      <trkpt lat="49.96545" lon="2.44598">
        <ele>45.917</ele>
        <time>2020-08-23T06:38:39Z</time>
      </trkpt>
      <trkpt lat="49.96542" lon="2.44608">
        <ele>45.748</ele>
        <time>2020-08-23T06:38:42Z</time>
      </trkpt>
      <trkpt lat="49.96542" lon="2.44617">
        <ele>45.661</ele>
        <time>2020-08-23T06:38:46Z</time>
      </trkpt>
      <trkpt lat="49.96542" lon="2.44625">
        <ele>45.417</ele>
        <time>2020-08-23T06:38:51Z</time>
      </trkpt>
      <trkpt lat="49.96541" lon="2.44633">
        <ele>45.208</ele>
        <time>2020-08-23T06:38:55Z</time>
      </trkpt>
      <trkpt lat="49.96541" lon="2.44641">
        <ele>45.139</ele>
        <time>2020-08-23T06:38:58Z</time>
      </trkpt>
      <trkpt lat="49.9654" lon="2.44648">
        <ele>44.999</ele>
        <time>2020-08-23T06:39:01Z</time>
      </trkpt>
      <trkpt lat="49.96541" lon="2.44655">
        <ele>44.817</ele>
        <time>2020-08-23T06:39:04Z</time>
      </trkpt>
      <trkpt lat="49.96542" lon="2.44664">
        <ele>44.785</ele>
        <time>2020-08-23T06:39:08Z</time>
      </trkpt>
      <trkpt lat="49.96543" lon="2.44672">
        <ele>44.655</ele>
        <time>2020-08-23T06:39:13Z</time>
      </trkpt>
      <trkpt lat="49.96545" lon="2.44679">
        <ele>44.77</ele>
        <time>2020-08-23T06:39:18Z</time>
      </trkpt>
      <trkpt lat="49.96546" lon="2.44687">
        <ele>44.771</ele>
        <time>2020-08-23T06:39:22Z</time>
      </trkpt>
      <trkpt lat="49.96547" lon="2.44695">
        <ele>44.786</ele>
        <time>2020-08-23T06:39:26Z</time>
      </trkpt>
      <trkpt lat="49.96549" lon="2.44702">
        <ele>44.757</ele>
        <time>2020-08-23T06:39:31Z</time>
      </trkpt>
      <trkpt lat="49.96548" lon="2.44709">
        <ele>44.7</ele>
        <time>2020-08-23T06:39:35Z</time>
      </trkpt>
      <trkpt lat="49.96548" lon="2.44719">
        <ele>44.72</ele>
        <time>2020-08-23T06:39:39Z</time>
      </trkpt>
      <trkpt lat="49.96547" lon="2.44727">
        <ele>44.708</ele>
        <time>2020-08-23T06:39:42Z</time>
      </trkpt>
      <trkpt lat="49.96548" lon="2.44735">
        <ele>44.72</ele>
        <time>2020-08-23T06:39:46Z</time>
      </trkpt>
      <trkpt lat="49.96547" lon="2.44743">
        <ele>44.78</ele>
        <time>2020-08-23T06:39:51Z</time>
      </trkpt>
      <trkpt lat="49.96548" lon="2.44751">
        <ele>44.858</ele>
        <time>2020-08-23T06:39:56Z</time>
      </trkpt>
      <trkpt lat="49.96545" lon="2.4476">
        <ele>44.856</ele>
        <time>2020-08-23T06:40:00Z</time>
      </trkpt>
      <trkpt lat="49.96547" lon="2.44767">
        <ele>44.866</ele>
        <time>2020-08-23T06:40:04Z</time>
      </trkpt>
      <trkpt lat="49.96546" lon="2.44776">
        <ele>44.731</ele>
        <time>2020-08-23T06:40:09Z</time>
      </trkpt>
      <trkpt lat="49.96548" lon="2.44785">
        <ele>44.692</ele>
        <time>2020-08-23T06:40:13Z</time>
      </trkpt>
      <trkpt lat="49.96549" lon="2.44793">
        <ele>44.677</ele>
        <time>2020-08-23T06:40:17Z</time>
      </trkpt>
      <trkpt lat="49.96548" lon="2.44803">
        <ele>44.529</ele>
        <time>2020-08-23T06:40:20Z</time>
      </trkpt>
      <trkpt lat="49.96547" lon="2.44811">
        <ele>44.5</ele>
        <time>2020-08-23T06:40:24Z</time>
      </trkpt>
      <trkpt lat="49.9655" lon="2.44818">
        <ele>44.42</ele>
        <time>2020-08-23T06:40:28Z</time>
      </trkpt>
      <trkpt lat="49.96551" lon="2.44828">
        <ele>44.408</ele>
        <time>2020-08-23T06:40:33Z</time>
      </trkpt>
      <trkpt lat="49.96551" lon="2.44836">
        <ele>44.557</ele>
        <time>2020-08-23T06:40:36Z</time>
      </trkpt>
      <trkpt lat="49.96552" lon="2.44844">
        <ele>44.437</ele>
        <time>2020-08-23T06:40:39Z</time>
      </trkpt>
      <trkpt lat="49.96553" lon="2.44851">
        <ele>44.425</ele>
        <time>2020-08-23T06:40:42Z</time>
      </trkpt>
      <trkpt lat="49.96555" lon="2.4486">
        <ele>44.453</ele>
        <time>2020-08-23T06:40:46Z</time>
      </trkpt>
      <trkpt lat="49.96554" lon="2.44869">
        <ele>44.473</ele>
        <time>2020-08-23T06:40:50Z</time>
      </trkpt>
      <trkpt lat="49.96552" lon="2.44875">
        <ele>44.568</ele>
        <time>2020-08-23T06:40:53Z</time>
      </trkpt>
      <trkpt lat="49.9655" lon="2.44883">
        <ele>44.599</ele>
        <time>2020-08-23T06:40:56Z</time>
      </trkpt>
      <trkpt lat="49.96548" lon="2.4489">
        <ele>44.554</ele>
        <time>2020-08-23T06:40:59Z</time>
      </trkpt>
      <trkpt lat="49.96547" lon="2.44899">
        <ele>44.593</ele>
        <time>2020-08-23T06:41:03Z</time>
      </trkpt>
      <trkpt lat="49.96545" lon="2.44905">
        <ele>44.565</ele>
        <time>2020-08-23T06:41:06Z</time>
      </trkpt>
      <trkpt lat="49.96544" lon="2.44912">
        <ele>44.421</ele>
        <time>2020-08-23T06:41:09Z</time>
      </trkpt>
      <trkpt lat="49.96542" lon="2.4492">
        <ele>44.408</ele>
        <time>2020-08-23T06:41:12Z</time>
      </trkpt>
      <trkpt lat="49.96542" lon="2.44928">
        <ele>44.544</ele>
        <time>2020-08-23T06:41:15Z</time>
      </trkpt>
      <trkpt lat="49.96541" lon="2.44935">
        <ele>44.774</ele>
        <time>2020-08-23T06:41:19Z</time>
      </trkpt>
      <trkpt lat="49.96543" lon="2.44943">
        <ele>44.912</ele>
        <time>2020-08-23T06:41:22Z</time>
      </trkpt>
      <trkpt lat="49.96546" lon="2.44948">
        <ele>45.28</ele>
        <time>2020-08-23T06:41:26Z</time>
      </trkpt>
      <trkpt lat="49.96549" lon="2.44955">
        <ele>45.63</ele>
        <time>2020-08-23T06:41:31Z</time>
      </trkpt>
      <trkpt lat="49.96554" lon="2.44958">
        <ele>46.045</ele>
        <time>2020-08-23T06:41:36Z</time>
      </trkpt>
      <trkpt lat="49.96559" lon="2.4496">
        <ele>46.446</ele>
        <time>2020-08-23T06:41:40Z</time>
      </trkpt>
      <trkpt lat="49.96564" lon="2.44963">
        <ele>46.641</ele>
        <time>2020-08-23T06:41:44Z</time>
      </trkpt>
      <trkpt lat="49.96569" lon="2.44963">
        <ele>46.931</ele>
        <time>2020-08-23T06:41:49Z</time>
      </trkpt>
      <trkpt lat="49.96574" lon="2.44965">
        <ele>47.161</ele>
        <time>2020-08-23T06:41:53Z</time>
      </trkpt>
      <trkpt lat="49.96578" lon="2.44964">
        <ele>47.307</ele>
        <time>2020-08-23T06:41:56Z</time>
      </trkpt>
      <trkpt lat="49.96583" lon="2.44964">
        <ele>47.608</ele>
        <time>2020-08-23T06:42:00Z</time>
      </trkpt>
      <trkpt lat="49.96588" lon="2.44963">
        <ele>47.948</ele>
        <time>2020-08-23T06:42:04Z</time>
      </trkpt>
      <trkpt lat="49.96593" lon="2.44962">
        <ele>48.388</ele>
        <time>2020-08-23T06:42:09Z</time>
      </trkpt>
      <trkpt lat="49.96598" lon="2.44962">
        <ele>48.696</ele>
        <time>2020-08-23T06:42:12Z</time>
      </trkpt>
      <trkpt lat="49.96603" lon="2.44964">
        <ele>48.874</ele>
        <time>2020-08-23T06:42:15Z</time>
      </trkpt>
      <trkpt lat="49.96608" lon="2.44964">
        <ele>49.294</ele>
        <time>2020-08-23T06:42:20Z</time>
      </trkpt>
      <trkpt lat="49.96613" lon="2.44963">
        <ele>49.429</ele>
        <time>2020-08-23T06:42:24Z</time>
      </trkpt>
      <trkpt lat="49.96618" lon="2.44966">
        <ele>49.84</ele>
        <time>2020-08-23T06:42:30Z</time>
      </trkpt>
      <trkpt lat="49.96623" lon="2.44966">
        <ele>50.045</ele>
        <time>2020-08-23T06:42:34Z</time>
      </trkpt>
      <trkpt lat="49.96628" lon="2.44964">
        <ele>50.428</ele>
        <time>2020-08-23T06:42:38Z</time>
      </trkpt>
      <trkpt lat="49.96633" lon="2.44963">
        <ele>50.689</ele>
        <time>2020-08-23T06:42:42Z</time>
      </trkpt>
      <trkpt lat="49.96638" lon="2.44963">
        <ele>50.817</ele>
        <time>2020-08-23T06:42:45Z</time>
      </trkpt>
      <trkpt lat="49.96643" lon="2.44963">
        <ele>51.108</ele>
        <time>2020-08-23T06:42:48Z</time>
      </trkpt>
      <trkpt lat="49.96648" lon="2.44964">
        <ele>51.447</ele>
        <time>2020-08-23T06:42:52Z</time>
      </trkpt>
      <trkpt lat="49.96653" lon="2.44963">
        <ele>51.647</ele>
        <time>2020-08-23T06:42:55Z</time>
      </trkpt>
      <trkpt lat="49.96658" lon="2.44963">
        <ele>51.835</ele>
        <time>2020-08-23T06:42:59Z</time>
      </trkpt>
      <trkpt lat="49.96663" lon="2.44965">
        <ele>51.993</ele>
        <time>2020-08-23T06:43:02Z</time>
      </trkpt>
      <trkpt lat="49.96668" lon="2.44965">
        <ele>52.213</ele>
        <time>2020-08-23T06:43:06Z</time>
      </trkpt>
      <trkpt lat="49.96674" lon="2.44965">
        <ele>52.338</ele>
        <time>2020-08-23T06:43:10Z</time>
      </trkpt>
      <trkpt lat="49.96679" lon="2.44965">
        <ele>52.339</ele>
        <time>2020-08-23T06:43:14Z</time>
      </trkpt>
      <trkpt lat="49.96685" lon="2.44964">
        <ele>52.344</ele>
        <time>2020-08-23T06:43:19Z</time>
      </trkpt>
      <trkpt lat="49.9669" lon="2.44964">
        <ele>52.391</ele>
        <time>2020-08-23T06:43:22Z</time>
      </trkpt>
      <trkpt lat="49.96695" lon="2.44965">
        <ele>52.381</ele>
        <time>2020-08-23T06:43:26Z</time>
      </trkpt>
      <trkpt lat="49.967" lon="2.44968">
        <ele>52.119</ele>
        <time>2020-08-23T06:43:32Z</time>
      </trkpt>
      <trkpt lat="49.96706" lon="2.44969">
        <ele>52.208</ele>
        <time>2020-08-23T06:43:36Z</time>
      </trkpt>
      <trkpt lat="49.96711" lon="2.44967">
        <ele>52.134</ele>
        <time>2020-08-23T06:43:39Z</time>
      </trkpt>
      <trkpt lat="49.96716" lon="2.44968">
        <ele>52.134</ele>
        <time>2020-08-23T06:43:42Z</time>
      </trkpt>
      <trkpt lat="49.9672" lon="2.44967">
        <ele>52.272</ele>
        <time>2020-08-23T06:43:46Z</time>
      </trkpt>
      <trkpt lat="49.96726" lon="2.44967">
        <ele>52.29</ele>
        <time>2020-08-23T06:43:50Z</time>
      </trkpt>
      <trkpt lat="49.9673" lon="2.44966">
        <ele>52.24</ele>
        <time>2020-08-23T06:43:53Z</time>
      </trkpt>
      <trkpt lat="49.96735" lon="2.44968">
        <ele>52.165</ele>
        <time>2020-08-23T06:43:58Z</time>
      </trkpt>
      <trkpt lat="49.9674" lon="2.44969">
        <ele>52.136</ele>
        <time>2020-08-23T06:44:02Z</time>
      </trkpt>
      <trkpt lat="49.96745" lon="2.44969">
        <ele>52.141</ele>
        <time>2020-08-23T06:44:05Z</time>
      </trkpt>
      <trkpt lat="49.9675" lon="2.44968">
        <ele>52.175</ele>
        <time>2020-08-23T06:44:09Z</time>
      </trkpt>
      <trkpt lat="49.96755" lon="2.44967">
        <ele>52.128</ele>
        <time>2020-08-23T06:44:13Z</time>
      </trkpt>
      <trkpt lat="49.96761" lon="2.44968">
        <ele>52.22</ele>
        <time>2020-08-23T06:44:17Z</time>
      </trkpt>
      <trkpt lat="49.96766" lon="2.44968">
        <ele>52.208</ele>
        <time>2020-08-23T06:44:21Z</time>
      </trkpt>
      <trkpt lat="49.9677" lon="2.44969">
        <ele>52.342</ele>
        <time>2020-08-23T06:44:25Z</time>
      </trkpt>
      <trkpt lat="49.96776" lon="2.44969">
        <ele>52.332</ele>
        <time>2020-08-23T06:44:29Z</time>
      </trkpt>
      <trkpt lat="49.96782" lon="2.44969">
        <ele>52.22</ele>
        <time>2020-08-23T06:44:33Z</time>
      </trkpt>
      <trkpt lat="49.96786" lon="2.4497">
        <ele>52.148</ele>
        <time>2020-08-23T06:44:37Z</time>
      </trkpt>
      <trkpt lat="49.96792" lon="2.4497">
        <ele>52.168</ele>
        <time>2020-08-23T06:44:41Z</time>
      </trkpt>
      <trkpt lat="49.96797" lon="2.44971">
        <ele>52.143</ele>
        <time>2020-08-23T06:44:45Z</time>
      </trkpt>
      <trkpt lat="49.96803" lon="2.44972">
        <ele>52.294</ele>
        <time>2020-08-23T06:44:49Z</time>
      </trkpt>
      <trkpt lat="49.96809" lon="2.44973">
        <ele>52.219</ele>
        <time>2020-08-23T06:44:53Z</time>
      </trkpt>
      <trkpt lat="49.96814" lon="2.44973">
        <ele>52.288</ele>
        <time>2020-08-23T06:44:57Z</time>
      </trkpt>
      <trkpt lat="49.96819" lon="2.44974">
        <ele>52.224</ele>
        <time>2020-08-23T06:45:01Z</time>
      </trkpt>
      <trkpt lat="49.96824" lon="2.44977">
        <ele>52.226</ele>
        <time>2020-08-23T06:45:05Z</time>
      </trkpt>
      <trkpt lat="49.96829" lon="2.44979">
        <ele>52.208</ele>
        <time>2020-08-23T06:45:08Z</time>
      </trkpt>
      <trkpt lat="49.96834" lon="2.4498">
        <ele>52.273</ele>
        <time>2020-08-23T06:45:12Z</time>
      </trkpt>
      <trkpt lat="49.96839" lon="2.44981">
        <ele>52.073</ele>
        <time>2020-08-23T06:45:16Z</time>
      </trkpt>
      <trkpt lat="49.96844" lon="2.44984">
        <ele>51.971</ele>
        <time>2020-08-23T06:45:20Z</time>
      </trkpt>
      <trkpt lat="49.96848" lon="2.44986">
        <ele>51.939</ele>
        <time>2020-08-23T06:45:24Z</time>
      </trkpt>
      <trkpt lat="49.96853" lon="2.44988">
        <ele>51.959</ele>
        <time>2020-08-23T06:45:27Z</time>
      </trkpt>
      <trkpt lat="49.96858" lon="2.4499">
        <ele>51.954</ele>
        <time>2020-08-23T06:45:31Z</time>
      </trkpt>
      <trkpt lat="49.96863" lon="2.44993">
        <ele>51.985</ele>
        <time>2020-08-23T06:45:37Z</time>
      </trkpt>
      <trkpt lat="49.96868" lon="2.44996">
        <ele>51.93</ele>
        <time>2020-08-23T06:45:41Z</time>
      </trkpt>
      <trkpt lat="49.96874" lon="2.44997">
        <ele>52.127</ele>
        <time>2020-08-23T06:45:45Z</time>
      </trkpt>
      <trkpt lat="49.96879" lon="2.45">
        <ele>52.168</ele>
        <time>2020-08-23T06:45:48Z</time>
      </trkpt>
      <trkpt lat="49.96885" lon="2.45003">
        <ele>52.014</ele>
        <time>2020-08-23T06:45:52Z</time>
      </trkpt>
      <trkpt lat="49.9689" lon="2.45006">
        <ele>52.108</ele>
        <time>2020-08-23T06:45:56Z</time>
      </trkpt>
      <trkpt lat="49.96895" lon="2.45009">
        <ele>52.027</ele>
        <time>2020-08-23T06:46:00Z</time>
      </trkpt>
      <trkpt lat="49.969" lon="2.45012">
        <ele>51.997</ele>
        <time>2020-08-23T06:46:04Z</time>
      </trkpt>
      <trkpt lat="49.96907" lon="2.45015">
        <ele>52.025</ele>
        <time>2020-08-23T06:46:08Z</time>
      </trkpt>
      <trkpt lat="49.96911" lon="2.45016">
        <ele>52.053</ele>
        <time>2020-08-23T06:46:12Z</time>
      </trkpt>
      <trkpt lat="49.96917" lon="2.45019">
        <ele>52.053</ele>
        <time>2020-08-23T06:46:15Z</time>
      </trkpt>
      <trkpt lat="49.96921" lon="2.45021">
        <ele>52.038</ele>
        <time>2020-08-23T06:46:18Z</time>
      </trkpt>
      <trkpt lat="49.96926" lon="2.45024">
        <ele>52.149</ele>
        <time>2020-08-23T06:46:22Z</time>
      </trkpt>
      <trkpt lat="49.96931" lon="2.45026">
        <ele>52.274</ele>
        <time>2020-08-23T06:46:26Z</time>
      </trkpt>
      <trkpt lat="49.96935" lon="2.45031">
        <ele>52.184</ele>
        <time>2020-08-23T06:46:29Z</time>
      </trkpt>
      <trkpt lat="49.96938" lon="2.45035">
        <ele>51.807</ele>
        <time>2020-08-23T06:46:34Z</time>
      </trkpt>
      <trkpt lat="49.96943" lon="2.4504">
        <ele>51.817</ele>
        <time>2020-08-23T06:46:38Z</time>
      </trkpt>
      <trkpt lat="49.96947" lon="2.45042">
        <ele>51.608</ele>
        <time>2020-08-23T06:46:42Z</time>
      </trkpt>
      <trkpt lat="49.96951" lon="2.45043">
        <ele>51.513</ele>
        <time>2020-08-23T06:46:45Z</time>
      </trkpt>
      <trkpt lat="49.96956" lon="2.45046">
        <ele>51.383</ele>
        <time>2020-08-23T06:46:48Z</time>
      </trkpt>
      <trkpt lat="49.96961" lon="2.45048">
        <ele>51.141</ele>
        <time>2020-08-23T06:46:51Z</time>
      </trkpt>
      <trkpt lat="49.96966" lon="2.45052">
        <ele>50.869</ele>
        <time>2020-08-23T06:46:55Z</time>
      </trkpt>
      <trkpt lat="49.96971" lon="2.45054">
        <ele>50.419</ele>
        <time>2020-08-23T06:46:59Z</time>
      </trkpt>
      <trkpt lat="49.96976" lon="2.45057">
        <ele>49.944</ele>
        <time>2020-08-23T06:47:04Z</time>
      </trkpt>
      <trkpt lat="49.96981" lon="2.45059">
        <ele>49.425</ele>
        <time>2020-08-23T06:47:08Z</time>
      </trkpt>
      <trkpt lat="49.96986" lon="2.45062">
        <ele>48.84</ele>
        <time>2020-08-23T06:47:12Z</time>
      </trkpt>
      <trkpt lat="49.96991" lon="2.45066">
        <ele>48.481</ele>
        <time>2020-08-23T06:47:16Z</time>
      </trkpt>
      <trkpt lat="49.96996" lon="2.45068">
        <ele>48.061</ele>
        <time>2020-08-23T06:47:20Z</time>
      </trkpt>
      <trkpt lat="49.97001" lon="2.45071">
        <ele>47.517</ele>
        <time>2020-08-23T06:47:26Z</time>
      </trkpt>
      <trkpt lat="49.97006" lon="2.45073">
        <ele>47.508</ele>
        <time>2020-08-23T06:47:29Z</time>
      </trkpt>
      <trkpt lat="49.97011" lon="2.45075">
        <ele>47.593</ele>
        <time>2020-08-23T06:47:33Z</time>
      </trkpt>
      <trkpt lat="49.97016" lon="2.45077">
        <ele>47.463</ele>
        <time>2020-08-23T06:47:36Z</time>
      </trkpt>
      <trkpt lat="49.97021" lon="2.4508">
        <ele>47.461</ele>
        <time>2020-08-23T06:47:40Z</time>
      </trkpt>
      <trkpt lat="49.97026" lon="2.45082">
        <ele>47.489</ele>
        <time>2020-08-23T06:47:44Z</time>
      </trkpt>
      <trkpt lat="49.97031" lon="2.45084">
        <ele>47.549</ele>
        <time>2020-08-23T06:47:48Z</time>
      </trkpt>
      <trkpt lat="49.97036" lon="2.45088">
        <ele>47.584</ele>
        <time>2020-08-23T06:47:51Z</time>
      </trkpt>
      <trkpt lat="49.9704" lon="2.45091">
        <ele>47.685</ele>
        <time>2020-08-23T06:47:56Z</time>
      </trkpt>
      <trkpt lat="49.97045" lon="2.45094">
        <ele>47.65</ele>
        <time>2020-08-23T06:48:00Z</time>
      </trkpt>
      <trkpt lat="49.9705" lon="2.45096">
        <ele>47.548</ele>
        <time>2020-08-23T06:48:04Z</time>
      </trkpt>
      <trkpt lat="49.97055" lon="2.45097">
        <ele>47.361</ele>
        <time>2020-08-23T06:48:09Z</time>
      </trkpt>
      <trkpt lat="49.9706" lon="2.451">
        <ele>47.317</ele>
        <time>2020-08-23T06:48:13Z</time>
      </trkpt>
      <trkpt lat="49.97065" lon="2.451">
        <ele>47.308</ele>
        <time>2020-08-23T06:48:16Z</time>
      </trkpt>
      <trkpt lat="49.9707" lon="2.45104">
        <ele>47.229</ele>
        <time>2020-08-23T06:48:20Z</time>
      </trkpt>
      <trkpt lat="49.97074" lon="2.45107">
        <ele>47.239</ele>
        <time>2020-08-23T06:48:25Z</time>
      </trkpt>
      <trkpt lat="49.97079" lon="2.4511">
        <ele>47.247</ele>
        <time>2020-08-23T06:48:29Z</time>
      </trkpt>
      <trkpt lat="49.97084" lon="2.45109">
        <ele>47.365</ele>
        <time>2020-08-23T06:48:33Z</time>
      </trkpt>
      <trkpt lat="49.9709" lon="2.45108">
        <ele>47.475</ele>
        <time>2020-08-23T06:48:37Z</time>
      </trkpt>
      <trkpt lat="49.97095" lon="2.45107">
        <ele>47.58</ele>
        <time>2020-08-23T06:48:40Z</time>
      </trkpt>
      <trkpt lat="49.971" lon="2.45104">
        <ele>47.521</ele>
        <time>2020-08-23T06:48:45Z</time>
      </trkpt>
      <trkpt lat="49.97104" lon="2.451">
        <ele>47.566</ele>
        <time>2020-08-23T06:48:48Z</time>
      </trkpt>
      <trkpt lat="49.97109" lon="2.45098">
        <ele>47.564</ele>
        <time>2020-08-23T06:48:52Z</time>
      </trkpt>
      <trkpt lat="49.97114" lon="2.45099">
        <ele>47.706</ele>
        <time>2020-08-23T06:48:58Z</time>
      </trkpt>
      <trkpt lat="49.97118" lon="2.45099">
        <ele>47.616</ele>
        <time>2020-08-23T06:49:02Z</time>
      </trkpt>
      <trkpt lat="49.97123" lon="2.45097">
        <ele>47.608</ele>
        <time>2020-08-23T06:49:05Z</time>
      </trkpt>
      <trkpt lat="49.97128" lon="2.45094">
        <ele>47.431</ele>
        <time>2020-08-23T06:49:11Z</time>
      </trkpt>
      <trkpt lat="49.97132" lon="2.45091">
        <ele>47.371</ele>
        <time>2020-08-23T06:49:17Z</time>
      </trkpt>
      <trkpt lat="49.97136" lon="2.45086">
        <ele>47.019</ele>
        <time>2020-08-23T06:49:24Z</time>
      </trkpt>
      <trkpt lat="49.97141" lon="2.45082">
        <ele>46.987</ele>
        <time>2020-08-23T06:49:29Z</time>
      </trkpt>
      <trkpt lat="49.97146" lon="2.45077">
        <ele>47.087</ele>
        <time>2020-08-23T06:49:33Z</time>
      </trkpt>
      <trkpt lat="49.97151" lon="2.45072">
        <ele>47.052</ele>
        <time>2020-08-23T06:49:38Z</time>
      </trkpt>
      <trkpt lat="49.97156" lon="2.45071">
        <ele>47.023</ele>
        <time>2020-08-23T06:49:41Z</time>
      </trkpt>
      <trkpt lat="49.9716" lon="2.45068">
        <ele>47.158</ele>
        <time>2020-08-23T06:49:45Z</time>
      </trkpt>
      <trkpt lat="49.97166" lon="2.45069">
        <ele>47.149</ele>
        <time>2020-08-23T06:49:49Z</time>
      </trkpt>
      <trkpt lat="49.97172" lon="2.4507">
        <ele>47.102</ele>
        <time>2020-08-23T06:49:52Z</time>
      </trkpt>
      <trkpt lat="49.97177" lon="2.45068">
        <ele>47.222</ele>
        <time>2020-08-23T06:49:55Z</time>
      </trkpt>
      <trkpt lat="49.97182" lon="2.45066">
        <ele>47.308</ele>
        <time>2020-08-23T06:49:58Z</time>
      </trkpt>
      <trkpt lat="49.97187" lon="2.45067">
        <ele>47.289</ele>
        <time>2020-08-23T06:50:01Z</time>
      </trkpt>
      <trkpt lat="49.97191" lon="2.45064">
        <ele>47.029</ele>
        <time>2020-08-23T06:50:04Z</time>
      </trkpt>
      <trkpt lat="49.97196" lon="2.45062">
        <ele>46.817</ele>
        <time>2020-08-23T06:50:07Z</time>
      </trkpt>
      <trkpt lat="49.97201" lon="2.45059">
        <ele>46.815</ele>
        <time>2020-08-23T06:50:11Z</time>
      </trkpt>
      <trkpt lat="49.97205" lon="2.45059">
        <ele>46.825</ele>
        <time>2020-08-23T06:50:14Z</time>
      </trkpt>
      <trkpt lat="49.97211" lon="2.45056">
        <ele>46.83</ele>
        <time>2020-08-23T06:50:18Z</time>
      </trkpt>
      <trkpt lat="49.97215" lon="2.45055">
        <ele>46.851</ele>
        <time>2020-08-23T06:50:23Z</time>
      </trkpt>
      <trkpt lat="49.9722" lon="2.45054">
        <ele>46.766</ele>
        <time>2020-08-23T06:50:27Z</time>
      </trkpt>
      <trkpt lat="49.97225" lon="2.45052">
        <ele>46.588</ele>
        <time>2020-08-23T06:50:31Z</time>
      </trkpt>
      <trkpt lat="49.97229" lon="2.45049">
        <ele>46.524</ele>
        <time>2020-08-23T06:50:35Z</time>
      </trkpt>
      <trkpt lat="49.97233" lon="2.45046">
        <ele>46.626</ele>
        <time>2020-08-23T06:50:39Z</time>
      </trkpt>
      <trkpt lat="49.97239" lon="2.45044">
        <ele>46.708</ele>
        <time>2020-08-23T06:50:43Z</time>
      </trkpt>
      <trkpt lat="49.97243" lon="2.4504">
        <ele>46.993</ele>
        <time>2020-08-23T06:50:47Z</time>
      </trkpt>
      <trkpt lat="49.97248" lon="2.4504">
        <ele>46.973</ele>
        <time>2020-08-23T06:50:51Z</time>
      </trkpt>
      <trkpt lat="49.97253" lon="2.45039">
        <ele>46.821</ele>
        <time>2020-08-23T06:50:55Z</time>
      </trkpt>
      <trkpt lat="49.97259" lon="2.4504">
        <ele>46.859</ele>
        <time>2020-08-23T06:50:59Z</time>
      </trkpt>
      <trkpt lat="49.97264" lon="2.45038">
        <ele>47.059</ele>
        <time>2020-08-23T06:51:02Z</time>
      </trkpt>
      <trkpt lat="49.97268" lon="2.45037">
        <ele>47.024</ele>
        <time>2020-08-23T06:51:06Z</time>
      </trkpt>
      <trkpt lat="49.97273" lon="2.45036">
        <ele>47.055</ele>
        <time>2020-08-23T06:51:10Z</time>
      </trkpt>
      <trkpt lat="49.97278" lon="2.45037">
        <ele>47.15</ele>
        <time>2020-08-23T06:51:13Z</time>
      </trkpt>
      <trkpt lat="49.97283" lon="2.45035">
        <ele>47.096</ele>
        <time>2020-08-23T06:51:16Z</time>
      </trkpt>
      <trkpt lat="49.97287" lon="2.45035">
        <ele>47.031</ele>
        <time>2020-08-23T06:51:19Z</time>
      </trkpt>
      <trkpt lat="49.97292" lon="2.45036">
        <ele>47.124</ele>
        <time>2020-08-23T06:51:22Z</time>
      </trkpt>
      <trkpt lat="49.97298" lon="2.45037">
        <ele>47.108</ele>
        <time>2020-08-23T06:51:25Z</time>
      </trkpt>
      <trkpt lat="49.97304" lon="2.45037">
        <ele>47.234</ele>
        <time>2020-08-23T06:51:29Z</time>
      </trkpt>
      <trkpt lat="49.97308" lon="2.45036">
        <ele>47.274</ele>
        <time>2020-08-23T06:51:32Z</time>
      </trkpt>
      <trkpt lat="49.97314" lon="2.45036">
        <ele>47.222</ele>
        <time>2020-08-23T06:51:37Z</time>
      </trkpt>
      <trkpt lat="49.9732" lon="2.45036">
        <ele>47.26</ele>
        <time>2020-08-23T06:51:41Z</time>
      </trkpt>
      <trkpt lat="49.97324" lon="2.45036">
        <ele>47.38</ele>
        <time>2020-08-23T06:51:45Z</time>
      </trkpt>
      <trkpt lat="49.97329" lon="2.45036">
        <ele>47.375</ele>
        <time>2020-08-23T06:51:48Z</time>
      </trkpt>
      <trkpt lat="49.97334" lon="2.45036">
        <ele>47.356</ele>
        <time>2020-08-23T06:51:51Z</time>
      </trkpt>
      <trkpt lat="49.9734" lon="2.45036">
        <ele>47.441</ele>
        <time>2020-08-23T06:51:56Z</time>
      </trkpt>
      <trkpt lat="49.97345" lon="2.45036">
        <ele>47.543</ele>
        <time>2020-08-23T06:51:59Z</time>
      </trkpt>
      <trkpt lat="49.9735" lon="2.45037">
        <ele>47.664</ele>
        <time>2020-08-23T06:52:03Z</time>
      </trkpt>
      <trkpt lat="49.97356" lon="2.45037">
        <ele>47.61</ele>
        <time>2020-08-23T06:52:07Z</time>
      </trkpt>
      <trkpt lat="49.97362" lon="2.45037">
        <ele>47.608</ele>
        <time>2020-08-23T06:52:10Z</time>
      </trkpt>
      <trkpt lat="49.97367" lon="2.45035">
        <ele>47.749</ele>
        <time>2020-08-23T06:52:14Z</time>
      </trkpt>
      <trkpt lat="49.97372" lon="2.45034">
        <ele>47.689</ele>
        <time>2020-08-23T06:52:17Z</time>
      </trkpt>
      <trkpt lat="49.97378" lon="2.45032">
        <ele>47.657</ele>
        <time>2020-08-23T06:52:21Z</time>
      </trkpt>
      <trkpt lat="49.97384" lon="2.45032">
        <ele>47.795</ele>
        <time>2020-08-23T06:52:25Z</time>
      </trkpt>
      <trkpt lat="49.97389" lon="2.45031">
        <ele>47.995</ele>
        <time>2020-08-23T06:52:29Z</time>
      </trkpt>
      <trkpt lat="49.97395" lon="2.4503">
        <ele>47.97</ele>
        <time>2020-08-23T06:52:33Z</time>
      </trkpt>
      <trkpt lat="49.97399" lon="2.45029">
        <ele>48.071</ele>
        <time>2020-08-23T06:52:36Z</time>
      </trkpt>
      <trkpt lat="49.97404" lon="2.45026">
        <ele>48.066</ele>
        <time>2020-08-23T06:52:39Z</time>
      </trkpt>
      <trkpt lat="49.97409" lon="2.45024">
        <ele>48.053</ele>
        <time>2020-08-23T06:52:42Z</time>
      </trkpt>
      <trkpt lat="49.97414" lon="2.45023">
        <ele>48.104</ele>
        <time>2020-08-23T06:52:45Z</time>
      </trkpt>
      <trkpt lat="49.97419" lon="2.45022">
        <ele>48.214</ele>
        <time>2020-08-23T06:52:48Z</time>
      </trkpt>
      <trkpt lat="49.97425" lon="2.45022">
        <ele>48.208</ele>
        <time>2020-08-23T06:52:52Z</time>
      </trkpt>
      <trkpt lat="49.9743" lon="2.45021">
        <ele>48.57</ele>
        <time>2020-08-23T06:52:56Z</time>
      </trkpt>
      <trkpt lat="49.97435" lon="2.45019">
        <ele>48.78</ele>
        <time>2020-08-23T06:52:59Z</time>
      </trkpt>
      <trkpt lat="49.9744" lon="2.45017">
        <ele>48.948</ele>
        <time>2020-08-23T06:53:03Z</time>
      </trkpt>
      <trkpt lat="49.97444" lon="2.45014">
        <ele>49.166</ele>
        <time>2020-08-23T06:53:07Z</time>
      </trkpt>
      <trkpt lat="49.97449" lon="2.45011">
        <ele>49.346</ele>
        <time>2020-08-23T06:53:11Z</time>
      </trkpt>
      <trkpt lat="49.97454" lon="2.45011">
        <ele>49.431</ele>
        <time>2020-08-23T06:53:15Z</time>
      </trkpt>
      <trkpt lat="49.97459" lon="2.45009">
        <ele>49.632</ele>
        <time>2020-08-23T06:53:18Z</time>
      </trkpt>
      <trkpt lat="49.97463" lon="2.45008">
        <ele>49.767</ele>
        <time>2020-08-23T06:53:22Z</time>
      </trkpt>
      <trkpt lat="49.97468" lon="2.45004">
        <ele>49.873</ele>
        <time>2020-08-23T06:53:27Z</time>
      </trkpt>
      <trkpt lat="49.97473" lon="2.45002">
        <ele>49.985</ele>
        <time>2020-08-23T06:53:30Z</time>
      </trkpt>
      <trkpt lat="49.97478" lon="2.45">
        <ele>50.113</ele>
        <time>2020-08-23T06:53:35Z</time>
      </trkpt>
      <trkpt lat="49.97483" lon="2.44999">
        <ele>50.408</ele>
        <time>2020-08-23T06:53:40Z</time>
      </trkpt>
      <trkpt lat="49.97489" lon="2.44997">
        <ele>50.542</ele>
        <time>2020-08-23T06:53:47Z</time>
      </trkpt>
      <trkpt lat="49.97494" lon="2.44999">
        <ele>50.652</ele>
        <time>2020-08-23T06:53:51Z</time>
      </trkpt>
      <trkpt lat="49.97498" lon="2.45005">
        <ele>50.83</ele>
        <time>2020-08-23T06:53:57Z</time>
      </trkpt>
      <trkpt lat="49.975" lon="2.45012">
        <ele>50.758</ele>
        <time>2020-08-23T06:54:01Z</time>
      </trkpt>
      <trkpt lat="49.97504" lon="2.45018">
        <ele>50.838</ele>
        <time>2020-08-23T06:54:05Z</time>
      </trkpt>
      <trkpt lat="49.97505" lon="2.45025">
        <ele>50.823</ele>
        <time>2020-08-23T06:54:19Z</time>
      </trkpt>
      <trkpt lat="49.97507" lon="2.45033">
        <ele>50.734</ele>
        <time>2020-08-23T06:54:24Z</time>
      </trkpt>
      <trkpt lat="49.97509" lon="2.45041">
        <ele>50.759</ele>
        <time>2020-08-23T06:54:29Z</time>
      </trkpt>
      <trkpt lat="49.97511" lon="2.45048">
        <ele>50.775</ele>
        <time>2020-08-23T06:54:34Z</time>
      </trkpt>
      <trkpt lat="49.97514" lon="2.45055">
        <ele>50.728</ele>
        <time>2020-08-23T06:54:39Z</time>
      </trkpt>
      <trkpt lat="49.97517" lon="2.45061">
        <ele>50.72</ele>
        <time>2020-08-23T06:54:43Z</time>
      </trkpt>
      <trkpt lat="49.9752" lon="2.45067">
        <ele>50.908</ele>
        <time>2020-08-23T06:54:47Z</time>
      </trkpt>
      <trkpt lat="49.9752" lon="2.45075">
        <ele>51.252</ele>
        <time>2020-08-23T06:54:53Z</time>
      </trkpt>
      <trkpt lat="49.97518" lon="2.45082">
        <ele>51.492</ele>
        <time>2020-08-23T06:54:59Z</time>
      </trkpt>
      <trkpt lat="49.97518" lon="2.45091">
        <ele>51.55</ele>
        <time>2020-08-23T06:55:05Z</time>
      </trkpt>
      <trkpt lat="49.97517" lon="2.45099">
        <ele>51.558</ele>
        <time>2020-08-23T06:55:10Z</time>
      </trkpt>
      <trkpt lat="49.97515" lon="2.45107">
        <ele>51.448</ele>
        <time>2020-08-23T06:55:15Z</time>
      </trkpt>
      <trkpt lat="49.97513" lon="2.45115">
        <ele>51.563</ele>
        <time>2020-08-23T06:55:19Z</time>
      </trkpt>
      <trkpt lat="49.97511" lon="2.45122">
        <ele>51.574</ele>
        <time>2020-08-23T06:55:22Z</time>
      </trkpt>
      <trkpt lat="49.97509" lon="2.4513">
        <ele>51.569</ele>
        <time>2020-08-23T06:55:25Z</time>
      </trkpt>
      <trkpt lat="49.97507" lon="2.45138">
        <ele>51.563</ele>
        <time>2020-08-23T06:55:29Z</time>
      </trkpt>
      <trkpt lat="49.97507" lon="2.45145">
        <ele>51.544</ele>
        <time>2020-08-23T06:55:32Z</time>
      </trkpt>
      <trkpt lat="49.97506" lon="2.45152">
        <ele>51.518</ele>
        <time>2020-08-23T06:55:36Z</time>
      </trkpt>
      <trkpt lat="49.97503" lon="2.4516">
        <ele>51.608</ele>
        <time>2020-08-23T06:55:40Z</time>
      </trkpt>
      <trkpt lat="49.97502" lon="2.45168">
        <ele>51.631</ele>
        <time>2020-08-23T06:55:43Z</time>
      </trkpt>
      <trkpt lat="49.975" lon="2.45175">
        <ele>51.571</ele>
        <time>2020-08-23T06:55:48Z</time>
      </trkpt>
      <trkpt lat="49.97499" lon="2.45182">
        <ele>51.559</ele>
        <time>2020-08-23T06:55:52Z</time>
      </trkpt>
      <trkpt lat="49.97496" lon="2.45191">
        <ele>51.567</ele>
        <time>2020-08-23T06:55:56Z</time>
      </trkpt>
      <trkpt lat="49.97494" lon="2.45198">
        <ele>51.427</ele>
        <time>2020-08-23T06:56:00Z</time>
      </trkpt>
      <trkpt lat="49.97492" lon="2.45205">
        <ele>51.492</ele>
        <time>2020-08-23T06:56:03Z</time>
      </trkpt>
      <trkpt lat="49.97491" lon="2.45214">
        <ele>51.453</ele>
        <time>2020-08-23T06:56:07Z</time>
      </trkpt>
      <trkpt lat="49.9749" lon="2.45221">
        <ele>51.548</ele>
        <time>2020-08-23T06:56:11Z</time>
      </trkpt>
      <trkpt lat="49.9749" lon="2.45229">
        <ele>51.573</ele>
        <time>2020-08-23T06:56:14Z</time>
      </trkpt>
      <trkpt lat="49.97487" lon="2.45236">
        <ele>51.585</ele>
        <time>2020-08-23T06:56:17Z</time>
      </trkpt>
      <trkpt lat="49.97486" lon="2.45244">
        <ele>51.613</ele>
        <time>2020-08-23T06:56:22Z</time>
      </trkpt>
      <trkpt lat="49.97484" lon="2.45252">
        <ele>51.608</ele>
        <time>2020-08-23T06:56:25Z</time>
      </trkpt>
      <trkpt lat="49.97482" lon="2.45259">
        <ele>51.662</ele>
        <time>2020-08-23T06:56:29Z</time>
      </trkpt>
      <trkpt lat="49.97481" lon="2.45267">
        <ele>51.662</ele>
        <time>2020-08-23T06:56:34Z</time>
      </trkpt>
      <trkpt lat="49.9748" lon="2.45275">
        <ele>51.64</ele>
        <time>2020-08-23T06:56:38Z</time>
      </trkpt>
      <trkpt lat="49.97479" lon="2.45283">
        <ele>51.688</ele>
        <time>2020-08-23T06:56:42Z</time>
      </trkpt>
      <trkpt lat="49.9748" lon="2.4529">
        <ele>51.648</ele>
        <time>2020-08-23T06:56:46Z</time>
      </trkpt>
      <trkpt lat="49.97481" lon="2.45297">
        <ele>51.713</ele>
        <time>2020-08-23T06:56:50Z</time>
      </trkpt>
      <trkpt lat="49.97484" lon="2.45304">
        <ele>51.894</ele>
        <time>2020-08-23T06:56:55Z</time>
      </trkpt>
      <trkpt lat="49.97485" lon="2.45313">
        <ele>52.179</ele>
        <time>2020-08-23T06:57:01Z</time>
      </trkpt>
      <trkpt lat="49.97483" lon="2.45321">
        <ele>52.215</ele>
        <time>2020-08-23T06:57:05Z</time>
      </trkpt>
      <trkpt lat="49.97483" lon="2.45329">
        <ele>52.365</ele>
        <time>2020-08-23T06:57:09Z</time>
      </trkpt>
      <trkpt lat="49.97484" lon="2.45338">
        <ele>52.311</ele>
        <time>2020-08-23T06:57:14Z</time>
      </trkpt>
      <trkpt lat="49.97484" lon="2.45345">
        <ele>52.408</ele>
        <time>2020-08-23T06:57:19Z</time>
      </trkpt>
      <trkpt lat="49.97484" lon="2.45352">
        <ele>52.676</ele>
        <time>2020-08-23T06:57:23Z</time>
      </trkpt>
      <trkpt lat="49.97483" lon="2.45361">
        <ele>52.756</ele>
        <time>2020-08-23T06:57:28Z</time>
      </trkpt>
      <trkpt lat="49.97483" lon="2.45369">
        <ele>52.794</ele>
        <time>2020-08-23T06:57:32Z</time>
      </trkpt>
      <trkpt lat="49.97484" lon="2.45376">
        <ele>52.882</ele>
        <time>2020-08-23T06:57:38Z</time>
      </trkpt>
      <trkpt lat="49.97483" lon="2.45383">
        <ele>52.842</ele>
        <time>2020-08-23T06:57:42Z</time>
      </trkpt>
      <trkpt lat="49.97483" lon="2.45391">
        <ele>52.977</ele>
        <time>2020-08-23T06:57:46Z</time>
      </trkpt>
      <trkpt lat="49.97481" lon="2.45398">
        <ele>53.028</ele>
        <time>2020-08-23T06:57:50Z</time>
      </trkpt>
      <trkpt lat="49.9748" lon="2.45406">
        <ele>53.033</ele>
        <time>2020-08-23T06:57:53Z</time>
      </trkpt>
      <trkpt lat="49.97479" lon="2.45413">
        <ele>53.068</ele>
        <time>2020-08-23T06:57:57Z</time>
      </trkpt>
      <trkpt lat="49.97479" lon="2.4542">
        <ele>53.242</ele>
        <time>2020-08-23T06:58:01Z</time>
      </trkpt>
      <trkpt lat="49.97478" lon="2.45428">
        <ele>53.326</ele>
        <time>2020-08-23T06:58:05Z</time>
      </trkpt>
      <trkpt lat="49.97478" lon="2.45435">
        <ele>53.408</ele>
        <time>2020-08-23T06:58:09Z</time>
      </trkpt>
      <trkpt lat="49.97478" lon="2.45443">
        <ele>53.621</ele>
        <time>2020-08-23T06:58:13Z</time>
      </trkpt>
      <trkpt lat="49.97478" lon="2.4545">
        <ele>53.771</ele>
        <time>2020-08-23T06:58:16Z</time>
      </trkpt>
      <trkpt lat="49.97478" lon="2.45459">
        <ele>53.779</ele>
        <time>2020-08-23T06:58:20Z</time>
      </trkpt>
      <trkpt lat="49.97477" lon="2.45467">
        <ele>53.917</ele>
        <time>2020-08-23T06:58:24Z</time>
      </trkpt>
      <trkpt lat="49.97475" lon="2.45475">
        <ele>53.947</ele>
        <time>2020-08-23T06:58:27Z</time>
      </trkpt>
      <trkpt lat="49.97473" lon="2.45483">
        <ele>54.072</ele>
        <time>2020-08-23T06:58:31Z</time>
      </trkpt>
      <trkpt lat="49.97473" lon="2.45492">
        <ele>54.053</ele>
        <time>2020-08-23T06:58:34Z</time>
      </trkpt>
      <trkpt lat="49.97473" lon="2.45499">
        <ele>54.128</ele>
        <time>2020-08-23T06:58:39Z</time>
      </trkpt>
      <trkpt lat="49.97473" lon="2.45507">
        <ele>54.222</ele>
        <time>2020-08-23T06:58:44Z</time>
      </trkpt>
      <trkpt lat="49.97472" lon="2.45514">
        <ele>54.362</ele>
        <time>2020-08-23T06:58:48Z</time>
      </trkpt>
      <trkpt lat="49.9747" lon="2.45521">
        <ele>54.408</ele>
        <time>2020-08-23T06:58:52Z</time>
      </trkpt>
      <trkpt lat="49.97469" lon="2.45528">
        <ele>54.408</ele>
        <time>2020-08-23T06:58:57Z</time>
      </trkpt>
      <trkpt lat="49.97468" lon="2.45537">
        <ele>54.627</ele>
        <time>2020-08-23T06:59:02Z</time>
      </trkpt>
      <trkpt lat="49.97468" lon="2.45546">
        <ele>54.747</ele>
        <time>2020-08-23T06:59:05Z</time>
      </trkpt>
      <trkpt lat="49.97466" lon="2.45552">
        <ele>54.785</ele>
        <time>2020-08-23T06:59:08Z</time>
      </trkpt>
      <trkpt lat="49.97464" lon="2.45561">
        <ele>54.853</ele>
        <time>2020-08-23T06:59:12Z</time>
      </trkpt>
      <trkpt lat="49.97462" lon="2.45568">
        <ele>54.843</ele>
        <time>2020-08-23T06:59:16Z</time>
      </trkpt>
      <trkpt lat="49.97461" lon="2.45577">
        <ele>54.988</ele>
        <time>2020-08-23T06:59:20Z</time>
      </trkpt>
      <trkpt lat="49.97458" lon="2.45585">
        <ele>55.169</ele>
        <time>2020-08-23T06:59:24Z</time>
      </trkpt>
      <trkpt lat="49.97458" lon="2.45593">
        <ele>55.364</ele>
        <time>2020-08-23T06:59:28Z</time>
      </trkpt>
      <trkpt lat="49.97458" lon="2.45601">
        <ele>55.195</ele>
        <time>2020-08-23T06:59:32Z</time>
      </trkpt>
      <trkpt lat="49.97458" lon="2.45608">
        <ele>55.249</ele>
        <time>2020-08-23T06:59:35Z</time>
      </trkpt>
      <trkpt lat="49.97457" lon="2.45618">
        <ele>55.623</ele>
        <time>2020-08-23T06:59:40Z</time>
      </trkpt>
      <trkpt lat="49.97457" lon="2.45625">
        <ele>55.708</ele>
        <time>2020-08-23T06:59:43Z</time>
      </trkpt>
      <trkpt lat="49.97457" lon="2.45633">
        <ele>55.744</ele>
        <time>2020-08-23T06:59:47Z</time>
      </trkpt>
      <trkpt lat="49.97456" lon="2.45641">
        <ele>55.844</ele>
        <time>2020-08-23T06:59:51Z</time>
      </trkpt>
      <trkpt lat="49.97455" lon="2.45648">
        <ele>55.912</ele>
        <time>2020-08-23T06:59:54Z</time>
      </trkpt>
      <trkpt lat="49.97454" lon="2.45654">
        <ele>56.03</ele>
        <time>2020-08-23T06:59:57Z</time>
      </trkpt>
      <trkpt lat="49.97455" lon="2.45663">
        <ele>56.19</ele>
        <time>2020-08-23T07:00:01Z</time>
      </trkpt>
      <trkpt lat="49.97454" lon="2.45672">
        <ele>56.275</ele>
        <time>2020-08-23T07:00:05Z</time>
      </trkpt>
      <trkpt lat="49.97455" lon="2.45679">
        <ele>56.376</ele>
        <time>2020-08-23T07:00:09Z</time>
      </trkpt>
      <trkpt lat="49.97454" lon="2.45687">
        <ele>56.331</ele>
        <time>2020-08-23T07:00:13Z</time>
      </trkpt>
      <trkpt lat="49.97456" lon="2.45695">
        <ele>56.445</ele>
        <time>2020-08-23T07:00:17Z</time>
      </trkpt>
      <trkpt lat="49.97457" lon="2.45703">
        <ele>56.447</ele>
        <time>2020-08-23T07:00:21Z</time>
      </trkpt>
      <trkpt lat="49.97457" lon="2.45712">
        <ele>56.411</ele>
        <time>2020-08-23T07:00:26Z</time>
      </trkpt>
      <trkpt lat="49.97458" lon="2.45719">
        <ele>56.508</ele>
        <time>2020-08-23T07:00:29Z</time>
      </trkpt>
      <trkpt lat="49.97457" lon="2.45728">
        <ele>56.689</ele>
        <time>2020-08-23T07:00:34Z</time>
      </trkpt>
      <trkpt lat="49.97457" lon="2.45736">
        <ele>56.769</ele>
        <time>2020-08-23T07:00:38Z</time>
      </trkpt>
      <trkpt lat="49.97456" lon="2.45744">
        <ele>56.767</ele>
        <time>2020-08-23T07:00:41Z</time>
      </trkpt>
      <trkpt lat="49.97454" lon="2.45752">
        <ele>56.645</ele>
        <time>2020-08-23T07:00:44Z</time>
      </trkpt>
      <trkpt lat="49.97453" lon="2.4576">
        <ele>56.765</ele>
        <time>2020-08-23T07:00:52Z</time>
      </trkpt>
      <trkpt lat="49.97452" lon="2.45767">
        <ele>56.67</ele>
        <time>2020-08-23T07:00:55Z</time>
      </trkpt>
      <trkpt lat="49.9745" lon="2.45775">
        <ele>56.741</ele>
        <time>2020-08-23T07:00:58Z</time>
      </trkpt>
      <trkpt lat="49.97448" lon="2.45783">
        <ele>56.826</ele>
        <time>2020-08-23T07:01:02Z</time>
      </trkpt>
      <trkpt lat="49.97447" lon="2.45791">
        <ele>57.053</ele>
        <time>2020-08-23T07:01:07Z</time>
      </trkpt>
      <trkpt lat="49.97446" lon="2.45798">
        <ele>57.104</ele>
        <time>2020-08-23T07:01:11Z</time>
      </trkpt>
      <trkpt lat="49.97446" lon="2.45807">
        <ele>57.214</ele>
        <time>2020-08-23T07:01:15Z</time>
      </trkpt>
      <trkpt lat="49.97445" lon="2.45814">
        <ele>57.308</ele>
        <time>2020-08-23T07:01:19Z</time>
      </trkpt>
      <trkpt lat="49.97446" lon="2.45822">
        <ele>57.47</ele>
        <time>2020-08-23T07:01:23Z</time>
      </trkpt>
      <trkpt lat="49.97445" lon="2.4583">
        <ele>57.61</ele>
        <time>2020-08-23T07:01:27Z</time>
      </trkpt>
      <trkpt lat="49.97444" lon="2.45839">
        <ele>57.758</ele>
        <time>2020-08-23T07:01:32Z</time>
      </trkpt>
      <trkpt lat="49.97445" lon="2.45848">
        <ele>57.996</ele>
        <time>2020-08-23T07:01:36Z</time>
      </trkpt>
      <trkpt lat="49.97443" lon="2.45856">
        <ele>57.976</ele>
        <time>2020-08-23T07:01:40Z</time>
      </trkpt>
      <trkpt lat="49.97442" lon="2.45864">
        <ele>58.051</ele>
        <time>2020-08-23T07:01:44Z</time>
      </trkpt>
      <trkpt lat="49.97442" lon="2.45872">
        <ele>58.112</ele>
        <time>2020-08-23T07:01:48Z</time>
      </trkpt>
      <trkpt lat="49.97441" lon="2.45881">
        <ele>58.147</ele>
        <time>2020-08-23T07:01:52Z</time>
      </trkpt>
      <trkpt lat="49.97441" lon="2.45888">
        <ele>58.163</ele>
        <time>2020-08-23T07:01:56Z</time>
      </trkpt>
      <trkpt lat="49.9744" lon="2.45897">
        <ele>58.044</ele>
        <time>2020-08-23T07:02:00Z</time>
      </trkpt>
      <trkpt lat="49.9744" lon="2.45905">
        <ele>58.218</ele>
        <time>2020-08-23T07:02:04Z</time>
      </trkpt>
      <trkpt lat="49.9744" lon="2.45912">
        <ele>58.208</ele>
        <time>2020-08-23T07:02:07Z</time>
      </trkpt>
      <trkpt lat="49.9744" lon="2.4592">
        <ele>58.341</ele>
        <time>2020-08-23T07:02:11Z</time>
      </trkpt>
      <trkpt lat="49.97439" lon="2.45928">
        <ele>58.371</ele>
        <time>2020-08-23T07:02:15Z</time>
      </trkpt>
      <trkpt lat="49.97438" lon="2.45935">
        <ele>58.469</ele>
        <time>2020-08-23T07:02:18Z</time>
      </trkpt>
      <trkpt lat="49.97436" lon="2.45943">
        <ele>58.527</ele>
        <time>2020-08-23T07:02:23Z</time>
      </trkpt>
      <trkpt lat="49.97436" lon="2.45951">
        <ele>58.667</ele>
        <time>2020-08-23T07:02:27Z</time>
      </trkpt>
      <trkpt lat="49.97437" lon="2.45958">
        <ele>58.842</ele>
        <time>2020-08-23T07:02:30Z</time>
      </trkpt>
      <trkpt lat="49.97436" lon="2.45965">
        <ele>58.943</ele>
        <time>2020-08-23T07:02:34Z</time>
      </trkpt>
      <trkpt lat="49.97435" lon="2.45973">
        <ele>59.038</ele>
        <time>2020-08-23T07:02:38Z</time>
      </trkpt>
      <trkpt lat="49.97435" lon="2.4598">
        <ele>59.128</ele>
        <time>2020-08-23T07:02:42Z</time>
      </trkpt>
      <trkpt lat="49.97436" lon="2.45988">
        <ele>59.089</ele>
        <time>2020-08-23T07:02:46Z</time>
      </trkpt>
      <trkpt lat="49.97436" lon="2.45995">
        <ele>59.117</ele>
        <time>2020-08-23T07:02:49Z</time>
      </trkpt>
      <trkpt lat="49.97436" lon="2.46003">
        <ele>59.208</ele>
        <time>2020-08-23T07:02:53Z</time>
      </trkpt>
      <trkpt lat="49.97435" lon="2.4601">
        <ele>59.387</ele>
        <time>2020-08-23T07:02:57Z</time>
      </trkpt>
      <trkpt lat="49.97435" lon="2.46019">
        <ele>59.327</ele>
        <time>2020-08-23T07:03:02Z</time>
      </trkpt>
      <trkpt lat="49.97435" lon="2.46027">
        <ele>59.465</ele>
        <time>2020-08-23T07:03:07Z</time>
      </trkpt>
      <trkpt lat="49.97433" lon="2.46036">
        <ele>59.563</ele>
        <time>2020-08-23T07:03:11Z</time>
      </trkpt>
      <trkpt lat="49.97434" lon="2.46043">
        <ele>59.543</ele>
        <time>2020-08-23T07:03:15Z</time>
      </trkpt>
      <trkpt lat="49.97434" lon="2.4605">
        <ele>59.658</ele>
        <time>2020-08-23T07:03:18Z</time>
      </trkpt>
      <trkpt lat="49.97435" lon="2.46059">
        <ele>59.929</ele>
        <time>2020-08-23T07:03:23Z</time>
      </trkpt>
      <trkpt lat="49.97433" lon="2.46066">
        <ele>60.154</ele>
        <time>2020-08-23T07:03:26Z</time>
      </trkpt>
      <trkpt lat="49.97433" lon="2.46074">
        <ele>60.233</ele>
        <time>2020-08-23T07:03:30Z</time>
      </trkpt>
      <trkpt lat="49.97433" lon="2.46082">
        <ele>60.323</ele>
        <time>2020-08-23T07:03:34Z</time>
      </trkpt>
      <trkpt lat="49.97433" lon="2.4609">
        <ele>60.615</ele>
        <time>2020-08-23T07:03:38Z</time>
      </trkpt>
      <trkpt lat="49.97435" lon="2.46098">
        <ele>60.708</ele>
        <time>2020-08-23T07:03:43Z</time>
      </trkpt>
      <trkpt lat="49.97434" lon="2.46107">
        <ele>60.988</ele>
        <time>2020-08-23T07:03:48Z</time>
      </trkpt>
      <trkpt lat="49.97434" lon="2.46116">
        <ele>61.368</ele>
        <time>2020-08-23T07:03:53Z</time>
      </trkpt>
      <trkpt lat="49.97435" lon="2.46124">
        <ele>61.446</ele>
        <time>2020-08-23T07:03:56Z</time>
      </trkpt>
      <trkpt lat="49.97436" lon="2.46133">
        <ele>61.644</ele>
        <time>2020-08-23T07:04:01Z</time>
      </trkpt>
      <trkpt lat="49.97437" lon="2.4614">
        <ele>61.874</ele>
        <time>2020-08-23T07:04:05Z</time>
      </trkpt>
      <trkpt lat="49.97436" lon="2.46149">
        <ele>62.059</ele>
        <time>2020-08-23T07:04:09Z</time>
      </trkpt>
      <trkpt lat="49.97436" lon="2.46157">
        <ele>62.16</ele>
        <time>2020-08-23T07:04:13Z</time>
      </trkpt>
      <trkpt lat="49.97437" lon="2.46166">
        <ele>62.465</ele>
        <time>2020-08-23T07:04:17Z</time>
      </trkpt>
      <trkpt lat="49.97437" lon="2.46174">
        <ele>62.448</ele>
        <time>2020-08-23T07:04:21Z</time>
      </trkpt>
      <trkpt lat="49.97437" lon="2.46183">
        <ele>62.661</ele>
        <time>2020-08-23T07:04:26Z</time>
      </trkpt>
      <trkpt lat="49.9744" lon="2.4619">
        <ele>62.817</ele>
        <time>2020-08-23T07:04:30Z</time>
      </trkpt>
      <trkpt lat="49.97442" lon="2.46198">
        <ele>63.108</ele>
        <time>2020-08-23T07:04:35Z</time>
      </trkpt>
      <trkpt lat="49.97443" lon="2.46205">
        <ele>63.369</ele>
        <time>2020-08-23T07:04:39Z</time>
      </trkpt>
      <trkpt lat="49.97444" lon="2.46213">
        <ele>63.629</ele>
        <time>2020-08-23T07:04:43Z</time>
      </trkpt>
      <trkpt lat="49.97446" lon="2.46221">
        <ele>63.987</ele>
        <time>2020-08-23T07:04:48Z</time>
      </trkpt>
      <trkpt lat="49.97447" lon="2.4623">
        <ele>64.045</ele>
        <time>2020-08-23T07:04:52Z</time>
      </trkpt>
      <trkpt lat="49.97448" lon="2.46238">
        <ele>64.815</ele>
        <time>2020-08-23T07:04:58Z</time>
      </trkpt>
      <trkpt lat="49.97448" lon="2.46246">
        <ele>64.65</ele>
        <time>2020-08-23T07:05:01Z</time>
      </trkpt>
      <trkpt lat="49.97447" lon="2.46252">
        <ele>64.771</ele>
        <time>2020-08-23T07:05:05Z</time>
      </trkpt>
      <trkpt lat="49.97449" lon="2.46261">
        <ele>65.026</ele>
        <time>2020-08-23T07:05:09Z</time>
      </trkpt>
      <trkpt lat="49.9745" lon="2.46269">
        <ele>65.276</ele>
        <time>2020-08-23T07:05:13Z</time>
      </trkpt>
      <trkpt lat="49.97451" lon="2.46277">
        <ele>65.49</ele>
        <time>2020-08-23T07:05:17Z</time>
      </trkpt>
      <trkpt lat="49.97451" lon="2.46285">
        <ele>65.519</ele>
        <time>2020-08-23T07:05:21Z</time>
      </trkpt>
      <trkpt lat="49.97452" lon="2.46293">
        <ele>65.808</ele>
        <time>2020-08-23T07:05:25Z</time>
      </trkpt>
      <trkpt lat="49.97454" lon="2.46302">
        <ele>66.232</ele>
        <time>2020-08-23T07:05:29Z</time>
      </trkpt>
      <trkpt lat="49.97454" lon="2.4631">
        <ele>66.442</ele>
        <time>2020-08-23T07:05:33Z</time>
      </trkpt>
      <trkpt lat="49.97456" lon="2.46317">
        <ele>66.67</ele>
        <time>2020-08-23T07:05:37Z</time>
      </trkpt>
      <trkpt lat="49.97456" lon="2.46324">
        <ele>67.068</ele>
        <time>2020-08-23T07:05:41Z</time>
      </trkpt>
      <trkpt lat="49.97457" lon="2.46333">
        <ele>67.358</ele>
        <time>2020-08-23T07:05:46Z</time>
      </trkpt>
      <trkpt lat="49.97458" lon="2.4634">
        <ele>67.543</ele>
        <time>2020-08-23T07:05:50Z</time>
      </trkpt>
      <trkpt lat="49.97459" lon="2.46347">
        <ele>67.654</ele>
        <time>2020-08-23T07:05:53Z</time>
      </trkpt>
      <trkpt lat="49.9746" lon="2.46356">
        <ele>67.919</ele>
        <time>2020-08-23T07:05:57Z</time>
      </trkpt>
      <trkpt lat="49.97461" lon="2.46364">
        <ele>68.155</ele>
        <time>2020-08-23T07:06:00Z</time>
      </trkpt>
      <trkpt lat="49.97461" lon="2.46371">
        <ele>68.207</ele>
        <time>2020-08-23T07:06:03Z</time>
      </trkpt>
      <trkpt lat="49.97461" lon="2.46379">
        <ele>68.417</ele>
        <time>2020-08-23T07:06:07Z</time>
      </trkpt>
      <trkpt lat="49.97462" lon="2.46388">
        <ele>68.708</ele>
        <time>2020-08-23T07:06:11Z</time>
      </trkpt>
      <trkpt lat="49.97461" lon="2.46396">
        <ele>69.17</ele>
        <time>2020-08-23T07:06:16Z</time>
      </trkpt>
      <trkpt lat="49.97461" lon="2.46403">
        <ele>69.46</ele>
        <time>2020-08-23T07:06:20Z</time>
      </trkpt>
      <trkpt lat="49.97462" lon="2.46412">
        <ele>69.758</ele>
        <time>2020-08-23T07:06:25Z</time>
      </trkpt>
      <trkpt lat="49.97462" lon="2.4642">
        <ele>69.986</ele>
        <time>2020-08-23T07:06:30Z</time>
      </trkpt>
      <trkpt lat="49.97464" lon="2.46427">
        <ele>70.126</ele>
        <time>2020-08-23T07:06:34Z</time>
      </trkpt>
      <trkpt lat="49.97466" lon="2.46435">
        <ele>70.531</ele>
        <time>2020-08-23T07:06:39Z</time>
      </trkpt>
      <trkpt lat="49.97468" lon="2.46442">
        <ele>70.832</ele>
        <time>2020-08-23T07:06:42Z</time>
      </trkpt>
      <trkpt lat="49.97468" lon="2.46451">
        <ele>71.027</ele>
        <time>2020-08-23T07:06:45Z</time>
      </trkpt>
      <trkpt lat="49.97467" lon="2.4646">
        <ele>71.388</ele>
        <time>2020-08-23T07:06:49Z</time>
      </trkpt>
      <trkpt lat="49.97469" lon="2.46468">
        <ele>71.824</ele>
        <time>2020-08-23T07:06:54Z</time>
      </trkpt>
      <trkpt lat="49.97469" lon="2.46476">
        <ele>72.026</ele>
        <time>2020-08-23T07:06:58Z</time>
      </trkpt>
      <trkpt lat="49.97468" lon="2.46483">
        <ele>72.308</ele>
        <time>2020-08-23T07:07:02Z</time>
      </trkpt>
      <trkpt lat="49.97467" lon="2.46491">
        <ele>72.563</ele>
        <time>2020-08-23T07:07:06Z</time>
      </trkpt>
      <trkpt lat="49.97468" lon="2.46499">
        <ele>72.733</ele>
        <time>2020-08-23T07:07:09Z</time>
      </trkpt>
      <trkpt lat="49.97468" lon="2.46508">
        <ele>73.091</ele>
        <time>2020-08-23T07:07:13Z</time>
      </trkpt>
      <trkpt lat="49.97468" lon="2.46515">
        <ele>73.239</ele>
        <time>2020-08-23T07:07:16Z</time>
      </trkpt>
      <trkpt lat="49.97467" lon="2.46522">
        <ele>73.689</ele>
        <time>2020-08-23T07:07:20Z</time>
      </trkpt>
      <trkpt lat="49.97466" lon="2.4653">
        <ele>73.884</ele>
        <time>2020-08-23T07:07:24Z</time>
      </trkpt>
      <trkpt lat="49.97465" lon="2.46538">
        <ele>73.885</ele>
        <time>2020-08-23T07:07:27Z</time>
      </trkpt>
      <trkpt lat="49.97465" lon="2.46547">
        <ele>74.23</ele>
        <time>2020-08-23T07:07:30Z</time>
      </trkpt>
      <trkpt lat="49.97465" lon="2.46554">
        <ele>75.054</ele>
        <time>2020-08-23T07:07:34Z</time>
      </trkpt>
      <trkpt lat="49.97467" lon="2.46562">
        <ele>75.256</ele>
        <time>2020-08-23T07:07:39Z</time>
      </trkpt>
      <trkpt lat="49.97467" lon="2.46572">
        <ele>75.411</ele>
        <time>2020-08-23T07:07:43Z</time>
      </trkpt>
      <trkpt lat="49.97466" lon="2.4658">
        <ele>75.708</ele>
        <time>2020-08-23T07:07:46Z</time>
      </trkpt>
      <trkpt lat="49.97466" lon="2.46588">
        <ele>76.05</ele>
        <time>2020-08-23T07:07:50Z</time>
      </trkpt>
      <trkpt lat="49.97466" lon="2.46597">
        <ele>76.13</ele>
        <time>2020-08-23T07:07:54Z</time>
      </trkpt>
      <trkpt lat="49.97466" lon="2.46606">
        <ele>76.888</ele>
        <time>2020-08-23T07:07:58Z</time>
      </trkpt>
      <trkpt lat="49.97465" lon="2.46613">
        <ele>76.956</ele>
        <time>2020-08-23T07:08:01Z</time>
      </trkpt>
      <trkpt lat="49.97465" lon="2.4662">
        <ele>77.386</ele>
        <time>2020-08-23T07:08:05Z</time>
      </trkpt>
      <trkpt lat="49.97465" lon="2.46629">
        <ele>77.931</ele>
        <time>2020-08-23T07:08:09Z</time>
      </trkpt>
      <trkpt lat="49.97464" lon="2.46637">
        <ele>78.122</ele>
        <time>2020-08-23T07:08:13Z</time>
      </trkpt>
      <trkpt lat="49.97464" lon="2.46645">
        <ele>78.447</ele>
        <time>2020-08-23T07:08:17Z</time>
      </trkpt>
      <trkpt lat="49.97463" lon="2.46652">
        <ele>78.722</ele>
        <time>2020-08-23T07:08:21Z</time>
      </trkpt>
      <trkpt lat="49.97463" lon="2.4666">
        <ele>79.062</ele>
        <time>2020-08-23T07:08:26Z</time>
      </trkpt>
      <trkpt lat="49.97463" lon="2.46669">
        <ele>79.408</ele>
        <time>2020-08-23T07:08:31Z</time>
      </trkpt>
      <trkpt lat="49.97463" lon="2.46678">
        <ele>79.808</ele>
        <time>2020-08-23T07:08:35Z</time>
      </trkpt>
      <trkpt lat="49.97463" lon="2.46686">
        <ele>80.137</ele>
        <time>2020-08-23T07:08:39Z</time>
      </trkpt>
      <trkpt lat="49.97463" lon="2.46695">
        <ele>80.587</ele>
        <time>2020-08-23T07:08:43Z</time>
      </trkpt>
      <trkpt lat="49.97463" lon="2.46704">
        <ele>80.885</ele>
        <time>2020-08-23T07:08:47Z</time>
      </trkpt>
      <trkpt lat="49.97463" lon="2.46712">
        <ele>81.383</ele>
        <time>2020-08-23T07:08:51Z</time>
      </trkpt>
      <trkpt lat="49.97462" lon="2.46719">
        <ele>81.743</ele>
        <time>2020-08-23T07:08:56Z</time>
      </trkpt>
      <trkpt lat="49.97463" lon="2.46726">
        <ele>82.018</ele>
        <time>2020-08-23T07:09:00Z</time>
      </trkpt>
      <trkpt lat="49.97463" lon="2.46735">
        <ele>82.179</ele>
        <time>2020-08-23T07:09:04Z</time>
      </trkpt>
      <trkpt lat="49.97464" lon="2.46743">
        <ele>82.964</ele>
        <time>2020-08-23T07:09:08Z</time>
      </trkpt>
      <trkpt lat="49.97463" lon="2.46752">
        <ele>83.574</ele>
        <time>2020-08-23T07:09:12Z</time>
      </trkpt>
      <trkpt lat="49.97462" lon="2.46761">
        <ele>83.956</ele>
        <time>2020-08-23T07:09:16Z</time>
      </trkpt>
      <trkpt lat="49.97461" lon="2.46769">
        <ele>84.321</ele>
        <time>2020-08-23T07:09:19Z</time>
      </trkpt>
      <trkpt lat="49.9746" lon="2.46777">
        <ele>84.608</ele>
        <time>2020-08-23T07:09:24Z</time>
      </trkpt>
      <trkpt lat="49.9746" lon="2.46785">
        <ele>85.132</ele>
        <time>2020-08-23T07:09:28Z</time>
      </trkpt>
      <trkpt lat="49.9746" lon="2.46793">
        <ele>85.942</ele>
        <time>2020-08-23T07:09:34Z</time>
      </trkpt>
      <trkpt lat="49.97461" lon="2.468">
        <ele>86.35</ele>
        <time>2020-08-23T07:09:37Z</time>
      </trkpt>
      <trkpt lat="49.97461" lon="2.46809">
        <ele>86.838</ele>
        <time>2020-08-23T07:09:42Z</time>
      </trkpt>
      <trkpt lat="49.97459" lon="2.46817">
        <ele>87.428</ele>
        <time>2020-08-23T07:09:47Z</time>
      </trkpt>
      <trkpt lat="49.97458" lon="2.46825">
        <ele>87.853</ele>
        <time>2020-08-23T07:09:51Z</time>
      </trkpt>
      <trkpt lat="49.97459" lon="2.46833">
        <ele>88.634</ele>
        <time>2020-08-23T07:09:56Z</time>
      </trkpt>
      <trkpt lat="49.97458" lon="2.4684">
        <ele>89.239</ele>
        <time>2020-08-23T07:10:01Z</time>
      </trkpt>
      <trkpt lat="49.97458" lon="2.46849">
        <ele>89.585</ele>
        <time>2020-08-23T07:10:05Z</time>
      </trkpt>
      <trkpt lat="49.97455" lon="2.46858">
        <ele>90.189</ele>
        <time>2020-08-23T07:10:10Z</time>
      </trkpt>
      <trkpt lat="49.97453" lon="2.46865">
        <ele>90.717</ele>
        <time>2020-08-23T07:10:15Z</time>
      </trkpt>
      <trkpt lat="49.97448" lon="2.4687">
        <ele>91.608</ele>
        <time>2020-08-23T07:10:20Z</time>
      </trkpt>
      <trkpt lat="49.97445" lon="2.46875">
        <ele>91.683</ele>
        <time>2020-08-23T07:10:24Z</time>
      </trkpt>
      <trkpt lat="49.97443" lon="2.46882">
        <ele>92.433</ele>
        <time>2020-08-23T07:10:28Z</time>
      </trkpt>
      <trkpt lat="49.97441" lon="2.46889">
        <ele>92.991</ele>
        <time>2020-08-23T07:10:32Z</time>
      </trkpt>
      <trkpt lat="49.97439" lon="2.46897">
        <ele>93.449</ele>
        <time>2020-08-23T07:10:37Z</time>
      </trkpt>
      <trkpt lat="49.97437" lon="2.46903">
        <ele>93.839</ele>
        <time>2020-08-23T07:10:41Z</time>
      </trkpt>
      <trkpt lat="49.97436" lon="2.4691">
        <ele>94.124</ele>
        <time>2020-08-23T07:10:45Z</time>
      </trkpt>
      <trkpt lat="49.97434" lon="2.46917">
        <ele>94.495</ele>
        <time>2020-08-23T07:10:48Z</time>
      </trkpt>
      <trkpt lat="49.97432" lon="2.46924">
        <ele>94.87</ele>
        <time>2020-08-23T07:10:52Z</time>
      </trkpt>
      <trkpt lat="49.9743" lon="2.4693">
        <ele>95.455</ele>
        <time>2020-08-23T07:10:57Z</time>
      </trkpt>
      <trkpt lat="49.97429" lon="2.46938">
        <ele>95.807</ele>
        <time>2020-08-23T07:11:01Z</time>
      </trkpt>
      <trkpt lat="49.97426" lon="2.46944">
        <ele>96.617</ele>
        <time>2020-08-23T07:11:07Z</time>
      </trkpt>
      <trkpt lat="49.97425" lon="2.46951">
        <ele>97.008</ele>
        <time>2020-08-23T07:11:12Z</time>
      </trkpt>
      <trkpt lat="49.97423" lon="2.46957">
        <ele>97.01</ele>
        <time>2020-08-23T07:11:15Z</time>
      </trkpt>
      <trkpt lat="49.97422" lon="2.46964">
        <ele>97.33</ele>
        <time>2020-08-23T07:11:18Z</time>
      </trkpt>
      <trkpt lat="49.97418" lon="2.46971">
        <ele>97.988</ele>
        <time>2020-08-23T07:11:22Z</time>
      </trkpt>
      <trkpt lat="49.97418" lon="2.46978">
        <ele>99.176</ele>
        <time>2020-08-23T07:11:27Z</time>
      </trkpt>
      <trkpt lat="49.97417" lon="2.46986">
        <ele>99.456</ele>
        <time>2020-08-23T07:11:32Z</time>
      </trkpt>
      <trkpt lat="49.97418" lon="2.46995">
        <ele>100.331</ele>
        <time>2020-08-23T07:11:37Z</time>
      </trkpt>
      <trkpt lat="49.97418" lon="2.47002">
        <ele>100.922</ele>
        <time>2020-08-23T07:11:41Z</time>
      </trkpt>
      <trkpt lat="49.97416" lon="2.47009">
        <ele>101.357</ele>
        <time>2020-08-23T07:11:44Z</time>
      </trkpt>
      <trkpt lat="49.97416" lon="2.47016">
        <ele>102.091</ele>
        <time>2020-08-23T07:11:48Z</time>
      </trkpt>
      <trkpt lat="49.97414" lon="2.47023">
        <ele>102.581</ele>
        <time>2020-08-23T07:11:52Z</time>
      </trkpt>
      <trkpt lat="49.97413" lon="2.47031">
        <ele>103.019</ele>
        <time>2020-08-23T07:11:56Z</time>
      </trkpt>
      <trkpt lat="49.97411" lon="2.47038">
        <ele>104.308</ele>
        <time>2020-08-23T07:12:03Z</time>
      </trkpt>
      <trkpt lat="49.97409" lon="2.47045">
        <ele>105.254</ele>
        <time>2020-08-23T07:12:09Z</time>
      </trkpt>
      <trkpt lat="49.97408" lon="2.47052">
        <ele>105.754</ele>
        <time>2020-08-23T07:12:13Z</time>
      </trkpt>
      <trkpt lat="49.97407" lon="2.47061">
        <ele>106.322</ele>
        <time>2020-08-23T07:12:17Z</time>
      </trkpt>
      <trkpt lat="49.97404" lon="2.47068">
        <ele>106.73</ele>
        <time>2020-08-23T07:12:22Z</time>
      </trkpt>
      <trkpt lat="49.97403" lon="2.47076">
        <ele>106.82</ele>
        <time>2020-08-23T07:12:26Z</time>
      </trkpt>
      <trkpt lat="49.97401" lon="2.47084">
        <ele>107.295</ele>
        <time>2020-08-23T07:12:31Z</time>
      </trkpt>
      <trkpt lat="49.974" lon="2.47091">
        <ele>107.776</ele>
        <time>2020-08-23T07:12:34Z</time>
      </trkpt>
      <trkpt lat="49.97398" lon="2.47098">
        <ele>108.291</ele>
        <time>2020-08-23T07:12:39Z</time>
      </trkpt>
      <trkpt lat="49.97397" lon="2.47105">
        <ele>108.698</ele>
        <time>2020-08-23T07:12:42Z</time>
      </trkpt>
      <trkpt lat="49.97395" lon="2.47112">
        <ele>108.815</ele>
        <time>2020-08-23T07:12:45Z</time>
      </trkpt>
      <trkpt lat="49.97395" lon="2.47121">
        <ele>109.526</ele>
        <time>2020-08-23T07:12:50Z</time>
      </trkpt>
      <trkpt lat="49.97395" lon="2.47129">
        <ele>110.108</ele>
        <time>2020-08-23T07:12:55Z</time>
      </trkpt>
      <trkpt lat="49.97394" lon="2.47136">
        <ele>110.314</ele>
        <time>2020-08-23T07:12:58Z</time>
      </trkpt>
      <trkpt lat="49.97394" lon="2.47144">
        <ele>110.874</ele>
        <time>2020-08-23T07:13:02Z</time>
      </trkpt>
      <trkpt lat="49.97392" lon="2.47153">
        <ele>111.262</ele>
        <time>2020-08-23T07:13:06Z</time>
      </trkpt>
      <trkpt lat="49.97391" lon="2.47161">
        <ele>111.71</ele>
        <time>2020-08-23T07:13:10Z</time>
      </trkpt>
      <trkpt lat="49.9739" lon="2.47169">
        <ele>112.09</ele>
        <time>2020-08-23T07:13:15Z</time>
      </trkpt>
      <trkpt lat="49.97388" lon="2.47176">
        <ele>112.565</ele>
        <time>2020-08-23T07:13:19Z</time>
      </trkpt>
      <trkpt lat="49.97388" lon="2.47183">
        <ele>112.686</ele>
        <time>2020-08-23T07:13:22Z</time>
      </trkpt>
      <trkpt lat="49.97386" lon="2.47191">
        <ele>112.771</ele>
        <time>2020-08-23T07:13:26Z</time>
      </trkpt>
      <trkpt lat="49.97385" lon="2.472">
        <ele>112.858</ele>
        <time>2020-08-23T07:13:30Z</time>
      </trkpt>
      <trkpt lat="49.97384" lon="2.4721">
        <ele>112.952</ele>
        <time>2020-08-23T07:13:34Z</time>
      </trkpt>
      <trkpt lat="49.97381" lon="2.47217">
        <ele>113.117</ele>
        <time>2020-08-23T07:13:38Z</time>
      </trkpt>
      <trkpt lat="49.9738" lon="2.47224">
        <ele>113.208</ele>
        <time>2020-08-23T07:13:43Z</time>
      </trkpt>
      <trkpt lat="49.97379" lon="2.47232">
        <ele>113.31</ele>
        <time>2020-08-23T07:13:48Z</time>
      </trkpt>
      <trkpt lat="49.97378" lon="2.47241">
        <ele>113.65</ele>
        <time>2020-08-23T07:13:53Z</time>
      </trkpt>
      <trkpt lat="49.97377" lon="2.4725">
        <ele>113.758</ele>
        <time>2020-08-23T07:13:57Z</time>
      </trkpt>
      <trkpt lat="49.97377" lon="2.47258">
        <ele>114.076</ele>
        <time>2020-08-23T07:14:01Z</time>
      </trkpt>
      <trkpt lat="49.97376" lon="2.47266">
        <ele>114.326</ele>
        <time>2020-08-23T07:14:05Z</time>
      </trkpt>
      <trkpt lat="49.97376" lon="2.47273">
        <ele>114.361</ele>
        <time>2020-08-23T07:14:08Z</time>
      </trkpt>
      <trkpt lat="49.97376" lon="2.47282">
        <ele>114.672</ele>
        <time>2020-08-23T07:14:12Z</time>
      </trkpt>
      <trkpt lat="49.97376" lon="2.47289">
        <ele>114.737</ele>
        <time>2020-08-23T07:14:16Z</time>
      </trkpt>
      <trkpt lat="49.97376" lon="2.47298">
        <ele>114.973</ele>
        <time>2020-08-23T07:14:20Z</time>
      </trkpt>
      <trkpt lat="49.97376" lon="2.47305">
        <ele>115.185</ele>
        <time>2020-08-23T07:14:24Z</time>
      </trkpt>
      <trkpt lat="49.97376" lon="2.47312">
        <ele>115.713</ele>
        <time>2020-08-23T07:14:31Z</time>
      </trkpt>
      <trkpt lat="49.9737" lon="2.47326">
        <ele>116.808</ele>
        <time>2020-08-23T07:15:50Z</time>
      </trkpt>
      <trkpt lat="49.97375" lon="2.47328">
        <ele>116.672</ele>
        <time>2020-08-23T07:16:17Z</time>
      </trkpt>
      <trkpt lat="49.97379" lon="2.47323">
        <ele>116.962</ele>
        <time>2020-08-23T07:17:12Z</time>
      </trkpt>
      <trkpt lat="49.97385" lon="2.47325">
        <ele>116.82</ele>
        <time>2020-08-23T07:17:15Z</time>
      </trkpt>
      <trkpt lat="49.97391" lon="2.47324">
        <ele>116.728</ele>
        <time>2020-08-23T07:17:19Z</time>
      </trkpt>
      <trkpt lat="49.97395" lon="2.47323">
        <ele>116.748</ele>
        <time>2020-08-23T07:17:23Z</time>
      </trkpt>
      <trkpt lat="49.974" lon="2.47323">
        <ele>116.723</ele>
        <time>2020-08-23T07:17:27Z</time>
      </trkpt>
      <trkpt lat="49.97405" lon="2.47323">
        <ele>116.774</ele>
        <time>2020-08-23T07:17:31Z</time>
      </trkpt>
      <trkpt lat="49.9741" lon="2.47321">
        <ele>116.859</ele>
        <time>2020-08-23T07:17:35Z</time>
      </trkpt>
      <trkpt lat="49.97415" lon="2.47321">
        <ele>117.094</ele>
        <time>2020-08-23T07:17:38Z</time>
      </trkpt>
      <trkpt lat="49.9742" lon="2.47319">
        <ele>117.057</ele>
        <time>2020-08-23T07:17:41Z</time>
      </trkpt>
      <trkpt lat="49.97425" lon="2.47318">
        <ele>117.022</ele>
        <time>2020-08-23T07:17:44Z</time>
      </trkpt>
      <trkpt lat="49.9743" lon="2.47321">
        <ele>117.008</ele>
        <time>2020-08-23T07:17:47Z</time>
      </trkpt>
      <trkpt lat="49.97434" lon="2.4732">
        <ele>117.164</ele>
        <time>2020-08-23T07:17:51Z</time>
      </trkpt>
      <trkpt lat="49.9744" lon="2.4732">
        <ele>117.284</ele>
        <time>2020-08-23T07:17:55Z</time>
      </trkpt>
      <trkpt lat="49.97444" lon="2.4732">
        <ele>117.342</ele>
        <time>2020-08-23T07:17:58Z</time>
      </trkpt>
      <trkpt lat="49.9745" lon="2.4732">
        <ele>117.45</ele>
        <time>2020-08-23T07:18:02Z</time>
      </trkpt>
      <trkpt lat="49.97456" lon="2.47318">
        <ele>117.35</ele>
        <time>2020-08-23T07:18:07Z</time>
      </trkpt>
      <trkpt lat="49.97461" lon="2.47316">
        <ele>117.285</ele>
        <time>2020-08-23T07:18:10Z</time>
      </trkpt>
      <trkpt lat="49.97466" lon="2.47313">
        <ele>117.386</ele>
        <time>2020-08-23T07:18:14Z</time>
      </trkpt>
      <trkpt lat="49.97471" lon="2.47311">
        <ele>117.671</ele>
        <time>2020-08-23T07:18:18Z</time>
      </trkpt>
      <trkpt lat="49.97476" lon="2.47315">
        <ele>117.566</ele>
        <time>2020-08-23T07:18:22Z</time>
      </trkpt>
      <trkpt lat="49.97481" lon="2.47316">
        <ele>117.629</ele>
        <time>2020-08-23T07:18:26Z</time>
      </trkpt>
      <trkpt lat="49.97486" lon="2.47317">
        <ele>117.721</ele>
        <time>2020-08-23T07:18:31Z</time>
      </trkpt>
      <trkpt lat="49.97492" lon="2.47316">
        <ele>117.408</ele>
        <time>2020-08-23T07:18:35Z</time>
      </trkpt>
      <trkpt lat="49.97497" lon="2.47318">
        <ele>117.341</ele>
        <time>2020-08-23T07:18:40Z</time>
      </trkpt>
      <trkpt lat="49.97502" lon="2.47318">
        <ele>117.591</ele>
        <time>2020-08-23T07:18:44Z</time>
      </trkpt>
      <trkpt lat="49.97507" lon="2.47318">
        <ele>117.479</ele>
        <time>2020-08-23T07:18:47Z</time>
      </trkpt>
      <trkpt lat="49.97512" lon="2.4732">
        <ele>117.157</ele>
        <time>2020-08-23T07:18:51Z</time>
      </trkpt>
      <trkpt lat="49.97517" lon="2.47318">
        <ele>117.387</ele>
        <time>2020-08-23T07:18:56Z</time>
      </trkpt>
      <trkpt lat="49.97522" lon="2.47318">
        <ele>117.572</ele>
        <time>2020-08-23T07:18:59Z</time>
      </trkpt>
      <trkpt lat="49.97527" lon="2.47317">
        <ele>117.323</ele>
        <time>2020-08-23T07:19:03Z</time>
      </trkpt>
      <trkpt lat="49.97532" lon="2.47316">
        <ele>117.048</ele>
        <time>2020-08-23T07:19:08Z</time>
      </trkpt>
      <trkpt lat="49.97537" lon="2.47317">
        <ele>117.069</ele>
        <time>2020-08-23T07:19:11Z</time>
      </trkpt>
      <trkpt lat="49.97542" lon="2.47316">
        <ele>117.104</ele>
        <time>2020-08-23T07:19:15Z</time>
      </trkpt>
      <trkpt lat="49.97548" lon="2.47316">
        <ele>117.124</ele>
        <time>2020-08-23T07:19:19Z</time>
      </trkpt>
      <trkpt lat="49.97552" lon="2.47313">
        <ele>117.008</ele>
        <time>2020-08-23T07:19:22Z</time>
      </trkpt>
      <trkpt lat="49.97557" lon="2.47313">
        <ele>117.021</ele>
        <time>2020-08-23T07:19:25Z</time>
      </trkpt>
      <trkpt lat="49.97561" lon="2.4731">
        <ele>117.161</ele>
        <time>2020-08-23T07:19:28Z</time>
      </trkpt>
      <trkpt lat="49.97566" lon="2.47311">
        <ele>117.149</ele>
        <time>2020-08-23T07:19:31Z</time>
      </trkpt>
      <trkpt lat="49.97571" lon="2.47311">
        <ele>117.227</ele>
        <time>2020-08-23T07:19:34Z</time>
      </trkpt>
      <trkpt lat="49.97576" lon="2.4731">
        <ele>117.377</ele>
        <time>2020-08-23T07:19:37Z</time>
      </trkpt>
      <trkpt lat="49.9758" lon="2.47311">
        <ele>117.462</ele>
        <time>2020-08-23T07:19:40Z</time>
      </trkpt>
      <trkpt lat="49.97585" lon="2.4731">
        <ele>117.263</ele>
        <time>2020-08-23T07:19:44Z</time>
      </trkpt>
      <trkpt lat="49.97591" lon="2.47309">
        <ele>117.048</ele>
        <time>2020-08-23T07:19:48Z</time>
      </trkpt>
      <trkpt lat="49.97597" lon="2.4731">
        <ele>117.036</ele>
        <time>2020-08-23T07:19:52Z</time>
      </trkpt>
      <trkpt lat="49.97602" lon="2.4731">
        <ele>117.017</ele>
        <time>2020-08-23T07:19:56Z</time>
      </trkpt>
      <trkpt lat="49.97608" lon="2.4731">
        <ele>116.718</ele>
        <time>2020-08-23T07:20:00Z</time>
      </trkpt>
      <trkpt lat="49.97613" lon="2.47309">
        <ele>117.208</ele>
        <time>2020-08-23T07:20:04Z</time>
      </trkpt>
      <trkpt lat="49.97618" lon="2.4731">
        <ele>117.188</ele>
        <time>2020-08-23T07:20:09Z</time>
      </trkpt>
      <trkpt lat="49.97623" lon="2.47309">
        <ele>117.218</ele>
        <time>2020-08-23T07:20:13Z</time>
      </trkpt>
      <trkpt lat="49.97628" lon="2.47308">
        <ele>117.226</ele>
        <time>2020-08-23T07:20:17Z</time>
      </trkpt>
      <trkpt lat="49.97633" lon="2.4731">
        <ele>117.134</ele>
        <time>2020-08-23T07:20:21Z</time>
      </trkpt>
      <trkpt lat="49.97639" lon="2.47309">
        <ele>117.234</ele>
        <time>2020-08-23T07:20:25Z</time>
      </trkpt>
      <trkpt lat="49.97644" lon="2.47308">
        <ele>117.339</ele>
        <time>2020-08-23T07:20:29Z</time>
      </trkpt>
      <trkpt lat="49.97649" lon="2.47308">
        <ele>117.23</ele>
        <time>2020-08-23T07:20:32Z</time>
      </trkpt>
      <trkpt lat="49.97654" lon="2.47308">
        <ele>117.385</ele>
        <time>2020-08-23T07:20:36Z</time>
      </trkpt>
      <trkpt lat="49.97659" lon="2.47307">
        <ele>117.457</ele>
        <time>2020-08-23T07:20:40Z</time>
      </trkpt>
      <trkpt lat="49.97665" lon="2.47306">
        <ele>117.4</ele>
        <time>2020-08-23T07:20:44Z</time>
      </trkpt>
      <trkpt lat="49.9767" lon="2.47305">
        <ele>117.42</ele>
        <time>2020-08-23T07:20:47Z</time>
      </trkpt>
      <trkpt lat="49.97674" lon="2.47305">
        <ele>117.408</ele>
        <time>2020-08-23T07:20:50Z</time>
      </trkpt>
      <trkpt lat="49.9768" lon="2.47305">
        <ele>117.57</ele>
        <time>2020-08-23T07:20:54Z</time>
      </trkpt>
      <trkpt lat="49.97685" lon="2.47303">
        <ele>117.59</ele>
        <time>2020-08-23T07:20:58Z</time>
      </trkpt>
      <trkpt lat="49.97689" lon="2.47304">
        <ele>117.698</ele>
        <time>2020-08-23T07:21:01Z</time>
      </trkpt>
      <trkpt lat="49.97694" lon="2.47303">
        <ele>117.556</ele>
        <time>2020-08-23T07:21:04Z</time>
      </trkpt>
      <trkpt lat="49.97699" lon="2.47303">
        <ele>117.326</ele>
        <time>2020-08-23T07:21:09Z</time>
      </trkpt>
      <trkpt lat="49.97706" lon="2.47303">
        <ele>117.281</ele>
        <time>2020-08-23T07:21:13Z</time>
      </trkpt>
      <trkpt lat="49.9771" lon="2.47303">
        <ele>117.192</ele>
        <time>2020-08-23T07:21:16Z</time>
      </trkpt>
      <trkpt lat="49.97715" lon="2.47302">
        <ele>117.187</ele>
        <time>2020-08-23T07:21:20Z</time>
      </trkpt>
      <trkpt lat="49.97721" lon="2.47303">
        <ele>117.051</ele>
        <time>2020-08-23T07:21:24Z</time>
      </trkpt>
      <trkpt lat="49.97726" lon="2.47303">
        <ele>117.001</ele>
        <time>2020-08-23T07:21:27Z</time>
      </trkpt>
      <trkpt lat="49.97732" lon="2.47303">
        <ele>117.011</ele>
        <time>2020-08-23T07:21:30Z</time>
      </trkpt>
      <trkpt lat="49.97737" lon="2.47302">
        <ele>116.908</ele>
        <time>2020-08-23T07:21:34Z</time>
      </trkpt>
      <trkpt lat="49.97743" lon="2.47301">
        <ele>116.87</ele>
        <time>2020-08-23T07:21:38Z</time>
      </trkpt>
      <trkpt lat="49.97748" lon="2.473">
        <ele>116.77</ele>
        <time>2020-08-23T07:21:42Z</time>
      </trkpt>
      <trkpt lat="49.97753" lon="2.47301">
        <ele>116.658</ele>
        <time>2020-08-23T07:21:46Z</time>
      </trkpt>
      <trkpt lat="49.97759" lon="2.473">
        <ele>116.556</ele>
        <time>2020-08-23T07:21:50Z</time>
      </trkpt>
      <trkpt lat="49.97764" lon="2.473">
        <ele>116.476</ele>
        <time>2020-08-23T07:21:54Z</time>
      </trkpt>
      <trkpt lat="49.97769" lon="2.473">
        <ele>116.391</ele>
        <time>2020-08-23T07:21:58Z</time>
      </trkpt>
      <trkpt lat="49.97774" lon="2.47301">
        <ele>116.132</ele>
        <time>2020-08-23T07:22:02Z</time>
      </trkpt>
      <trkpt lat="49.97779" lon="2.47302">
        <ele>115.977</ele>
        <time>2020-08-23T07:22:05Z</time>
      </trkpt>
      <trkpt lat="49.97785" lon="2.47301">
        <ele>115.852</ele>
        <time>2020-08-23T07:22:09Z</time>
      </trkpt>
      <trkpt lat="49.97789" lon="2.473">
        <ele>115.853</ele>
        <time>2020-08-23T07:22:12Z</time>
      </trkpt>
      <trkpt lat="49.97794" lon="2.473">
        <ele>115.808</ele>
        <time>2020-08-23T07:22:15Z</time>
      </trkpt>
      <trkpt lat="49.97799" lon="2.47299">
        <ele>115.908</ele>
        <time>2020-08-23T07:22:18Z</time>
      </trkpt>
      <trkpt lat="49.97804" lon="2.47298">
        <ele>115.98</ele>
        <time>2020-08-23T07:22:21Z</time>
      </trkpt>
      <trkpt lat="49.97809" lon="2.47296">
        <ele>115.89</ele>
        <time>2020-08-23T07:22:24Z</time>
      </trkpt>
      <trkpt lat="49.97814" lon="2.47294">
        <ele>115.668</ele>
        <time>2020-08-23T07:22:27Z</time>
      </trkpt>
      <trkpt lat="49.9782" lon="2.47293">
        <ele>115.476</ele>
        <time>2020-08-23T07:22:31Z</time>
      </trkpt>
      <trkpt lat="49.97826" lon="2.47293">
        <ele>115.126</ele>
        <time>2020-08-23T07:22:35Z</time>
      </trkpt>
      <trkpt lat="49.97831" lon="2.47294">
        <ele>115.171</ele>
        <time>2020-08-23T07:22:38Z</time>
      </trkpt>
      <trkpt lat="49.97836" lon="2.47293">
        <ele>115.272</ele>
        <time>2020-08-23T07:22:42Z</time>
      </trkpt>
      <trkpt lat="49.97841" lon="2.47295">
        <ele>115.157</ele>
        <time>2020-08-23T07:22:46Z</time>
      </trkpt>
      <trkpt lat="49.97847" lon="2.47293">
        <ele>114.878</ele>
        <time>2020-08-23T07:22:50Z</time>
      </trkpt>
      <trkpt lat="49.97853" lon="2.47292">
        <ele>114.633</ele>
        <time>2020-08-23T07:22:54Z</time>
      </trkpt>
      <trkpt lat="49.97859" lon="2.47293">
        <ele>114.726</ele>
        <time>2020-08-23T07:22:58Z</time>
      </trkpt>
      <trkpt lat="49.97864" lon="2.47294">
        <ele>114.708</ele>
        <time>2020-08-23T07:23:02Z</time>
      </trkpt>
      <trkpt lat="49.97869" lon="2.47294">
        <ele>114.572</ele>
        <time>2020-08-23T07:23:06Z</time>
      </trkpt>
      <trkpt lat="49.97874" lon="2.47292">
        <ele>114.422</ele>
        <time>2020-08-23T07:23:09Z</time>
      </trkpt>
      <trkpt lat="49.97879" lon="2.4729">
        <ele>114.67</ele>
        <time>2020-08-23T07:23:12Z</time>
      </trkpt>
      <trkpt lat="49.97884" lon="2.47289">
        <ele>114.578</ele>
        <time>2020-08-23T07:23:15Z</time>
      </trkpt>
      <trkpt lat="49.9789" lon="2.47289">
        <ele>114.428</ele>
        <time>2020-08-23T07:23:19Z</time>
      </trkpt>
      <trkpt lat="49.97896" lon="2.47291">
        <ele>114.453</ele>
        <time>2020-08-23T07:23:23Z</time>
      </trkpt>
      <trkpt lat="49.97901" lon="2.4729">
        <ele>114.354</ele>
        <time>2020-08-23T07:23:27Z</time>
      </trkpt>
      <trkpt lat="49.97905" lon="2.4729">
        <ele>114.299</ele>
        <time>2020-08-23T07:23:30Z</time>
      </trkpt>
      <trkpt lat="49.97911" lon="2.47288">
        <ele>114.164</ele>
        <time>2020-08-23T07:23:34Z</time>
      </trkpt>
      <trkpt lat="49.97917" lon="2.47289">
        <ele>114.006</ele>
        <time>2020-08-23T07:23:38Z</time>
      </trkpt>
      <trkpt lat="49.97921" lon="2.47289">
        <ele>113.916</ele>
        <time>2020-08-23T07:23:42Z</time>
      </trkpt>
      <trkpt lat="49.97927" lon="2.47289">
        <ele>113.808</ele>
        <time>2020-08-23T07:23:47Z</time>
      </trkpt>
      <trkpt lat="49.97932" lon="2.47289">
        <ele>113.671</ele>
        <time>2020-08-23T07:23:51Z</time>
      </trkpt>
      <trkpt lat="49.97937" lon="2.47289">
        <ele>113.731</ele>
        <time>2020-08-23T07:23:54Z</time>
      </trkpt>
      <trkpt lat="49.97942" lon="2.47289">
        <ele>113.979</ele>
        <time>2020-08-23T07:23:58Z</time>
      </trkpt>
      <trkpt lat="49.97948" lon="2.47289">
        <ele>113.927</ele>
        <time>2020-08-23T07:24:02Z</time>
      </trkpt>
      <trkpt lat="49.97952" lon="2.47287">
        <ele>113.957</ele>
        <time>2020-08-23T07:24:05Z</time>
      </trkpt>
      <trkpt lat="49.97957" lon="2.47287">
        <ele>113.972</ele>
        <time>2020-08-23T07:24:08Z</time>
      </trkpt>
      <trkpt lat="49.97962" lon="2.47286">
        <ele>113.723</ele>
        <time>2020-08-23T07:24:11Z</time>
      </trkpt>
      <trkpt lat="49.97967" lon="2.47286">
        <ele>113.578</ele>
        <time>2020-08-23T07:24:14Z</time>
      </trkpt>
      <trkpt lat="49.97971" lon="2.47282">
        <ele>113.424</ele>
        <time>2020-08-23T07:24:17Z</time>
      </trkpt>
      <trkpt lat="49.97977" lon="2.47284">
        <ele>113.404</ele>
        <time>2020-08-23T07:24:21Z</time>
      </trkpt>
      <trkpt lat="49.97982" lon="2.47284">
        <ele>113.414</ele>
        <time>2020-08-23T07:24:24Z</time>
      </trkpt>
      <trkpt lat="49.97988" lon="2.47286">
        <ele>113.308</ele>
        <time>2020-08-23T07:24:28Z</time>
      </trkpt>
      <trkpt lat="49.97993" lon="2.47288">
        <ele>113.277</ele>
        <time>2020-08-23T07:24:32Z</time>
      </trkpt>
      <trkpt lat="49.97998" lon="2.47287">
        <ele>113.187</ele>
        <time>2020-08-23T07:24:36Z</time>
      </trkpt>
      <trkpt lat="49.98004" lon="2.47286">
        <ele>112.975</ele>
        <time>2020-08-23T07:24:40Z</time>
      </trkpt>
      <trkpt lat="49.98008" lon="2.47285">
        <ele>112.883</ele>
        <time>2020-08-23T07:24:43Z</time>
      </trkpt>
      <trkpt lat="49.98013" lon="2.47284">
        <ele>112.863</ele>
        <time>2020-08-23T07:24:47Z</time>
      </trkpt>
      <trkpt lat="49.98018" lon="2.47282">
        <ele>112.828</ele>
        <time>2020-08-23T07:24:50Z</time>
      </trkpt>
      <trkpt lat="49.98023" lon="2.47281">
        <ele>112.799</ele>
        <time>2020-08-23T07:24:53Z</time>
      </trkpt>
      <trkpt lat="49.98029" lon="2.4728">
        <ele>112.654</ele>
        <time>2020-08-23T07:24:57Z</time>
      </trkpt>
      <trkpt lat="49.98034" lon="2.4728">
        <ele>112.716</ele>
        <time>2020-08-23T07:25:01Z</time>
      </trkpt>
      <trkpt lat="49.98038" lon="2.47281">
        <ele>112.676</ele>
        <time>2020-08-23T07:25:04Z</time>
      </trkpt>
      <trkpt lat="49.98043" lon="2.47281">
        <ele>112.513</ele>
        <time>2020-08-23T07:25:07Z</time>
      </trkpt>
      <trkpt lat="49.98048" lon="2.47283">
        <ele>112.408</ele>
        <time>2020-08-23T07:25:11Z</time>
      </trkpt>
      <trkpt lat="49.98052" lon="2.47288">
        <ele>112.426</ele>
        <time>2020-08-23T07:25:15Z</time>
      </trkpt>
      <trkpt lat="49.98053" lon="2.47295">
        <ele>112.546</ele>
        <time>2020-08-23T07:25:19Z</time>
      </trkpt>
      <trkpt lat="49.98054" lon="2.47304">
        <ele>112.684</ele>
        <time>2020-08-23T07:25:22Z</time>
      </trkpt>
      <trkpt lat="49.98056" lon="2.47312">
        <ele>112.832</ele>
        <time>2020-08-23T07:25:26Z</time>
      </trkpt>
      <trkpt lat="49.98056" lon="2.47319">
        <ele>112.842</ele>
        <time>2020-08-23T07:25:29Z</time>
      </trkpt>
      <trkpt lat="49.98058" lon="2.47327">
        <ele>113.037</ele>
        <time>2020-08-23T07:25:33Z</time>
      </trkpt>
      <trkpt lat="49.98059" lon="2.47336">
        <ele>113.248</ele>
        <time>2020-08-23T07:25:37Z</time>
      </trkpt>
      <trkpt lat="49.9806" lon="2.47344">
        <ele>113.373</ele>
        <time>2020-08-23T07:25:41Z</time>
      </trkpt>
      <trkpt lat="49.9806" lon="2.47352">
        <ele>113.417</ele>
        <time>2020-08-23T07:25:44Z</time>
      </trkpt>
      <trkpt lat="49.98062" lon="2.47359">
        <ele>113.587</ele>
        <time>2020-08-23T07:25:48Z</time>
      </trkpt>
      <trkpt lat="49.98063" lon="2.47367">
        <ele>113.615</ele>
        <time>2020-08-23T07:25:52Z</time>
      </trkpt>
      <trkpt lat="49.98064" lon="2.47375">
        <ele>113.708</ele>
        <time>2020-08-23T07:25:56Z</time>
      </trkpt>
      <trkpt lat="49.98064" lon="2.47384">
        <ele>113.886</ele>
        <time>2020-08-23T07:26:01Z</time>
      </trkpt>
      <trkpt lat="49.98066" lon="2.47392">
        <ele>114.056</ele>
        <time>2020-08-23T07:26:05Z</time>
      </trkpt>
      <trkpt lat="49.98067" lon="2.474">
        <ele>114.034</ele>
        <time>2020-08-23T07:26:09Z</time>
      </trkpt>
      <trkpt lat="49.98068" lon="2.47408">
        <ele>114.322</ele>
        <time>2020-08-23T07:26:13Z</time>
      </trkpt>
      <trkpt lat="49.98068" lon="2.47417">
        <ele>114.582</ele>
        <time>2020-08-23T07:26:17Z</time>
      </trkpt>
      <trkpt lat="49.98069" lon="2.47426">
        <ele>114.627</ele>
        <time>2020-08-23T07:26:21Z</time>
      </trkpt>
      <trkpt lat="49.9807" lon="2.47434">
        <ele>114.778</ele>
        <time>2020-08-23T07:26:25Z</time>
      </trkpt>
      <trkpt lat="49.98071" lon="2.47441">
        <ele>115.063</ele>
        <time>2020-08-23T07:26:29Z</time>
      </trkpt>
      <trkpt lat="49.98072" lon="2.47449">
        <ele>115.128</ele>
        <time>2020-08-23T07:26:33Z</time>
      </trkpt>
      <trkpt lat="49.98071" lon="2.47456">
        <ele>115.389</ele>
        <time>2020-08-23T07:26:36Z</time>
      </trkpt>
      <trkpt lat="49.98072" lon="2.47466">
        <ele>115.617</ele>
        <time>2020-08-23T07:26:40Z</time>
      </trkpt>
      <trkpt lat="49.98072" lon="2.47475">
        <ele>115.708</ele>
        <time>2020-08-23T07:26:44Z</time>
      </trkpt>
      <trkpt lat="49.98072" lon="2.47483">
        <ele>116.087</ele>
        <time>2020-08-23T07:26:48Z</time>
      </trkpt>
      <trkpt lat="49.98072" lon="2.47492">
        <ele>116.447</ele>
        <time>2020-08-23T07:26:53Z</time>
      </trkpt>
      <trkpt lat="49.98072" lon="2.475">
        <ele>116.575</ele>
        <time>2020-08-23T07:26:57Z</time>
      </trkpt>
      <trkpt lat="49.98072" lon="2.47508">
        <ele>116.673</ele>
        <time>2020-08-23T07:27:01Z</time>
      </trkpt>
      <trkpt lat="49.98072" lon="2.47515">
        <ele>116.763</ele>
        <time>2020-08-23T07:27:05Z</time>
      </trkpt>
      <trkpt lat="49.98075" lon="2.47521">
        <ele>117.078</ele>
        <time>2020-08-23T07:27:09Z</time>
      </trkpt>
      <trkpt lat="49.98079" lon="2.47523">
        <ele>117.389</ele>
        <time>2020-08-23T07:27:12Z</time>
      </trkpt>
      <trkpt lat="49.98084" lon="2.47526">
        <ele>117.684</ele>
        <time>2020-08-23T07:27:15Z</time>
      </trkpt>
      <trkpt lat="49.98089" lon="2.47528">
        <ele>117.918</ele>
        <time>2020-08-23T07:27:18Z</time>
      </trkpt>
      <trkpt lat="49.98094" lon="2.47529">
        <ele>118.098</ele>
        <time>2020-08-23T07:27:23Z</time>
      </trkpt>
      <trkpt lat="49.98099" lon="2.4753">
        <ele>118.017</ele>
        <time>2020-08-23T07:27:26Z</time>
      </trkpt>
      <trkpt lat="49.98104" lon="2.4753">
        <ele>117.908</ele>
        <time>2020-08-23T07:27:30Z</time>
      </trkpt>
      <trkpt lat="49.98109" lon="2.47532">
        <ele>117.886</ele>
        <time>2020-08-23T07:27:35Z</time>
      </trkpt>
      <trkpt lat="49.98114" lon="2.47533">
        <ele>117.826</ele>
        <time>2020-08-23T07:27:38Z</time>
      </trkpt>
      <trkpt lat="49.98119" lon="2.47532">
        <ele>117.864</ele>
        <time>2020-08-23T07:27:41Z</time>
      </trkpt>
      <trkpt lat="49.98124" lon="2.47532">
        <ele>117.822</ele>
        <time>2020-08-23T07:27:44Z</time>
      </trkpt>
      <trkpt lat="49.98129" lon="2.47532">
        <ele>117.972</ele>
        <time>2020-08-23T07:27:48Z</time>
      </trkpt>
      <trkpt lat="49.98135" lon="2.47532">
        <ele>117.997</ele>
        <time>2020-08-23T07:27:53Z</time>
      </trkpt>
      <trkpt lat="49.98139" lon="2.47533">
        <ele>117.868</ele>
        <time>2020-08-23T07:27:56Z</time>
      </trkpt>
      <trkpt lat="49.98145" lon="2.47534">
        <ele>117.953</ele>
        <time>2020-08-23T07:28:00Z</time>
      </trkpt>
      <trkpt lat="49.98151" lon="2.47533">
        <ele>118.172</ele>
        <time>2020-08-23T07:28:04Z</time>
      </trkpt>
      <trkpt lat="49.98156" lon="2.47534">
        <ele>118.113</ele>
        <time>2020-08-23T07:28:07Z</time>
      </trkpt>
      <trkpt lat="49.98162" lon="2.47536">
        <ele>118.214</ele>
        <time>2020-08-23T07:28:11Z</time>
      </trkpt>
      <trkpt lat="49.98167" lon="2.47536">
        <ele>118.508</ele>
        <time>2020-08-23T07:28:15Z</time>
      </trkpt>
      <trkpt lat="49.98172" lon="2.47537">
        <ele>118.812</ele>
        <time>2020-08-23T07:28:19Z</time>
      </trkpt>
      <trkpt lat="49.98177" lon="2.47535">
        <ele>118.532</ele>
        <time>2020-08-23T07:28:23Z</time>
      </trkpt>
      <trkpt lat="49.98182" lon="2.47535">
        <ele>118.35</ele>
        <time>2020-08-23T07:28:27Z</time>
      </trkpt>
      <trkpt lat="49.98188" lon="2.47535">
        <ele>118.458</ele>
        <time>2020-08-23T07:28:31Z</time>
      </trkpt>
      <trkpt lat="49.98193" lon="2.47536">
        <ele>118.468</ele>
        <time>2020-08-23T07:28:35Z</time>
      </trkpt>
      <trkpt lat="49.98198" lon="2.47537">
        <ele>118.523</ele>
        <time>2020-08-23T07:28:39Z</time>
      </trkpt>
      <trkpt lat="49.98203" lon="2.47537">
        <ele>118.494</ele>
        <time>2020-08-23T07:28:42Z</time>
      </trkpt>
      <trkpt lat="49.98208" lon="2.47538">
        <ele>118.149</ele>
        <time>2020-08-23T07:28:45Z</time>
      </trkpt>
      <trkpt lat="49.98213" lon="2.47539">
        <ele>118.496</ele>
        <time>2020-08-23T07:28:49Z</time>
      </trkpt>
      <trkpt lat="49.98218" lon="2.4754">
        <ele>118.531</ele>
        <time>2020-08-23T07:28:52Z</time>
      </trkpt>
      <trkpt lat="49.98223" lon="2.4754">
        <ele>118.324</ele>
        <time>2020-08-23T07:28:56Z</time>
      </trkpt>
      <trkpt lat="49.98229" lon="2.4754">
        <ele>118.408</ele>
        <time>2020-08-23T07:29:00Z</time>
      </trkpt>
      <trkpt lat="49.98234" lon="2.47539">
        <ele>118.444</ele>
        <time>2020-08-23T07:29:04Z</time>
      </trkpt>
      <trkpt lat="49.9824" lon="2.47539">
        <ele>118.554</ele>
        <time>2020-08-23T07:29:08Z</time>
      </trkpt>
      <trkpt lat="49.98244" lon="2.47541">
        <ele>118.642</ele>
        <time>2020-08-23T07:29:12Z</time>
      </trkpt>
      <trkpt lat="49.9825" lon="2.47541">
        <ele>118.67</ele>
        <time>2020-08-23T07:29:15Z</time>
      </trkpt>
      <trkpt lat="49.98254" lon="2.47541">
        <ele>118.61</ele>
        <time>2020-08-23T07:29:18Z</time>
      </trkpt>
      <trkpt lat="49.9826" lon="2.47541">
        <ele>118.575</ele>
        <time>2020-08-23T07:29:23Z</time>
      </trkpt>
      <trkpt lat="49.98265" lon="2.47542">
        <ele>118.546</ele>
        <time>2020-08-23T07:29:27Z</time>
      </trkpt>
      <trkpt lat="49.9827" lon="2.47541">
        <ele>118.571</ele>
        <time>2020-08-23T07:29:30Z</time>
      </trkpt>
      <trkpt lat="49.98275" lon="2.47542">
        <ele>118.645</ele>
        <time>2020-08-23T07:29:34Z</time>
      </trkpt>
      <trkpt lat="49.9828" lon="2.47541">
        <ele>118.747</ele>
        <time>2020-08-23T07:29:38Z</time>
      </trkpt>
      <trkpt lat="49.98286" lon="2.47542">
        <ele>118.711</ele>
        <time>2020-08-23T07:29:42Z</time>
      </trkpt>
      <trkpt lat="49.9829" lon="2.47543">
        <ele>118.808</ele>
        <time>2020-08-23T07:29:45Z</time>
      </trkpt>
      <trkpt lat="49.98296" lon="2.47542">
        <ele>119.059</ele>
        <time>2020-08-23T07:29:49Z</time>
      </trkpt>
      <trkpt lat="49.98302" lon="2.47543">
        <ele>119.069</ele>
        <time>2020-08-23T07:29:53Z</time>
      </trkpt>
      <trkpt lat="49.98306" lon="2.47543">
        <ele>119.077</ele>
        <time>2020-08-23T07:29:56Z</time>
      </trkpt>
      <trkpt lat="49.98311" lon="2.47544">
        <ele>119.165</ele>
        <time>2020-08-23T07:30:05Z</time>
      </trkpt>
      <trkpt lat="49.98313" lon="2.47534">
        <ele>119.335</ele>
        <time>2020-08-23T07:30:11Z</time>
      </trkpt>
      <trkpt lat="49.98315" lon="2.47527">
        <ele>119.26</ele>
        <time>2020-08-23T07:30:15Z</time>
      </trkpt>
      <trkpt lat="49.98317" lon="2.4752">
        <ele>119.081</ele>
        <time>2020-08-23T07:30:18Z</time>
      </trkpt>
      <trkpt lat="49.9832" lon="2.47514">
        <ele>118.976</ele>
        <time>2020-08-23T07:30:21Z</time>
      </trkpt>
      <trkpt lat="49.98323" lon="2.47508">
        <ele>118.885</ele>
        <time>2020-08-23T07:30:24Z</time>
      </trkpt>
      <trkpt lat="49.98323" lon="2.47499">
        <ele>118.689</ele>
        <time>2020-08-23T07:30:29Z</time>
      </trkpt>
      <trkpt lat="49.98324" lon="2.4749">
        <ele>118.617</ele>
        <time>2020-08-23T07:30:33Z</time>
      </trkpt>
      <trkpt lat="49.98325" lon="2.47482">
        <ele>118.308</ele>
        <time>2020-08-23T07:30:37Z</time>
      </trkpt>
      <trkpt lat="49.98328" lon="2.47475">
        <ele>118.163</ele>
        <time>2020-08-23T07:30:41Z</time>
      </trkpt>
      <trkpt lat="49.9833" lon="2.47466">
        <ele>118.143</ele>
        <time>2020-08-23T07:30:45Z</time>
      </trkpt>
      <trkpt lat="49.98333" lon="2.47459">
        <ele>118.121</ele>
        <time>2020-08-23T07:30:49Z</time>
      </trkpt>
      <trkpt lat="49.98335" lon="2.47453">
        <ele>118.089</ele>
        <time>2020-08-23T07:30:53Z</time>
      </trkpt>
      <trkpt lat="49.98338" lon="2.47446">
        <ele>118.049</ele>
        <time>2020-08-23T07:30:56Z</time>
      </trkpt>
      <trkpt lat="49.9834" lon="2.47439">
        <ele>118.074</ele>
        <time>2020-08-23T07:30:59Z</time>
      </trkpt>
      <trkpt lat="49.98342" lon="2.47432">
        <ele>118.065</ele>
        <time>2020-08-23T07:31:03Z</time>
      </trkpt>
      <trkpt lat="49.98344" lon="2.47424">
        <ele>118.16</ele>
        <time>2020-08-23T07:31:07Z</time>
      </trkpt>
      <trkpt lat="49.98347" lon="2.47418">
        <ele>118.231</ele>
        <time>2020-08-23T07:31:10Z</time>
      </trkpt>
      <trkpt lat="49.98351" lon="2.47412">
        <ele>118.361</ele>
        <time>2020-08-23T07:31:13Z</time>
      </trkpt>
      <trkpt lat="49.98354" lon="2.47406">
        <ele>118.207</ele>
        <time>2020-08-23T07:31:17Z</time>
      </trkpt>
      <trkpt lat="49.98357" lon="2.474">
        <ele>118.008</ele>
        <time>2020-08-23T07:31:21Z</time>
      </trkpt>
      <trkpt lat="49.98361" lon="2.47394">
        <ele>118.178</ele>
        <time>2020-08-23T07:31:25Z</time>
      </trkpt>
      <trkpt lat="49.98365" lon="2.47388">
        <ele>117.928</ele>
        <time>2020-08-23T07:31:29Z</time>
      </trkpt>
      <trkpt lat="49.98367" lon="2.47382">
        <ele>118.096</ele>
        <time>2020-08-23T07:31:33Z</time>
      </trkpt>
      <trkpt lat="49.9837" lon="2.47376">
        <ele>118.094</ele>
        <time>2020-08-23T07:31:36Z</time>
      </trkpt>
      <trkpt lat="49.98371" lon="2.47368">
        <ele>117.784</ele>
        <time>2020-08-23T07:31:41Z</time>
      </trkpt>
      <trkpt lat="49.98374" lon="2.4736">
        <ele>117.579</ele>
        <time>2020-08-23T07:31:45Z</time>
      </trkpt>
      <trkpt lat="49.98376" lon="2.47354">
        <ele>117.58</ele>
        <time>2020-08-23T07:31:48Z</time>
      </trkpt>
      <trkpt lat="49.98378" lon="2.47347">
        <ele>117.475</ele>
        <time>2020-08-23T07:31:51Z</time>
      </trkpt>
      <trkpt lat="49.98381" lon="2.4734">
        <ele>117.268</ele>
        <time>2020-08-23T07:31:55Z</time>
      </trkpt>
      <trkpt lat="49.98384" lon="2.47333">
        <ele>116.842</ele>
        <time>2020-08-23T07:31:59Z</time>
      </trkpt>
      <trkpt lat="49.98385" lon="2.47324">
        <ele>116.626</ele>
        <time>2020-08-23T07:32:03Z</time>
      </trkpt>
      <trkpt lat="49.98387" lon="2.47317">
        <ele>116.508</ele>
        <time>2020-08-23T07:32:06Z</time>
      </trkpt>
      <trkpt lat="49.98389" lon="2.4731">
        <ele>116.381</ele>
        <time>2020-08-23T07:32:10Z</time>
      </trkpt>
      <trkpt lat="49.98391" lon="2.47302">
        <ele>115.931</ele>
        <time>2020-08-23T07:32:14Z</time>
      </trkpt>
      <trkpt lat="49.98393" lon="2.47295">
        <ele>115.719</ele>
        <time>2020-08-23T07:32:18Z</time>
      </trkpt>
      <trkpt lat="49.98396" lon="2.47288">
        <ele>115.647</ele>
        <time>2020-08-23T07:32:21Z</time>
      </trkpt>
      <trkpt lat="49.98399" lon="2.47281">
        <ele>115.227</ele>
        <time>2020-08-23T07:32:25Z</time>
      </trkpt>
      <trkpt lat="49.98402" lon="2.47273">
        <ele>114.942</ele>
        <time>2020-08-23T07:32:28Z</time>
      </trkpt>
      <trkpt lat="49.98404" lon="2.47266">
        <ele>114.713</ele>
        <time>2020-08-23T07:32:32Z</time>
      </trkpt>
      <trkpt lat="49.98407" lon="2.47259">
        <ele>114.768</ele>
        <time>2020-08-23T07:32:35Z</time>
      </trkpt>
      <trkpt lat="49.9841" lon="2.47253">
        <ele>114.797</ele>
        <time>2020-08-23T07:32:39Z</time>
      </trkpt>
      <trkpt lat="49.98409" lon="2.47245">
        <ele>114.523</ele>
        <time>2020-08-23T07:32:44Z</time>
      </trkpt>
      <trkpt lat="49.98407" lon="2.47238">
        <ele>114.725</ele>
        <time>2020-08-23T07:32:48Z</time>
      </trkpt>
      <trkpt lat="49.98403" lon="2.47233">
        <ele>114.508</ele>
        <time>2020-08-23T07:32:52Z</time>
      </trkpt>
      <trkpt lat="49.98399" lon="2.47227">
        <ele>114.424</ele>
        <time>2020-08-23T07:32:57Z</time>
      </trkpt>
      <trkpt lat="49.98395" lon="2.47222">
        <ele>114.754</ele>
        <time>2020-08-23T07:33:01Z</time>
      </trkpt>
      <trkpt lat="49.9839" lon="2.4722">
        <ele>114.572</ele>
        <time>2020-08-23T07:33:05Z</time>
      </trkpt>
      <trkpt lat="49.98386" lon="2.47216">
        <ele>114.14</ele>
        <time>2020-08-23T07:33:08Z</time>
      </trkpt>
      <trkpt lat="49.98382" lon="2.47212">
        <ele>114.04</ele>
        <time>2020-08-23T07:33:11Z</time>
      </trkpt>
      <trkpt lat="49.98378" lon="2.47209">
        <ele>114.285</ele>
        <time>2020-08-23T07:33:14Z</time>
      </trkpt>
      <trkpt lat="49.98374" lon="2.47203">
        <ele>114.326</ele>
        <time>2020-08-23T07:33:18Z</time>
      </trkpt>
      <trkpt lat="49.9837" lon="2.47198">
        <ele>114.381</ele>
        <time>2020-08-23T07:33:21Z</time>
      </trkpt>
      <trkpt lat="49.98366" lon="2.47191">
        <ele>114.332</ele>
        <time>2020-08-23T07:33:25Z</time>
      </trkpt>
      <trkpt lat="49.98363" lon="2.47185">
        <ele>114.192</ele>
        <time>2020-08-23T07:33:29Z</time>
      </trkpt>
      <trkpt lat="49.98359" lon="2.4718">
        <ele>114.011</ele>
        <time>2020-08-23T07:33:32Z</time>
      </trkpt>
      <trkpt lat="49.98356" lon="2.47175">
        <ele>113.908</ele>
        <time>2020-08-23T07:33:35Z</time>
      </trkpt>
      <trkpt lat="49.98352" lon="2.4717">
        <ele>113.878</ele>
        <time>2020-08-23T07:33:38Z</time>
      </trkpt>
      <trkpt lat="49.98348" lon="2.47165">
        <ele>113.668</ele>
        <time>2020-08-23T07:33:42Z</time>
      </trkpt>
      <trkpt lat="49.98344" lon="2.47158">
        <ele>113.236</ele>
        <time>2020-08-23T07:33:46Z</time>
      </trkpt>
      <trkpt lat="49.98343" lon="2.47151">
        <ele>113.154</ele>
        <time>2020-08-23T07:33:50Z</time>
      </trkpt>
      <trkpt lat="49.98341" lon="2.47144">
        <ele>112.834</ele>
        <time>2020-08-23T07:33:54Z</time>
      </trkpt>
      <trkpt lat="49.98341" lon="2.47135">
        <ele>112.939</ele>
        <time>2020-08-23T07:33:59Z</time>
      </trkpt>
      <trkpt lat="49.98342" lon="2.47127">
        <ele>111.88</ele>
        <time>2020-08-23T07:34:04Z</time>
      </trkpt>
      <trkpt lat="49.98343" lon="2.47119">
        <ele>111.665</ele>
        <time>2020-08-23T07:34:08Z</time>
      </trkpt>
      <trkpt lat="49.98344" lon="2.4711">
        <ele>111.019</ele>
        <time>2020-08-23T07:34:13Z</time>
      </trkpt>
      <trkpt lat="49.98345" lon="2.47103">
        <ele>110.809</ele>
        <time>2020-08-23T07:34:16Z</time>
      </trkpt>
      <trkpt lat="49.98346" lon="2.47096">
        <ele>110.619</ele>
        <time>2020-08-23T07:34:19Z</time>
      </trkpt>
      <trkpt lat="49.98347" lon="2.47089">
        <ele>110.408</ele>
        <time>2020-08-23T07:34:23Z</time>
      </trkpt>
      <trkpt lat="49.98346" lon="2.4708">
        <ele>109.976</ele>
        <time>2020-08-23T07:34:27Z</time>
      </trkpt>
      <trkpt lat="49.98346" lon="2.47072">
        <ele>109.436</ele>
        <time>2020-08-23T07:34:31Z</time>
      </trkpt>
      <trkpt lat="49.98345" lon="2.47063">
        <ele>109.024</ele>
        <time>2020-08-23T07:34:35Z</time>
      </trkpt>
      <trkpt lat="49.98347" lon="2.47054">
        <ele>108.972</ele>
        <time>2020-08-23T07:34:39Z</time>
      </trkpt>
      <trkpt lat="49.98349" lon="2.47047">
        <ele>108.542</ele>
        <time>2020-08-23T07:34:42Z</time>
      </trkpt>
      <trkpt lat="49.9835" lon="2.47038">
        <ele>108.197</ele>
        <time>2020-08-23T07:34:46Z</time>
      </trkpt>
      <trkpt lat="49.98352" lon="2.4703">
        <ele>107.678</ele>
        <time>2020-08-23T07:34:50Z</time>
      </trkpt>
      <trkpt lat="49.98352" lon="2.47023">
        <ele>107.213</ele>
        <time>2020-08-23T07:34:53Z</time>
      </trkpt>
      <trkpt lat="49.98352" lon="2.47013">
        <ele>106.454</ele>
        <time>2020-08-23T07:34:57Z</time>
      </trkpt>
      <trkpt lat="49.98352" lon="2.47005">
        <ele>106.056</ele>
        <time>2020-08-23T07:35:00Z</time>
      </trkpt>
      <trkpt lat="49.98353" lon="2.46999">
        <ele>105.611</ele>
        <time>2020-08-23T07:35:03Z</time>
      </trkpt>
      <trkpt lat="49.98353" lon="2.46991">
        <ele>105.208</ele>
        <time>2020-08-23T07:35:07Z</time>
      </trkpt>
      <trkpt lat="49.98353" lon="2.46982">
        <ele>104.75</ele>
        <time>2020-08-23T07:35:11Z</time>
      </trkpt>
      <trkpt lat="49.98351" lon="2.46973">
        <ele>104.26</ele>
        <time>2020-08-23T07:35:15Z</time>
      </trkpt>
      <trkpt lat="49.98351" lon="2.46966">
        <ele>103.948</ele>
        <time>2020-08-23T07:35:18Z</time>
      </trkpt>
      <trkpt lat="49.98351" lon="2.46957">
        <ele>103.616</ele>
        <time>2020-08-23T07:35:22Z</time>
      </trkpt>
      <trkpt lat="49.98351" lon="2.46949">
        <ele>102.966</ele>
        <time>2020-08-23T07:35:26Z</time>
      </trkpt>
      <trkpt lat="49.98353" lon="2.4694">
        <ele>102.531</ele>
        <time>2020-08-23T07:35:30Z</time>
      </trkpt>
      <trkpt lat="49.98354" lon="2.46932">
        <ele>102.092</ele>
        <time>2020-08-23T07:35:34Z</time>
      </trkpt>
      <trkpt lat="49.98353" lon="2.46924">
        <ele>101.477</ele>
        <time>2020-08-23T07:35:38Z</time>
      </trkpt>
      <trkpt lat="49.98354" lon="2.46915">
        <ele>100.685</ele>
        <time>2020-08-23T07:35:42Z</time>
      </trkpt>
      <trkpt lat="49.98356" lon="2.46908">
        <ele>99.489</ele>
        <time>2020-08-23T07:35:47Z</time>
      </trkpt>
      <trkpt lat="49.98361" lon="2.46907">
        <ele>98.417</ele>
        <time>2020-08-23T07:35:51Z</time>
      </trkpt>
      <trkpt lat="49.98365" lon="2.46905">
        <ele>97.408</ele>
        <time>2020-08-23T07:35:55Z</time>
      </trkpt>
      <trkpt lat="49.9837" lon="2.46907">
        <ele>97.233</ele>
        <time>2020-08-23T07:35:59Z</time>
      </trkpt>
      <trkpt lat="49.98374" lon="2.4691">
        <ele>97.423</ele>
        <time>2020-08-23T07:36:02Z</time>
      </trkpt>
      <trkpt lat="49.98379" lon="2.46914">
        <ele>98.231</ele>
        <time>2020-08-23T07:36:06Z</time>
      </trkpt>
      <trkpt lat="49.98383" lon="2.46918">
        <ele>98.469</ele>
        <time>2020-08-23T07:36:09Z</time>
      </trkpt>
      <trkpt lat="49.98386" lon="2.46925">
        <ele>98.339</ele>
        <time>2020-08-23T07:36:14Z</time>
      </trkpt>
      <trkpt lat="49.98391" lon="2.46929">
        <ele>97.914</ele>
        <time>2020-08-23T07:36:18Z</time>
      </trkpt>
      <trkpt lat="49.98395" lon="2.46933">
        <ele>97.965</ele>
        <time>2020-08-23T07:36:23Z</time>
      </trkpt>
      <trkpt lat="49.98399" lon="2.46936">
        <ele>97.62</ele>
        <time>2020-08-23T07:36:26Z</time>
      </trkpt>
      <trkpt lat="49.98404" lon="2.46939">
        <ele>97.676</ele>
        <time>2020-08-23T07:36:29Z</time>
      </trkpt>
      <trkpt lat="49.98408" lon="2.46941">
        <ele>97.69</ele>
        <time>2020-08-23T07:36:32Z</time>
      </trkpt>
      <trkpt lat="49.98413" lon="2.46941">
        <ele>96.919</ele>
        <time>2020-08-23T07:36:36Z</time>
      </trkpt>
      <trkpt lat="49.98418" lon="2.46938">
        <ele>96.608</ele>
        <time>2020-08-23T07:36:39Z</time>
      </trkpt>
      <trkpt lat="49.98422" lon="2.46934">
        <ele>96.462</ele>
        <time>2020-08-23T07:36:43Z</time>
      </trkpt>
      <trkpt lat="49.98425" lon="2.46927">
        <ele>95.932</ele>
        <time>2020-08-23T07:36:46Z</time>
      </trkpt>
      <trkpt lat="49.98428" lon="2.46918">
        <ele>95.12</ele>
        <time>2020-08-23T07:36:50Z</time>
      </trkpt>
      <trkpt lat="49.9843" lon="2.46912">
        <ele>94.598</ele>
        <time>2020-08-23T07:36:54Z</time>
      </trkpt>
      <trkpt lat="49.98432" lon="2.46905">
        <ele>94.058</ele>
        <time>2020-08-23T07:36:58Z</time>
      </trkpt>
      <trkpt lat="49.98435" lon="2.469">
        <ele>93.533</ele>
        <time>2020-08-23T07:37:01Z</time>
      </trkpt>
      <trkpt lat="49.98438" lon="2.46893">
        <ele>92.834</ele>
        <time>2020-08-23T07:37:05Z</time>
      </trkpt>
      <trkpt lat="49.98441" lon="2.46886">
        <ele>92.559</ele>
        <time>2020-08-23T07:37:08Z</time>
      </trkpt>
      <trkpt lat="49.98443" lon="2.46879">
        <ele>92.152</ele>
        <time>2020-08-23T07:37:11Z</time>
      </trkpt>
      <trkpt lat="49.98445" lon="2.4687">
        <ele>91.353</ele>
        <time>2020-08-23T07:37:15Z</time>
      </trkpt>
      <trkpt lat="49.98445" lon="2.46863">
        <ele>90.808</ele>
        <time>2020-08-23T07:37:18Z</time>
      </trkpt>
      <trkpt lat="49.98446" lon="2.46854">
        <ele>90.508</ele>
        <time>2020-08-23T07:37:22Z</time>
      </trkpt>
      <trkpt lat="49.98447" lon="2.46846">
        <ele>90.02</ele>
        <time>2020-08-23T07:37:26Z</time>
      </trkpt>
      <trkpt lat="49.98447" lon="2.46838">
        <ele>89.57</ele>
        <time>2020-08-23T07:37:30Z</time>
      </trkpt>
      <trkpt lat="49.98447" lon="2.46831">
        <ele>89.118</ele>
        <time>2020-08-23T07:37:34Z</time>
      </trkpt>
      <trkpt lat="49.98447" lon="2.46823">
        <ele>88.966</ele>
        <time>2020-08-23T07:37:37Z</time>
      </trkpt>
      <trkpt lat="49.98445" lon="2.46815">
        <ele>88.596</ele>
        <time>2020-08-23T07:37:41Z</time>
      </trkpt>
      <trkpt lat="49.98443" lon="2.46807">
        <ele>88.141</ele>
        <time>2020-08-23T07:37:45Z</time>
      </trkpt>
      <trkpt lat="49.98441" lon="2.46799">
        <ele>87.922</ele>
        <time>2020-08-23T07:37:49Z</time>
      </trkpt>
      <trkpt lat="49.9844" lon="2.46792">
        <ele>87.667</ele>
        <time>2020-08-23T07:37:53Z</time>
      </trkpt>
      <trkpt lat="49.9844" lon="2.46784">
        <ele>87.487</ele>
        <time>2020-08-23T07:37:56Z</time>
      </trkpt>
      <trkpt lat="49.98438" lon="2.46776">
        <ele>87.242</ele>
        <time>2020-08-23T07:38:00Z</time>
      </trkpt>
      <trkpt lat="49.98437" lon="2.46767">
        <ele>87.126</ele>
        <time>2020-08-23T07:38:04Z</time>
      </trkpt>
      <trkpt lat="49.98437" lon="2.4676">
        <ele>86.908</ele>
        <time>2020-08-23T07:38:07Z</time>
      </trkpt>
      <trkpt lat="49.98436" lon="2.46752">
        <ele>87.083</ele>
        <time>2020-08-23T07:38:11Z</time>
      </trkpt>
      <trkpt lat="49.98434" lon="2.46744">
        <ele>86.793</ele>
        <time>2020-08-23T07:38:16Z</time>
      </trkpt>
      <trkpt lat="49.98433" lon="2.46735">
        <ele>86.761</ele>
        <time>2020-08-23T07:38:19Z</time>
      </trkpt>
      <trkpt lat="49.98432" lon="2.46726">
        <ele>86.849</ele>
        <time>2020-08-23T07:38:22Z</time>
      </trkpt>
      <trkpt lat="49.98432" lon="2.46719">
        <ele>85.969</ele>
        <time>2020-08-23T07:38:27Z</time>
      </trkpt>
      <trkpt lat="49.98431" lon="2.46712">
        <ele>85.654</ele>
        <time>2020-08-23T07:38:30Z</time>
      </trkpt>
      <trkpt lat="49.98431" lon="2.46704">
        <ele>85.135</ele>
        <time>2020-08-23T07:38:34Z</time>
      </trkpt>
      <trkpt lat="49.98431" lon="2.46696">
        <ele>84.82</ele>
        <time>2020-08-23T07:38:37Z</time>
      </trkpt>
      <trkpt lat="49.98431" lon="2.46688">
        <ele>84.482</ele>
        <time>2020-08-23T07:38:41Z</time>
      </trkpt>
      <trkpt lat="49.98431" lon="2.46681">
        <ele>84.243</ele>
        <time>2020-08-23T07:38:44Z</time>
      </trkpt>
      <trkpt lat="49.98432" lon="2.46672">
        <ele>83.617</ele>
        <time>2020-08-23T07:38:48Z</time>
      </trkpt>
      <trkpt lat="49.98433" lon="2.46665">
        <ele>83.208</ele>
        <time>2020-08-23T07:38:52Z</time>
      </trkpt>
      <trkpt lat="49.98435" lon="2.46658">
        <ele>82.723</ele>
        <time>2020-08-23T07:38:57Z</time>
      </trkpt>
      <trkpt lat="49.98437" lon="2.46651">
        <ele>82.623</ele>
        <time>2020-08-23T07:39:02Z</time>
      </trkpt>
      <trkpt lat="49.9844" lon="2.46645">
        <ele>82.421</ele>
        <time>2020-08-23T07:39:05Z</time>
      </trkpt>
      <trkpt lat="49.98444" lon="2.46639">
        <ele>81.919</ele>
        <time>2020-08-23T07:39:09Z</time>
      </trkpt>
      <trkpt lat="49.98448" lon="2.46632">
        <ele>81.869</ele>
        <time>2020-08-23T07:39:13Z</time>
      </trkpt>
      <trkpt lat="49.98451" lon="2.46626">
        <ele>81.774</ele>
        <time>2020-08-23T07:39:16Z</time>
      </trkpt>
      <trkpt lat="49.98453" lon="2.4662">
        <ele>81.545</ele>
        <time>2020-08-23T07:39:19Z</time>
      </trkpt>
      <trkpt lat="49.98456" lon="2.46612">
        <ele>81.25</ele>
        <time>2020-08-23T07:39:24Z</time>
      </trkpt>
      <trkpt lat="49.9846" lon="2.46606">
        <ele>81.168</ele>
        <time>2020-08-23T07:39:27Z</time>
      </trkpt>
      <trkpt lat="49.98464" lon="2.46601">
        <ele>81.142</ele>
        <time>2020-08-23T07:39:30Z</time>
      </trkpt>
      <trkpt lat="49.98468" lon="2.46595">
        <ele>80.326</ele>
        <time>2020-08-23T07:39:34Z</time>
      </trkpt>
      <trkpt lat="49.98471" lon="2.46589">
        <ele>79.508</ele>
        <time>2020-08-23T07:39:38Z</time>
      </trkpt>
      <trkpt lat="49.98475" lon="2.46584">
        <ele>79.221</ele>
        <time>2020-08-23T07:39:41Z</time>
      </trkpt>
      <trkpt lat="49.98479" lon="2.46579">
        <ele>79.131</ele>
        <time>2020-08-23T07:39:45Z</time>
      </trkpt>
      <trkpt lat="49.98482" lon="2.46572">
        <ele>79.039</ele>
        <time>2020-08-23T07:39:49Z</time>
      </trkpt>
      <trkpt lat="49.98486" lon="2.46565">
        <ele>78.887</ele>
        <time>2020-08-23T07:39:53Z</time>
      </trkpt>
      <trkpt lat="49.98488" lon="2.46559">
        <ele>78.597</ele>
        <time>2020-08-23T07:39:57Z</time>
      </trkpt>
      <trkpt lat="49.98493" lon="2.46553">
        <ele>78.422</ele>
        <time>2020-08-23T07:40:01Z</time>
      </trkpt>
      <trkpt lat="49.98496" lon="2.46547">
        <ele>78.353</ele>
        <time>2020-08-23T07:40:04Z</time>
      </trkpt>
      <trkpt lat="49.98501" lon="2.46543">
        <ele>78.228</ele>
        <time>2020-08-23T07:40:08Z</time>
      </trkpt>
      <trkpt lat="49.98503" lon="2.46535">
        <ele>78.131</ele>
        <time>2020-08-23T07:40:12Z</time>
      </trkpt>
      <trkpt lat="49.98505" lon="2.46529">
        <ele>77.861</ele>
        <time>2020-08-23T07:40:16Z</time>
      </trkpt>
      <trkpt lat="49.98508" lon="2.46521">
        <ele>77.507</ele>
        <time>2020-08-23T07:40:20Z</time>
      </trkpt>
      <trkpt lat="49.9851" lon="2.46513">
        <ele>77.108</ele>
        <time>2020-08-23T07:40:24Z</time>
      </trkpt>
      <trkpt lat="49.98512" lon="2.46506">
        <ele>76.928</ele>
        <time>2020-08-23T07:40:27Z</time>
      </trkpt>
      <trkpt lat="49.98515" lon="2.46499">
        <ele>76.698</ele>
        <time>2020-08-23T07:40:32Z</time>
      </trkpt>
      <trkpt lat="49.9852" lon="2.46494">
        <ele>76.126</ele>
        <time>2020-08-23T07:40:36Z</time>
      </trkpt>
      <trkpt lat="49.98524" lon="2.46488">
        <ele>76.154</ele>
        <time>2020-08-23T07:40:40Z</time>
      </trkpt>
      <trkpt lat="49.98527" lon="2.46483">
        <ele>76.064</ele>
        <time>2020-08-23T07:40:43Z</time>
      </trkpt>
      <trkpt lat="49.98531" lon="2.46477">
        <ele>75.819</ele>
        <time>2020-08-23T07:40:46Z</time>
      </trkpt>
      <trkpt lat="49.98536" lon="2.46472">
        <ele>75.47</ele>
        <time>2020-08-23T07:40:49Z</time>
      </trkpt>
      <trkpt lat="49.9854" lon="2.46469">
        <ele>75.025</ele>
        <time>2020-08-23T07:40:52Z</time>
      </trkpt>
      <trkpt lat="49.98545" lon="2.46463">
        <ele>74.957</ele>
        <time>2020-08-23T07:40:56Z</time>
      </trkpt>
      <trkpt lat="49.98549" lon="2.46458">
        <ele>74.9</ele>
        <time>2020-08-23T07:41:00Z</time>
      </trkpt>
      <trkpt lat="49.98554" lon="2.46454">
        <ele>74.52</ele>
        <time>2020-08-23T07:41:04Z</time>
      </trkpt>
      <trkpt lat="49.98558" lon="2.46449">
        <ele>74.008</ele>
        <time>2020-08-23T07:41:09Z</time>
      </trkpt>
      <trkpt lat="49.98562" lon="2.46445">
        <ele>73.53</ele>
        <time>2020-08-23T07:41:12Z</time>
      </trkpt>
      <trkpt lat="49.98567" lon="2.46441">
        <ele>72.76</ele>
        <time>2020-08-23T07:41:16Z</time>
      </trkpt>
      <trkpt lat="49.98571" lon="2.46436">
        <ele>72.588</ele>
        <time>2020-08-23T07:41:20Z</time>
      </trkpt>
      <trkpt lat="49.98575" lon="2.46432">
        <ele>72.366</ele>
        <time>2020-08-23T07:41:24Z</time>
      </trkpt>
      <trkpt lat="49.98579" lon="2.46428">
        <ele>72.066</ele>
        <time>2020-08-23T07:41:28Z</time>
      </trkpt>
      <trkpt lat="49.98584" lon="2.46424">
        <ele>71.581</ele>
        <time>2020-08-23T07:41:32Z</time>
      </trkpt>
      <trkpt lat="49.9859" lon="2.46421">
        <ele>70.942</ele>
        <time>2020-08-23T07:41:36Z</time>
      </trkpt>
      <trkpt lat="49.98594" lon="2.46416">
        <ele>70.527</ele>
        <time>2020-08-23T07:41:39Z</time>
      </trkpt>
      <trkpt lat="49.98599" lon="2.46414">
        <ele>70.284</ele>
        <time>2020-08-23T07:41:43Z</time>
      </trkpt>
      <trkpt lat="49.98603" lon="2.46415">
        <ele>70.207</ele>
        <time>2020-08-23T07:41:54Z</time>
      </trkpt>
      <trkpt lat="49.98606" lon="2.46409">
        <ele>70.517</ele>
        <time>2020-08-23T07:43:04Z</time>
      </trkpt>
      <trkpt lat="49.98608" lon="2.46401">
        <ele>70.308</ele>
        <time>2020-08-23T07:43:08Z</time>
      </trkpt>
      <trkpt lat="49.9861" lon="2.46394">
        <ele>69.883</ele>
        <time>2020-08-23T07:43:12Z</time>
      </trkpt>
      <trkpt lat="49.98612" lon="2.46388">
        <ele>69.623</ele>
        <time>2020-08-23T07:43:15Z</time>
      </trkpt>
      <trkpt lat="49.98612" lon="2.46379">
        <ele>69.581</ele>
        <time>2020-08-23T07:43:19Z</time>
      </trkpt>
      <trkpt lat="49.98611" lon="2.46371">
        <ele>69.479</ele>
        <time>2020-08-23T07:43:23Z</time>
      </trkpt>
      <trkpt lat="49.98612" lon="2.46363">
        <ele>69.229</ele>
        <time>2020-08-23T07:43:27Z</time>
      </trkpt>
      <trkpt lat="49.98613" lon="2.46355">
        <ele>68.924</ele>
        <time>2020-08-23T07:43:32Z</time>
      </trkpt>
      <trkpt lat="49.98614" lon="2.46347">
        <ele>68.675</ele>
        <time>2020-08-23T07:43:36Z</time>
      </trkpt>
      <trkpt lat="49.98616" lon="2.46338">
        <ele>68.55</ele>
        <time>2020-08-23T07:43:40Z</time>
      </trkpt>
      <trkpt lat="49.98619" lon="2.4633">
        <ele>68.536</ele>
        <time>2020-08-23T07:43:44Z</time>
      </trkpt>
      <trkpt lat="49.9862" lon="2.4632">
        <ele>68.517</ele>
        <time>2020-08-23T07:43:48Z</time>
      </trkpt>
      <trkpt lat="49.98621" lon="2.46313">
        <ele>68.418</ele>
        <time>2020-08-23T07:43:51Z</time>
      </trkpt>
      <trkpt lat="49.98622" lon="2.46306">
        <ele>68.608</ele>
        <time>2020-08-23T07:43:54Z</time>
      </trkpt>
      <trkpt lat="49.98625" lon="2.46298">
        <ele>68.758</ele>
        <time>2020-08-23T07:43:58Z</time>
      </trkpt>
      <trkpt lat="49.98627" lon="2.46289">
        <ele>68.398</ele>
        <time>2020-08-23T07:44:02Z</time>
      </trkpt>
      <trkpt lat="49.98628" lon="2.46281">
        <ele>68.186</ele>
        <time>2020-08-23T07:44:06Z</time>
      </trkpt>
      <trkpt lat="49.9863" lon="2.46273">
        <ele>67.774</ele>
        <time>2020-08-23T07:44:10Z</time>
      </trkpt>
      <trkpt lat="49.98632" lon="2.46266">
        <ele>67.784</ele>
        <time>2020-08-23T07:44:13Z</time>
      </trkpt>
      <trkpt lat="49.98634" lon="2.46259">
        <ele>67.579</ele>
        <time>2020-08-23T07:44:17Z</time>
      </trkpt>
      <trkpt lat="49.98636" lon="2.46251">
        <ele>67.74</ele>
        <time>2020-08-23T07:44:21Z</time>
      </trkpt>
      <trkpt lat="49.98638" lon="2.46244">
        <ele>67.675</ele>
        <time>2020-08-23T07:44:25Z</time>
      </trkpt>
      <trkpt lat="49.98639" lon="2.46237">
        <ele>68.181</ele>
        <time>2020-08-23T07:44:29Z</time>
      </trkpt>
      <trkpt lat="49.9864" lon="2.46228">
        <ele>67.261</ele>
        <time>2020-08-23T07:44:33Z</time>
      </trkpt>
      <trkpt lat="49.98641" lon="2.46219">
        <ele>66.717</ele>
        <time>2020-08-23T07:44:37Z</time>
      </trkpt>
      <trkpt lat="49.98643" lon="2.4621">
        <ele>66.508</ele>
        <time>2020-08-23T07:44:41Z</time>
      </trkpt>
      <trkpt lat="49.98645" lon="2.46203">
        <ele>66.373</ele>
        <time>2020-08-23T07:44:44Z</time>
      </trkpt>
      <trkpt lat="49.98647" lon="2.46196">
        <ele>66.323</ele>
        <time>2020-08-23T07:44:48Z</time>
      </trkpt>
      <trkpt lat="49.98649" lon="2.46187">
        <ele>65.991</ele>
        <time>2020-08-23T07:44:52Z</time>
      </trkpt>
      <trkpt lat="49.98651" lon="2.46179">
        <ele>65.869</ele>
        <time>2020-08-23T07:44:56Z</time>
      </trkpt>
      <trkpt lat="49.98652" lon="2.46172">
        <ele>65.779</ele>
        <time>2020-08-23T07:44:59Z</time>
      </trkpt>
      <trkpt lat="49.98654" lon="2.46164">
        <ele>65.744</ele>
        <time>2020-08-23T07:45:03Z</time>
      </trkpt>
      <trkpt lat="49.98656" lon="2.46155">
        <ele>65.895</ele>
        <time>2020-08-23T07:45:07Z</time>
      </trkpt>
      <trkpt lat="49.98658" lon="2.46146">
        <ele>66.37</ele>
        <time>2020-08-23T07:45:12Z</time>
      </trkpt>
      <trkpt lat="49.98659" lon="2.46138">
        <ele>65.875</ele>
        <time>2020-08-23T07:45:16Z</time>
      </trkpt>
      <trkpt lat="49.98661" lon="2.4613">
        <ele>66.028</ele>
        <time>2020-08-23T07:45:20Z</time>
      </trkpt>
      <trkpt lat="49.98663" lon="2.46123">
        <ele>65.92</ele>
        <time>2020-08-23T07:45:23Z</time>
      </trkpt>
      <trkpt lat="49.98665" lon="2.46115">
        <ele>65.808</ele>
        <time>2020-08-23T07:45:27Z</time>
      </trkpt>
      <trkpt lat="49.98666" lon="2.46105">
        <ele>65.242</ele>
        <time>2020-08-23T07:45:31Z</time>
      </trkpt>
      <trkpt lat="49.98667" lon="2.46098">
        <ele>65.292</ele>
        <time>2020-08-23T07:45:34Z</time>
      </trkpt>
      <trkpt lat="49.9867" lon="2.46089">
        <ele>65.08</ele>
        <time>2020-08-23T07:45:38Z</time>
      </trkpt>
      <trkpt lat="49.98671" lon="2.4608">
        <ele>65.038</ele>
        <time>2020-08-23T07:45:42Z</time>
      </trkpt>
      <trkpt lat="49.98673" lon="2.46073">
        <ele>65.148</ele>
        <time>2020-08-23T07:45:45Z</time>
      </trkpt>
      <trkpt lat="49.98676" lon="2.46066">
        <ele>64.913</ele>
        <time>2020-08-23T07:45:49Z</time>
      </trkpt>
      <trkpt lat="49.98678" lon="2.46059">
        <ele>64.754</ele>
        <time>2020-08-23T07:45:54Z</time>
      </trkpt>
      <trkpt lat="49.98678" lon="2.4605">
        <ele>64.529</ele>
        <time>2020-08-23T07:45:58Z</time>
      </trkpt>
      <trkpt lat="49.98679" lon="2.46042">
        <ele>64.182</ele>
        <time>2020-08-23T07:46:02Z</time>
      </trkpt>
      <trkpt lat="49.98681" lon="2.46035">
        <ele>64.143</ele>
        <time>2020-08-23T07:46:06Z</time>
      </trkpt>
      <trkpt lat="49.98682" lon="2.46027">
        <ele>64.017</ele>
        <time>2020-08-23T07:46:10Z</time>
      </trkpt>
      <trkpt lat="49.98682" lon="2.4602">
        <ele>64.008</ele>
        <time>2020-08-23T07:46:14Z</time>
      </trkpt>
      <trkpt lat="49.98684" lon="2.46013">
        <ele>63.973</ele>
        <time>2020-08-23T07:46:18Z</time>
      </trkpt>
      <trkpt lat="49.98686" lon="2.46006">
        <ele>63.833</ele>
        <time>2020-08-23T07:46:22Z</time>
      </trkpt>
      <trkpt lat="49.98688" lon="2.45998">
        <ele>63.591</ele>
        <time>2020-08-23T07:46:26Z</time>
      </trkpt>
      <trkpt lat="49.98691" lon="2.45993">
        <ele>63.589</ele>
        <time>2020-08-23T07:46:36Z</time>
      </trkpt>
      <trkpt lat="49.98692" lon="2.45986">
        <ele>63.549</ele>
        <time>2020-08-23T07:47:02Z</time>
      </trkpt>
      <trkpt lat="49.98694" lon="2.45979">
        <ele>63.534</ele>
        <time>2020-08-23T07:47:17Z</time>
      </trkpt>
      <trkpt lat="49.98695" lon="2.45971">
        <ele>63.975</ele>
        <time>2020-08-23T07:47:26Z</time>
      </trkpt>
      <trkpt lat="49.98693" lon="2.45978">
        <ele>64.36</ele>
        <time>2020-08-23T07:48:22Z</time>
      </trkpt>
      <trkpt lat="49.98693" lon="2.45985">
        <ele>64.949</ele>
        <time>2020-08-23T07:48:31Z</time>
      </trkpt>
      <trkpt lat="49.98698" lon="2.45982">
        <ele>64.702</ele>
        <time>2020-08-23T07:49:34Z</time>
      </trkpt>
      <trkpt lat="49.98696" lon="2.45975">
        <ele>64.022</ele>
        <time>2020-08-23T07:49:44Z</time>
      </trkpt>
      <trkpt lat="49.98692" lon="2.45967">
        <ele>63.708</ele>
        <time>2020-08-23T07:49:48Z</time>
      </trkpt>
      <trkpt lat="49.9869" lon="2.45959">
        <ele>63.429</ele>
        <time>2020-08-23T07:49:52Z</time>
      </trkpt>
      <trkpt lat="49.98688" lon="2.45952">
        <ele>63.219</ele>
        <time>2020-08-23T07:49:55Z</time>
      </trkpt>
      <trkpt lat="49.98687" lon="2.45945">
        <ele>63.337</ele>
        <time>2020-08-23T07:49:58Z</time>
      </trkpt>
      <trkpt lat="49.98685" lon="2.45938">
        <ele>63.095</ele>
        <time>2020-08-23T07:50:03Z</time>
      </trkpt>
      <trkpt lat="49.98683" lon="2.45931">
        <ele>62.625</ele>
        <time>2020-08-23T07:50:08Z</time>
      </trkpt>
      <trkpt lat="49.98681" lon="2.45924">
        <ele>62.49</ele>
        <time>2020-08-23T07:50:11Z</time>
      </trkpt>
      <trkpt lat="49.98677" lon="2.45917">
        <ele>62.381</ele>
        <time>2020-08-23T07:50:14Z</time>
      </trkpt>
      <trkpt lat="49.98674" lon="2.45908">
        <ele>62.356</ele>
        <time>2020-08-23T07:50:18Z</time>
      </trkpt>
      <trkpt lat="49.98673" lon="2.45901">
        <ele>62.366</ele>
        <time>2020-08-23T07:50:21Z</time>
      </trkpt>
      <trkpt lat="49.98672" lon="2.45892">
        <ele>62.329</ele>
        <time>2020-08-23T07:50:25Z</time>
      </trkpt>
      <trkpt lat="49.98671" lon="2.45884">
        <ele>62.121</ele>
        <time>2020-08-23T07:50:29Z</time>
      </trkpt>
      <trkpt lat="49.98668" lon="2.45877">
        <ele>61.908</ele>
        <time>2020-08-23T07:50:33Z</time>
      </trkpt>
      <trkpt lat="49.98664" lon="2.4587">
        <ele>61.831</ele>
        <time>2020-08-23T07:50:36Z</time>
      </trkpt>
      <trkpt lat="49.98662" lon="2.45862">
        <ele>61.741</ele>
        <time>2020-08-23T07:50:40Z</time>
      </trkpt>
      <trkpt lat="49.98658" lon="2.45855">
        <ele>61.699</ele>
        <time>2020-08-23T07:50:44Z</time>
      </trkpt>
      <trkpt lat="49.98657" lon="2.45847">
        <ele>61.547</ele>
        <time>2020-08-23T07:50:50Z</time>
      </trkpt>
      <trkpt lat="49.98657" lon="2.45838">
        <ele>61.667</ele>
        <time>2020-08-23T07:50:54Z</time>
      </trkpt>
      <trkpt lat="49.98658" lon="2.45831">
        <ele>61.522</ele>
        <time>2020-08-23T07:50:57Z</time>
      </trkpt>
      <trkpt lat="49.9866" lon="2.45823">
        <ele>61.583</ele>
        <time>2020-08-23T07:51:01Z</time>
      </trkpt>
      <trkpt lat="49.98659" lon="2.45813">
        <ele>61.188</ele>
        <time>2020-08-23T07:51:06Z</time>
      </trkpt>
      <trkpt lat="49.98659" lon="2.45805">
        <ele>60.847</ele>
        <time>2020-08-23T07:51:10Z</time>
      </trkpt>
      <trkpt lat="49.98658" lon="2.45797">
        <ele>60.829</ele>
        <time>2020-08-23T07:51:14Z</time>
      </trkpt>
      <trkpt lat="49.98657" lon="2.45789">
        <ele>60.921</ele>
        <time>2020-08-23T07:51:18Z</time>
      </trkpt>
      <trkpt lat="49.98656" lon="2.4578">
        <ele>60.908</ele>
        <time>2020-08-23T07:51:21Z</time>
      </trkpt>
      <trkpt lat="49.98655" lon="2.45772">
        <ele>60.789</ele>
        <time>2020-08-23T07:51:24Z</time>
      </trkpt>
      <trkpt lat="49.98654" lon="2.45765">
        <ele>60.449</ele>
        <time>2020-08-23T07:51:27Z</time>
      </trkpt>
      <trkpt lat="49.98653" lon="2.45757">
        <ele>60.277</ele>
        <time>2020-08-23T07:51:30Z</time>
      </trkpt>
      <trkpt lat="49.98652" lon="2.4575">
        <ele>60.555</ele>
        <time>2020-08-23T07:51:34Z</time>
      </trkpt>
      <trkpt lat="49.98652" lon="2.45743">
        <ele>60.695</ele>
        <time>2020-08-23T07:51:37Z</time>
      </trkpt>
      <trkpt lat="49.98651" lon="2.45735">
        <ele>60.52</ele>
        <time>2020-08-23T07:51:40Z</time>
      </trkpt>
      <trkpt lat="49.9865" lon="2.45726">
        <ele>60.381</ele>
        <time>2020-08-23T07:51:44Z</time>
      </trkpt>
      <trkpt lat="49.98652" lon="2.45717">
        <ele>60.226</ele>
        <time>2020-08-23T07:51:48Z</time>
      </trkpt>
      <trkpt lat="49.98652" lon="2.45709">
        <ele>60.286</ele>
        <time>2020-08-23T07:51:51Z</time>
      </trkpt>
      <trkpt lat="49.98652" lon="2.45701">
        <ele>60.46</ele>
        <time>2020-08-23T07:51:55Z</time>
      </trkpt>
      <trkpt lat="49.98652" lon="2.45692">
        <ele>60.226</ele>
        <time>2020-08-23T07:51:59Z</time>
      </trkpt>
      <trkpt lat="49.98653" lon="2.45683">
        <ele>60.208</ele>
        <time>2020-08-23T07:52:02Z</time>
      </trkpt>
      <trkpt lat="49.98653" lon="2.45675">
        <ele>60.263</ele>
        <time>2020-08-23T07:52:06Z</time>
      </trkpt>
      <trkpt lat="49.98653" lon="2.45668">
        <ele>60.283</ele>
        <time>2020-08-23T07:52:10Z</time>
      </trkpt>
      <trkpt lat="49.98652" lon="2.45659">
        <ele>60.351</ele>
        <time>2020-08-23T07:52:14Z</time>
      </trkpt>
      <trkpt lat="49.9865" lon="2.45652">
        <ele>60.259</ele>
        <time>2020-08-23T07:52:17Z</time>
      </trkpt>
      <trkpt lat="49.9865" lon="2.45643">
        <ele>60.149</ele>
        <time>2020-08-23T07:52:21Z</time>
      </trkpt>
      <trkpt lat="49.9865" lon="2.45635">
        <ele>60.034</ele>
        <time>2020-08-23T07:52:25Z</time>
      </trkpt>
      <trkpt lat="49.98649" lon="2.45626">
        <ele>59.835</ele>
        <time>2020-08-23T07:52:29Z</time>
      </trkpt>
      <trkpt lat="49.98648" lon="2.45619">
        <ele>59.78</ele>
        <time>2020-08-23T07:52:32Z</time>
      </trkpt>
      <trkpt lat="49.98647" lon="2.45612">
        <ele>59.684</ele>
        <time>2020-08-23T07:52:35Z</time>
      </trkpt>
      <trkpt lat="49.98646" lon="2.45604">
        <ele>59.607</ele>
        <time>2020-08-23T07:52:38Z</time>
      </trkpt>
      <trkpt lat="49.98645" lon="2.45597">
        <ele>59.517</ele>
        <time>2020-08-23T07:52:42Z</time>
      </trkpt>
      <trkpt lat="49.98644" lon="2.45588">
        <ele>59.208</ele>
        <time>2020-08-23T07:52:46Z</time>
      </trkpt>
      <trkpt lat="49.98644" lon="2.45579">
        <ele>59.253</ele>
        <time>2020-08-23T07:52:50Z</time>
      </trkpt>
      <trkpt lat="49.98644" lon="2.4557">
        <ele>58.933</ele>
        <time>2020-08-23T07:52:54Z</time>
      </trkpt>
      <trkpt lat="49.98645" lon="2.45562">
        <ele>59.021</ele>
        <time>2020-08-23T07:52:57Z</time>
      </trkpt>
      <trkpt lat="49.98647" lon="2.45555">
        <ele>59.089</ele>
        <time>2020-08-23T07:53:01Z</time>
      </trkpt>
      <trkpt lat="49.98648" lon="2.45548">
        <ele>59.039</ele>
        <time>2020-08-23T07:53:04Z</time>
      </trkpt>
      <trkpt lat="49.98648" lon="2.45541">
        <ele>58.734</ele>
        <time>2020-08-23T07:53:07Z</time>
      </trkpt>
      <trkpt lat="49.98647" lon="2.45534">
        <ele>58.615</ele>
        <time>2020-08-23T07:53:10Z</time>
      </trkpt>
      <trkpt lat="49.98647" lon="2.45525">
        <ele>58.43</ele>
        <time>2020-08-23T07:53:14Z</time>
      </trkpt>
      <trkpt lat="49.98647" lon="2.45517">
        <ele>58.277</ele>
        <time>2020-08-23T07:53:18Z</time>
      </trkpt>
      <trkpt lat="49.98647" lon="2.45508">
        <ele>58.161</ele>
        <time>2020-08-23T07:53:22Z</time>
      </trkpt>
      <trkpt lat="49.98645" lon="2.45499">
        <ele>57.727</ele>
        <time>2020-08-23T07:53:26Z</time>
      </trkpt>
      <trkpt lat="49.98644" lon="2.45492">
        <ele>57.508</ele>
        <time>2020-08-23T07:53:29Z</time>
      </trkpt>
      <trkpt lat="49.98643" lon="2.45485">
        <ele>57.342</ele>
        <time>2020-08-23T07:53:32Z</time>
      </trkpt>
      <trkpt lat="49.98642" lon="2.45476">
        <ele>57.112</ele>
        <time>2020-08-23T07:53:36Z</time>
      </trkpt>
      <trkpt lat="49.98642" lon="2.45467">
        <ele>57.09</ele>
        <time>2020-08-23T07:53:41Z</time>
      </trkpt>
      <trkpt lat="49.9864" lon="2.45459">
        <ele>56.738</ele>
        <time>2020-08-23T07:53:45Z</time>
      </trkpt>
      <trkpt lat="49.98641" lon="2.45452">
        <ele>56.558</ele>
        <time>2020-08-23T07:53:48Z</time>
      </trkpt>
      <trkpt lat="49.98641" lon="2.45445">
        <ele>56.163</ele>
        <time>2020-08-23T07:53:52Z</time>
      </trkpt>
      <trkpt lat="49.98642" lon="2.45437">
        <ele>55.984</ele>
        <time>2020-08-23T07:53:56Z</time>
      </trkpt>
      <trkpt lat="49.98642" lon="2.45429">
        <ele>55.529</ele>
        <time>2020-08-23T07:54:00Z</time>
      </trkpt>
      <trkpt lat="49.98642" lon="2.4542">
        <ele>55.175</ele>
        <time>2020-08-23T07:54:04Z</time>
      </trkpt>
      <trkpt lat="49.98642" lon="2.45412">
        <ele>54.928</ele>
        <time>2020-08-23T07:54:07Z</time>
      </trkpt>
      <trkpt lat="49.98642" lon="2.45405">
        <ele>54.72</ele>
        <time>2020-08-23T07:54:11Z</time>
      </trkpt>
      <trkpt lat="49.98642" lon="2.45395">
        <ele>54.408</ele>
        <time>2020-08-23T07:54:15Z</time>
      </trkpt>
      <trkpt lat="49.98641" lon="2.45387">
        <ele>54.142</ele>
        <time>2020-08-23T07:54:18Z</time>
      </trkpt>
      <trkpt lat="49.98641" lon="2.4538">
        <ele>53.962</ele>
        <time>2020-08-23T07:54:21Z</time>
      </trkpt>
      <trkpt lat="49.98639" lon="2.45372">
        <ele>53.53</ele>
        <time>2020-08-23T07:54:25Z</time>
      </trkpt>
      <trkpt lat="49.98637" lon="2.45365">
        <ele>53.218</ele>
        <time>2020-08-23T07:54:29Z</time>
      </trkpt>
      <trkpt lat="49.98635" lon="2.45359">
        <ele>53.778</ele>
        <time>2020-08-23T07:54:56Z</time>
      </trkpt>
      <trkpt lat="49.9863" lon="2.45359">
        <ele>53.223</ele>
        <time>2020-08-23T07:55:49Z</time>
      </trkpt>
      <trkpt lat="49.98626" lon="2.45358">
        <ele>53.114</ele>
        <time>2020-08-23T07:55:54Z</time>
      </trkpt>
      <trkpt lat="49.9862" lon="2.45359">
        <ele>52.989</ele>
        <time>2020-08-23T07:55:59Z</time>
      </trkpt>
      <trkpt lat="49.98614" lon="2.45361">
        <ele>53.161</ele>
        <time>2020-08-23T07:56:03Z</time>
      </trkpt>
      <trkpt lat="49.98608" lon="2.45363">
        <ele>53.221</ele>
        <time>2020-08-23T07:56:06Z</time>
      </trkpt>
      <trkpt lat="49.98603" lon="2.45365">
        <ele>53.413</ele>
        <time>2020-08-23T07:56:10Z</time>
      </trkpt>
      <trkpt lat="49.98598" lon="2.45365">
        <ele>53.408</ele>
        <time>2020-08-23T07:56:14Z</time>
      </trkpt>
      <trkpt lat="49.98592" lon="2.45368">
        <ele>53.521</ele>
        <time>2020-08-23T07:56:18Z</time>
      </trkpt>
      <trkpt lat="49.98587" lon="2.45371">
        <ele>53.451</ele>
        <time>2020-08-23T07:56:22Z</time>
      </trkpt>
      <trkpt lat="49.98581" lon="2.45372">
        <ele>53.339</ele>
        <time>2020-08-23T07:56:27Z</time>
      </trkpt>
      <trkpt lat="49.98576" lon="2.45372">
        <ele>54.327</ele>
        <time>2020-08-23T07:56:30Z</time>
      </trkpt>
      <trkpt lat="49.98572" lon="2.45374">
        <ele>54.557</ele>
        <time>2020-08-23T07:56:33Z</time>
      </trkpt>
      <trkpt lat="49.98567" lon="2.45375">
        <ele>54.212</ele>
        <time>2020-08-23T07:56:37Z</time>
      </trkpt>
      <trkpt lat="49.98562" lon="2.45376">
        <ele>54.373</ele>
        <time>2020-08-23T07:56:41Z</time>
      </trkpt>
      <trkpt lat="49.98557" lon="2.45377">
        <ele>54.328</ele>
        <time>2020-08-23T07:56:45Z</time>
      </trkpt>
      <trkpt lat="49.98552" lon="2.45379">
        <ele>54.321</ele>
        <time>2020-08-23T07:56:50Z</time>
      </trkpt>
      <trkpt lat="49.98547" lon="2.45378">
        <ele>54.541</ele>
        <time>2020-08-23T07:56:54Z</time>
      </trkpt>
      <trkpt lat="49.98542" lon="2.45378">
        <ele>54.605</ele>
        <time>2020-08-23T07:56:57Z</time>
      </trkpt>
      <trkpt lat="49.98536" lon="2.45379">
        <ele>54.708</ele>
        <time>2020-08-23T07:57:01Z</time>
      </trkpt>
      <trkpt lat="49.98532" lon="2.4538">
        <ele>54.897</ele>
        <time>2020-08-23T07:57:04Z</time>
      </trkpt>
      <trkpt lat="49.98527" lon="2.45381">
        <ele>55.247</ele>
        <time>2020-08-23T07:57:09Z</time>
      </trkpt>
      <trkpt lat="49.98522" lon="2.45382">
        <ele>55.365</ele>
        <time>2020-08-23T07:57:13Z</time>
      </trkpt>
      <trkpt lat="49.98517" lon="2.45383">
        <ele>55.363</ele>
        <time>2020-08-23T07:57:17Z</time>
      </trkpt>
      <trkpt lat="49.98512" lon="2.45384">
        <ele>55.483</ele>
        <time>2020-08-23T07:57:21Z</time>
      </trkpt>
      <trkpt lat="49.98505" lon="2.45384">
        <ele>55.638</ele>
        <time>2020-08-23T07:57:25Z</time>
      </trkpt>
      <trkpt lat="49.985" lon="2.45384">
        <ele>55.749</ele>
        <time>2020-08-23T07:57:28Z</time>
      </trkpt>
      <trkpt lat="49.98494" lon="2.45384">
        <ele>55.834</ele>
        <time>2020-08-23T07:57:32Z</time>
      </trkpt>
      <trkpt lat="49.98489" lon="2.45386">
        <ele>55.761</ele>
        <time>2020-08-23T07:57:36Z</time>
      </trkpt>
      <trkpt lat="49.98483" lon="2.45386">
        <ele>55.621</ele>
        <time>2020-08-23T07:57:40Z</time>
      </trkpt>
      <trkpt lat="49.98478" lon="2.45385">
        <ele>55.513</ele>
        <time>2020-08-23T07:57:44Z</time>
      </trkpt>
      <trkpt lat="49.98473" lon="2.45385">
        <ele>55.508</ele>
        <time>2020-08-23T07:57:47Z</time>
      </trkpt>
      <trkpt lat="49.98469" lon="2.45383">
        <ele>55.551</ele>
        <time>2020-08-23T07:57:51Z</time>
      </trkpt>
      <trkpt lat="49.98464" lon="2.45381">
        <ele>55.131</ele>
        <time>2020-08-23T07:57:56Z</time>
      </trkpt>
      <trkpt lat="49.98458" lon="2.45379">
        <ele>54.779</ele>
        <time>2020-08-23T07:58:00Z</time>
      </trkpt>
      <trkpt lat="49.98454" lon="2.45376">
        <ele>54.237</ele>
        <time>2020-08-23T07:58:05Z</time>
      </trkpt>
      <trkpt lat="49.98449" lon="2.45372">
        <ele>53.957</ele>
        <time>2020-08-23T07:58:09Z</time>
      </trkpt>
      <trkpt lat="49.98446" lon="2.45367">
        <ele>53.672</ele>
        <time>2020-08-23T07:58:13Z</time>
      </trkpt>
      <trkpt lat="49.98442" lon="2.45364">
        <ele>53.433</ele>
        <time>2020-08-23T07:58:17Z</time>
      </trkpt>
      <trkpt lat="49.98438" lon="2.45359">
        <ele>53.248</ele>
        <time>2020-08-23T07:58:21Z</time>
      </trkpt>
      <trkpt lat="49.98435" lon="2.45352">
        <ele>52.966</ele>
        <time>2020-08-23T07:58:26Z</time>
      </trkpt>
      <trkpt lat="49.98431" lon="2.45348">
        <ele>52.629</ele>
        <time>2020-08-23T07:58:31Z</time>
      </trkpt>
      <trkpt lat="49.98426" lon="2.45347">
        <ele>52.421</ele>
        <time>2020-08-23T07:58:35Z</time>
      </trkpt>
      <trkpt lat="49.98422" lon="2.45343">
        <ele>52.208</ele>
        <time>2020-08-23T07:58:40Z</time>
      </trkpt>
      <trkpt lat="49.98418" lon="2.45338">
        <ele>51.821</ele>
        <time>2020-08-23T07:58:47Z</time>
      </trkpt>
      <trkpt lat="49.98414" lon="2.45334">
        <ele>51.681</ele>
        <time>2020-08-23T07:58:51Z</time>
      </trkpt>
      <trkpt lat="49.9841" lon="2.45327">
        <ele>51.579</ele>
        <time>2020-08-23T07:58:56Z</time>
      </trkpt>
      <trkpt lat="49.98405" lon="2.45324">
        <ele>51.497</ele>
        <time>2020-08-23T07:58:59Z</time>
      </trkpt>
      <trkpt lat="49.98401" lon="2.45319">
        <ele>51.157</ele>
        <time>2020-08-23T07:59:04Z</time>
      </trkpt>
      <trkpt lat="49.98397" lon="2.45314">
        <ele>50.962</ele>
        <time>2020-08-23T07:59:08Z</time>
      </trkpt>
      <trkpt lat="49.98392" lon="2.45313">
        <ele>50.643</ele>
        <time>2020-08-23T07:59:12Z</time>
      </trkpt>
      <trkpt lat="49.98388" lon="2.45309">
        <ele>50.588</ele>
        <time>2020-08-23T07:59:16Z</time>
      </trkpt>
      <trkpt lat="49.98383" lon="2.45304">
        <ele>50.527</ele>
        <time>2020-08-23T07:59:21Z</time>
      </trkpt>
      <trkpt lat="49.9838" lon="2.45298">
        <ele>50.468</ele>
        <time>2020-08-23T07:59:24Z</time>
      </trkpt>
      <trkpt lat="49.98376" lon="2.45294">
        <ele>50.414</ele>
        <time>2020-08-23T07:59:27Z</time>
      </trkpt>
      <trkpt lat="49.9837" lon="2.45293">
        <ele>50.208</ele>
        <time>2020-08-23T07:59:32Z</time>
      </trkpt>
      <trkpt lat="49.98367" lon="2.45289">
        <ele>50.197</ele>
        <time>2020-08-23T07:59:34Z</time>
      </trkpt>
      <trkpt lat="49.98362" lon="2.45285">
        <ele>50.147</ele>
        <time>2020-08-23T07:59:37Z</time>
      </trkpt>
      <trkpt lat="49.98358" lon="2.45278">
        <ele>50.045</ele>
        <time>2020-08-23T07:59:40Z</time>
      </trkpt>
      <trkpt lat="49.98355" lon="2.45269">
        <ele>49.973</ele>
        <time>2020-08-23T07:59:43Z</time>
      </trkpt>
      <trkpt lat="49.98352" lon="2.45264">
        <ele>49.553</ele>
        <time>2020-08-23T07:59:47Z</time>
      </trkpt>
      <trkpt lat="49.98349" lon="2.45259">
        <ele>49.378</ele>
        <time>2020-08-23T07:59:50Z</time>
      </trkpt>
      <trkpt lat="49.98347" lon="2.45253">
        <ele>49.279</ele>
        <time>2020-08-23T07:59:54Z</time>
      </trkpt>
      <trkpt lat="49.98345" lon="2.45246">
        <ele>49.124</ele>
        <time>2020-08-23T07:59:57Z</time>
      </trkpt>
      <trkpt lat="49.98342" lon="2.4524">
        <ele>49.151</ele>
        <time>2020-08-23T08:00:00Z</time>
      </trkpt>
      <trkpt lat="49.98341" lon="2.45234">
        <ele>49.201</ele>
        <time>2020-08-23T08:00:04Z</time>
      </trkpt>
      <trkpt lat="49.98338" lon="2.45228">
        <ele>49.311</ele>
        <time>2020-08-23T08:00:07Z</time>
      </trkpt>
      <trkpt lat="49.98336" lon="2.45222">
        <ele>49.208</ele>
        <time>2020-08-23T08:00:10Z</time>
      </trkpt>
      <trkpt lat="49.98333" lon="2.45215">
        <ele>49.22</ele>
        <time>2020-08-23T08:00:13Z</time>
      </trkpt>
      <trkpt lat="49.98331" lon="2.45207">
        <ele>49.17</ele>
        <time>2020-08-23T08:00:17Z</time>
      </trkpt>
      <trkpt lat="49.98329" lon="2.45199">
        <ele>49.078</ele>
        <time>2020-08-23T08:00:21Z</time>
      </trkpt>
      <trkpt lat="49.98326" lon="2.45191">
        <ele>48.986</ele>
        <time>2020-08-23T08:00:25Z</time>
      </trkpt>
      <trkpt lat="49.98324" lon="2.45184">
        <ele>49.116</ele>
        <time>2020-08-23T08:00:28Z</time>
      </trkpt>
      <trkpt lat="49.98322" lon="2.45175">
        <ele>49.141</ele>
        <time>2020-08-23T08:00:31Z</time>
      </trkpt>
      <trkpt lat="49.98317" lon="2.45167">
        <ele>49.032</ele>
        <time>2020-08-23T08:00:35Z</time>
      </trkpt>
      <trkpt lat="49.98314" lon="2.45159">
        <ele>48.837</ele>
        <time>2020-08-23T08:00:38Z</time>
      </trkpt>
      <trkpt lat="49.98312" lon="2.45152">
        <ele>48.646</ele>
        <time>2020-08-23T08:00:40Z</time>
      </trkpt>
      <trkpt lat="49.98309" lon="2.45144">
        <ele>49.088</ele>
        <time>2020-08-23T08:00:42Z</time>
      </trkpt>
      <trkpt lat="49.98306" lon="2.45138">
        <ele>49.316</ele>
        <time>2020-08-23T08:00:44Z</time>
      </trkpt>
      <trkpt lat="49.98302" lon="2.45131">
        <ele>49.208</ele>
        <time>2020-08-23T08:00:47Z</time>
      </trkpt>
      <trkpt lat="49.98298" lon="2.45126">
        <ele>49.119</ele>
        <time>2020-08-23T08:00:51Z</time>
      </trkpt>
      <trkpt lat="49.98294" lon="2.45119">
        <ele>48.839</ele>
        <time>2020-08-23T08:00:55Z</time>
      </trkpt>
      <trkpt lat="49.9829" lon="2.45114">
        <ele>48.847</ele>
        <time>2020-08-23T08:00:58Z</time>
      </trkpt>
      <trkpt lat="49.98288" lon="2.45108">
        <ele>49.255</ele>
        <time>2020-08-23T08:01:01Z</time>
      </trkpt>
      <trkpt lat="49.98284" lon="2.45104">
        <ele>49.355</ele>
        <time>2020-08-23T08:01:04Z</time>
      </trkpt>
      <trkpt lat="49.9828" lon="2.45102">
        <ele>48.96</ele>
        <time>2020-08-23T08:01:07Z</time>
      </trkpt>
      <trkpt lat="49.98276" lon="2.45097">
        <ele>48.761</ele>
        <time>2020-08-23T08:01:12Z</time>
      </trkpt>
      <trkpt lat="49.98272" lon="2.45092">
        <ele>48.056</ele>
        <time>2020-08-23T08:01:15Z</time>
      </trkpt>
      <trkpt lat="49.98268" lon="2.45089">
        <ele>47.541</ele>
        <time>2020-08-23T08:01:19Z</time>
      </trkpt>
      <trkpt lat="49.98264" lon="2.45085">
        <ele>47.581</ele>
        <time>2020-08-23T08:01:23Z</time>
      </trkpt>
      <trkpt lat="49.98259" lon="2.45079">
        <ele>47.609</ele>
        <time>2020-08-23T08:01:27Z</time>
      </trkpt>
      <trkpt lat="49.98256" lon="2.45074">
        <ele>47.608</ele>
        <time>2020-08-23T08:01:30Z</time>
      </trkpt>
      <trkpt lat="49.98253" lon="2.45069">
        <ele>47.779</ele>
        <time>2020-08-23T08:01:33Z</time>
      </trkpt>
      <trkpt lat="49.9825" lon="2.45062">
        <ele>47.729</ele>
        <time>2020-08-23T08:01:36Z</time>
      </trkpt>
      <trkpt lat="49.98246" lon="2.45056">
        <ele>47.777</ele>
        <time>2020-08-23T08:01:40Z</time>
      </trkpt>
      <trkpt lat="49.98242" lon="2.45053">
        <ele>47.665</ele>
        <time>2020-08-23T08:01:44Z</time>
      </trkpt>
      <trkpt lat="49.98238" lon="2.45048">
        <ele>47.685</ele>
        <time>2020-08-23T08:01:48Z</time>
      </trkpt>
      <trkpt lat="49.98233" lon="2.45046">
        <ele>47.95</ele>
        <time>2020-08-23T08:01:52Z</time>
      </trkpt>
      <trkpt lat="49.9823" lon="2.4504">
        <ele>47.951</ele>
        <time>2020-08-23T08:01:56Z</time>
      </trkpt>
      <trkpt lat="49.98227" lon="2.45035">
        <ele>47.636</ele>
        <time>2020-08-23T08:02:02Z</time>
      </trkpt>
      <trkpt lat="49.98227" lon="2.45028">
        <ele>47.545</ele>
        <time>2020-08-23T08:02:25Z</time>
      </trkpt>
      <trkpt lat="49.98229" lon="2.4502">
        <ele>47.347</ele>
        <time>2020-08-23T08:02:30Z</time>
      </trkpt>
      <trkpt lat="49.98231" lon="2.45012">
        <ele>47.111</ele>
        <time>2020-08-23T08:02:35Z</time>
      </trkpt>
      <trkpt lat="49.98234" lon="2.45005">
        <ele>47.508</ele>
        <time>2020-08-23T08:02:39Z</time>
      </trkpt>
      <trkpt lat="49.98236" lon="2.44997">
        <ele>48.049</ele>
        <time>2020-08-23T08:02:43Z</time>
      </trkpt>
      <trkpt lat="49.98239" lon="2.44991">
        <ele>48.069</ele>
        <time>2020-08-23T08:02:47Z</time>
      </trkpt>
      <trkpt lat="49.98243" lon="2.44984">
        <ele>48.027</ele>
        <time>2020-08-23T08:02:51Z</time>
      </trkpt>
      <trkpt lat="49.98246" lon="2.44977">
        <ele>47.975</ele>
        <time>2020-08-23T08:02:55Z</time>
      </trkpt>
      <trkpt lat="49.98249" lon="2.44971">
        <ele>47.725</ele>
        <time>2020-08-23T08:02:59Z</time>
      </trkpt>
      <trkpt lat="49.98253" lon="2.44967">
        <ele>47.67</ele>
        <time>2020-08-23T08:03:03Z</time>
      </trkpt>
      <trkpt lat="49.98257" lon="2.44963">
        <ele>47.881</ele>
        <time>2020-08-23T08:03:08Z</time>
      </trkpt>
      <trkpt lat="49.98261" lon="2.44962">
        <ele>48.176</ele>
        <time>2020-08-23T08:03:12Z</time>
      </trkpt>
      <trkpt lat="49.98265" lon="2.44957">
        <ele>48.135</ele>
        <time>2020-08-23T08:03:16Z</time>
      </trkpt>
      <trkpt lat="49.98269" lon="2.44956">
        <ele>48.286</ele>
        <time>2020-08-23T08:03:20Z</time>
      </trkpt>
      <trkpt lat="49.98274" lon="2.44953">
        <ele>48.014</ele>
        <time>2020-08-23T08:03:24Z</time>
      </trkpt>
      <trkpt lat="49.98278" lon="2.4495">
        <ele>48.008</ele>
        <time>2020-08-23T08:03:28Z</time>
      </trkpt>
      <trkpt lat="49.98283" lon="2.44946">
        <ele>47.678</ele>
        <time>2020-08-23T08:03:33Z</time>
      </trkpt>
      <trkpt lat="49.98288" lon="2.44944">
        <ele>47.548</ele>
        <time>2020-08-23T08:03:37Z</time>
      </trkpt>
      <trkpt lat="49.98292" lon="2.4494">
        <ele>47.426</ele>
        <time>2020-08-23T08:03:40Z</time>
      </trkpt>
      <trkpt lat="49.98297" lon="2.44938">
        <ele>47.334</ele>
        <time>2020-08-23T08:03:44Z</time>
      </trkpt>
      <trkpt lat="49.98303" lon="2.44936">
        <ele>47.334</ele>
        <time>2020-08-23T08:03:48Z</time>
      </trkpt>
      <trkpt lat="49.98308" lon="2.44935">
        <ele>47.379</ele>
        <time>2020-08-23T08:03:51Z</time>
      </trkpt>
      <trkpt lat="49.98313" lon="2.44933">
        <ele>47.33</ele>
        <time>2020-08-23T08:03:56Z</time>
      </trkpt>
      <trkpt lat="49.98318" lon="2.44931">
        <ele>47.345</ele>
        <time>2020-08-23T08:04:00Z</time>
      </trkpt>
      <trkpt lat="49.98323" lon="2.44927">
        <ele>47.236</ele>
        <time>2020-08-23T08:04:04Z</time>
      </trkpt>
      <trkpt lat="49.98328" lon="2.44926">
        <ele>47.117</ele>
        <time>2020-08-23T08:04:07Z</time>
      </trkpt>
      <trkpt lat="49.98334" lon="2.44923">
        <ele>47.018</ele>
        <time>2020-08-23T08:04:10Z</time>
      </trkpt>
      <trkpt lat="49.98338" lon="2.44921">
        <ele>47.008</ele>
        <time>2020-08-23T08:04:13Z</time>
      </trkpt>
      <trkpt lat="49.98343" lon="2.44918">
        <ele>47.088</ele>
        <time>2020-08-23T08:04:16Z</time>
      </trkpt>
      <trkpt lat="49.98347" lon="2.44916">
        <ele>47.178</ele>
        <time>2020-08-23T08:04:19Z</time>
      </trkpt>
      <trkpt lat="49.98353" lon="2.44914">
        <ele>47.066</ele>
        <time>2020-08-23T08:04:22Z</time>
      </trkpt>
      <trkpt lat="49.98358" lon="2.44912">
        <ele>46.974</ele>
        <time>2020-08-23T08:04:25Z</time>
      </trkpt>
      <trkpt lat="49.98363" lon="2.44909">
        <ele>46.834</ele>
        <time>2020-08-23T08:04:29Z</time>
      </trkpt>
      <trkpt lat="49.98368" lon="2.44908">
        <ele>46.919</ele>
        <time>2020-08-23T08:04:33Z</time>
      </trkpt>
      <trkpt lat="49.98373" lon="2.44906">
        <ele>47.02</ele>
        <time>2020-08-23T08:04:36Z</time>
      </trkpt>
      <trkpt lat="49.98377" lon="2.44903">
        <ele>47.175</ele>
        <time>2020-08-23T08:04:39Z</time>
      </trkpt>
      <trkpt lat="49.98382" lon="2.449">
        <ele>47.286</ele>
        <time>2020-08-23T08:04:43Z</time>
      </trkpt>
      <trkpt lat="49.98387" lon="2.44896">
        <ele>47.26</ele>
        <time>2020-08-23T08:04:48Z</time>
      </trkpt>
      <trkpt lat="49.98393" lon="2.44894">
        <ele>47.326</ele>
        <time>2020-08-23T08:04:52Z</time>
      </trkpt>
      <trkpt lat="49.98397" lon="2.44893">
        <ele>47.308</ele>
        <time>2020-08-23T08:04:55Z</time>
      </trkpt>
      <trkpt lat="49.98403" lon="2.44892">
        <ele>47.363</ele>
        <time>2020-08-23T08:04:59Z</time>
      </trkpt>
      <trkpt lat="49.98408" lon="2.4489">
        <ele>47.193</ele>
        <time>2020-08-23T08:05:03Z</time>
      </trkpt>
      <trkpt lat="49.98412" lon="2.44887">
        <ele>47.171</ele>
        <time>2020-08-23T08:05:07Z</time>
      </trkpt>
      <trkpt lat="49.98417" lon="2.44885">
        <ele>47.649</ele>
        <time>2020-08-23T08:05:10Z</time>
      </trkpt>
      <trkpt lat="49.98421" lon="2.44881">
        <ele>47.789</ele>
        <time>2020-08-23T08:05:13Z</time>
      </trkpt>
      <trkpt lat="49.98425" lon="2.44878">
        <ele>47.744</ele>
        <time>2020-08-23T08:05:16Z</time>
      </trkpt>
      <trkpt lat="49.98429" lon="2.44875">
        <ele>47.795</ele>
        <time>2020-08-23T08:05:20Z</time>
      </trkpt>
      <trkpt lat="49.98434" lon="2.44873">
        <ele>47.47</ele>
        <time>2020-08-23T08:05:24Z</time>
      </trkpt>
      <trkpt lat="49.98438" lon="2.44868">
        <ele>47.244</ele>
        <time>2020-08-23T08:05:29Z</time>
      </trkpt>
      <trkpt lat="49.98441" lon="2.44862">
        <ele>47.205</ele>
        <time>2020-08-23T08:05:32Z</time>
      </trkpt>
      <trkpt lat="49.98445" lon="2.44856">
        <ele>47.215</ele>
        <time>2020-08-23T08:05:36Z</time>
      </trkpt>
      <trkpt lat="49.98449" lon="2.4485">
        <ele>47.208</ele>
        <time>2020-08-23T08:05:41Z</time>
      </trkpt>
      <trkpt lat="49.98452" lon="2.44845">
        <ele>47.119</ele>
        <time>2020-08-23T08:05:46Z</time>
      </trkpt>
      <trkpt lat="49.98456" lon="2.4484">
        <ele>47.189</ele>
        <time>2020-08-23T08:05:52Z</time>
      </trkpt>
      <trkpt lat="49.98459" lon="2.44834">
        <ele>47.017</ele>
        <time>2020-08-23T08:05:57Z</time>
      </trkpt>
      <trkpt lat="49.98465" lon="2.4483">
        <ele>47.745</ele>
        <time>2020-08-23T08:06:01Z</time>
      </trkpt>
      <trkpt lat="49.98468" lon="2.44824">
        <ele>48.015</ele>
        <time>2020-08-23T08:06:05Z</time>
      </trkpt>
      <trkpt lat="49.98471" lon="2.44819">
        <ele>47.76</ele>
        <time>2020-08-23T08:06:08Z</time>
      </trkpt>
      <trkpt lat="49.98474" lon="2.44813">
        <ele>47.681</ele>
        <time>2020-08-23T08:06:12Z</time>
      </trkpt>
      <trkpt lat="49.98479" lon="2.44813">
        <ele>47.926</ele>
        <time>2020-08-23T08:06:33Z</time>
      </trkpt>
      <trkpt lat="49.9848" lon="2.4482">
        <ele>48.066</ele>
        <time>2020-08-23T08:06:45Z</time>
      </trkpt>
      <trkpt lat="49.98478" lon="2.44826">
        <ele>48.229</ele>
        <time>2020-08-23T08:07:12Z</time>
      </trkpt>
      <trkpt lat="49.9848" lon="2.44816">
        <ele>48.721</ele>
        <time>2020-08-23T08:08:07Z</time>
      </trkpt>
      <trkpt lat="49.98476" lon="2.44819">
        <ele>48.708</ele>
        <time>2020-08-23T08:08:10Z</time>
      </trkpt>
      <trkpt lat="49.98472" lon="2.44823">
        <ele>48.441</ele>
        <time>2020-08-23T08:08:13Z</time>
      </trkpt>
      <trkpt lat="49.98468" lon="2.44824">
        <ele>48.411</ele>
        <time>2020-08-23T08:08:16Z</time>
      </trkpt>
      <trkpt lat="49.98464" lon="2.44828">
        <ele>48.249</ele>
        <time>2020-08-23T08:08:19Z</time>
      </trkpt>
      <trkpt lat="49.9846" lon="2.44831">
        <ele>47.947</ele>
        <time>2020-08-23T08:08:22Z</time>
      </trkpt>
      <trkpt lat="49.98457" lon="2.44837">
        <ele>47.887</ele>
        <time>2020-08-23T08:08:26Z</time>
      </trkpt>
      <trkpt lat="49.98453" lon="2.44841">
        <ele>47.882</ele>
        <time>2020-08-23T08:08:30Z</time>
      </trkpt>
      <trkpt lat="49.98449" lon="2.44846">
        <ele>47.833</ele>
        <time>2020-08-23T08:08:34Z</time>
      </trkpt>
      <trkpt lat="49.98446" lon="2.44851">
        <ele>47.958</ele>
        <time>2020-08-23T08:08:38Z</time>
      </trkpt>
      <trkpt lat="49.9845" lon="2.44844">
        <ele>47.854</ele>
        <time>2020-08-23T08:08:55Z</time>
      </trkpt>
      <trkpt lat="49.98454" lon="2.44838">
        <ele>47.956</ele>
        <time>2020-08-23T08:08:59Z</time>
      </trkpt>
      <trkpt lat="49.98459" lon="2.44834">
        <ele>47.711</ele>
        <time>2020-08-23T08:09:03Z</time>
      </trkpt>
      <trkpt lat="49.98462" lon="2.4483">
        <ele>48.008</ele>
        <time>2020-08-23T08:09:06Z</time>
      </trkpt>
      <trkpt lat="49.98484" lon="2.44797">
        <ele>47.75</ele>
        <time>2020-08-23T08:15:06Z</time>
      </trkpt>
      <trkpt lat="49.98479" lon="2.448">
        <ele>47.15</ele>
        <time>2020-08-23T08:15:23Z</time>
      </trkpt>
      <trkpt lat="49.98476" lon="2.44805">
        <ele>47.288</ele>
        <time>2020-08-23T08:15:27Z</time>
      </trkpt>
      <trkpt lat="49.98472" lon="2.44809">
        <ele>47.276</ele>
        <time>2020-08-23T08:15:30Z</time>
      </trkpt>
      <trkpt lat="49.98467" lon="2.44813">
        <ele>47.286</ele>
        <time>2020-08-23T08:15:34Z</time>
      </trkpt>
      <trkpt lat="49.98463" lon="2.4482">
        <ele>47.371</ele>
        <time>2020-08-23T08:15:40Z</time>
      </trkpt>
      <trkpt lat="49.98461" lon="2.44826">
        <ele>47.282</ele>
        <time>2020-08-23T08:15:45Z</time>
      </trkpt>
      <trkpt lat="49.98457" lon="2.44832">
        <ele>47.117</ele>
        <time>2020-08-23T08:15:50Z</time>
      </trkpt>
      <trkpt lat="49.98453" lon="2.44835">
        <ele>47.032</ele>
        <time>2020-08-23T08:15:53Z</time>
      </trkpt>
      <trkpt lat="49.98449" lon="2.44832">
        <ele>47.392</ele>
        <time>2020-08-23T08:15:57Z</time>
      </trkpt>
      <trkpt lat="49.98446" lon="2.44826">
        <ele>47.411</ele>
        <time>2020-08-23T08:16:00Z</time>
      </trkpt>
      <trkpt lat="49.98441" lon="2.44822">
        <ele>47.308</ele>
        <time>2020-08-23T08:16:04Z</time>
      </trkpt>
      <trkpt lat="49.98437" lon="2.44817">
        <ele>47.358</ele>
        <time>2020-08-23T08:16:08Z</time>
      </trkpt>
      <trkpt lat="49.98432" lon="2.44814">
        <ele>47.228</ele>
        <time>2020-08-23T08:16:14Z</time>
      </trkpt>
      <trkpt lat="49.98429" lon="2.44809">
        <ele>47.046</ele>
        <time>2020-08-23T08:16:20Z</time>
      </trkpt>
      <trkpt lat="49.98425" lon="2.44804">
        <ele>47.044</ele>
        <time>2020-08-23T08:16:24Z</time>
      </trkpt>
      <trkpt lat="49.9842" lon="2.44801">
        <ele>47.184</ele>
        <time>2020-08-23T08:16:29Z</time>
      </trkpt>
      <trkpt lat="49.98417" lon="2.44795">
        <ele>47.059</ele>
        <time>2020-08-23T08:16:35Z</time>
      </trkpt>
      <trkpt lat="49.98413" lon="2.4479">
        <ele>47.14</ele>
        <time>2020-08-23T08:16:40Z</time>
      </trkpt>
      <trkpt lat="49.98411" lon="2.44782">
        <ele>46.855</ele>
        <time>2020-08-23T08:16:44Z</time>
      </trkpt>
      <trkpt lat="49.98407" lon="2.44777">
        <ele>46.953</ele>
        <time>2020-08-23T08:16:49Z</time>
      </trkpt>
      <trkpt lat="49.98402" lon="2.44775">
        <ele>47.004</ele>
        <time>2020-08-23T08:16:54Z</time>
      </trkpt>
      <trkpt lat="49.98399" lon="2.4477">
        <ele>47.014</ele>
        <time>2020-08-23T08:16:59Z</time>
      </trkpt>
      <trkpt lat="49.98396" lon="2.44763">
        <ele>47.008</ele>
        <time>2020-08-23T08:17:02Z</time>
      </trkpt>
      <trkpt lat="49.98393" lon="2.44757">
        <ele>46.82</ele>
        <time>2020-08-23T08:17:06Z</time>
      </trkpt>
      <trkpt lat="49.9839" lon="2.44752">
        <ele>46.53</ele>
        <time>2020-08-23T08:17:14Z</time>
      </trkpt>
      <trkpt lat="49.98385" lon="2.44751">
        <ele>46.628</ele>
        <time>2020-08-23T08:17:19Z</time>
      </trkpt>
      <trkpt lat="49.98381" lon="2.44747">
        <ele>46.576</ele>
        <time>2020-08-23T08:17:25Z</time>
      </trkpt>
      <trkpt lat="49.98378" lon="2.4474">
        <ele>46.656</ele>
        <time>2020-08-23T08:17:29Z</time>
      </trkpt>
      <trkpt lat="49.98374" lon="2.44735">
        <ele>46.431</ele>
        <time>2020-08-23T08:17:33Z</time>
      </trkpt>
      <trkpt lat="49.98371" lon="2.44729">
        <ele>46.712</ele>
        <time>2020-08-23T08:17:37Z</time>
      </trkpt>
      <trkpt lat="49.98367" lon="2.44722">
        <ele>46.927</ele>
        <time>2020-08-23T08:17:40Z</time>
      </trkpt>
      <trkpt lat="49.98363" lon="2.44716">
        <ele>47.146</ele>
        <time>2020-08-23T08:17:44Z</time>
      </trkpt>
      <trkpt lat="49.9836" lon="2.44709">
        <ele>46.988</ele>
        <time>2020-08-23T08:17:49Z</time>
      </trkpt>
      <trkpt lat="49.98357" lon="2.44703">
        <ele>47.116</ele>
        <time>2020-08-23T08:17:53Z</time>
      </trkpt>
      <trkpt lat="49.98354" lon="2.44695">
        <ele>47.108</ele>
        <time>2020-08-23T08:17:57Z</time>
      </trkpt>
      <trkpt lat="49.98351" lon="2.4469">
        <ele>47.119</ele>
        <time>2020-08-23T08:18:03Z</time>
      </trkpt>
      <trkpt lat="49.98348" lon="2.44684">
        <ele>47.199</ele>
        <time>2020-08-23T08:18:10Z</time>
      </trkpt>
      <trkpt lat="49.98344" lon="2.44678">
        <ele>47.157</ele>
        <time>2020-08-23T08:18:17Z</time>
      </trkpt>
      <trkpt lat="49.98339" lon="2.44674">
        <ele>47.045</ele>
        <time>2020-08-23T08:18:22Z</time>
      </trkpt>
      <trkpt lat="49.98335" lon="2.44669">
        <ele>47.235</ele>
        <time>2020-08-23T08:18:25Z</time>
      </trkpt>
      <trkpt lat="49.98331" lon="2.44665">
        <ele>47.37</ele>
        <time>2020-08-23T08:18:28Z</time>
      </trkpt>
      <trkpt lat="49.98327" lon="2.44661">
        <ele>47.341</ele>
        <time>2020-08-23T08:18:31Z</time>
      </trkpt>
      <trkpt lat="49.98324" lon="2.44655">
        <ele>47.436</ele>
        <time>2020-08-23T08:18:35Z</time>
      </trkpt>
      <trkpt lat="49.98323" lon="2.44647">
        <ele>47.424</ele>
        <time>2020-08-23T08:18:37Z</time>
      </trkpt>
      <trkpt lat="49.98321" lon="2.44641">
        <ele>47.604</ele>
        <time>2020-08-23T08:18:40Z</time>
      </trkpt>
      <trkpt lat="49.98317" lon="2.44634">
        <ele>47.914</ele>
        <time>2020-08-23T08:18:43Z</time>
      </trkpt>
      <trkpt lat="49.98313" lon="2.44628">
        <ele>48.008</ele>
        <time>2020-08-23T08:18:46Z</time>
      </trkpt>
      <trkpt lat="49.9831" lon="2.44621">
        <ele>48.027</ele>
        <time>2020-08-23T08:18:49Z</time>
      </trkpt>
      <trkpt lat="49.98307" lon="2.44614">
        <ele>48.177</ele>
        <time>2020-08-23T08:18:52Z</time>
      </trkpt>
      <trkpt lat="49.98304" lon="2.44607">
        <ele>48.225</ele>
        <time>2020-08-23T08:18:56Z</time>
      </trkpt>
      <trkpt lat="49.98301" lon="2.44599">
        <ele>48.073</ele>
        <time>2020-08-23T08:19:00Z</time>
      </trkpt>
      <trkpt lat="49.98297" lon="2.44594">
        <ele>47.913</ele>
        <time>2020-08-23T08:19:04Z</time>
      </trkpt>
      <trkpt lat="49.98294" lon="2.44587">
        <ele>47.738</ele>
        <time>2020-08-23T08:19:09Z</time>
      </trkpt>
      <trkpt lat="49.9829" lon="2.44582">
        <ele>47.869</ele>
        <time>2020-08-23T08:19:13Z</time>
      </trkpt>
      <trkpt lat="49.98287" lon="2.44575">
        <ele>48.124</ele>
        <time>2020-08-23T08:19:17Z</time>
      </trkpt>
      <trkpt lat="49.98283" lon="2.44569">
        <ele>48.587</ele>
        <time>2020-08-23T08:19:21Z</time>
      </trkpt>
      <trkpt lat="49.98281" lon="2.44562">
        <ele>48.542</ele>
        <time>2020-08-23T08:19:25Z</time>
      </trkpt>
      <trkpt lat="49.98276" lon="2.44559">
        <ele>48.826</ele>
        <time>2020-08-23T08:19:31Z</time>
      </trkpt>
      <trkpt lat="49.98273" lon="2.44553">
        <ele>48.808</ele>
        <time>2020-08-23T08:19:35Z</time>
      </trkpt>
      <trkpt lat="49.98269" lon="2.44548">
        <ele>49.143</ele>
        <time>2020-08-23T08:19:41Z</time>
      </trkpt>
      <trkpt lat="49.98264" lon="2.44543">
        <ele>49.613</ele>
        <time>2020-08-23T08:19:48Z</time>
      </trkpt>
      <trkpt lat="49.9826" lon="2.4454">
        <ele>49.581</ele>
        <time>2020-08-23T08:19:52Z</time>
      </trkpt>
      <trkpt lat="49.98255" lon="2.44536">
        <ele>49.569</ele>
        <time>2020-08-23T08:19:57Z</time>
      </trkpt>
      <trkpt lat="49.98252" lon="2.44531">
        <ele>49.879</ele>
        <time>2020-08-23T08:20:01Z</time>
      </trkpt>
      <trkpt lat="49.98248" lon="2.44526">
        <ele>50.444</ele>
        <time>2020-08-23T08:20:06Z</time>
      </trkpt>
      <trkpt lat="49.98244" lon="2.4452">
        <ele>50.965</ele>
        <time>2020-08-23T08:20:10Z</time>
      </trkpt>
      <trkpt lat="49.9824" lon="2.44516">
        <ele>51.12</ele>
        <time>2020-08-23T08:20:13Z</time>
      </trkpt>
      <trkpt lat="49.98239" lon="2.44509">
        <ele>51.298</ele>
        <time>2020-08-23T08:20:16Z</time>
      </trkpt>
      <trkpt lat="49.98238" lon="2.44501">
        <ele>51.315</ele>
        <time>2020-08-23T08:20:19Z</time>
      </trkpt>
      <trkpt lat="49.98236" lon="2.44493">
        <ele>51.626</ele>
        <time>2020-08-23T08:20:23Z</time>
      </trkpt>
      <trkpt lat="49.98237" lon="2.44486">
        <ele>52.108</ele>
        <time>2020-08-23T08:20:27Z</time>
      </trkpt>
      <trkpt lat="49.98238" lon="2.44478">
        <ele>52.864</ele>
        <time>2020-08-23T08:20:32Z</time>
      </trkpt>
      <trkpt lat="49.9824" lon="2.4447">
        <ele>53.314</ele>
        <time>2020-08-23T08:20:38Z</time>
      </trkpt>
      <trkpt lat="49.98241" lon="2.4446">
        <ele>53.712</ele>
        <time>2020-08-23T08:20:43Z</time>
      </trkpt>
      <trkpt lat="49.98241" lon="2.44453">
        <ele>53.91</ele>
        <time>2020-08-23T08:20:46Z</time>
      </trkpt>
      <trkpt lat="49.98242" lon="2.44446">
        <ele>54.39</ele>
        <time>2020-08-23T08:20:50Z</time>
      </trkpt>
      <trkpt lat="49.98243" lon="2.44439">
        <ele>54.765</ele>
        <time>2020-08-23T08:20:54Z</time>
      </trkpt>
      <trkpt lat="49.98246" lon="2.44431">
        <ele>55.286</ele>
        <time>2020-08-23T08:21:00Z</time>
      </trkpt>
      <trkpt lat="49.98248" lon="2.44424">
        <ele>55.531</ele>
        <time>2020-08-23T08:21:03Z</time>
      </trkpt>
      <trkpt lat="49.98248" lon="2.44416">
        <ele>55.857</ele>
        <time>2020-08-23T08:21:07Z</time>
      </trkpt>
      <trkpt lat="49.98247" lon="2.44407">
        <ele>56.1</ele>
        <time>2020-08-23T08:21:11Z</time>
      </trkpt>
      <trkpt lat="49.98246" lon="2.444">
        <ele>56.52</ele>
        <time>2020-08-23T08:21:15Z</time>
      </trkpt>
      <trkpt lat="49.98246" lon="2.44392">
        <ele>57.008</ele>
        <time>2020-08-23T08:21:18Z</time>
      </trkpt>
      <trkpt lat="49.98248" lon="2.44384">
        <ele>57.87</ele>
        <time>2020-08-23T08:21:23Z</time>
      </trkpt>
      <trkpt lat="49.98251" lon="2.44378">
        <ele>58.64</ele>
        <time>2020-08-23T08:21:28Z</time>
      </trkpt>
      <trkpt lat="49.98254" lon="2.44371">
        <ele>59.118</ele>
        <time>2020-08-23T08:21:32Z</time>
      </trkpt>
      <trkpt lat="49.98257" lon="2.44364">
        <ele>59.676</ele>
        <time>2020-08-23T08:21:37Z</time>
      </trkpt>
      <trkpt lat="49.9826" lon="2.44357">
        <ele>60.226</ele>
        <time>2020-08-23T08:21:41Z</time>
      </trkpt>
      <trkpt lat="49.98264" lon="2.44352">
        <ele>60.641</ele>
        <time>2020-08-23T08:21:45Z</time>
      </trkpt>
      <trkpt lat="49.98267" lon="2.44344">
        <ele>61.082</ele>
        <time>2020-08-23T08:21:50Z</time>
      </trkpt>
      <trkpt lat="49.98269" lon="2.44337">
        <ele>61.717</ele>
        <time>2020-08-23T08:21:55Z</time>
      </trkpt>
      <trkpt lat="49.98268" lon="2.44329">
        <ele>62.032</ele>
        <time>2020-08-23T08:22:00Z</time>
      </trkpt>
      <trkpt lat="49.98267" lon="2.44322">
        <ele>62.592</ele>
        <time>2020-08-23T08:22:05Z</time>
      </trkpt>
      <trkpt lat="49.98264" lon="2.44314">
        <ele>63.211</ele>
        <time>2020-08-23T08:22:10Z</time>
      </trkpt>
      <trkpt lat="49.9826" lon="2.44308">
        <ele>63.408</ele>
        <time>2020-08-23T08:22:14Z</time>
      </trkpt>
      <trkpt lat="49.98257" lon="2.44302">
        <ele>64.078</ele>
        <time>2020-08-23T08:22:19Z</time>
      </trkpt>
      <trkpt lat="49.98254" lon="2.44297">
        <ele>64.188</ele>
        <time>2020-08-23T08:22:23Z</time>
      </trkpt>
      <trkpt lat="49.98251" lon="2.44292">
        <ele>64.216</ele>
        <time>2020-08-23T08:22:28Z</time>
      </trkpt>
      <trkpt lat="49.98247" lon="2.44287">
        <ele>64.034</ele>
        <time>2020-08-23T08:22:34Z</time>
      </trkpt>
      <trkpt lat="49.98242" lon="2.44286">
        <ele>64.434</ele>
        <time>2020-08-23T08:22:40Z</time>
      </trkpt>
      <trkpt lat="49.98236" lon="2.44285">
        <ele>64.659</ele>
        <time>2020-08-23T08:22:45Z</time>
      </trkpt>
      <trkpt lat="49.98232" lon="2.44283">
        <ele>64.78</ele>
        <time>2020-08-23T08:22:49Z</time>
      </trkpt>
      <trkpt lat="49.98227" lon="2.44279">
        <ele>64.945</ele>
        <time>2020-08-23T08:22:53Z</time>
      </trkpt>
      <trkpt lat="49.98222" lon="2.44277">
        <ele>64.983</ele>
        <time>2020-08-23T08:22:58Z</time>
      </trkpt>
      <trkpt lat="49.98217" lon="2.44274">
        <ele>65.025</ele>
        <time>2020-08-23T08:23:02Z</time>
      </trkpt>
      <trkpt lat="49.98212" lon="2.44273">
        <ele>65.017</ele>
        <time>2020-08-23T08:23:06Z</time>
      </trkpt>
      <trkpt lat="49.98207" lon="2.44271">
        <ele>65.108</ele>
        <time>2020-08-23T08:23:10Z</time>
      </trkpt>
      <trkpt lat="49.98202" lon="2.44267">
        <ele>65.233</ele>
        <time>2020-08-23T08:23:14Z</time>
      </trkpt>
      <trkpt lat="49.98198" lon="2.44264">
        <ele>65.523</ele>
        <time>2020-08-23T08:23:18Z</time>
      </trkpt>
      <trkpt lat="49.98193" lon="2.44259">
        <ele>65.771</ele>
        <time>2020-08-23T08:23:23Z</time>
      </trkpt>
      <trkpt lat="49.98189" lon="2.44257">
        <ele>65.829</ele>
        <time>2020-08-23T08:23:26Z</time>
      </trkpt>
      <trkpt lat="49.98184" lon="2.44254">
        <ele>65.829</ele>
        <time>2020-08-23T08:23:30Z</time>
      </trkpt>
      <trkpt lat="49.98179" lon="2.44252">
        <ele>65.814</ele>
        <time>2020-08-23T08:23:35Z</time>
      </trkpt>
      <trkpt lat="49.98174" lon="2.4425">
        <ele>65.875</ele>
        <time>2020-08-23T08:23:39Z</time>
      </trkpt>
      <trkpt lat="49.98169" lon="2.4425">
        <ele>65.89</ele>
        <time>2020-08-23T08:23:43Z</time>
      </trkpt>
      <trkpt lat="49.98164" lon="2.44248">
        <ele>65.829</ele>
        <time>2020-08-23T08:23:48Z</time>
      </trkpt>
      <trkpt lat="49.98159" lon="2.44247">
        <ele>65.8</ele>
        <time>2020-08-23T08:23:52Z</time>
      </trkpt>
      <trkpt lat="49.98155" lon="2.44243">
        <ele>65.82</ele>
        <time>2020-08-23T08:23:59Z</time>
      </trkpt>
      <trkpt lat="49.9815" lon="2.44241">
        <ele>65.708</ele>
        <time>2020-08-23T08:24:06Z</time>
      </trkpt>
      <trkpt lat="49.98145" lon="2.4424">
        <ele>65.617</ele>
        <time>2020-08-23T08:24:11Z</time>
      </trkpt>
      <trkpt lat="49.98143" lon="2.44247">
        <ele>65.227</ele>
        <time>2020-08-23T08:24:47Z</time>
      </trkpt>
      <trkpt lat="49.98139" lon="2.44249">
        <ele>65.325</ele>
        <time>2020-08-23T08:25:03Z</time>
      </trkpt>
      <trkpt lat="49.98139" lon="2.44242">
        <ele>65.893</ele>
        <time>2020-08-23T08:25:17Z</time>
      </trkpt>
      <trkpt lat="49.98141" lon="2.44235">
        <ele>65.763</ele>
        <time>2020-08-23T08:25:21Z</time>
      </trkpt>
      <trkpt lat="49.98145" lon="2.44231">
        <ele>65.988</ele>
        <time>2020-08-23T08:25:25Z</time>
      </trkpt>
      <trkpt lat="49.98149" lon="2.44226">
        <ele>66.229</ele>
        <time>2020-08-23T08:25:29Z</time>
      </trkpt>
      <trkpt lat="49.98153" lon="2.44221">
        <ele>66.314</ele>
        <time>2020-08-23T08:25:38Z</time>
      </trkpt>
      <trkpt lat="49.98157" lon="2.44217">
        <ele>66.439</ele>
        <time>2020-08-23T08:25:42Z</time>
      </trkpt>
      <trkpt lat="49.98162" lon="2.4421">
        <ele>66.701</ele>
        <time>2020-08-23T08:25:47Z</time>
      </trkpt>
      <trkpt lat="49.98166" lon="2.44204">
        <ele>66.921</ele>
        <time>2020-08-23T08:25:51Z</time>
      </trkpt>
      <trkpt lat="49.98163" lon="2.44212">
        <ele>67.008</ele>
        <time>2020-08-23T08:26:07Z</time>
      </trkpt>
      <trkpt lat="49.9816" lon="2.44219">
        <ele>66.888</ele>
        <time>2020-08-23T08:26:10Z</time>
      </trkpt>
      <trkpt lat="49.98158" lon="2.44226">
        <ele>66.748</ele>
        <time>2020-08-23T08:26:14Z</time>
      </trkpt>
      <trkpt lat="49.98155" lon="2.44231">
        <ele>66.446</ele>
        <time>2020-08-23T08:26:18Z</time>
      </trkpt>
      <trkpt lat="49.98152" lon="2.44237">
        <ele>66.234</ele>
        <time>2020-08-23T08:26:21Z</time>
      </trkpt>
      <trkpt lat="49.98147" lon="2.44243">
        <ele>65.964</ele>
        <time>2020-08-23T08:26:26Z</time>
      </trkpt>
      <trkpt lat="49.98143" lon="2.44248">
        <ele>65.689</ele>
        <time>2020-08-23T08:26:30Z</time>
      </trkpt>
      <trkpt lat="49.98139" lon="2.44253">
        <ele>65.34</ele>
        <time>2020-08-23T08:26:36Z</time>
      </trkpt>
      <trkpt lat="49.98135" lon="2.44259">
        <ele>64.955</ele>
        <time>2020-08-23T08:26:41Z</time>
      </trkpt>
      <trkpt lat="49.9813" lon="2.44265">
        <ele>64.471</ele>
        <time>2020-08-23T08:26:46Z</time>
      </trkpt>
      <trkpt lat="49.98127" lon="2.44271">
        <ele>63.741</ele>
        <time>2020-08-23T08:26:50Z</time>
      </trkpt>
      <trkpt lat="49.98122" lon="2.44277">
        <ele>63.215</ele>
        <time>2020-08-23T08:26:55Z</time>
      </trkpt>
      <trkpt lat="49.98118" lon="2.44282">
        <ele>62.708</ele>
        <time>2020-08-23T08:26:59Z</time>
      </trkpt>
      <trkpt lat="49.98113" lon="2.44285">
        <ele>62.242</ele>
        <time>2020-08-23T08:27:03Z</time>
      </trkpt>
      <trkpt lat="49.9811" lon="2.4429">
        <ele>61.962</ele>
        <time>2020-08-23T08:27:06Z</time>
      </trkpt>
      <trkpt lat="49.98107" lon="2.44297">
        <ele>61.84</ele>
        <time>2020-08-23T08:27:10Z</time>
      </trkpt>
      <trkpt lat="49.98103" lon="2.44302">
        <ele>61.578</ele>
        <time>2020-08-23T08:27:15Z</time>
      </trkpt>
      <trkpt lat="49.98099" lon="2.44309">
        <ele>61.068</ele>
        <time>2020-08-23T08:27:19Z</time>
      </trkpt>
      <trkpt lat="49.98097" lon="2.44317">
        <ele>60.633</ele>
        <time>2020-08-23T08:27:23Z</time>
      </trkpt>
      <trkpt lat="49.98093" lon="2.44322">
        <ele>60.364</ele>
        <time>2020-08-23T08:27:27Z</time>
      </trkpt>
      <trkpt lat="49.9809" lon="2.44329">
        <ele>59.959</ele>
        <time>2020-08-23T08:27:32Z</time>
      </trkpt>
      <trkpt lat="49.98088" lon="2.44335">
        <ele>59.531</ele>
        <time>2020-08-23T08:27:36Z</time>
      </trkpt>
      <trkpt lat="49.98085" lon="2.44343">
        <ele>59.261</ele>
        <time>2020-08-23T08:27:40Z</time>
      </trkpt>
      <trkpt lat="49.98084" lon="2.4435">
        <ele>58.807</ele>
        <time>2020-08-23T08:27:44Z</time>
      </trkpt>
      <trkpt lat="49.98079" lon="2.44354">
        <ele>58.508</ele>
        <time>2020-08-23T08:27:47Z</time>
      </trkpt>
      <trkpt lat="49.98077" lon="2.44361">
        <ele>58.258</ele>
        <time>2020-08-23T08:27:52Z</time>
      </trkpt>
      <trkpt lat="49.98074" lon="2.44368">
        <ele>57.948</ele>
        <time>2020-08-23T08:27:55Z</time>
      </trkpt>
      <trkpt lat="49.9807" lon="2.44373">
        <ele>57.716</ele>
        <time>2020-08-23T08:27:59Z</time>
      </trkpt>
      <trkpt lat="49.98067" lon="2.44379">
        <ele>57.464</ele>
        <time>2020-08-23T08:28:03Z</time>
      </trkpt>
      <trkpt lat="49.98064" lon="2.44386">
        <ele>57.254</ele>
        <time>2020-08-23T08:28:07Z</time>
      </trkpt>
      <trkpt lat="49.9806" lon="2.44391">
        <ele>56.939</ele>
        <time>2020-08-23T08:28:10Z</time>
      </trkpt>
      <trkpt lat="49.98058" lon="2.44399">
        <ele>56.58</ele>
        <time>2020-08-23T08:28:16Z</time>
      </trkpt>
      <trkpt lat="49.98055" lon="2.44403">
        <ele>56.365</ele>
        <time>2020-08-23T08:28:19Z</time>
      </trkpt>
      <trkpt lat="49.98051" lon="2.4441">
        <ele>56.058</ele>
        <time>2020-08-23T08:28:23Z</time>
      </trkpt>
      <trkpt lat="49.98048" lon="2.44416">
        <ele>55.752</ele>
        <time>2020-08-23T08:28:27Z</time>
      </trkpt>
      <trkpt lat="49.98045" lon="2.44422">
        <ele>55.217</ele>
        <time>2020-08-23T08:28:32Z</time>
      </trkpt>
      <trkpt lat="49.98043" lon="2.44428">
        <ele>54.708</ele>
        <time>2020-08-23T08:28:36Z</time>
      </trkpt>
      <trkpt lat="49.98041" lon="2.44435">
        <ele>54.37</ele>
        <time>2020-08-23T08:28:40Z</time>
      </trkpt>
      <trkpt lat="49.98038" lon="2.44441">
        <ele>54.18</ele>
        <time>2020-08-23T08:28:43Z</time>
      </trkpt>
      <trkpt lat="49.98034" lon="2.44448">
        <ele>53.638</ele>
        <time>2020-08-23T08:28:48Z</time>
      </trkpt>
      <trkpt lat="49.98031" lon="2.44454">
        <ele>53.256</ele>
        <time>2020-08-23T08:28:52Z</time>
      </trkpt>
      <trkpt lat="49.98028" lon="2.44462">
        <ele>52.836</ele>
        <time>2020-08-23T08:28:56Z</time>
      </trkpt>
      <trkpt lat="49.98026" lon="2.44469">
        <ele>52.681</ele>
        <time>2020-08-23T08:28:59Z</time>
      </trkpt>
      <trkpt lat="49.98023" lon="2.44476">
        <ele>52.352</ele>
        <time>2020-08-23T08:29:03Z</time>
      </trkpt>
      <trkpt lat="49.9802" lon="2.44482">
        <ele>52.137</ele>
        <time>2020-08-23T08:29:06Z</time>
      </trkpt>
      <trkpt lat="49.98017" lon="2.44489">
        <ele>51.984</ele>
        <time>2020-08-23T08:29:11Z</time>
      </trkpt>
      <trkpt lat="49.98013" lon="2.44496">
        <ele>51.407</ele>
        <time>2020-08-23T08:29:15Z</time>
      </trkpt>
      <trkpt lat="49.98011" lon="2.44503">
        <ele>51.117</ele>
        <time>2020-08-23T08:29:19Z</time>
      </trkpt>
      <trkpt lat="49.98008" lon="2.44509">
        <ele>50.808</ele>
        <time>2020-08-23T08:29:23Z</time>
      </trkpt>
      <trkpt lat="49.98007" lon="2.44516">
        <ele>50.623</ele>
        <time>2020-08-23T08:29:27Z</time>
      </trkpt>
      <trkpt lat="49.98003" lon="2.44521">
        <ele>50.453</ele>
        <time>2020-08-23T08:29:31Z</time>
      </trkpt>
      <trkpt lat="49.98" lon="2.44527">
        <ele>50.281</ele>
        <time>2020-08-23T08:29:36Z</time>
      </trkpt>
      <trkpt lat="49.97997" lon="2.44533">
        <ele>50.179</ele>
        <time>2020-08-23T08:29:39Z</time>
      </trkpt>
      <trkpt lat="49.97993" lon="2.44538">
        <ele>49.959</ele>
        <time>2020-08-23T08:29:43Z</time>
      </trkpt>
      <trkpt lat="49.97988" lon="2.44543">
        <ele>49.664</ele>
        <time>2020-08-23T08:29:47Z</time>
      </trkpt>
      <trkpt lat="49.97983" lon="2.44546">
        <ele>49.685</ele>
        <time>2020-08-23T08:29:50Z</time>
      </trkpt>
      <trkpt lat="49.97978" lon="2.44549">
        <ele>49.45</ele>
        <time>2020-08-23T08:29:54Z</time>
      </trkpt>
      <trkpt lat="49.97972" lon="2.44549">
        <ele>49.675</ele>
        <time>2020-08-23T08:29:59Z</time>
      </trkpt>
      <trkpt lat="49.97966" lon="2.44549">
        <ele>49.628</ele>
        <time>2020-08-23T08:30:04Z</time>
      </trkpt>
      <trkpt lat="49.97961" lon="2.44544">
        <ele>49.42</ele>
        <time>2020-08-23T08:30:09Z</time>
      </trkpt>
      <trkpt lat="49.97958" lon="2.44539">
        <ele>49.208</ele>
        <time>2020-08-23T08:30:13Z</time>
      </trkpt>
      <trkpt lat="49.97954" lon="2.44534">
        <ele>49.272</ele>
        <time>2020-08-23T08:30:16Z</time>
      </trkpt>
      <trkpt lat="49.9795" lon="2.44529">
        <ele>49.342</ele>
        <time>2020-08-23T08:30:19Z</time>
      </trkpt>
      <trkpt lat="49.97947" lon="2.44524">
        <ele>49.71</ele>
        <time>2020-08-23T08:30:23Z</time>
      </trkpt>
      <trkpt lat="49.97945" lon="2.44518">
        <ele>49.748</ele>
        <time>2020-08-23T08:30:27Z</time>
      </trkpt>
      <trkpt lat="49.9794" lon="2.44514">
        <ele>49.938</ele>
        <time>2020-08-23T08:30:31Z</time>
      </trkpt>
      <trkpt lat="49.97937" lon="2.44509">
        <ele>49.453</ele>
        <time>2020-08-23T08:30:35Z</time>
      </trkpt>
      <trkpt lat="49.97932" lon="2.44506">
        <ele>48.874</ele>
        <time>2020-08-23T08:30:39Z</time>
      </trkpt>
      <trkpt lat="49.97928" lon="2.445">
        <ele>47.969</ele>
        <time>2020-08-23T08:30:45Z</time>
      </trkpt>
      <trkpt lat="49.97925" lon="2.44495">
        <ele>48.366</ele>
        <time>2020-08-23T08:30:50Z</time>
      </trkpt>
      <trkpt lat="49.97922" lon="2.44489">
        <ele>48.029</ele>
        <time>2020-08-23T08:30:57Z</time>
      </trkpt>
      <trkpt lat="49.97919" lon="2.44483">
        <ele>48.321</ele>
        <time>2020-08-23T08:31:19Z</time>
      </trkpt>
      <trkpt lat="49.97917" lon="2.44477">
        <ele>48.008</ele>
        <time>2020-08-23T08:31:34Z</time>
      </trkpt>
      <trkpt lat="49.97921" lon="2.44481">
        <ele>47.981</ele>
        <time>2020-08-23T08:31:41Z</time>
      </trkpt>
      <trkpt lat="49.97926" lon="2.44483">
        <ele>49.671</ele>
        <time>2020-08-23T08:31:46Z</time>
      </trkpt>
      <trkpt lat="49.97926" lon="2.44475">
        <ele>50.289</ele>
        <time>2020-08-23T08:31:51Z</time>
      </trkpt>
      <trkpt lat="49.97925" lon="2.44468">
        <ele>49.437</ele>
        <time>2020-08-23T08:32:16Z</time>
      </trkpt>
      <trkpt lat="49.97929" lon="2.44474">
        <ele>49.267</ele>
        <time>2020-08-23T08:32:24Z</time>
      </trkpt>
      <trkpt lat="49.97929" lon="2.44481">
        <ele>49.732</ele>
        <time>2020-08-23T08:32:27Z</time>
      </trkpt>
      <trkpt lat="49.97926" lon="2.44486">
        <ele>47.713</ele>
        <time>2020-08-23T08:32:36Z</time>
      </trkpt>
      <trkpt lat="49.97925" lon="2.44477">
        <ele>47.228</ele>
        <time>2020-08-23T08:32:42Z</time>
      </trkpt>
      <trkpt lat="49.97924" lon="2.4447">
        <ele>47.352</ele>
        <time>2020-08-23T08:32:46Z</time>
      </trkpt>
      <trkpt lat="49.97923" lon="2.44461">
        <ele>47.553</ele>
        <time>2020-08-23T08:32:49Z</time>
      </trkpt>
      <trkpt lat="49.97923" lon="2.44454">
        <ele>47.708</ele>
        <time>2020-08-23T08:32:52Z</time>
      </trkpt>
      <trkpt lat="49.97923" lon="2.44446">
        <ele>47.908</ele>
        <time>2020-08-23T08:32:56Z</time>
      </trkpt>
      <trkpt lat="49.97925" lon="2.44437">
        <ele>48.15</ele>
        <time>2020-08-23T08:33:00Z</time>
      </trkpt>
      <trkpt lat="49.97927" lon="2.44431">
        <ele>48.43</ele>
        <time>2020-08-23T08:33:04Z</time>
      </trkpt>
      <trkpt lat="49.97928" lon="2.44423">
        <ele>48.548</ele>
        <time>2020-08-23T08:33:08Z</time>
      </trkpt>
      <trkpt lat="49.97929" lon="2.44416">
        <ele>48.666</ele>
        <time>2020-08-23T08:33:11Z</time>
      </trkpt>
      <trkpt lat="49.97928" lon="2.44409">
        <ele>48.626</ele>
        <time>2020-08-23T08:33:14Z</time>
      </trkpt>
      <trkpt lat="49.97929" lon="2.44402">
        <ele>48.781</ele>
        <time>2020-08-23T08:33:18Z</time>
      </trkpt>
      <trkpt lat="49.97932" lon="2.44395">
        <ele>49.332</ele>
        <time>2020-08-23T08:33:22Z</time>
      </trkpt>
      <trkpt lat="49.97934" lon="2.44388">
        <ele>49.957</ele>
        <time>2020-08-23T08:33:26Z</time>
      </trkpt>
      <trkpt lat="49.97932" lon="2.44381">
        <ele>50.256</ele>
        <time>2020-08-23T08:33:30Z</time>
      </trkpt>
      <trkpt lat="49.97931" lon="2.44374">
        <ele>50.859</ele>
        <time>2020-08-23T08:33:44Z</time>
      </trkpt>
      <trkpt lat="49.97929" lon="2.44367">
        <ele>51.014</ele>
        <time>2020-08-23T08:33:53Z</time>
      </trkpt>
      <trkpt lat="49.97929" lon="2.44359">
        <ele>51.108</ele>
        <time>2020-08-23T08:33:59Z</time>
      </trkpt>
      <trkpt lat="49.97929" lon="2.44352">
        <ele>51.16</ele>
        <time>2020-08-23T08:34:12Z</time>
      </trkpt>
      <trkpt lat="49.9793" lon="2.44344">
        <ele>51.67</ele>
        <time>2020-08-23T08:34:17Z</time>
      </trkpt>
      <trkpt lat="49.97933" lon="2.44336">
        <ele>51.958</ele>
        <time>2020-08-23T08:34:20Z</time>
      </trkpt>
      <trkpt lat="49.97933" lon="2.44328">
        <ele>52.466</ele>
        <time>2020-08-23T08:34:23Z</time>
      </trkpt>
      <trkpt lat="49.97933" lon="2.4432">
        <ele>52.716</ele>
        <time>2020-08-23T08:34:27Z</time>
      </trkpt>
      <trkpt lat="49.97934" lon="2.44312">
        <ele>52.991</ele>
        <time>2020-08-23T08:34:30Z</time>
      </trkpt>
      <trkpt lat="49.97932" lon="2.44304">
        <ele>53.072</ele>
        <time>2020-08-23T08:34:34Z</time>
      </trkpt>
      <trkpt lat="49.9793" lon="2.44297">
        <ele>53.087</ele>
        <time>2020-08-23T08:34:37Z</time>
      </trkpt>
      <trkpt lat="49.97931" lon="2.44289">
        <ele>53.788</ele>
        <time>2020-08-23T08:34:40Z</time>
      </trkpt>
      <trkpt lat="49.97931" lon="2.44281">
        <ele>54.124</ele>
        <time>2020-08-23T08:34:44Z</time>
      </trkpt>
      <trkpt lat="49.97931" lon="2.44274">
        <ele>54.326</ele>
        <time>2020-08-23T08:34:48Z</time>
      </trkpt>
      <trkpt lat="49.9793" lon="2.44267">
        <ele>54.408</ele>
        <time>2020-08-23T08:34:51Z</time>
      </trkpt>
      <trkpt lat="49.9793" lon="2.44258">
        <ele>54.863</ele>
        <time>2020-08-23T08:34:55Z</time>
      </trkpt>
      <trkpt lat="49.9793" lon="2.4425">
        <ele>55.043</ele>
        <time>2020-08-23T08:34:58Z</time>
      </trkpt>
      <trkpt lat="49.97931" lon="2.44243">
        <ele>55.371</ele>
        <time>2020-08-23T08:35:01Z</time>
      </trkpt>
      <trkpt lat="49.9793" lon="2.44236">
        <ele>55.529</ele>
        <time>2020-08-23T08:35:04Z</time>
      </trkpt>
      <trkpt lat="49.97931" lon="2.44228">
        <ele>55.629</ele>
        <time>2020-08-23T08:35:08Z</time>
      </trkpt>
      <trkpt lat="49.9793" lon="2.4422">
        <ele>55.634</ele>
        <time>2020-08-23T08:35:11Z</time>
      </trkpt>
      <trkpt lat="49.97931" lon="2.44213">
        <ele>55.655</ele>
        <time>2020-08-23T08:35:15Z</time>
      </trkpt>
      <trkpt lat="49.9793" lon="2.44205">
        <ele>55.62</ele>
        <time>2020-08-23T08:35:18Z</time>
      </trkpt>
      <trkpt lat="49.97929" lon="2.44197">
        <ele>55.622</ele>
        <time>2020-08-23T08:35:20Z</time>
      </trkpt>
      <trkpt lat="49.9793" lon="2.4419">
        <ele>55.662</ele>
        <time>2020-08-23T08:35:22Z</time>
      </trkpt>
      <trkpt lat="49.9793" lon="2.44181">
        <ele>55.608</ele>
        <time>2020-08-23T08:35:25Z</time>
      </trkpt>
      <trkpt lat="49.97932" lon="2.44172">
        <ele>55.208</ele>
        <time>2020-08-23T08:35:29Z</time>
      </trkpt>
      <trkpt lat="49.97932" lon="2.44164">
        <ele>54.997</ele>
        <time>2020-08-23T08:35:33Z</time>
      </trkpt>
      <trkpt lat="49.97933" lon="2.44157">
        <ele>54.357</ele>
        <time>2020-08-23T08:35:37Z</time>
      </trkpt>
      <trkpt lat="49.97933" lon="2.4415">
        <ele>54.015</ele>
        <time>2020-08-23T08:35:40Z</time>
      </trkpt>
      <trkpt lat="49.97931" lon="2.44142">
        <ele>53.353</ele>
        <time>2020-08-23T08:35:46Z</time>
      </trkpt>
      <trkpt lat="49.97931" lon="2.44134">
        <ele>52.883</ele>
        <time>2020-08-23T08:35:53Z</time>
      </trkpt>
      <trkpt lat="49.9793" lon="2.44127">
        <ele>52.398</ele>
        <time>2020-08-23T08:35:59Z</time>
      </trkpt>
      <trkpt lat="49.97929" lon="2.44119">
        <ele>52.389</ele>
        <time>2020-08-23T08:36:04Z</time>
      </trkpt>
      <trkpt lat="49.97931" lon="2.44112">
        <ele>51.984</ele>
        <time>2020-08-23T08:36:07Z</time>
      </trkpt>
      <trkpt lat="49.97935" lon="2.44105">
        <ele>51.638</ele>
        <time>2020-08-23T08:36:11Z</time>
      </trkpt>
      <trkpt lat="49.97937" lon="2.44097">
        <ele>51.37</ele>
        <time>2020-08-23T08:36:14Z</time>
      </trkpt>
      <trkpt lat="49.97937" lon="2.44089">
        <ele>51.017</ele>
        <time>2020-08-23T08:36:17Z</time>
      </trkpt>
      <trkpt lat="49.97936" lon="2.44081">
        <ele>50.308</ele>
        <time>2020-08-23T08:36:21Z</time>
      </trkpt>
      <trkpt lat="49.97937" lon="2.44073">
        <ele>50.478</ele>
        <time>2020-08-23T08:36:26Z</time>
      </trkpt>
      <trkpt lat="49.97939" lon="2.44066">
        <ele>50.148</ele>
        <time>2020-08-23T08:36:31Z</time>
      </trkpt>
      <trkpt lat="49.97938" lon="2.44059">
        <ele>50.046</ele>
        <time>2020-08-23T08:36:37Z</time>
      </trkpt>
      <trkpt lat="49.97937" lon="2.44051">
        <ele>50.134</ele>
        <time>2020-08-23T08:36:49Z</time>
      </trkpt>
      <trkpt lat="49.97936" lon="2.44043">
        <ele>50.394</ele>
        <time>2020-08-23T08:36:53Z</time>
      </trkpt>
      <trkpt lat="49.97935" lon="2.44037">
        <ele>50.249</ele>
        <time>2020-08-23T08:36:57Z</time>
      </trkpt>
      <trkpt lat="49.97934" lon="2.44027">
        <ele>50.18</ele>
        <time>2020-08-23T08:37:02Z</time>
      </trkpt>
      <trkpt lat="49.97932" lon="2.4402">
        <ele>50.285</ele>
        <time>2020-08-23T08:37:06Z</time>
      </trkpt>
      <trkpt lat="49.97931" lon="2.44011">
        <ele>50.248</ele>
        <time>2020-08-23T08:37:10Z</time>
      </trkpt>
      <trkpt lat="49.97931" lon="2.44004">
        <ele>50.161</ele>
        <time>2020-08-23T08:37:14Z</time>
      </trkpt>
      <trkpt lat="49.97931" lon="2.43994">
        <ele>50.217</ele>
        <time>2020-08-23T08:37:17Z</time>
      </trkpt>
      <trkpt lat="49.9793" lon="2.43987">
        <ele>50.308</ele>
        <time>2020-08-23T08:37:22Z</time>
      </trkpt>
      <trkpt lat="49.97931" lon="2.43979">
        <ele>50.459</ele>
        <time>2020-08-23T08:37:26Z</time>
      </trkpt>
      <trkpt lat="49.97931" lon="2.43971">
        <ele>50.569</ele>
        <time>2020-08-23T08:37:30Z</time>
      </trkpt>
      <trkpt lat="49.97931" lon="2.43963">
        <ele>50.497</ele>
        <time>2020-08-23T08:37:34Z</time>
      </trkpt>
      <trkpt lat="49.97929" lon="2.43956">
        <ele>50.585</ele>
        <time>2020-08-23T08:37:37Z</time>
      </trkpt>
      <trkpt lat="49.97929" lon="2.43948">
        <ele>50.685</ele>
        <time>2020-08-23T08:37:41Z</time>
      </trkpt>
      <trkpt lat="49.97929" lon="2.43939">
        <ele>50.83</ele>
        <time>2020-08-23T08:37:44Z</time>
      </trkpt>
      <trkpt lat="49.97928" lon="2.4393">
        <ele>50.991</ele>
        <time>2020-08-23T08:37:48Z</time>
      </trkpt>
      <trkpt lat="49.97928" lon="2.43921">
        <ele>51.056</ele>
        <time>2020-08-23T08:37:52Z</time>
      </trkpt>
      <trkpt lat="49.97928" lon="2.43912">
        <ele>51.254</ele>
        <time>2020-08-23T08:37:56Z</time>
      </trkpt>
      <trkpt lat="49.97928" lon="2.43905">
        <ele>51.556</ele>
        <time>2020-08-23T08:38:00Z</time>
      </trkpt>
      <trkpt lat="49.97927" lon="2.43897">
        <ele>51.511</ele>
        <time>2020-08-23T08:38:05Z</time>
      </trkpt>
      <trkpt lat="49.97926" lon="2.43889">
        <ele>51.308</ele>
        <time>2020-08-23T08:38:11Z</time>
      </trkpt>
      <trkpt lat="49.97924" lon="2.43882">
        <ele>51.49</ele>
        <time>2020-08-23T08:38:14Z</time>
      </trkpt>
      <trkpt lat="49.97923" lon="2.43875">
        <ele>51.51</ele>
        <time>2020-08-23T08:38:17Z</time>
      </trkpt>
      <trkpt lat="49.97924" lon="2.43867">
        <ele>51.758</ele>
        <time>2020-08-23T08:38:21Z</time>
      </trkpt>
      <trkpt lat="49.97923" lon="2.43859">
        <ele>51.416</ele>
        <time>2020-08-23T08:38:27Z</time>
      </trkpt>
      <trkpt lat="49.97924" lon="2.43851">
        <ele>51.396</ele>
        <time>2020-08-23T08:38:30Z</time>
      </trkpt>
      <trkpt lat="49.97924" lon="2.43842">
        <ele>51.151</ele>
        <time>2020-08-23T08:38:33Z</time>
      </trkpt>
      <trkpt lat="49.97924" lon="2.43833">
        <ele>51.072</ele>
        <time>2020-08-23T08:38:36Z</time>
      </trkpt>
      <trkpt lat="49.97924" lon="2.43824">
        <ele>50.887</ele>
        <time>2020-08-23T08:38:40Z</time>
      </trkpt>
      <trkpt lat="49.97926" lon="2.43817">
        <ele>50.714</ele>
        <time>2020-08-23T08:38:44Z</time>
      </trkpt>
      <trkpt lat="49.97928" lon="2.4381">
        <ele>50.454</ele>
        <time>2020-08-23T08:38:47Z</time>
      </trkpt>
      <trkpt lat="49.9793" lon="2.43803">
        <ele>50.109</ele>
        <time>2020-08-23T08:38:50Z</time>
      </trkpt>
      <trkpt lat="49.97932" lon="2.43794">
        <ele>49.808</ele>
        <time>2020-08-23T08:38:53Z</time>
      </trkpt>
      <trkpt lat="49.97933" lon="2.43787">
        <ele>49.546</ele>
        <time>2020-08-23T08:38:57Z</time>
      </trkpt>
      <trkpt lat="49.97934" lon="2.4378">
        <ele>49.216</ele>
        <time>2020-08-23T08:39:01Z</time>
      </trkpt>
      <trkpt lat="49.97934" lon="2.43773">
        <ele>48.844</ele>
        <time>2020-08-23T08:39:06Z</time>
      </trkpt>
      <trkpt lat="49.97935" lon="2.43765">
        <ele>49.022</ele>
        <time>2020-08-23T08:39:10Z</time>
      </trkpt>
      <trkpt lat="49.97935" lon="2.43758">
        <ele>49.052</ele>
        <time>2020-08-23T08:39:13Z</time>
      </trkpt>
      <trkpt lat="49.97937" lon="2.4375">
        <ele>49.057</ele>
        <time>2020-08-23T08:39:17Z</time>
      </trkpt>
      <trkpt lat="49.97938" lon="2.43743">
        <ele>49.128</ele>
        <time>2020-08-23T08:39:22Z</time>
      </trkpt>
      <trkpt lat="49.9794" lon="2.43736">
        <ele>49.163</ele>
        <time>2020-08-23T08:39:26Z</time>
      </trkpt>
      <trkpt lat="49.97942" lon="2.43729">
        <ele>49.126</ele>
        <time>2020-08-23T08:39:31Z</time>
      </trkpt>
      <trkpt lat="49.97944" lon="2.43722">
        <ele>49.147</ele>
        <time>2020-08-23T08:39:35Z</time>
      </trkpt>
      <trkpt lat="49.97946" lon="2.43715">
        <ele>49.011</ele>
        <time>2020-08-23T08:39:39Z</time>
      </trkpt>
      <trkpt lat="49.97949" lon="2.43709">
        <ele>49.108</ele>
        <time>2020-08-23T08:39:43Z</time>
      </trkpt>
      <trkpt lat="49.9795" lon="2.43703">
        <ele>49.167</ele>
        <time>2020-08-23T08:39:46Z</time>
      </trkpt>
      <trkpt lat="49.97952" lon="2.43696">
        <ele>49.127</ele>
        <time>2020-08-23T08:39:50Z</time>
      </trkpt>
      <trkpt lat="49.97954" lon="2.43689">
        <ele>49.325</ele>
        <time>2020-08-23T08:39:54Z</time>
      </trkpt>
      <trkpt lat="49.97957" lon="2.43681">
        <ele>49.343</ele>
        <time>2020-08-23T08:39:58Z</time>
      </trkpt>
      <trkpt lat="49.9796" lon="2.43676">
        <ele>49.223</ele>
        <time>2020-08-23T08:40:01Z</time>
      </trkpt>
      <trkpt lat="49.97964" lon="2.43671">
        <ele>49.048</ele>
        <time>2020-08-23T08:40:04Z</time>
      </trkpt>
      <trkpt lat="49.97968" lon="2.43666">
        <ele>48.839</ele>
        <time>2020-08-23T08:40:07Z</time>
      </trkpt>
      <trkpt lat="49.97973" lon="2.43662">
        <ele>48.724</ele>
        <time>2020-08-23T08:40:11Z</time>
      </trkpt>
      <trkpt lat="49.97977" lon="2.43657">
        <ele>48.664</ele>
        <time>2020-08-23T08:40:15Z</time>
      </trkpt>
      <trkpt lat="49.9798" lon="2.43652">
        <ele>48.506</ele>
        <time>2020-08-23T08:40:19Z</time>
      </trkpt>
      <trkpt lat="49.97984" lon="2.43647">
        <ele>48.316</ele>
        <time>2020-08-23T08:40:23Z</time>
      </trkpt>
      <trkpt lat="49.97988" lon="2.43644">
        <ele>48.408</ele>
        <time>2020-08-23T08:40:28Z</time>
      </trkpt>
      <trkpt lat="49.97993" lon="2.43641">
        <ele>48.531</ele>
        <time>2020-08-23T08:40:32Z</time>
      </trkpt>
      <trkpt lat="49.97999" lon="2.43639">
        <ele>48.661</ele>
        <time>2020-08-23T08:40:37Z</time>
      </trkpt>
      <trkpt lat="49.98004" lon="2.43636">
        <ele>48.759</ele>
        <time>2020-08-23T08:40:41Z</time>
      </trkpt>
      <trkpt lat="49.98008" lon="2.43635">
        <ele>48.687</ele>
        <time>2020-08-23T08:40:47Z</time>
      </trkpt>
      <trkpt lat="49.98011" lon="2.43627">
        <ele>48.647</ele>
        <time>2020-08-23T08:40:54Z</time>
      </trkpt>
      <trkpt lat="49.98015" lon="2.43621">
        <ele>49.192</ele>
        <time>2020-08-23T08:40:59Z</time>
      </trkpt>
      <trkpt lat="49.98018" lon="2.43614">
        <ele>48.673</ele>
        <time>2020-08-23T08:41:04Z</time>
      </trkpt>
      <trkpt lat="49.98021" lon="2.43606">
        <ele>48.868</ele>
        <time>2020-08-23T08:41:08Z</time>
      </trkpt>
      <trkpt lat="49.98023" lon="2.43599">
        <ele>48.997</ele>
        <time>2020-08-23T08:41:11Z</time>
      </trkpt>
      <trkpt lat="49.98024" lon="2.43591">
        <ele>49.123</ele>
        <time>2020-08-23T08:41:15Z</time>
      </trkpt>
      <trkpt lat="49.98027" lon="2.43583">
        <ele>49.425</ele>
        <time>2020-08-23T08:41:18Z</time>
      </trkpt>
      <trkpt lat="49.98029" lon="2.43575">
        <ele>49.608</ele>
        <time>2020-08-23T08:41:22Z</time>
      </trkpt>
      <trkpt lat="49.98031" lon="2.43568">
        <ele>49.624</ele>
        <time>2020-08-23T08:41:25Z</time>
      </trkpt>
      <trkpt lat="49.98032" lon="2.4356">
        <ele>49.554</ele>
        <time>2020-08-23T08:41:29Z</time>
      </trkpt>
      <trkpt lat="49.98033" lon="2.43552">
        <ele>49.752</ele>
        <time>2020-08-23T08:41:33Z</time>
      </trkpt>
      <trkpt lat="49.98031" lon="2.43544">
        <ele>49.68</ele>
        <time>2020-08-23T08:41:37Z</time>
      </trkpt>
      <trkpt lat="49.9803" lon="2.43536">
        <ele>49.68</ele>
        <time>2020-08-23T08:41:41Z</time>
      </trkpt>
      <trkpt lat="49.98029" lon="2.43528">
        <ele>49.835</ele>
        <time>2020-08-23T08:41:45Z</time>
      </trkpt>
      <trkpt lat="49.98028" lon="2.4352">
        <ele>49.846</ele>
        <time>2020-08-23T08:41:48Z</time>
      </trkpt>
      <trkpt lat="49.98029" lon="2.43511">
        <ele>49.961</ele>
        <time>2020-08-23T08:41:52Z</time>
      </trkpt>
      <trkpt lat="49.98029" lon="2.43503">
        <ele>50.035</ele>
        <time>2020-08-23T08:41:56Z</time>
      </trkpt>
      <trkpt lat="49.98029" lon="2.43495">
        <ele>49.886</ele>
        <time>2020-08-23T08:42:00Z</time>
      </trkpt>
      <trkpt lat="49.98028" lon="2.43487">
        <ele>49.814</ele>
        <time>2020-08-23T08:42:04Z</time>
      </trkpt>
      <trkpt lat="49.98026" lon="2.43479">
        <ele>50.108</ele>
        <time>2020-08-23T08:42:08Z</time>
      </trkpt>
      <trkpt lat="49.98027" lon="2.43471">
        <ele>50.128</ele>
        <time>2020-08-23T08:42:12Z</time>
      </trkpt>
      <trkpt lat="49.98026" lon="2.43462">
        <ele>50.278</ele>
        <time>2020-08-23T08:42:16Z</time>
      </trkpt>
      <trkpt lat="49.98027" lon="2.43455">
        <ele>50.246</ele>
        <time>2020-08-23T08:42:19Z</time>
      </trkpt>
      <trkpt lat="49.98028" lon="2.43445">
        <ele>50.344</ele>
        <time>2020-08-23T08:42:23Z</time>
      </trkpt>
      <trkpt lat="49.98028" lon="2.43438">
        <ele>50.494</ele>
        <time>2020-08-23T08:42:26Z</time>
      </trkpt>
      <trkpt lat="49.98028" lon="2.43429">
        <ele>50.519</ele>
        <time>2020-08-23T08:42:30Z</time>
      </trkpt>
      <trkpt lat="49.98027" lon="2.43421">
        <ele>50.74</ele>
        <time>2020-08-23T08:42:34Z</time>
      </trkpt>
      <trkpt lat="49.98026" lon="2.43413">
        <ele>50.825</ele>
        <time>2020-08-23T08:42:38Z</time>
      </trkpt>
      <trkpt lat="49.98025" lon="2.43406">
        <ele>50.936</ele>
        <time>2020-08-23T08:42:41Z</time>
      </trkpt>
      <trkpt lat="49.98024" lon="2.43399">
        <ele>51.017</ele>
        <time>2020-08-23T08:42:44Z</time>
      </trkpt>
      <trkpt lat="49.98025" lon="2.43391">
        <ele>50.918</ele>
        <time>2020-08-23T08:42:48Z</time>
      </trkpt>
      <trkpt lat="49.98023" lon="2.43382">
        <ele>51.308</ele>
        <time>2020-08-23T08:42:52Z</time>
      </trkpt>
      <trkpt lat="49.98024" lon="2.43375">
        <ele>51.758</ele>
        <time>2020-08-23T08:42:56Z</time>
      </trkpt>
      <trkpt lat="49.98023" lon="2.43367">
        <ele>52.168</ele>
        <time>2020-08-23T08:43:00Z</time>
      </trkpt>
      <trkpt lat="49.98022" lon="2.43359">
        <ele>52.476</ele>
        <time>2020-08-23T08:43:03Z</time>
      </trkpt>
      <trkpt lat="49.9802" lon="2.43351">
        <ele>52.594</ele>
        <time>2020-08-23T08:43:06Z</time>
      </trkpt>
      <trkpt lat="49.98016" lon="2.43345">
        <ele>52.674</ele>
        <time>2020-08-23T08:43:09Z</time>
      </trkpt>
      <trkpt lat="49.98012" lon="2.4334">
        <ele>53.399</ele>
        <time>2020-08-23T08:43:14Z</time>
      </trkpt>
      <trkpt lat="49.98009" lon="2.43336">
        <ele>53.73</ele>
        <time>2020-08-23T08:43:18Z</time>
      </trkpt>
      <trkpt lat="49.98004" lon="2.4333">
        <ele>53.875</ele>
        <time>2020-08-23T08:43:22Z</time>
      </trkpt>
      <trkpt lat="49.98" lon="2.43325">
        <ele>54.136</ele>
        <time>2020-08-23T08:43:26Z</time>
      </trkpt>
      <trkpt lat="49.97997" lon="2.4332">
        <ele>54.417</ele>
        <time>2020-08-23T08:43:29Z</time>
      </trkpt>
      <trkpt lat="49.97993" lon="2.43315">
        <ele>54.418</ele>
        <time>2020-08-23T08:43:33Z</time>
      </trkpt>
      <trkpt lat="49.97988" lon="2.43309">
        <ele>55.208</ele>
        <time>2020-08-23T08:43:37Z</time>
      </trkpt>
      <trkpt lat="49.97983" lon="2.43303">
        <ele>55.518</ele>
        <time>2020-08-23T08:43:41Z</time>
      </trkpt>
      <trkpt lat="49.97978" lon="2.43298">
        <ele>55.648</ele>
        <time>2020-08-23T08:43:44Z</time>
      </trkpt>
      <trkpt lat="49.97975" lon="2.43294">
        <ele>55.496</ele>
        <time>2020-08-23T08:43:47Z</time>
      </trkpt>
      <trkpt lat="49.9797" lon="2.43289">
        <ele>55.444</ele>
        <time>2020-08-23T08:43:51Z</time>
      </trkpt>
      <trkpt lat="49.97966" lon="2.43284">
        <ele>56.854</ele>
        <time>2020-08-23T08:43:55Z</time>
      </trkpt>
      <trkpt lat="49.97961" lon="2.43279">
        <ele>57.529</ele>
        <time>2020-08-23T08:43:59Z</time>
      </trkpt>
      <trkpt lat="49.97958" lon="2.43274">
        <ele>57.57</ele>
        <time>2020-08-23T08:44:02Z</time>
      </trkpt>
      <trkpt lat="49.97954" lon="2.4327">
        <ele>57.595</ele>
        <time>2020-08-23T08:44:06Z</time>
      </trkpt>
      <trkpt lat="49.97949" lon="2.43267">
        <ele>57.675</ele>
        <time>2020-08-23T08:44:10Z</time>
      </trkpt>
      <trkpt lat="49.97945" lon="2.43263">
        <ele>58.328</ele>
        <time>2020-08-23T08:44:14Z</time>
      </trkpt>
      <trkpt lat="49.97942" lon="2.43257">
        <ele>58.52</ele>
        <time>2020-08-23T08:44:18Z</time>
      </trkpt>
      <trkpt lat="49.97937" lon="2.43253">
        <ele>59.008</ele>
        <time>2020-08-23T08:44:22Z</time>
      </trkpt>
      <trkpt lat="49.97932" lon="2.4325">
        <ele>59.142</ele>
        <time>2020-08-23T08:44:26Z</time>
      </trkpt>
      <trkpt lat="49.97928" lon="2.43248">
        <ele>59.392</ele>
        <time>2020-08-23T08:44:29Z</time>
      </trkpt>
      <trkpt lat="49.97924" lon="2.43244">
        <ele>59.71</ele>
        <time>2020-08-23T08:44:34Z</time>
      </trkpt>
      <trkpt lat="49.97919" lon="2.43239">
        <ele>59.738</ele>
        <time>2020-08-23T08:44:37Z</time>
      </trkpt>
      <trkpt lat="49.97915" lon="2.43234">
        <ele>59.438</ele>
        <time>2020-08-23T08:44:41Z</time>
      </trkpt>
      <trkpt lat="49.97911" lon="2.4323">
        <ele>59.753</ele>
        <time>2020-08-23T08:44:46Z</time>
      </trkpt>
      <trkpt lat="49.97907" lon="2.43225">
        <ele>60.274</ele>
        <time>2020-08-23T08:44:50Z</time>
      </trkpt>
      <trkpt lat="49.97903" lon="2.43221">
        <ele>60.459</ele>
        <time>2020-08-23T08:44:53Z</time>
      </trkpt>
      <trkpt lat="49.97898" lon="2.43218">
        <ele>61.073</ele>
        <time>2020-08-23T08:44:58Z</time>
      </trkpt>
      <trkpt lat="49.97893" lon="2.43215">
        <ele>61.185</ele>
        <time>2020-08-23T08:45:02Z</time>
      </trkpt>
      <trkpt lat="49.97889" lon="2.4321">
        <ele>61.013</ele>
        <time>2020-08-23T08:45:07Z</time>
      </trkpt>
      <trkpt lat="49.97885" lon="2.43204">
        <ele>61.508</ele>
        <time>2020-08-23T08:45:14Z</time>
      </trkpt>
      <trkpt lat="49.97881" lon="2.43199">
        <ele>62.192</ele>
        <time>2020-08-23T08:45:19Z</time>
      </trkpt>
      <trkpt lat="49.97876" lon="2.43193">
        <ele>62.152</ele>
        <time>2020-08-23T08:45:24Z</time>
      </trkpt>
      <trkpt lat="49.97872" lon="2.43187">
        <ele>62.35</ele>
        <time>2020-08-23T08:45:28Z</time>
      </trkpt>
      <trkpt lat="49.97867" lon="2.43182">
        <ele>63.088</ele>
        <time>2020-08-23T08:45:32Z</time>
      </trkpt>
      <trkpt lat="49.97862" lon="2.43177">
        <ele>62.818</ele>
        <time>2020-08-23T08:45:37Z</time>
      </trkpt>
      <trkpt lat="49.97859" lon="2.43172">
        <ele>63.343</ele>
        <time>2020-08-23T08:45:41Z</time>
      </trkpt>
      <trkpt lat="49.97854" lon="2.43167">
        <ele>63.734</ele>
        <time>2020-08-23T08:45:45Z</time>
      </trkpt>
      <trkpt lat="49.97849" lon="2.43162">
        <ele>64.099</ele>
        <time>2020-08-23T08:45:49Z</time>
      </trkpt>
      <trkpt lat="49.97845" lon="2.43158">
        <ele>63.957</ele>
        <time>2020-08-23T08:45:53Z</time>
      </trkpt>
      <trkpt lat="49.9784" lon="2.43154">
        <ele>64.4</ele>
        <time>2020-08-23T08:45:58Z</time>
      </trkpt>
      <trkpt lat="49.97837" lon="2.43149">
        <ele>65.42</ele>
        <time>2020-08-23T08:46:01Z</time>
      </trkpt>
      <trkpt lat="49.97831" lon="2.43146">
        <ele>65.208</ele>
        <time>2020-08-23T08:46:05Z</time>
      </trkpt>
      <trkpt lat="49.97827" lon="2.43141">
        <ele>65.52</ele>
        <time>2020-08-23T08:46:09Z</time>
      </trkpt>
      <trkpt lat="49.97823" lon="2.43136">
        <ele>65.82</ele>
        <time>2020-08-23T08:46:13Z</time>
      </trkpt>
      <trkpt lat="49.97818" lon="2.43133">
        <ele>66.048</ele>
        <time>2020-08-23T08:46:16Z</time>
      </trkpt>
      <trkpt lat="49.97813" lon="2.43131">
        <ele>66.246</ele>
        <time>2020-08-23T08:46:21Z</time>
      </trkpt>
      <trkpt lat="49.97809" lon="2.43128">
        <ele>66.536</ele>
        <time>2020-08-23T08:46:25Z</time>
      </trkpt>
      <trkpt lat="49.97806" lon="2.43124">
        <ele>66.751</ele>
        <time>2020-08-23T08:46:28Z</time>
      </trkpt>
      <trkpt lat="49.97801" lon="2.43121">
        <ele>67.082</ele>
        <time>2020-08-23T08:46:31Z</time>
      </trkpt>
      <trkpt lat="49.97796" lon="2.43116">
        <ele>67.647</ele>
        <time>2020-08-23T08:46:35Z</time>
      </trkpt>
      <trkpt lat="49.97792" lon="2.43112">
        <ele>67.543</ele>
        <time>2020-08-23T08:46:38Z</time>
      </trkpt>
      <trkpt lat="49.97787" lon="2.43108">
        <ele>67.664</ele>
        <time>2020-08-23T08:46:42Z</time>
      </trkpt>
      <trkpt lat="49.97782" lon="2.43106">
        <ele>67.61</ele>
        <time>2020-08-23T08:46:46Z</time>
      </trkpt>
      <trkpt lat="49.97776" lon="2.43103">
        <ele>67.008</ele>
        <time>2020-08-23T08:46:50Z</time>
      </trkpt>
      <trkpt lat="49.97771" lon="2.43099">
        <ele>68.319</ele>
        <time>2020-08-23T08:46:54Z</time>
      </trkpt>
      <trkpt lat="49.97767" lon="2.43097">
        <ele>69.289</ele>
        <time>2020-08-23T08:46:58Z</time>
      </trkpt>
      <trkpt lat="49.97761" lon="2.43096">
        <ele>68.527</ele>
        <time>2020-08-23T08:47:03Z</time>
      </trkpt>
      <trkpt lat="49.97757" lon="2.43092">
        <ele>68.995</ele>
        <time>2020-08-23T08:47:07Z</time>
      </trkpt>
      <trkpt lat="49.97753" lon="2.4309">
        <ele>68.885</ele>
        <time>2020-08-23T08:47:12Z</time>
      </trkpt>
      <trkpt lat="49.97748" lon="2.43089">
        <ele>69.12</ele>
        <time>2020-08-23T08:47:17Z</time>
      </trkpt>
      <trkpt lat="49.97743" lon="2.43087">
        <ele>69.331</ele>
        <time>2020-08-23T08:47:22Z</time>
      </trkpt>
      <trkpt lat="49.97738" lon="2.43085">
        <ele>69.986</ele>
        <time>2020-08-23T08:47:25Z</time>
      </trkpt>
      <trkpt lat="49.97732" lon="2.43083">
        <ele>69.817</ele>
        <time>2020-08-23T08:47:29Z</time>
      </trkpt>
      <trkpt lat="49.97728" lon="2.43081">
        <ele>69.787</ele>
        <time>2020-08-23T08:47:33Z</time>
      </trkpt>
      <trkpt lat="49.97724" lon="2.43078">
        <ele>70.315</ele>
        <time>2020-08-23T08:47:36Z</time>
      </trkpt>
      <trkpt lat="49.97719" lon="2.43075">
        <ele>70.408</ele>
        <time>2020-08-23T08:47:40Z</time>
      </trkpt>
      <trkpt lat="49.97714" lon="2.43072">
        <ele>70.856</ele>
        <time>2020-08-23T08:47:44Z</time>
      </trkpt>
      <trkpt lat="49.97709" lon="2.4307">
        <ele>71.216</ele>
        <time>2020-08-23T08:47:48Z</time>
      </trkpt>
      <trkpt lat="49.97704" lon="2.43068">
        <ele>71.344</ele>
        <time>2020-08-23T08:47:52Z</time>
      </trkpt>
      <trkpt lat="49.977" lon="2.43065">
        <ele>71.952</ele>
        <time>2020-08-23T08:47:55Z</time>
      </trkpt>
      <trkpt lat="49.97695" lon="2.43061">
        <ele>72.122</ele>
        <time>2020-08-23T08:47:59Z</time>
      </trkpt>
      <trkpt lat="49.97691" lon="2.43056">
        <ele>72.187</ele>
        <time>2020-08-23T08:48:03Z</time>
      </trkpt>
      <trkpt lat="49.97686" lon="2.43053">
        <ele>72.528</ele>
        <time>2020-08-23T08:48:07Z</time>
      </trkpt>
      <trkpt lat="49.97681" lon="2.43052">
        <ele>72.863</ele>
        <time>2020-08-23T08:48:10Z</time>
      </trkpt>
      <trkpt lat="49.97677" lon="2.43047">
        <ele>72.897</ele>
        <time>2020-08-23T08:48:13Z</time>
      </trkpt>
      <trkpt lat="49.97673" lon="2.43044">
        <ele>72.623</ele>
        <time>2020-08-23T08:48:17Z</time>
      </trkpt>
      <trkpt lat="49.97668" lon="2.4304">
        <ele>72.125</ele>
        <time>2020-08-23T08:48:20Z</time>
      </trkpt>
      <trkpt lat="49.97664" lon="2.43037">
        <ele>72.708</ele>
        <time>2020-08-23T08:48:25Z</time>
      </trkpt>
      <trkpt lat="49.9766" lon="2.43033">
        <ele>73.354</ele>
        <time>2020-08-23T08:48:29Z</time>
      </trkpt>
      <trkpt lat="49.97655" lon="2.43029">
        <ele>73.324</ele>
        <time>2020-08-23T08:48:33Z</time>
      </trkpt>
      <trkpt lat="49.9765" lon="2.43026">
        <ele>73.032</ele>
        <time>2020-08-23T08:48:37Z</time>
      </trkpt>
      <trkpt lat="49.97646" lon="2.43022">
        <ele>72.82</ele>
        <time>2020-08-23T08:48:40Z</time>
      </trkpt>
      <trkpt lat="49.97642" lon="2.43016">
        <ele>73.56</ele>
        <time>2020-08-23T08:48:44Z</time>
      </trkpt>
      <trkpt lat="49.97637" lon="2.43013">
        <ele>73.375</ele>
        <time>2020-08-23T08:48:49Z</time>
      </trkpt>
      <trkpt lat="49.97632" lon="2.43012">
        <ele>73.256</ele>
        <time>2020-08-23T08:48:53Z</time>
      </trkpt>
      <trkpt lat="49.97627" lon="2.4301">
        <ele>72.561</ele>
        <time>2020-08-23T08:48:59Z</time>
      </trkpt>
      <trkpt lat="49.97621" lon="2.43007">
        <ele>71.874</ele>
        <time>2020-08-23T08:49:04Z</time>
      </trkpt>
      <trkpt lat="49.97617" lon="2.43004">
        <ele>71.456</ele>
        <time>2020-08-23T08:49:08Z</time>
      </trkpt>
      <trkpt lat="49.97612" lon="2.43001">
        <ele>71.221</ele>
        <time>2020-08-23T08:49:12Z</time>
      </trkpt>
      <trkpt lat="49.97606" lon="2.42999">
        <ele>70.808</ele>
        <time>2020-08-23T08:49:16Z</time>
      </trkpt>
      <trkpt lat="49.97602" lon="2.42995">
        <ele>70.642</ele>
        <time>2020-08-23T08:49:19Z</time>
      </trkpt>
      <trkpt lat="49.97597" lon="2.42992">
        <ele>70.362</ele>
        <time>2020-08-23T08:49:22Z</time>
      </trkpt>
      <trkpt lat="49.97593" lon="2.42988">
        <ele>69.81</ele>
        <time>2020-08-23T08:49:26Z</time>
      </trkpt>
      <trkpt lat="49.97588" lon="2.42985">
        <ele>69.248</ele>
        <time>2020-08-23T08:49:30Z</time>
      </trkpt>
      <trkpt lat="49.97584" lon="2.42978">
        <ele>68.828</ele>
        <time>2020-08-23T08:49:34Z</time>
      </trkpt>
      <trkpt lat="49.97579" lon="2.42976">
        <ele>68.263</ele>
        <time>2020-08-23T08:49:38Z</time>
      </trkpt>
      <trkpt lat="49.97574" lon="2.42972">
        <ele>67.884</ele>
        <time>2020-08-23T08:49:42Z</time>
      </trkpt>
      <trkpt lat="49.97569" lon="2.42971">
        <ele>67.439</ele>
        <time>2020-08-23T08:49:45Z</time>
      </trkpt>
      <trkpt lat="49.97564" lon="2.42971">
        <ele>66.652</ele>
        <time>2020-08-23T08:49:49Z</time>
      </trkpt>
      <trkpt lat="49.9756" lon="2.42969">
        <ele>66.253</ele>
        <time>2020-08-23T08:49:53Z</time>
      </trkpt>
      <trkpt lat="49.97554" lon="2.42968">
        <ele>65.408</ele>
        <time>2020-08-23T08:49:57Z</time>
      </trkpt>
      <trkpt lat="49.97548" lon="2.42968">
        <ele>64.308</ele>
        <time>2020-08-23T08:50:02Z</time>
      </trkpt>
      <trkpt lat="49.97544" lon="2.42967">
        <ele>63.42</ele>
        <time>2020-08-23T08:50:05Z</time>
      </trkpt>
      <trkpt lat="49.97539" lon="2.42966">
        <ele>62.93</ele>
        <time>2020-08-23T08:50:08Z</time>
      </trkpt>
      <trkpt lat="49.97532" lon="2.42967">
        <ele>62.288</ele>
        <time>2020-08-23T08:50:12Z</time>
      </trkpt>
      <trkpt lat="49.97528" lon="2.42969">
        <ele>61.936</ele>
        <time>2020-08-23T08:50:15Z</time>
      </trkpt>
      <trkpt lat="49.97523" lon="2.4297">
        <ele>61.786</ele>
        <time>2020-08-23T08:50:19Z</time>
      </trkpt>
      <trkpt lat="49.97518" lon="2.42971">
        <ele>61.571</ele>
        <time>2020-08-23T08:50:22Z</time>
      </trkpt>
      <trkpt lat="49.97513" lon="2.42971">
        <ele>61.422</ele>
        <time>2020-08-23T08:50:25Z</time>
      </trkpt>
      <trkpt lat="49.97508" lon="2.42974">
        <ele>61.037</ele>
        <time>2020-08-23T08:50:29Z</time>
      </trkpt>
      <trkpt lat="49.97503" lon="2.42978">
        <ele>60.832</ele>
        <time>2020-08-23T08:50:34Z</time>
      </trkpt>
      <trkpt lat="49.97499" lon="2.42982">
        <ele>60.492</ele>
        <time>2020-08-23T08:50:38Z</time>
      </trkpt>
      <trkpt lat="49.97495" lon="2.42987">
        <ele>59.911</ele>
        <time>2020-08-23T08:50:42Z</time>
      </trkpt>
      <trkpt lat="49.97491" lon="2.42992">
        <ele>59.608</ele>
        <time>2020-08-23T08:50:45Z</time>
      </trkpt>
      <trkpt lat="49.97487" lon="2.42997">
        <ele>59.578</ele>
        <time>2020-08-23T08:50:49Z</time>
      </trkpt>
      <trkpt lat="49.97483" lon="2.43">
        <ele>59.038</ele>
        <time>2020-08-23T08:50:53Z</time>
      </trkpt>
      <trkpt lat="49.97478" lon="2.43002">
        <ele>58.816</ele>
        <time>2020-08-23T08:50:57Z</time>
      </trkpt>
      <trkpt lat="49.97474" lon="2.43005">
        <ele>58.744</ele>
        <time>2020-08-23T08:51:00Z</time>
      </trkpt>
      <trkpt lat="49.9747" lon="2.43008">
        <ele>58.384</ele>
        <time>2020-08-23T08:51:03Z</time>
      </trkpt>
      <trkpt lat="49.97465" lon="2.43013">
        <ele>58.189</ele>
        <time>2020-08-23T08:51:07Z</time>
      </trkpt>
      <trkpt lat="49.97461" lon="2.43018">
        <ele>57.78</ele>
        <time>2020-08-23T08:51:11Z</time>
      </trkpt>
      <trkpt lat="49.97458" lon="2.43024">
        <ele>57.435</ele>
        <time>2020-08-23T08:51:15Z</time>
      </trkpt>
      <trkpt lat="49.97455" lon="2.4303">
        <ele>57.384</ele>
        <time>2020-08-23T08:51:19Z</time>
      </trkpt>
      <trkpt lat="49.97452" lon="2.43035">
        <ele>57.307</ele>
        <time>2020-08-23T08:51:22Z</time>
      </trkpt>
      <trkpt lat="49.97447" lon="2.43039">
        <ele>57.117</ele>
        <time>2020-08-23T08:51:26Z</time>
      </trkpt>
      <trkpt lat="49.97442" lon="2.43043">
        <ele>57.008</ele>
        <time>2020-08-23T08:51:29Z</time>
      </trkpt>
      <trkpt lat="49.97437" lon="2.43047">
        <ele>56.353</ele>
        <time>2020-08-23T08:51:34Z</time>
      </trkpt>
      <trkpt lat="49.97432" lon="2.43051">
        <ele>56.333</ele>
        <time>2020-08-23T08:51:38Z</time>
      </trkpt>
      <trkpt lat="49.97428" lon="2.43055">
        <ele>56.141</ele>
        <time>2020-08-23T08:51:42Z</time>
      </trkpt>
      <trkpt lat="49.97422" lon="2.43058">
        <ele>55.989</ele>
        <time>2020-08-23T08:51:46Z</time>
      </trkpt>
      <trkpt lat="49.97417" lon="2.43062">
        <ele>55.899</ele>
        <time>2020-08-23T08:51:50Z</time>
      </trkpt>
      <trkpt lat="49.97412" lon="2.43064">
        <ele>55.564</ele>
        <time>2020-08-23T08:51:54Z</time>
      </trkpt>
      <trkpt lat="49.97407" lon="2.43068">
        <ele>55.275</ele>
        <time>2020-08-23T08:51:58Z</time>
      </trkpt>
      <trkpt lat="49.97402" lon="2.4307">
        <ele>54.61</ele>
        <time>2020-08-23T08:52:02Z</time>
      </trkpt>
      <trkpt lat="49.97397" lon="2.43073">
        <ele>53.957</ele>
        <time>2020-08-23T08:52:06Z</time>
      </trkpt>
      <trkpt lat="49.97392" lon="2.43076">
        <ele>52.8</ele>
        <time>2020-08-23T08:52:10Z</time>
      </trkpt>
      <trkpt lat="49.97387" lon="2.43077">
        <ele>52.32</ele>
        <time>2020-08-23T08:52:14Z</time>
      </trkpt>
      <trkpt lat="49.97383" lon="2.43081">
        <ele>51.908</ele>
        <time>2020-08-23T08:52:18Z</time>
      </trkpt>
      <trkpt lat="49.97378" lon="2.43084">
        <ele>51.54</ele>
        <time>2020-08-23T08:52:23Z</time>
      </trkpt>
      <trkpt lat="49.97373" lon="2.43089">
        <ele>51.74</ele>
        <time>2020-08-23T08:52:27Z</time>
      </trkpt>
      <trkpt lat="49.97368" lon="2.43091">
        <ele>51.648</ele>
        <time>2020-08-23T08:52:30Z</time>
      </trkpt>
      <trkpt lat="49.97362" lon="2.43093">
        <ele>51.536</ele>
        <time>2020-08-23T08:52:34Z</time>
      </trkpt>
      <trkpt lat="49.97357" lon="2.43093">
        <ele>51.416</ele>
        <time>2020-08-23T08:52:38Z</time>
      </trkpt>
      <trkpt lat="49.97352" lon="2.43094">
        <ele>51.061</ele>
        <time>2020-08-23T08:52:43Z</time>
      </trkpt>
      <trkpt lat="49.97347" lon="2.43093">
        <ele>50.962</ele>
        <time>2020-08-23T08:52:46Z</time>
      </trkpt>
      <trkpt lat="49.97341" lon="2.43093">
        <ele>50.837</ele>
        <time>2020-08-23T08:52:50Z</time>
      </trkpt>
      <trkpt lat="49.97336" lon="2.43093">
        <ele>50.696</ele>
        <time>2020-08-23T08:52:53Z</time>
      </trkpt>
      <trkpt lat="49.97331" lon="2.43092">
        <ele>50.631</ele>
        <time>2020-08-23T08:52:57Z</time>
      </trkpt>
      <trkpt lat="49.97326" lon="2.43094">
        <ele>50.524</ele>
        <time>2020-08-23T08:53:00Z</time>
      </trkpt>
      <trkpt lat="49.97322" lon="2.43095">
        <ele>50.308</ele>
        <time>2020-08-23T08:53:03Z</time>
      </trkpt>
      <trkpt lat="49.97317" lon="2.43096">
        <ele>50.154</ele>
        <time>2020-08-23T08:53:06Z</time>
      </trkpt>
      <trkpt lat="49.97313" lon="2.43099">
        <ele>49.994</ele>
        <time>2020-08-23T08:53:09Z</time>
      </trkpt>
      <trkpt lat="49.97308" lon="2.43101">
        <ele>49.852</ele>
        <time>2020-08-23T08:53:12Z</time>
      </trkpt>
      <trkpt lat="49.97303" lon="2.43101">
        <ele>49.65</ele>
        <time>2020-08-23T08:53:16Z</time>
      </trkpt>
      <trkpt lat="49.97298" lon="2.43102">
        <ele>49.63</ele>
        <time>2020-08-23T08:53:20Z</time>
      </trkpt>
      <trkpt lat="49.97292" lon="2.43107">
        <ele>49.335</ele>
        <time>2020-08-23T08:53:24Z</time>
      </trkpt>
      <trkpt lat="49.97287" lon="2.4311">
        <ele>49.066</ele>
        <time>2020-08-23T08:53:28Z</time>
      </trkpt>
      <trkpt lat="49.97283" lon="2.43112">
        <ele>49.051</ele>
        <time>2020-08-23T08:53:33Z</time>
      </trkpt>
      <trkpt lat="49.97277" lon="2.43117">
        <ele>49.121</ele>
        <time>2020-08-23T08:53:38Z</time>
      </trkpt>
      <trkpt lat="49.97275" lon="2.43124">
        <ele>49.241</ele>
        <time>2020-08-23T08:53:45Z</time>
      </trkpt>
      <trkpt lat="49.97271" lon="2.43128">
        <ele>49.105</ele>
        <time>2020-08-23T08:54:22Z</time>
      </trkpt>
      <trkpt lat="49.97267" lon="2.43134">
        <ele>49.608</ele>
        <time>2020-08-23T08:56:37Z</time>
      </trkpt>
      <trkpt lat="49.97262" lon="2.43138">
        <ele>49.247</ele>
        <time>2020-08-23T08:56:40Z</time>
      </trkpt>
      <trkpt lat="49.97258" lon="2.43144">
        <ele>49.077</ele>
        <time>2020-08-23T08:56:44Z</time>
      </trkpt>
      <trkpt lat="49.97254" lon="2.43148">
        <ele>48.875</ele>
        <time>2020-08-23T08:56:49Z</time>
      </trkpt>
      <trkpt lat="49.97251" lon="2.43154">
        <ele>48.783</ele>
        <time>2020-08-23T08:56:53Z</time>
      </trkpt>
      <trkpt lat="49.97248" lon="2.4316">
        <ele>48.523</ele>
        <time>2020-08-23T08:56:57Z</time>
      </trkpt>
      <trkpt lat="49.97245" lon="2.43167">
        <ele>48.538</ele>
        <time>2020-08-23T08:57:01Z</time>
      </trkpt>
      <trkpt lat="49.97242" lon="2.43172">
        <ele>48.489</ele>
        <time>2020-08-23T08:57:04Z</time>
      </trkpt>
      <trkpt lat="49.97238" lon="2.43177">
        <ele>48.234</ele>
        <time>2020-08-23T08:57:07Z</time>
      </trkpt>
      <trkpt lat="49.97235" lon="2.43184">
        <ele>48.252</ele>
        <time>2020-08-23T08:57:10Z</time>
      </trkpt>
      <trkpt lat="49.97232" lon="2.4319">
        <ele>48.253</ele>
        <time>2020-08-23T08:57:15Z</time>
      </trkpt>
      <trkpt lat="49.97227" lon="2.43193">
        <ele>47.908</ele>
        <time>2020-08-23T08:57:19Z</time>
      </trkpt>
      <trkpt lat="49.97223" lon="2.43195">
        <ele>47.708</ele>
        <time>2020-08-23T08:57:23Z</time>
      </trkpt>
      <trkpt lat="49.97219" lon="2.43199">
        <ele>47.42</ele>
        <time>2020-08-23T08:57:28Z</time>
      </trkpt>
      <trkpt lat="49.97215" lon="2.43203">
        <ele>47.47</ele>
        <time>2020-08-23T08:57:32Z</time>
      </trkpt>
      <trkpt lat="49.97209" lon="2.43204">
        <ele>47.248</ele>
        <time>2020-08-23T08:57:36Z</time>
      </trkpt>
      <trkpt lat="49.97204" lon="2.43206">
        <ele>47.356</ele>
        <time>2020-08-23T08:57:40Z</time>
      </trkpt>
      <trkpt lat="49.97199" lon="2.43207">
        <ele>47.266</ele>
        <time>2020-08-23T08:57:44Z</time>
      </trkpt>
      <trkpt lat="49.97194" lon="2.43209">
        <ele>47.481</ele>
        <time>2020-08-23T08:57:48Z</time>
      </trkpt>
      <trkpt lat="49.97189" lon="2.4321">
        <ele>47.412</ele>
        <time>2020-08-23T08:57:52Z</time>
      </trkpt>
      <trkpt lat="49.97183" lon="2.43209">
        <ele>47.277</ele>
        <time>2020-08-23T08:57:57Z</time>
      </trkpt>
      <trkpt lat="49.97177" lon="2.4321">
        <ele>47.093</ele>
        <time>2020-08-23T08:58:01Z</time>
      </trkpt>
      <trkpt lat="49.97172" lon="2.43209">
        <ele>47.165</ele>
        <time>2020-08-23T08:58:04Z</time>
      </trkpt>
      <trkpt lat="49.97167" lon="2.4321">
        <ele>47.221</ele>
        <time>2020-08-23T08:58:08Z</time>
      </trkpt>
      <trkpt lat="49.97162" lon="2.43211">
        <ele>47.208</ele>
        <time>2020-08-23T08:58:12Z</time>
      </trkpt>
      <trkpt lat="49.97156" lon="2.43211">
        <ele>47.244</ele>
        <time>2020-08-23T08:58:16Z</time>
      </trkpt>
      <trkpt lat="49.97151" lon="2.4321">
        <ele>47.264</ele>
        <time>2020-08-23T08:58:20Z</time>
      </trkpt>
      <trkpt lat="49.97144" lon="2.43208">
        <ele>47.272</ele>
        <time>2020-08-23T08:58:24Z</time>
      </trkpt>
      <trkpt lat="49.97139" lon="2.43208">
        <ele>47.06</ele>
        <time>2020-08-23T08:58:27Z</time>
      </trkpt>
      <trkpt lat="49.97134" lon="2.43208">
        <ele>47.07</ele>
        <time>2020-08-23T08:58:31Z</time>
      </trkpt>
      <trkpt lat="49.97129" lon="2.43209">
        <ele>46.935</ele>
        <time>2020-08-23T08:58:35Z</time>
      </trkpt>
      <trkpt lat="49.97124" lon="2.43209">
        <ele>47.046</ele>
        <time>2020-08-23T08:58:39Z</time>
      </trkpt>
      <trkpt lat="49.97118" lon="2.43209">
        <ele>47.161</ele>
        <time>2020-08-23T08:58:43Z</time>
      </trkpt>
      <trkpt lat="49.97113" lon="2.43209">
        <ele>47.061</ele>
        <time>2020-08-23T08:58:47Z</time>
      </trkpt>
      <trkpt lat="49.97107" lon="2.4321">
        <ele>46.821</ele>
        <time>2020-08-23T08:58:51Z</time>
      </trkpt>
      <trkpt lat="49.97103" lon="2.43209">
        <ele>46.813</ele>
        <time>2020-08-23T08:58:54Z</time>
      </trkpt>
      <trkpt lat="49.97098" lon="2.43209">
        <ele>46.708</ele>
        <time>2020-08-23T08:58:57Z</time>
      </trkpt>
      <trkpt lat="49.97093" lon="2.4321">
        <ele>46.431</ele>
        <time>2020-08-23T08:59:01Z</time>
      </trkpt>
      <trkpt lat="49.97087" lon="2.43211">
        <ele>46.111</ele>
        <time>2020-08-23T08:59:06Z</time>
      </trkpt>
      <trkpt lat="49.97082" lon="2.43211">
        <ele>45.859</ele>
        <time>2020-08-23T08:59:09Z</time>
      </trkpt>
      <trkpt lat="49.97077" lon="2.43209">
        <ele>45.537</ele>
        <time>2020-08-23T08:59:13Z</time>
      </trkpt>
      <trkpt lat="49.97072" lon="2.4321">
        <ele>45.117</ele>
        <time>2020-08-23T08:59:17Z</time>
      </trkpt>
      <trkpt lat="49.97067" lon="2.4321">
        <ele>45.272</ele>
        <time>2020-08-23T08:59:21Z</time>
      </trkpt>
      <trkpt lat="49.97061" lon="2.43209">
        <ele>45.983</ele>
        <time>2020-08-23T08:59:25Z</time>
      </trkpt>
      <trkpt lat="49.97056" lon="2.43208">
        <ele>45.958</ele>
        <time>2020-08-23T08:59:28Z</time>
      </trkpt>
      <trkpt lat="49.97051" lon="2.43207">
        <ele>45.875</ele>
        <time>2020-08-23T08:59:31Z</time>
      </trkpt>
      <trkpt lat="49.97045" lon="2.43206">
        <ele>45.428</ele>
        <time>2020-08-23T08:59:35Z</time>
      </trkpt>
      <trkpt lat="49.9704" lon="2.43206">
        <ele>45.72</ele>
        <time>2020-08-23T08:59:40Z</time>
      </trkpt>
      <trkpt lat="49.97034" lon="2.43205">
        <ele>45.808</ele>
        <time>2020-08-23T08:59:44Z</time>
      </trkpt>
      <trkpt lat="49.97029" lon="2.43202">
        <ele>45.622</ele>
        <time>2020-08-23T08:59:47Z</time>
      </trkpt>
      <trkpt lat="49.97024" lon="2.432">
        <ele>45.382</ele>
        <time>2020-08-23T08:59:50Z</time>
      </trkpt>
      <trkpt lat="49.97019" lon="2.432">
        <ele>45.01</ele>
        <time>2020-08-23T08:59:54Z</time>
      </trkpt>
      <trkpt lat="49.97014" lon="2.43196">
        <ele>45.028</ele>
        <time>2020-08-23T08:59:58Z</time>
      </trkpt>
      <trkpt lat="49.97009" lon="2.43195">
        <ele>44.748</ele>
        <time>2020-08-23T09:00:01Z</time>
      </trkpt>
      <trkpt lat="49.97004" lon="2.43196">
        <ele>45.223</ele>
        <time>2020-08-23T09:00:07Z</time>
      </trkpt>
      <trkpt lat="49.96999" lon="2.43198">
        <ele>45.584</ele>
        <time>2020-08-23T09:00:11Z</time>
      </trkpt>
      <trkpt lat="49.96994" lon="2.43197">
        <ele>45.639</ele>
        <time>2020-08-23T09:00:16Z</time>
      </trkpt>
      <trkpt lat="49.96988" lon="2.43196">
        <ele>45.455</ele>
        <time>2020-08-23T09:00:21Z</time>
      </trkpt>
      <trkpt lat="49.96984" lon="2.43199">
        <ele>45.307</ele>
        <time>2020-08-23T09:00:25Z</time>
      </trkpt>
      <trkpt lat="49.96979" lon="2.43201">
        <ele>45.717</ele>
        <time>2020-08-23T09:00:29Z</time>
      </trkpt>
      <trkpt lat="49.96973" lon="2.43204">
        <ele>45.608</ele>
        <time>2020-08-23T09:00:33Z</time>
      </trkpt>
      <trkpt lat="49.96968" lon="2.43206">
        <ele>45.53</ele>
        <time>2020-08-23T09:00:37Z</time>
      </trkpt>
      <trkpt lat="49.96963" lon="2.4321">
        <ele>45.58</ele>
        <time>2020-08-23T09:00:41Z</time>
      </trkpt>
      <trkpt lat="49.96959" lon="2.4321">
        <ele>45.528</ele>
        <time>2020-08-23T09:00:45Z</time>
      </trkpt>
      <trkpt lat="49.96954" lon="2.43212">
        <ele>45.926</ele>
        <time>2020-08-23T09:00:49Z</time>
      </trkpt>
      <trkpt lat="49.96949" lon="2.43213">
        <ele>45.936</ele>
        <time>2020-08-23T09:00:52Z</time>
      </trkpt>
      <trkpt lat="49.96945" lon="2.43211">
        <ele>45.841</ele>
        <time>2020-08-23T09:00:55Z</time>
      </trkpt>
      <trkpt lat="49.9694" lon="2.4321">
        <ele>45.882</ele>
        <time>2020-08-23T09:00:58Z</time>
      </trkpt>
      <trkpt lat="49.96935" lon="2.4321">
        <ele>45.967</ele>
        <time>2020-08-23T09:01:02Z</time>
      </trkpt>
      <trkpt lat="49.96929" lon="2.4321">
        <ele>46.035</ele>
        <time>2020-08-23T09:01:06Z</time>
      </trkpt>
      <trkpt lat="49.96924" lon="2.4321">
        <ele>46.086</ele>
        <time>2020-08-23T09:01:09Z</time>
      </trkpt>
      <trkpt lat="49.96919" lon="2.43213">
        <ele>45.914</ele>
        <time>2020-08-23T09:01:13Z</time>
      </trkpt>
      <trkpt lat="49.96914" lon="2.43215">
        <ele>45.408</ele>
        <time>2020-08-23T09:01:17Z</time>
      </trkpt>
      <trkpt lat="49.96909" lon="2.43216">
        <ele>45.278</ele>
        <time>2020-08-23T09:01:20Z</time>
      </trkpt>
      <trkpt lat="49.96904" lon="2.43214">
        <ele>45.038</ele>
        <time>2020-08-23T09:01:24Z</time>
      </trkpt>
      <trkpt lat="49.96899" lon="2.43217">
        <ele>44.956</ele>
        <time>2020-08-23T09:01:27Z</time>
      </trkpt>
      <trkpt lat="49.96894" lon="2.43218">
        <ele>44.974</ele>
        <time>2020-08-23T09:01:30Z</time>
      </trkpt>
      <trkpt lat="49.9689" lon="2.43221">
        <ele>45.144</ele>
        <time>2020-08-23T09:01:34Z</time>
      </trkpt>
      <trkpt lat="49.96885" lon="2.43222">
        <ele>45.339</ele>
        <time>2020-08-23T09:01:38Z</time>
      </trkpt>
      <trkpt lat="49.96879" lon="2.43222">
        <ele>45.32</ele>
        <time>2020-08-23T09:01:42Z</time>
      </trkpt>
      <trkpt lat="49.96874" lon="2.43223">
        <ele>45.415</ele>
        <time>2020-08-23T09:01:46Z</time>
      </trkpt>
      <trkpt lat="49.96869" lon="2.43224">
        <ele>45.475</ele>
        <time>2020-08-23T09:01:49Z</time>
      </trkpt>
      <trkpt lat="49.96864" lon="2.43225">
        <ele>45.528</ele>
        <time>2020-08-23T09:01:53Z</time>
      </trkpt>
      <trkpt lat="49.96859" lon="2.43224">
        <ele>45.72</ele>
        <time>2020-08-23T09:01:56Z</time>
      </trkpt>
      <trkpt lat="49.96854" lon="2.43224">
        <ele>45.808</ele>
        <time>2020-08-23T09:01:59Z</time>
      </trkpt>
      <trkpt lat="49.96849" lon="2.43225">
        <ele>45.812</ele>
        <time>2020-08-23T09:02:03Z</time>
      </trkpt>
      <trkpt lat="49.96843" lon="2.43225">
        <ele>45.842</ele>
        <time>2020-08-23T09:02:07Z</time>
      </trkpt>
      <trkpt lat="49.96838" lon="2.43225">
        <ele>45.83</ele>
        <time>2020-08-23T09:02:10Z</time>
      </trkpt>
      <trkpt lat="49.96833" lon="2.43227">
        <ele>45.958</ele>
        <time>2020-08-23T09:02:14Z</time>
      </trkpt>
      <trkpt lat="49.96827" lon="2.43228">
        <ele>46.068</ele>
        <time>2020-08-23T09:02:18Z</time>
      </trkpt>
      <trkpt lat="49.96822" lon="2.43227">
        <ele>46.263</ele>
        <time>2020-08-23T09:02:21Z</time>
      </trkpt>
      <trkpt lat="49.96818" lon="2.43224">
        <ele>46.324</ele>
        <time>2020-08-23T09:02:24Z</time>
      </trkpt>
      <trkpt lat="49.96812" lon="2.43224">
        <ele>46.459</ele>
        <time>2020-08-23T09:02:28Z</time>
      </trkpt>
      <trkpt lat="49.96807" lon="2.43226">
        <ele>46.475</ele>
        <time>2020-08-23T09:02:32Z</time>
      </trkpt>
      <trkpt lat="49.96801" lon="2.43226">
        <ele>46.428</ele>
        <time>2020-08-23T09:02:36Z</time>
      </trkpt>
      <trkpt lat="49.96796" lon="2.43228">
        <ele>46.52</ele>
        <time>2020-08-23T09:02:40Z</time>
      </trkpt>
      <trkpt lat="49.9679" lon="2.43228">
        <ele>46.608</ele>
        <time>2020-08-23T09:02:43Z</time>
      </trkpt>
      <trkpt lat="49.96786" lon="2.43231">
        <ele>46.722</ele>
        <time>2020-08-23T09:02:46Z</time>
      </trkpt>
      <trkpt lat="49.9678" lon="2.43233">
        <ele>46.862</ele>
        <time>2020-08-23T09:02:50Z</time>
      </trkpt>
      <trkpt lat="49.96776" lon="2.43236">
        <ele>47.08</ele>
        <time>2020-08-23T09:02:54Z</time>
      </trkpt>
      <trkpt lat="49.9677" lon="2.43237">
        <ele>47.238</ele>
        <time>2020-08-23T09:02:59Z</time>
      </trkpt>
      <trkpt lat="49.96765" lon="2.43238">
        <ele>47.328</ele>
        <time>2020-08-23T09:03:03Z</time>
      </trkpt>
      <trkpt lat="49.96761" lon="2.4324">
        <ele>47.563</ele>
        <time>2020-08-23T09:03:08Z</time>
      </trkpt>
      <trkpt lat="49.96756" lon="2.43241">
        <ele>47.724</ele>
        <time>2020-08-23T09:03:12Z</time>
      </trkpt>
      <trkpt lat="49.96753" lon="2.43235">
        <ele>47.459</ele>
        <time>2020-08-23T09:03:55Z</time>
      </trkpt>
      <trkpt lat="49.96753" lon="2.43227">
        <ele>47.474</ele>
        <time>2020-08-23T09:03:58Z</time>
      </trkpt>
      <trkpt lat="49.96752" lon="2.4322">
        <ele>47.456</ele>
        <time>2020-08-23T09:04:02Z</time>
      </trkpt>
      <trkpt lat="49.9675" lon="2.43213">
        <ele>47.321</ele>
        <time>2020-08-23T09:04:06Z</time>
      </trkpt>
      <trkpt lat="49.96748" lon="2.43206">
        <ele>47.308</ele>
        <time>2020-08-23T09:04:10Z</time>
      </trkpt>
      <trkpt lat="49.96745" lon="2.43199">
        <ele>47.362</ele>
        <time>2020-08-23T09:04:14Z</time>
      </trkpt>
      <trkpt lat="49.96743" lon="2.43192">
        <ele>47.682</ele>
        <time>2020-08-23T09:04:18Z</time>
      </trkpt>
      <trkpt lat="49.96742" lon="2.43184">
        <ele>47.71</ele>
        <time>2020-08-23T09:04:22Z</time>
      </trkpt>
      <trkpt lat="49.96738" lon="2.43177">
        <ele>47.868</ele>
        <time>2020-08-23T09:04:26Z</time>
      </trkpt>
      <trkpt lat="49.96737" lon="2.43169">
        <ele>47.938</ele>
        <time>2020-08-23T09:04:30Z</time>
      </trkpt>
      <trkpt lat="49.96736" lon="2.43161">
        <ele>48.053</ele>
        <time>2020-08-23T09:04:34Z</time>
      </trkpt>
      <trkpt lat="49.96733" lon="2.43153">
        <ele>48.124</ele>
        <time>2020-08-23T09:04:38Z</time>
      </trkpt>
      <trkpt lat="49.96732" lon="2.43144">
        <ele>48.169</ele>
        <time>2020-08-23T09:04:42Z</time>
      </trkpt>
      <trkpt lat="49.96729" lon="2.43137">
        <ele>48.055</ele>
        <time>2020-08-23T09:04:46Z</time>
      </trkpt>
      <trkpt lat="49.96727" lon="2.4313">
        <ele>48.007</ele>
        <time>2020-08-23T09:04:49Z</time>
      </trkpt>
      <trkpt lat="49.96726" lon="2.43122">
        <ele>48.017</ele>
        <time>2020-08-23T09:04:52Z</time>
      </trkpt>
      <trkpt lat="49.96724" lon="2.43115">
        <ele>48.008</ele>
        <time>2020-08-23T09:04:55Z</time>
      </trkpt>
      <trkpt lat="49.96722" lon="2.43108">
        <ele>48.26</ele>
        <time>2020-08-23T09:04:59Z</time>
      </trkpt>
      <trkpt lat="49.9672" lon="2.43101">
        <ele>48.25</ele>
        <time>2020-08-23T09:05:03Z</time>
      </trkpt>
      <trkpt lat="49.9672" lon="2.43093">
        <ele>48.368</ele>
        <time>2020-08-23T09:05:07Z</time>
      </trkpt>
      <trkpt lat="49.96718" lon="2.43085">
        <ele>48.336</ele>
        <time>2020-08-23T09:05:11Z</time>
      </trkpt>
      <trkpt lat="49.96716" lon="2.43078">
        <ele>48.376</ele>
        <time>2020-08-23T09:05:14Z</time>
      </trkpt>
      <trkpt lat="49.96715" lon="2.43071">
        <ele>48.331</ele>
        <time>2020-08-23T09:05:17Z</time>
      </trkpt>
      <trkpt lat="49.96713" lon="2.43064">
        <ele>48.472</ele>
        <time>2020-08-23T09:05:20Z</time>
      </trkpt>
      <trkpt lat="49.96713" lon="2.43056">
        <ele>48.567</ele>
        <time>2020-08-23T09:05:23Z</time>
      </trkpt>
      <trkpt lat="49.9671" lon="2.43049">
        <ele>48.631</ele>
        <time>2020-08-23T09:05:26Z</time>
      </trkpt>
      <trkpt lat="49.96708" lon="2.43042">
        <ele>48.861</ele>
        <time>2020-08-23T09:05:30Z</time>
      </trkpt>
      <trkpt lat="49.96706" lon="2.43032">
        <ele>49.007</ele>
        <time>2020-08-23T09:05:35Z</time>
      </trkpt>
      <trkpt lat="49.96704" lon="2.43024">
        <ele>49.108</ele>
        <time>2020-08-23T09:05:39Z</time>
      </trkpt>
      <trkpt lat="49.96702" lon="2.43017">
        <ele>49.248</ele>
        <time>2020-08-23T09:05:43Z</time>
      </trkpt>
      <trkpt lat="49.967" lon="2.4301">
        <ele>49.528</ele>
        <time>2020-08-23T09:05:47Z</time>
      </trkpt>
      <trkpt lat="49.96699" lon="2.43002">
        <ele>49.736</ele>
        <time>2020-08-23T09:05:51Z</time>
      </trkpt>
      <trkpt lat="49.96698" lon="2.42995">
        <ele>49.824</ele>
        <time>2020-08-23T09:05:54Z</time>
      </trkpt>
      <trkpt lat="49.96695" lon="2.42989">
        <ele>49.764</ele>
        <time>2020-08-23T09:05:57Z</time>
      </trkpt>
      <trkpt lat="49.96693" lon="2.4298">
        <ele>49.839</ele>
        <time>2020-08-23T09:06:01Z</time>
      </trkpt>
      <trkpt lat="49.96691" lon="2.42973">
        <ele>49.95</ele>
        <time>2020-08-23T09:06:05Z</time>
      </trkpt>
      <trkpt lat="49.96689" lon="2.42965">
        <ele>50.145</ele>
        <time>2020-08-23T09:06:09Z</time>
      </trkpt>
      <trkpt lat="49.96688" lon="2.42957">
        <ele>50.057</ele>
        <time>2020-08-23T09:06:13Z</time>
      </trkpt>
      <trkpt lat="49.96687" lon="2.42951">
        <ele>50.1</ele>
        <time>2020-08-23T09:06:16Z</time>
      </trkpt>
      <trkpt lat="49.96686" lon="2.42943">
        <ele>50.32</ele>
        <time>2020-08-23T09:06:19Z</time>
      </trkpt>
      <trkpt lat="49.96684" lon="2.42936">
        <ele>50.408</ele>
        <time>2020-08-23T09:06:23Z</time>
      </trkpt>
      <trkpt lat="49.96682" lon="2.42928">
        <ele>50.66</ele>
        <time>2020-08-23T09:06:27Z</time>
      </trkpt>
      <trkpt lat="49.96681" lon="2.42921">
        <ele>50.62</ele>
        <time>2020-08-23T09:06:31Z</time>
      </trkpt>
      <trkpt lat="49.96679" lon="2.42914">
        <ele>50.718</ele>
        <time>2020-08-23T09:06:35Z</time>
      </trkpt>
      <trkpt lat="49.96679" lon="2.42907">
        <ele>50.846</ele>
        <time>2020-08-23T09:06:38Z</time>
      </trkpt>
      <trkpt lat="49.96679" lon="2.42899">
        <ele>51.086</ele>
        <time>2020-08-23T09:06:42Z</time>
      </trkpt>
      <trkpt lat="49.96678" lon="2.42891">
        <ele>51.131</ele>
        <time>2020-08-23T09:06:46Z</time>
      </trkpt>
      <trkpt lat="49.96677" lon="2.42884">
        <ele>51.232</ele>
        <time>2020-08-23T09:06:50Z</time>
      </trkpt>
      <trkpt lat="49.96676" lon="2.42874">
        <ele>51.347</ele>
        <time>2020-08-23T09:06:54Z</time>
      </trkpt>
      <trkpt lat="49.96676" lon="2.42866">
        <ele>51.547</ele>
        <time>2020-08-23T09:06:58Z</time>
      </trkpt>
      <trkpt lat="49.96675" lon="2.42858">
        <ele>51.529</ele>
        <time>2020-08-23T09:07:02Z</time>
      </trkpt>
      <trkpt lat="49.96674" lon="2.42851">
        <ele>52.021</ele>
        <time>2020-08-23T09:07:06Z</time>
      </trkpt>
      <trkpt lat="49.96673" lon="2.42843">
        <ele>52.208</ele>
        <time>2020-08-23T09:07:10Z</time>
      </trkpt>
      <trkpt lat="49.96672" lon="2.42835">
        <ele>52.549</ele>
        <time>2020-08-23T09:07:14Z</time>
      </trkpt>
      <trkpt lat="49.96671" lon="2.42827">
        <ele>52.659</ele>
        <time>2020-08-23T09:07:18Z</time>
      </trkpt>
      <trkpt lat="49.96669" lon="2.42819">
        <ele>52.887</ele>
        <time>2020-08-23T09:07:22Z</time>
      </trkpt>
      <trkpt lat="49.96668" lon="2.42812">
        <ele>53.285</ele>
        <time>2020-08-23T09:07:25Z</time>
      </trkpt>
      <trkpt lat="49.96667" lon="2.42805">
        <ele>53.695</ele>
        <time>2020-08-23T09:07:29Z</time>
      </trkpt>
      <trkpt lat="49.96666" lon="2.42797">
        <ele>54.06</ele>
        <time>2020-08-23T09:07:34Z</time>
      </trkpt>
      <trkpt lat="49.96665" lon="2.42789">
        <ele>54.581</ele>
        <time>2020-08-23T09:07:38Z</time>
      </trkpt>
      <trkpt lat="49.96665" lon="2.42781">
        <ele>54.766</ele>
        <time>2020-08-23T09:07:42Z</time>
      </trkpt>
      <trkpt lat="49.96664" lon="2.42773">
        <ele>55.067</ele>
        <time>2020-08-23T09:07:46Z</time>
      </trkpt>
      <trkpt lat="49.96663" lon="2.42765">
        <ele>55.481</ele>
        <time>2020-08-23T09:07:50Z</time>
      </trkpt>
      <trkpt lat="49.96663" lon="2.42757">
        <ele>55.819</ele>
        <time>2020-08-23T09:07:54Z</time>
      </trkpt>
      <trkpt lat="49.96662" lon="2.4275">
        <ele>56.308</ele>
        <time>2020-08-23T09:07:59Z</time>
      </trkpt>
      <trkpt lat="49.96662" lon="2.42742">
        <ele>56.731</ele>
        <time>2020-08-23T09:08:03Z</time>
      </trkpt>
      <trkpt lat="49.96661" lon="2.42735">
        <ele>57.381</ele>
        <time>2020-08-23T09:08:07Z</time>
      </trkpt>
      <trkpt lat="49.96659" lon="2.42728">
        <ele>57.649</ele>
        <time>2020-08-23T09:08:11Z</time>
      </trkpt>
      <trkpt lat="49.96658" lon="2.4272">
        <ele>58.187</ele>
        <time>2020-08-23T09:08:17Z</time>
      </trkpt>
      <trkpt lat="49.96657" lon="2.42711">
        <ele>58.557</ele>
        <time>2020-08-23T09:08:22Z</time>
      </trkpt>
      <trkpt lat="49.96657" lon="2.42703">
        <ele>58.862</ele>
        <time>2020-08-23T09:08:27Z</time>
      </trkpt>
      <trkpt lat="49.96656" lon="2.42695">
        <ele>59.223</ele>
        <time>2020-08-23T09:08:31Z</time>
      </trkpt>
      <trkpt lat="49.96654" lon="2.42687">
        <ele>59.568</ele>
        <time>2020-08-23T09:08:36Z</time>
      </trkpt>
      <trkpt lat="49.96652" lon="2.4268">
        <ele>59.782</ele>
        <time>2020-08-23T09:08:40Z</time>
      </trkpt>
      <trkpt lat="49.96652" lon="2.42672">
        <ele>60.143</ele>
        <time>2020-08-23T09:08:44Z</time>
      </trkpt>
      <trkpt lat="49.96651" lon="2.42664">
        <ele>60.517</ele>
        <time>2020-08-23T09:08:48Z</time>
      </trkpt>
      <trkpt lat="49.9665" lon="2.42657">
        <ele>60.708</ele>
        <time>2020-08-23T09:08:52Z</time>
      </trkpt>
      <trkpt lat="49.96649" lon="2.42649">
        <ele>61.043</ele>
        <time>2020-08-23T09:08:56Z</time>
      </trkpt>
      <trkpt lat="49.96648" lon="2.42641">
        <ele>61.383</ele>
        <time>2020-08-23T09:09:00Z</time>
      </trkpt>
      <trkpt lat="49.96647" lon="2.42634">
        <ele>61.581</ele>
        <time>2020-08-23T09:09:04Z</time>
      </trkpt>
      <trkpt lat="49.96647" lon="2.42625">
        <ele>61.999</ele>
        <time>2020-08-23T09:09:08Z</time>
      </trkpt>
      <trkpt lat="49.96645" lon="2.42618">
        <ele>62.239</ele>
        <time>2020-08-23T09:09:11Z</time>
      </trkpt>
      <trkpt lat="49.96644" lon="2.42611">
        <ele>62.444</ele>
        <time>2020-08-23T09:09:15Z</time>
      </trkpt>
      <trkpt lat="49.96642" lon="2.42604">
        <ele>62.765</ele>
        <time>2020-08-23T09:09:20Z</time>
      </trkpt>
      <trkpt lat="49.96641" lon="2.42597">
        <ele>63.09</ele>
        <time>2020-08-23T09:09:24Z</time>
      </trkpt>
      <trkpt lat="49.96639" lon="2.42589">
        <ele>63.388</ele>
        <time>2020-08-23T09:09:28Z</time>
      </trkpt>
      <trkpt lat="49.96637" lon="2.4258">
        <ele>63.724</ele>
        <time>2020-08-23T09:09:33Z</time>
      </trkpt>
      <trkpt lat="49.96637" lon="2.42572">
        <ele>63.926</ele>
        <time>2020-08-23T09:09:37Z</time>
      </trkpt>
      <trkpt lat="49.96637" lon="2.42564">
        <ele>64.108</ele>
        <time>2020-08-23T09:09:41Z</time>
      </trkpt>
      <trkpt lat="49.96636" lon="2.42556">
        <ele>64.473</ele>
        <time>2020-08-23T09:09:45Z</time>
      </trkpt>
      <trkpt lat="49.96635" lon="2.42549">
        <ele>64.813</ele>
        <time>2020-08-23T09:09:49Z</time>
      </trkpt>
      <trkpt lat="49.96636" lon="2.42541">
        <ele>65.071</ele>
        <time>2020-08-23T09:09:52Z</time>
      </trkpt>
      <trkpt lat="49.96636" lon="2.42534">
        <ele>65.039</ele>
        <time>2020-08-23T09:09:55Z</time>
      </trkpt>
      <trkpt lat="49.96634" lon="2.42526">
        <ele>65.129</ele>
        <time>2020-08-23T09:09:59Z</time>
      </trkpt>
      <trkpt lat="49.96633" lon="2.42519">
        <ele>65.454</ele>
        <time>2020-08-23T09:10:03Z</time>
      </trkpt>
      <trkpt lat="49.96632" lon="2.42512">
        <ele>65.525</ele>
        <time>2020-08-23T09:10:06Z</time>
      </trkpt>
      <trkpt lat="49.96631" lon="2.42504">
        <ele>65.62</ele>
        <time>2020-08-23T09:10:10Z</time>
      </trkpt>
      <trkpt lat="49.96629" lon="2.42497">
        <ele>65.893</ele>
        <time>2020-08-23T09:10:14Z</time>
      </trkpt>
      <trkpt lat="49.96629" lon="2.42488">
        <ele>66.365</ele>
        <time>2020-08-23T09:10:18Z</time>
      </trkpt>
      <trkpt lat="49.96628" lon="2.42481">
        <ele>66.221</ele>
        <time>2020-08-23T09:10:22Z</time>
      </trkpt>
      <trkpt lat="49.96628" lon="2.42472">
        <ele>66.308</ele>
        <time>2020-08-23T09:10:26Z</time>
      </trkpt>
      <trkpt lat="49.96628" lon="2.42465">
        <ele>65.854</ele>
        <time>2020-08-23T09:10:29Z</time>
      </trkpt>
      <trkpt lat="49.96628" lon="2.42458">
        <ele>65.894</ele>
        <time>2020-08-23T09:10:33Z</time>
      </trkpt>
      <trkpt lat="49.96627" lon="2.4245">
        <ele>65.832</ele>
        <time>2020-08-23T09:10:37Z</time>
      </trkpt>
      <trkpt lat="49.96626" lon="2.42443">
        <ele>66.27</ele>
        <time>2020-08-23T09:10:41Z</time>
      </trkpt>
      <trkpt lat="49.96626" lon="2.42435">
        <ele>67.52</ele>
        <time>2020-08-23T09:10:45Z</time>
      </trkpt>
      <trkpt lat="49.96625" lon="2.42428">
        <ele>67.735</ele>
        <time>2020-08-23T09:10:49Z</time>
      </trkpt>
      <trkpt lat="49.96625" lon="2.42419">
        <ele>68.386</ele>
        <time>2020-08-23T09:10:53Z</time>
      </trkpt>
      <trkpt lat="49.96625" lon="2.42411">
        <ele>68.641</ele>
        <time>2020-08-23T09:10:57Z</time>
      </trkpt>
      <trkpt lat="49.96625" lon="2.42403">
        <ele>69.058</ele>
        <time>2020-08-23T09:11:01Z</time>
      </trkpt>
      <trkpt lat="49.96625" lon="2.42395">
        <ele>69.652</ele>
        <time>2020-08-23T09:11:06Z</time>
      </trkpt>
      <trkpt lat="49.96623" lon="2.42387">
        <ele>69.817</ele>
        <time>2020-08-23T09:11:10Z</time>
      </trkpt>
      <trkpt lat="49.96622" lon="2.4238">
        <ele>70.208</ele>
        <time>2020-08-23T09:11:14Z</time>
      </trkpt>
      <trkpt lat="49.96621" lon="2.42372">
        <ele>70.73</ele>
        <time>2020-08-23T09:11:19Z</time>
      </trkpt>
      <trkpt lat="49.9662" lon="2.42365">
        <ele>71.19</ele>
        <time>2020-08-23T09:11:23Z</time>
      </trkpt>
      <trkpt lat="49.96619" lon="2.42357">
        <ele>71.318</ele>
        <time>2020-08-23T09:11:26Z</time>
      </trkpt>
      <trkpt lat="49.96619" lon="2.42348">
        <ele>71.766</ele>
        <time>2020-08-23T09:11:30Z</time>
      </trkpt>
      <trkpt lat="49.96616" lon="2.4234">
        <ele>72.126</ele>
        <time>2020-08-23T09:11:34Z</time>
      </trkpt>
      <trkpt lat="49.96615" lon="2.42334">
        <ele>72.381</ele>
        <time>2020-08-23T09:11:38Z</time>
      </trkpt>
      <trkpt lat="49.96614" lon="2.42326">
        <ele>72.762</ele>
        <time>2020-08-23T09:11:42Z</time>
      </trkpt>
      <trkpt lat="49.96614" lon="2.42317">
        <ele>73.037</ele>
        <time>2020-08-23T09:11:46Z</time>
      </trkpt>
      <trkpt lat="49.96613" lon="2.42309">
        <ele>73.488</ele>
        <time>2020-08-23T09:11:50Z</time>
      </trkpt>
      <trkpt lat="49.96611" lon="2.42301">
        <ele>73.924</ele>
        <time>2020-08-23T09:11:54Z</time>
      </trkpt>
      <trkpt lat="49.9661" lon="2.42292">
        <ele>74.426</ele>
        <time>2020-08-23T09:11:58Z</time>
      </trkpt>
      <trkpt lat="49.96608" lon="2.42284">
        <ele>74.908</ele>
        <time>2020-08-23T09:12:03Z</time>
      </trkpt>
      <trkpt lat="49.96607" lon="2.42277">
        <ele>75.283</ele>
        <time>2020-08-23T09:12:07Z</time>
      </trkpt>
      <trkpt lat="49.96606" lon="2.42269">
        <ele>75.793</ele>
        <time>2020-08-23T09:12:11Z</time>
      </trkpt>
      <trkpt lat="49.96605" lon="2.42261">
        <ele>76.391</ele>
        <time>2020-08-23T09:12:15Z</time>
      </trkpt>
      <trkpt lat="49.96604" lon="2.42254">
        <ele>76.549</ele>
        <time>2020-08-23T09:12:18Z</time>
      </trkpt>
      <trkpt lat="49.96603" lon="2.42246">
        <ele>76.879</ele>
        <time>2020-08-23T09:12:21Z</time>
      </trkpt>
      <trkpt lat="49.96601" lon="2.42239">
        <ele>77.134</ele>
        <time>2020-08-23T09:12:25Z</time>
      </trkpt>
      <trkpt lat="49.96601" lon="2.42231">
        <ele>77.625</ele>
        <time>2020-08-23T09:12:30Z</time>
      </trkpt>
      <trkpt lat="49.96601" lon="2.42224">
        <ele>78.08</ele>
        <time>2020-08-23T09:12:34Z</time>
      </trkpt>
      <trkpt lat="49.966" lon="2.42216">
        <ele>78.778</ele>
        <time>2020-08-23T09:12:39Z</time>
      </trkpt>
      <trkpt lat="49.96598" lon="2.42209">
        <ele>79.133</ele>
        <time>2020-08-23T09:12:43Z</time>
      </trkpt>
      <trkpt lat="49.96597" lon="2.42201">
        <ele>79.626</ele>
        <time>2020-08-23T09:12:47Z</time>
      </trkpt>
      <trkpt lat="49.96596" lon="2.42193">
        <ele>80.008</ele>
        <time>2020-08-23T09:12:51Z</time>
      </trkpt>
      <trkpt lat="49.96594" lon="2.42186">
        <ele>80.562</ele>
        <time>2020-08-23T09:12:56Z</time>
      </trkpt>
      <trkpt lat="49.96593" lon="2.42179">
        <ele>81.022</ele>
        <time>2020-08-23T09:13:00Z</time>
      </trkpt>
      <trkpt lat="49.96592" lon="2.42171">
        <ele>81.58</ele>
        <time>2020-08-23T09:13:04Z</time>
      </trkpt>
      <trkpt lat="49.96591" lon="2.42163">
        <ele>82.478</ele>
        <time>2020-08-23T09:13:09Z</time>
      </trkpt>
      <trkpt lat="49.96591" lon="2.42155">
        <ele>82.868</ele>
        <time>2020-08-23T09:13:14Z</time>
      </trkpt>
      <trkpt lat="49.9659" lon="2.42148">
        <ele>83.123</ele>
        <time>2020-08-23T09:13:18Z</time>
      </trkpt>
      <trkpt lat="49.9659" lon="2.42141">
        <ele>83.774</ele>
        <time>2020-08-23T09:13:22Z</time>
      </trkpt>
      <trkpt lat="49.96588" lon="2.42133">
        <ele>84.099</ele>
        <time>2020-08-23T09:13:25Z</time>
      </trkpt>
      <trkpt lat="49.96586" lon="2.42127">
        <ele>84.653</ele>
        <time>2020-08-23T09:13:30Z</time>
      </trkpt>
      <trkpt lat="49.96583" lon="2.42121">
        <ele>85.204</ele>
        <time>2020-08-23T09:13:34Z</time>
      </trkpt>
      <trkpt lat="49.96577" lon="2.4212">
        <ele>86.014</ele>
        <time>2020-08-23T09:13:39Z</time>
      </trkpt>
      <trkpt lat="49.96572" lon="2.42121">
        <ele>86.508</ele>
        <time>2020-08-23T09:13:43Z</time>
      </trkpt>
      <trkpt lat="49.96567" lon="2.42124">
        <ele>86.74</ele>
        <time>2020-08-23T09:13:47Z</time>
      </trkpt>
      <trkpt lat="49.96563" lon="2.42126">
        <ele>86.93</ele>
        <time>2020-08-23T09:13:51Z</time>
      </trkpt>
      <trkpt lat="49.96558" lon="2.42129">
        <ele>87.078</ele>
        <time>2020-08-23T09:13:55Z</time>
      </trkpt>
      <trkpt lat="49.96553" lon="2.42132">
        <ele>87.086</ele>
        <time>2020-08-23T09:13:59Z</time>
      </trkpt>
      <trkpt lat="49.96547" lon="2.42133">
        <ele>87.166</ele>
        <time>2020-08-23T09:14:03Z</time>
      </trkpt>
      <trkpt lat="49.96542" lon="2.42134">
        <ele>87.321</ele>
        <time>2020-08-23T09:14:07Z</time>
      </trkpt>
      <trkpt lat="49.96537" lon="2.42134">
        <ele>87.482</ele>
        <time>2020-08-23T09:14:10Z</time>
      </trkpt>
      <trkpt lat="49.96533" lon="2.42135">
        <ele>87.577</ele>
        <time>2020-08-23T09:14:14Z</time>
      </trkpt>
      <trkpt lat="49.96527" lon="2.42136">
        <ele>87.642</ele>
        <time>2020-08-23T09:14:18Z</time>
      </trkpt>
      <trkpt lat="49.96523" lon="2.42137">
        <ele>87.922</ele>
        <time>2020-08-23T09:14:22Z</time>
      </trkpt>
      <trkpt lat="49.96517" lon="2.42139">
        <ele>88.314</ele>
        <time>2020-08-23T09:14:26Z</time>
      </trkpt>
      <trkpt lat="49.96513" lon="2.42141">
        <ele>88.508</ele>
        <time>2020-08-23T09:14:30Z</time>
      </trkpt>
      <trkpt lat="49.96508" lon="2.42142">
        <ele>88.779</ele>
        <time>2020-08-23T09:14:33Z</time>
      </trkpt>
      <trkpt lat="49.96503" lon="2.42142">
        <ele>89.159</ele>
        <time>2020-08-23T09:14:37Z</time>
      </trkpt>
      <trkpt lat="49.96498" lon="2.42142">
        <ele>89.267</ele>
        <time>2020-08-23T09:14:41Z</time>
      </trkpt>
      <trkpt lat="49.96493" lon="2.42141">
        <ele>89.565</ele>
        <time>2020-08-23T09:14:45Z</time>
      </trkpt>
      <trkpt lat="49.96487" lon="2.42144">
        <ele>89.815</ele>
        <time>2020-08-23T09:14:50Z</time>
      </trkpt>
      <trkpt lat="49.96483" lon="2.42145">
        <ele>89.95</ele>
        <time>2020-08-23T09:14:54Z</time>
      </trkpt>
      <trkpt lat="49.96478" lon="2.42147">
        <ele>90.161</ele>
        <time>2020-08-23T09:14:58Z</time>
      </trkpt>
      <trkpt lat="49.96472" lon="2.42147">
        <ele>90.426</ele>
        <time>2020-08-23T09:15:03Z</time>
      </trkpt>
      <trkpt lat="49.96466" lon="2.42147">
        <ele>90.648</ele>
        <time>2020-08-23T09:15:07Z</time>
      </trkpt>
      <trkpt lat="49.9646" lon="2.42147">
        <ele>90.861</ele>
        <time>2020-08-23T09:15:11Z</time>
      </trkpt>
      <trkpt lat="49.96455" lon="2.42148">
        <ele>91.017</ele>
        <time>2020-08-23T09:15:15Z</time>
      </trkpt>
      <trkpt lat="49.9645" lon="2.42149">
        <ele>91.308</ele>
        <time>2020-08-23T09:15:19Z</time>
      </trkpt>
      <trkpt lat="49.96445" lon="2.42151">
        <ele>91.559</ele>
        <time>2020-08-23T09:15:24Z</time>
      </trkpt>
      <trkpt lat="49.9644" lon="2.42153">
        <ele>91.989</ele>
        <time>2020-08-23T09:15:28Z</time>
      </trkpt>
      <trkpt lat="49.96435" lon="2.42154">
        <ele>92.497</ele>
        <time>2020-08-23T09:15:32Z</time>
      </trkpt>
      <trkpt lat="49.9643" lon="2.42154">
        <ele>92.625</ele>
        <time>2020-08-23T09:15:36Z</time>
      </trkpt>
      <trkpt lat="49.96425" lon="2.42156">
        <ele>92.695</ele>
        <time>2020-08-23T09:15:40Z</time>
      </trkpt>
      <trkpt lat="49.9642" lon="2.42159">
        <ele>93.28</ele>
        <time>2020-08-23T09:15:44Z</time>
      </trkpt>
      <trkpt lat="49.96414" lon="2.42161">
        <ele>94.081</ele>
        <time>2020-08-23T09:15:48Z</time>
      </trkpt>
      <trkpt lat="49.96408" lon="2.42163">
        <ele>93.866</ele>
        <time>2020-08-23T09:15:52Z</time>
      </trkpt>
      <trkpt lat="49.96403" lon="2.42165">
        <ele>93.112</ele>
        <time>2020-08-23T09:15:56Z</time>
      </trkpt>
      <trkpt lat="49.96398" lon="2.42165">
        <ele>92.932</ele>
        <time>2020-08-23T09:16:00Z</time>
      </trkpt>
      <trkpt lat="49.96392" lon="2.42167">
        <ele>93.005</ele>
        <time>2020-08-23T09:16:05Z</time>
      </trkpt>
      <trkpt lat="49.96387" lon="2.42168">
        <ele>92.908</ele>
        <time>2020-08-23T09:16:08Z</time>
      </trkpt>
      <trkpt lat="49.96382" lon="2.4217">
        <ele>92.766</ele>
        <time>2020-08-23T09:16:12Z</time>
      </trkpt>
      <trkpt lat="49.96378" lon="2.4217">
        <ele>92.766</ele>
        <time>2020-08-23T09:16:16Z</time>
      </trkpt>
      <trkpt lat="49.96373" lon="2.42174">
        <ele>92.574</ele>
        <time>2020-08-23T09:16:21Z</time>
      </trkpt>
      <trkpt lat="49.96368" lon="2.42176">
        <ele>92.532</ele>
        <time>2020-08-23T09:16:25Z</time>
      </trkpt>
      <trkpt lat="49.96363" lon="2.42177">
        <ele>92.672</ele>
        <time>2020-08-23T09:16:28Z</time>
      </trkpt>
      <trkpt lat="49.96357" lon="2.42178">
        <ele>92.357</ele>
        <time>2020-08-23T09:16:32Z</time>
      </trkpt>
      <trkpt lat="49.96352" lon="2.42178">
        <ele>91.858</ele>
        <time>2020-08-23T09:16:36Z</time>
      </trkpt>
      <trkpt lat="49.96347" lon="2.42179">
        <ele>91.583</ele>
        <time>2020-08-23T09:16:40Z</time>
      </trkpt>
      <trkpt lat="49.96342" lon="2.42178">
        <ele>91.028</ele>
        <time>2020-08-23T09:16:44Z</time>
      </trkpt>
      <trkpt lat="49.96337" lon="2.42179">
        <ele>90.489</ele>
        <time>2020-08-23T09:16:48Z</time>
      </trkpt>
      <trkpt lat="49.96333" lon="2.42181">
        <ele>89.617</ele>
        <time>2020-08-23T09:16:52Z</time>
      </trkpt>
      <trkpt lat="49.96328" lon="2.42181">
        <ele>88.808</ele>
        <time>2020-08-23T09:16:56Z</time>
      </trkpt>
      <trkpt lat="49.96325" lon="2.42187">
        <ele>88.337</ele>
        <time>2020-08-23T09:17:14Z</time>
      </trkpt>
      <trkpt lat="49.96325" lon="2.42194">
        <ele>88.087</ele>
        <time>2020-08-23T09:17:18Z</time>
      </trkpt>
      <trkpt lat="49.96325" lon="2.42202">
        <ele>87.995</ele>
        <time>2020-08-23T09:17:21Z</time>
      </trkpt>
      <trkpt lat="49.96325" lon="2.42211">
        <ele>87.443</ele>
        <time>2020-08-23T09:17:25Z</time>
      </trkpt>
      <trkpt lat="49.96324" lon="2.4222">
        <ele>87.333</ele>
        <time>2020-08-23T09:17:29Z</time>
      </trkpt>
      <trkpt lat="49.96322" lon="2.42229">
        <ele>87.228</ele>
        <time>2020-08-23T09:17:33Z</time>
      </trkpt>
      <trkpt lat="49.96322" lon="2.42237">
        <ele>87.299</ele>
        <time>2020-08-23T09:17:37Z</time>
      </trkpt>
      <trkpt lat="49.96321" lon="2.42245">
        <ele>87.254</ele>
        <time>2020-08-23T09:17:41Z</time>
      </trkpt>
      <trkpt lat="49.96322" lon="2.42252">
        <ele>87.276</ele>
        <time>2020-08-23T09:17:45Z</time>
      </trkpt>
      <trkpt lat="49.96322" lon="2.4226">
        <ele>87.19</ele>
        <time>2020-08-23T09:17:48Z</time>
      </trkpt>
      <trkpt lat="49.96322" lon="2.42267">
        <ele>87.119</ele>
        <time>2020-08-23T09:17:51Z</time>
      </trkpt>
      <trkpt lat="49.96323" lon="2.42276">
        <ele>87.008</ele>
        <time>2020-08-23T09:17:55Z</time>
      </trkpt>
      <trkpt lat="49.96323" lon="2.42284">
        <ele>86.522</ele>
        <time>2020-08-23T09:17:59Z</time>
      </trkpt>
      <trkpt lat="49.96323" lon="2.42292">
        <ele>86.182</ele>
        <time>2020-08-23T09:18:03Z</time>
      </trkpt>
      <trkpt lat="49.96323" lon="2.42299">
        <ele>86.05</ele>
        <time>2020-08-23T09:18:07Z</time>
      </trkpt>
      <trkpt lat="49.96323" lon="2.42306">
        <ele>86.028</ele>
        <time>2020-08-23T09:18:11Z</time>
      </trkpt>
      <trkpt lat="49.96324" lon="2.42315">
        <ele>85.998</ele>
        <time>2020-08-23T09:18:15Z</time>
      </trkpt>
      <trkpt lat="49.96324" lon="2.42321">
        <ele>85.863</ele>
        <time>2020-08-23T09:18:19Z</time>
      </trkpt>
      <trkpt lat="49.96325" lon="2.4233">
        <ele>85.914</ele>
        <time>2020-08-23T09:18:22Z</time>
      </trkpt>
      <trkpt lat="49.96324" lon="2.42337">
        <ele>85.919</ele>
        <time>2020-08-23T09:18:25Z</time>
      </trkpt>
      <trkpt lat="49.96323" lon="2.42344">
        <ele>85.952</ele>
        <time>2020-08-23T09:18:29Z</time>
      </trkpt>
      <trkpt lat="49.96322" lon="2.42351">
        <ele>85.753</ele>
        <time>2020-08-23T09:18:33Z</time>
      </trkpt>
      <trkpt lat="49.96323" lon="2.42359">
        <ele>85.808</ele>
        <time>2020-08-23T09:18:36Z</time>
      </trkpt>
      <trkpt lat="49.96323" lon="2.42367">
        <ele>85.808</ele>
        <time>2020-08-23T09:18:40Z</time>
      </trkpt>
      <trkpt lat="49.96323" lon="2.42377">
        <ele>85.57</ele>
        <time>2020-08-23T09:18:44Z</time>
      </trkpt>
      <trkpt lat="49.96323" lon="2.42384">
        <ele>85.33</ele>
        <time>2020-08-23T09:18:47Z</time>
      </trkpt>
      <trkpt lat="49.96323" lon="2.42391">
        <ele>85.238</ele>
        <time>2020-08-23T09:18:52Z</time>
      </trkpt>
      <trkpt lat="49.96323" lon="2.42399">
        <ele>85.386</ele>
        <time>2020-08-23T09:18:56Z</time>
      </trkpt>
      <trkpt lat="49.96324" lon="2.42407">
        <ele>85.226</ele>
        <time>2020-08-23T09:18:59Z</time>
      </trkpt>
      <trkpt lat="49.96324" lon="2.42414">
        <ele>85.271</ele>
        <time>2020-08-23T09:19:02Z</time>
      </trkpt>
      <trkpt lat="49.96324" lon="2.42423">
        <ele>85.272</ele>
        <time>2020-08-23T09:19:05Z</time>
      </trkpt>
      <trkpt lat="49.96325" lon="2.4243">
        <ele>85.247</ele>
        <time>2020-08-23T09:19:08Z</time>
      </trkpt>
      <trkpt lat="49.96325" lon="2.42438">
        <ele>84.965</ele>
        <time>2020-08-23T09:19:11Z</time>
      </trkpt>
      <trkpt lat="49.96325" lon="2.42447">
        <ele>84.868</ele>
        <time>2020-08-23T09:19:15Z</time>
      </trkpt>
      <trkpt lat="49.96323" lon="2.42455">
        <ele>84.614</ele>
        <time>2020-08-23T09:19:20Z</time>
      </trkpt>
      <trkpt lat="49.96324" lon="2.42463">
        <ele>84.608</ele>
        <time>2020-08-23T09:19:24Z</time>
      </trkpt>
      <trkpt lat="49.96322" lon="2.4247">
        <ele>84.671</ele>
        <time>2020-08-23T09:19:29Z</time>
      </trkpt>
      <trkpt lat="49.96321" lon="2.42477">
        <ele>84.531</ele>
        <time>2020-08-23T09:19:33Z</time>
      </trkpt>
      <trkpt lat="49.96318" lon="2.42484">
        <ele>84.639</ele>
        <time>2020-08-23T09:19:38Z</time>
      </trkpt>
      <trkpt lat="49.96314" lon="2.42489">
        <ele>84.167</ele>
        <time>2020-08-23T09:19:45Z</time>
      </trkpt>
      <trkpt lat="49.96309" lon="2.4249">
        <ele>83.597</ele>
        <time>2020-08-23T09:19:49Z</time>
      </trkpt>
      <trkpt lat="49.96304" lon="2.4249">
        <ele>83.362</ele>
        <time>2020-08-23T09:19:52Z</time>
      </trkpt>
      <trkpt lat="49.96298" lon="2.42492">
        <ele>82.783</ele>
        <time>2020-08-23T09:19:57Z</time>
      </trkpt>
      <trkpt lat="49.96293" lon="2.42493">
        <ele>82.368</ele>
        <time>2020-08-23T09:20:01Z</time>
      </trkpt>
      <trkpt lat="49.96289" lon="2.42496">
        <ele>82.189</ele>
        <time>2020-08-23T09:20:04Z</time>
      </trkpt>
      <trkpt lat="49.96285" lon="2.425">
        <ele>81.806</ele>
        <time>2020-08-23T09:20:07Z</time>
      </trkpt>
      <trkpt lat="49.96279" lon="2.42502">
        <ele>81.526</ele>
        <time>2020-08-23T09:20:11Z</time>
      </trkpt>
      <trkpt lat="49.96275" lon="2.42503">
        <ele>81.308</ele>
        <time>2020-08-23T09:20:14Z</time>
      </trkpt>
      <trkpt lat="49.9627" lon="2.42504">
        <ele>81.283</ele>
        <time>2020-08-23T09:20:17Z</time>
      </trkpt>
      <trkpt lat="49.96265" lon="2.42506">
        <ele>81.093</ele>
        <time>2020-08-23T09:20:20Z</time>
      </trkpt>
      <trkpt lat="49.9626" lon="2.42508">
        <ele>80.611</ele>
        <time>2020-08-23T09:20:23Z</time>
      </trkpt>
      <trkpt lat="49.96255" lon="2.42509">
        <ele>80.469</ele>
        <time>2020-08-23T09:20:26Z</time>
      </trkpt>
      <trkpt lat="49.96249" lon="2.42509">
        <ele>80.249</ele>
        <time>2020-08-23T09:20:30Z</time>
      </trkpt>
      <trkpt lat="49.96245" lon="2.42509">
        <ele>80.164</ele>
        <time>2020-08-23T09:20:33Z</time>
      </trkpt>
      <trkpt lat="49.9624" lon="2.42512">
        <ele>79.825</ele>
        <time>2020-08-23T09:20:37Z</time>
      </trkpt>
      <trkpt lat="49.96235" lon="2.42514">
        <ele>79.62</ele>
        <time>2020-08-23T09:20:41Z</time>
      </trkpt>
      <trkpt lat="49.96231" lon="2.42517">
        <ele>79.234</ele>
        <time>2020-08-23T09:20:45Z</time>
      </trkpt>
      <trkpt lat="49.96226" lon="2.42521">
        <ele>79.055</ele>
        <time>2020-08-23T09:20:49Z</time>
      </trkpt>
      <trkpt lat="49.96222" lon="2.42523">
        <ele>78.61</ele>
        <time>2020-08-23T09:20:53Z</time>
      </trkpt>
      <trkpt lat="49.96218" lon="2.42527">
        <ele>78.508</ele>
        <time>2020-08-23T09:20:56Z</time>
      </trkpt>
      <trkpt lat="49.96214" lon="2.42529">
        <ele>78.438</ele>
        <time>2020-08-23T09:20:59Z</time>
      </trkpt>
      <trkpt lat="49.96209" lon="2.42534">
        <ele>78.268</ele>
        <time>2020-08-23T09:21:03Z</time>
      </trkpt>
      <trkpt lat="49.96205" lon="2.42537">
        <ele>78.166</ele>
        <time>2020-08-23T09:21:06Z</time>
      </trkpt>
      <trkpt lat="49.96201" lon="2.4254">
        <ele>77.964</ele>
        <time>2020-08-23T09:21:10Z</time>
      </trkpt>
      <trkpt lat="49.96196" lon="2.42544">
        <ele>77.674</ele>
        <time>2020-08-23T09:21:14Z</time>
      </trkpt>
      <trkpt lat="49.96192" lon="2.42547">
        <ele>77.419</ele>
        <time>2020-08-23T09:21:17Z</time>
      </trkpt>
      <trkpt lat="49.96187" lon="2.42552">
        <ele>77.32</ele>
        <time>2020-08-23T09:21:20Z</time>
      </trkpt>
      <trkpt lat="49.96182" lon="2.42555">
        <ele>77.445</ele>
        <time>2020-08-23T09:21:23Z</time>
      </trkpt>
      <trkpt lat="49.96178" lon="2.42558">
        <ele>77.175</ele>
        <time>2020-08-23T09:21:26Z</time>
      </trkpt>
      <trkpt lat="49.96173" lon="2.42562">
        <ele>76.628</ele>
        <time>2020-08-23T09:21:30Z</time>
      </trkpt>
      <trkpt lat="49.96168" lon="2.42564">
        <ele>76.32</ele>
        <time>2020-08-23T09:21:34Z</time>
      </trkpt>
      <trkpt lat="49.96164" lon="2.42568">
        <ele>75.808</ele>
        <time>2020-08-23T09:21:37Z</time>
      </trkpt>
      <trkpt lat="49.9616" lon="2.4257">
        <ele>74.842</ele>
        <time>2020-08-23T09:21:41Z</time>
      </trkpt>
      <trkpt lat="49.96155" lon="2.4257">
        <ele>74.612</ele>
        <time>2020-08-23T09:21:45Z</time>
      </trkpt>
      <trkpt lat="49.9615" lon="2.4257">
        <ele>74.73</ele>
        <time>2020-08-23T09:21:48Z</time>
      </trkpt>
      <trkpt lat="49.96146" lon="2.42573">
        <ele>74.048</ele>
        <time>2020-08-23T09:21:51Z</time>
      </trkpt>
      <trkpt lat="49.96142" lon="2.42577">
        <ele>73.748</ele>
        <time>2020-08-23T09:21:55Z</time>
      </trkpt>
      <trkpt lat="49.96138" lon="2.42581">
        <ele>73.513</ele>
        <time>2020-08-23T09:21:58Z</time>
      </trkpt>
      <trkpt lat="49.96132" lon="2.42585">
        <ele>73.084</ele>
        <time>2020-08-23T09:22:01Z</time>
      </trkpt>
      <trkpt lat="49.96128" lon="2.42586">
        <ele>72.239</ele>
        <time>2020-08-23T09:22:05Z</time>
      </trkpt>
      <trkpt lat="49.96122" lon="2.4259">
        <ele>71.692</ele>
        <time>2020-08-23T09:22:09Z</time>
      </trkpt>
      <trkpt lat="49.96117" lon="2.42593">
        <ele>71.173</ele>
        <time>2020-08-23T09:22:14Z</time>
      </trkpt>
      <trkpt lat="49.96112" lon="2.42595">
        <ele>70.12</ele>
        <time>2020-08-23T09:22:19Z</time>
      </trkpt>
      <trkpt lat="49.96107" lon="2.42598">
        <ele>69.108</ele>
        <time>2020-08-23T09:22:23Z</time>
      </trkpt>
      <trkpt lat="49.96102" lon="2.426">
        <ele>68.644</ele>
        <time>2020-08-23T09:22:27Z</time>
      </trkpt>
      <trkpt lat="49.96098" lon="2.42604">
        <ele>67.964</ele>
        <time>2020-08-23T09:22:32Z</time>
      </trkpt>
      <trkpt lat="49.96092" lon="2.42607">
        <ele>67.332</ele>
        <time>2020-08-23T09:22:36Z</time>
      </trkpt>
      <trkpt lat="49.96087" lon="2.4261">
        <ele>66.53</ele>
        <time>2020-08-23T09:22:41Z</time>
      </trkpt>
      <trkpt lat="49.96083" lon="2.42613">
        <ele>65.99</ele>
        <time>2020-08-23T09:22:45Z</time>
      </trkpt>
      <trkpt lat="49.96078" lon="2.42618">
        <ele>65.245</ele>
        <time>2020-08-23T09:22:50Z</time>
      </trkpt>
      <trkpt lat="49.96074" lon="2.42621">
        <ele>64.546</ele>
        <time>2020-08-23T09:22:54Z</time>
      </trkpt>
      <trkpt lat="49.96069" lon="2.42626">
        <ele>63.691</ele>
        <time>2020-08-23T09:22:59Z</time>
      </trkpt>
      <trkpt lat="49.96065" lon="2.4263">
        <ele>63.111</ele>
        <time>2020-08-23T09:23:03Z</time>
      </trkpt>
      <trkpt lat="49.9606" lon="2.42633">
        <ele>62.421</ele>
        <time>2020-08-23T09:23:08Z</time>
      </trkpt>
      <trkpt lat="49.96056" lon="2.42636">
        <ele>61.903</ele>
        <time>2020-08-23T09:23:11Z</time>
      </trkpt>
      <trkpt lat="49.96051" lon="2.4264">
        <ele>61.308</ele>
        <time>2020-08-23T09:23:15Z</time>
      </trkpt>
      <trkpt lat="49.96046" lon="2.42644">
        <ele>60.446</ele>
        <time>2020-08-23T09:23:19Z</time>
      </trkpt>
      <trkpt lat="49.96042" lon="2.42647">
        <ele>60.046</ele>
        <time>2020-08-23T09:23:23Z</time>
      </trkpt>
      <trkpt lat="49.96037" lon="2.4265">
        <ele>59.424</ele>
        <time>2020-08-23T09:23:27Z</time>
      </trkpt>
      <trkpt lat="49.96033" lon="2.42654">
        <ele>58.942</ele>
        <time>2020-08-23T09:23:31Z</time>
      </trkpt>
      <trkpt lat="49.96028" lon="2.42658">
        <ele>58.512</ele>
        <time>2020-08-23T09:23:34Z</time>
      </trkpt>
      <trkpt lat="49.96024" lon="2.42661">
        <ele>58.267</ele>
        <time>2020-08-23T09:23:37Z</time>
      </trkpt>
      <trkpt lat="49.9602" lon="2.42665">
        <ele>57.698</ele>
        <time>2020-08-23T09:23:42Z</time>
      </trkpt>
      <trkpt lat="49.96015" lon="2.42668">
        <ele>57.143</ele>
        <time>2020-08-23T09:23:46Z</time>
      </trkpt>
      <trkpt lat="49.96011" lon="2.42673">
        <ele>56.731</ele>
        <time>2020-08-23T09:23:50Z</time>
      </trkpt>
      <trkpt lat="49.96008" lon="2.42677">
        <ele>56.461</ele>
        <time>2020-08-23T09:23:53Z</time>
      </trkpt>
      <trkpt lat="49.96004" lon="2.42681">
        <ele>56.307</ele>
        <time>2020-08-23T09:23:56Z</time>
      </trkpt>
      <trkpt lat="49.96" lon="2.42686">
        <ele>55.808</ele>
        <time>2020-08-23T09:24:00Z</time>
      </trkpt>
      <trkpt lat="49.95996" lon="2.42692">
        <ele>55.218</ele>
        <time>2020-08-23T09:24:05Z</time>
      </trkpt>
      <trkpt lat="49.95992" lon="2.42698">
        <ele>54.838</ele>
        <time>2020-08-23T09:24:09Z</time>
      </trkpt>
      <trkpt lat="49.95988" lon="2.42703">
        <ele>54.676</ele>
        <time>2020-08-23T09:24:13Z</time>
      </trkpt>
      <trkpt lat="49.95984" lon="2.42709">
        <ele>54.124</ele>
        <time>2020-08-23T09:24:17Z</time>
      </trkpt>
      <trkpt lat="49.95981" lon="2.42716">
        <ele>53.714</ele>
        <time>2020-08-23T09:24:21Z</time>
      </trkpt>
      <trkpt lat="49.95976" lon="2.42718">
        <ele>53.549</ele>
        <time>2020-08-23T09:24:26Z</time>
      </trkpt>
      <trkpt lat="49.95973" lon="2.42724">
        <ele>52.98</ele>
        <time>2020-08-23T09:24:30Z</time>
      </trkpt>
      <trkpt lat="49.95971" lon="2.42732">
        <ele>52.555</ele>
        <time>2020-08-23T09:24:34Z</time>
      </trkpt>
      <trkpt lat="49.95968" lon="2.42738">
        <ele>52.376</ele>
        <time>2020-08-23T09:24:37Z</time>
      </trkpt>
      <trkpt lat="49.95964" lon="2.42744">
        <ele>51.99</ele>
        <time>2020-08-23T09:24:41Z</time>
      </trkpt>
      <trkpt lat="49.95961" lon="2.4275">
        <ele>51.319</ele>
        <time>2020-08-23T09:24:45Z</time>
      </trkpt>
      <trkpt lat="49.95957" lon="2.42758">
        <ele>51.008</ele>
        <time>2020-08-23T09:24:49Z</time>
      </trkpt>
      <trkpt lat="49.95954" lon="2.42764">
        <ele>50.662</ele>
        <time>2020-08-23T09:24:53Z</time>
      </trkpt>
      <trkpt lat="49.95951" lon="2.4277">
        <ele>50.452</ele>
        <time>2020-08-23T09:24:56Z</time>
      </trkpt>
      <trkpt lat="49.95947" lon="2.42775">
        <ele>50.34</ele>
        <time>2020-08-23T09:25:00Z</time>
      </trkpt>
      <trkpt lat="49.95944" lon="2.42782">
        <ele>50.218</ele>
        <time>2020-08-23T09:25:05Z</time>
      </trkpt>
      <trkpt lat="49.95941" lon="2.42789">
        <ele>50.048</ele>
        <time>2020-08-23T09:25:09Z</time>
      </trkpt>
      <trkpt lat="49.95938" lon="2.42796">
        <ele>49.743</ele>
        <time>2020-08-23T09:25:13Z</time>
      </trkpt>
      <trkpt lat="49.95935" lon="2.42802">
        <ele>49.614</ele>
        <time>2020-08-23T09:25:16Z</time>
      </trkpt>
      <trkpt lat="49.95931" lon="2.42808">
        <ele>49.489</ele>
        <time>2020-08-23T09:25:20Z</time>
      </trkpt>
      <trkpt lat="49.95928" lon="2.42815">
        <ele>49.174</ele>
        <time>2020-08-23T09:25:24Z</time>
      </trkpt>
      <trkpt lat="49.95924" lon="2.42821">
        <ele>48.856</ele>
        <time>2020-08-23T09:25:27Z</time>
      </trkpt>
      <trkpt lat="49.9592" lon="2.42827">
        <ele>48.721</ele>
        <time>2020-08-23T09:25:31Z</time>
      </trkpt>
      <trkpt lat="49.95918" lon="2.42834">
        <ele>48.508</ele>
        <time>2020-08-23T09:25:34Z</time>
      </trkpt>
      <trkpt lat="49.95915" lon="2.4284">
        <ele>48.242</ele>
        <time>2020-08-23T09:25:38Z</time>
      </trkpt>
      <trkpt lat="49.95911" lon="2.42846">
        <ele>47.832</ele>
        <time>2020-08-23T09:25:42Z</time>
      </trkpt>
      <trkpt lat="49.95908" lon="2.42851">
        <ele>47.36</ele>
        <time>2020-08-23T09:25:47Z</time>
      </trkpt>
      <trkpt lat="49.95905" lon="2.42858">
        <ele>47.068</ele>
        <time>2020-08-23T09:25:52Z</time>
      </trkpt>
      <trkpt lat="49.95902" lon="2.42865">
        <ele>46.728</ele>
        <time>2020-08-23T09:25:56Z</time>
      </trkpt>
      <trkpt lat="49.95898" lon="2.42872">
        <ele>46.563</ele>
        <time>2020-08-23T09:26:00Z</time>
      </trkpt>
      <trkpt lat="49.95895" lon="2.42878">
        <ele>46.414</ele>
        <time>2020-08-23T09:26:04Z</time>
      </trkpt>
      <trkpt lat="49.95891" lon="2.42884">
        <ele>46.279</ele>
        <time>2020-08-23T09:26:08Z</time>
      </trkpt>
      <trkpt lat="49.95888" lon="2.42891">
        <ele>45.847</ele>
        <time>2020-08-23T09:26:12Z</time>
      </trkpt>
      <trkpt lat="49.95884" lon="2.42898">
        <ele>45.729</ele>
        <time>2020-08-23T09:26:16Z</time>
      </trkpt>
      <trkpt lat="49.95882" lon="2.42904">
        <ele>45.721</ele>
        <time>2020-08-23T09:26:20Z</time>
      </trkpt>
      <trkpt lat="49.95878" lon="2.4291">
        <ele>45.608</ele>
        <time>2020-08-23T09:26:23Z</time>
      </trkpt>
      <trkpt lat="49.95875" lon="2.42917">
        <ele>45.559</ele>
        <time>2020-08-23T09:26:27Z</time>
      </trkpt>
      <trkpt lat="49.95871" lon="2.42921">
        <ele>45.559</ele>
        <time>2020-08-23T09:26:30Z</time>
      </trkpt>
      <trkpt lat="49.95867" lon="2.42928">
        <ele>45.487</ele>
        <time>2020-08-23T09:26:34Z</time>
      </trkpt>
      <trkpt lat="49.95864" lon="2.42934">
        <ele>45.445</ele>
        <time>2020-08-23T09:26:37Z</time>
      </trkpt>
      <trkpt lat="49.95861" lon="2.42941">
        <ele>45.145</ele>
        <time>2020-08-23T09:26:42Z</time>
      </trkpt>
      <trkpt lat="49.95857" lon="2.42948">
        <ele>45.04</ele>
        <time>2020-08-23T09:26:46Z</time>
      </trkpt>
      <trkpt lat="49.95855" lon="2.42954">
        <ele>44.841</ele>
        <time>2020-08-23T09:26:49Z</time>
      </trkpt>
      <trkpt lat="49.95851" lon="2.42961">
        <ele>44.436</ele>
        <time>2020-08-23T09:26:53Z</time>
      </trkpt>
      <trkpt lat="49.95847" lon="2.42966">
        <ele>44.391</ele>
        <time>2020-08-23T09:26:56Z</time>
      </trkpt>
      <trkpt lat="49.95844" lon="2.42971">
        <ele>44.181</ele>
        <time>2020-08-23T09:27:00Z</time>
      </trkpt>
      <trkpt lat="49.95841" lon="2.42977">
        <ele>44.019</ele>
        <time>2020-08-23T09:27:04Z</time>
      </trkpt>
      <trkpt lat="49.95838" lon="2.42982">
        <ele>43.908</ele>
        <time>2020-08-23T09:27:08Z</time>
      </trkpt>
      <trkpt lat="49.95834" lon="2.42988">
        <ele>43.894</ele>
        <time>2020-08-23T09:27:12Z</time>
      </trkpt>
      <trkpt lat="49.95831" lon="2.42993">
        <ele>43.664</ele>
        <time>2020-08-23T09:27:16Z</time>
      </trkpt>
      <trkpt lat="49.95828" lon="2.43">
        <ele>43.442</ele>
        <time>2020-08-23T09:27:20Z</time>
      </trkpt>
      <trkpt lat="49.95825" lon="2.43007">
        <ele>43.47</ele>
        <time>2020-08-23T09:27:24Z</time>
      </trkpt>
      <trkpt lat="49.9582" lon="2.43013">
        <ele>43.33</ele>
        <time>2020-08-23T09:27:28Z</time>
      </trkpt>
      <trkpt lat="49.95817" lon="2.43018">
        <ele>43.385</ele>
        <time>2020-08-23T09:27:32Z</time>
      </trkpt>
      <trkpt lat="49.95813" lon="2.43024">
        <ele>43.216</ele>
        <time>2020-08-23T09:27:36Z</time>
      </trkpt>
      <trkpt lat="49.9581" lon="2.43031">
        <ele>43.281</ele>
        <time>2020-08-23T09:27:40Z</time>
      </trkpt>
      <trkpt lat="49.95805" lon="2.43038">
        <ele>43.235</ele>
        <time>2020-08-23T09:27:44Z</time>
      </trkpt>
      <trkpt lat="49.95803" lon="2.43045">
        <ele>43.286</ele>
        <time>2020-08-23T09:27:48Z</time>
      </trkpt>
      <trkpt lat="49.958" lon="2.43053">
        <ele>43.314</ele>
        <time>2020-08-23T09:27:52Z</time>
      </trkpt>
      <trkpt lat="49.95796" lon="2.4306">
        <ele>43.208</ele>
        <time>2020-08-23T09:27:56Z</time>
      </trkpt>
      <trkpt lat="49.95793" lon="2.43067">
        <ele>43.238</ele>
        <time>2020-08-23T09:28:00Z</time>
      </trkpt>
      <trkpt lat="49.95788" lon="2.43072">
        <ele>43.368</ele>
        <time>2020-08-23T09:28:03Z</time>
      </trkpt>
      <trkpt lat="49.95785" lon="2.43078">
        <ele>43.386</ele>
        <time>2020-08-23T09:28:06Z</time>
      </trkpt>
      <trkpt lat="49.95782" lon="2.43083">
        <ele>43.444</ele>
        <time>2020-08-23T09:28:10Z</time>
      </trkpt>
      <trkpt lat="49.95779" lon="2.43091">
        <ele>43.464</ele>
        <time>2020-08-23T09:28:14Z</time>
      </trkpt>
      <trkpt lat="49.95775" lon="2.43097">
        <ele>43.489</ele>
        <time>2020-08-23T09:28:18Z</time>
      </trkpt>
      <trkpt lat="49.95772" lon="2.43103">
        <ele>43.42</ele>
        <time>2020-08-23T09:28:21Z</time>
      </trkpt>
      <trkpt lat="49.95769" lon="2.43109">
        <ele>43.265</ele>
        <time>2020-08-23T09:28:25Z</time>
      </trkpt>
      <trkpt lat="49.95765" lon="2.43115">
        <ele>43.292</ele>
        <time>2020-08-23T09:28:29Z</time>
      </trkpt>
      <trkpt lat="49.95763" lon="2.43122">
        <ele>43.373</ele>
        <time>2020-08-23T09:28:33Z</time>
      </trkpt>
      <trkpt lat="49.95759" lon="2.43128">
        <ele>43.22</ele>
        <time>2020-08-23T09:28:36Z</time>
      </trkpt>
      <trkpt lat="49.95756" lon="2.43134">
        <ele>43.208</ele>
        <time>2020-08-23T09:28:39Z</time>
      </trkpt>
      <trkpt lat="49.95753" lon="2.4314">
        <ele>43.364</ele>
        <time>2020-08-23T09:28:43Z</time>
      </trkpt>
      <trkpt lat="49.9575" lon="2.43146">
        <ele>43.674</ele>
        <time>2020-08-23T09:28:46Z</time>
      </trkpt>
      <trkpt lat="49.95747" lon="2.43152">
        <ele>43.572</ele>
        <time>2020-08-23T09:28:50Z</time>
      </trkpt>
      <trkpt lat="49.95744" lon="2.43159">
        <ele>43.46</ele>
        <time>2020-08-23T09:28:54Z</time>
      </trkpt>
      <trkpt lat="49.9574" lon="2.43164">
        <ele>43.37</ele>
        <time>2020-08-23T09:28:58Z</time>
      </trkpt>
      <trkpt lat="49.95737" lon="2.4317">
        <ele>43.225</ele>
        <time>2020-08-23T09:29:02Z</time>
      </trkpt>
      <trkpt lat="49.95733" lon="2.43176">
        <ele>43.286</ele>
        <time>2020-08-23T09:29:06Z</time>
      </trkpt>
      <trkpt lat="49.95729" lon="2.43181">
        <ele>43.181</ele>
        <time>2020-08-23T09:29:10Z</time>
      </trkpt>
      <trkpt lat="49.95726" lon="2.43187">
        <ele>43.023</ele>
        <time>2020-08-23T09:29:14Z</time>
      </trkpt>
      <trkpt lat="49.95722" lon="2.43192">
        <ele>43.183</ele>
        <time>2020-08-23T09:29:18Z</time>
      </trkpt>
      <trkpt lat="49.95718" lon="2.43196">
        <ele>43.511</ele>
        <time>2020-08-23T09:29:34Z</time>
      </trkpt>
      <trkpt lat="49.95719" lon="2.43204">
        <ele>43.408</ele>
        <time>2020-08-23T09:30:33Z</time>
      </trkpt>
      <trkpt lat="49.9572" lon="2.43197">
        <ele>43.317</ele>
        <time>2020-08-23T09:31:13Z</time>
      </trkpt>
      <trkpt lat="49.95716" lon="2.432">
        <ele>36.197</ele>
        <time>2020-08-23T09:31:28Z</time>
      </trkpt>
      <trkpt lat="49.95709" lon="2.43202">
        <ele>43.655</ele>
        <time>2020-08-23T09:31:33Z</time>
      </trkpt>
      <trkpt lat="49.95705" lon="2.43205">
        <ele>44.143</ele>
        <time>2020-08-23T09:31:36Z</time>
      </trkpt>
      <trkpt lat="49.95702" lon="2.43214">
        <ele>44.133</ele>
        <time>2020-08-23T09:31:39Z</time>
      </trkpt>
      <trkpt lat="49.95699" lon="2.43221">
        <ele>43.018</ele>
        <time>2020-08-23T09:31:42Z</time>
      </trkpt>
      <trkpt lat="49.95702" lon="2.43226">
        <ele>42.849</ele>
        <time>2020-08-23T09:31:57Z</time>
      </trkpt>
      <trkpt lat="49.95708" lon="2.43229">
        <ele>42.714</ele>
        <time>2020-08-23T09:32:02Z</time>
      </trkpt>
      <trkpt lat="49.95712" lon="2.43232">
        <ele>42.765</ele>
        <time>2020-08-23T09:32:05Z</time>
      </trkpt>
      <trkpt lat="49.95717" lon="2.43233">
        <ele>42.768</ele>
        <time>2020-08-23T09:32:08Z</time>
      </trkpt>
      <trkpt lat="49.95722" lon="2.43235">
        <ele>42.514</ele>
        <time>2020-08-23T09:32:11Z</time>
      </trkpt>
      <trkpt lat="49.95727" lon="2.43236">
        <ele>42.308</ele>
        <time>2020-08-23T09:32:14Z</time>
      </trkpt>
      <trkpt lat="49.95734" lon="2.43237">
        <ele>42.331</ele>
        <time>2020-08-23T09:32:18Z</time>
      </trkpt>
      <trkpt lat="49.95739" lon="2.43237">
        <ele>42.241</ele>
        <time>2020-08-23T09:32:21Z</time>
      </trkpt>
      <trkpt lat="49.95745" lon="2.43237">
        <ele>42.279</ele>
        <time>2020-08-23T09:32:25Z</time>
      </trkpt>
      <trkpt lat="49.9575" lon="2.43239">
        <ele>42.277</ele>
        <time>2020-08-23T09:32:28Z</time>
      </trkpt>
      <trkpt lat="49.95755" lon="2.43242">
        <ele>42.467</ele>
        <time>2020-08-23T09:32:33Z</time>
      </trkpt>
      <trkpt lat="49.95759" lon="2.43245">
        <ele>42.372</ele>
        <time>2020-08-23T09:32:37Z</time>
      </trkpt>
      <trkpt lat="49.95764" lon="2.43247">
        <ele>42.143</ele>
        <time>2020-08-23T09:32:41Z</time>
      </trkpt>
      <trkpt lat="49.9577" lon="2.43249">
        <ele>42.288</ele>
        <time>2020-08-23T09:32:46Z</time>
      </trkpt>
      <trkpt lat="49.95775" lon="2.43249">
        <ele>42.251</ele>
        <time>2020-08-23T09:32:50Z</time>
      </trkpt>
      <trkpt lat="49.95781" lon="2.43251">
        <ele>42.101</ele>
        <time>2020-08-23T09:32:54Z</time>
      </trkpt>
      <trkpt lat="49.95785" lon="2.43256">
        <ele>42.111</ele>
        <time>2020-08-23T09:32:58Z</time>
      </trkpt>
      <trkpt lat="49.95789" lon="2.4326">
        <ele>42.108</ele>
        <time>2020-08-23T09:33:02Z</time>
      </trkpt>
      <trkpt lat="49.95792" lon="2.43266">
        <ele>42.12</ele>
        <time>2020-08-23T09:33:05Z</time>
      </trkpt>
      <trkpt lat="49.95792" lon="2.43274">
        <ele>42.13</ele>
        <time>2020-08-23T09:33:10Z</time>
      </trkpt>
      <trkpt lat="49.95792" lon="2.43282">
        <ele>42.178</ele>
        <time>2020-08-23T09:33:14Z</time>
      </trkpt>
      <trkpt lat="49.95793" lon="2.43289">
        <ele>41.996</ele>
        <time>2020-08-23T09:33:18Z</time>
      </trkpt>
      <trkpt lat="49.95794" lon="2.43297">
        <ele>41.516</ele>
        <time>2020-08-23T09:33:22Z</time>
      </trkpt>
      <trkpt lat="49.95796" lon="2.43304">
        <ele>41.431</ele>
        <time>2020-08-23T09:33:25Z</time>
      </trkpt>
      <trkpt lat="49.95795" lon="2.43312">
        <ele>41.492</ele>
        <time>2020-08-23T09:33:29Z</time>
      </trkpt>
      <trkpt lat="49.95794" lon="2.4332">
        <ele>41.247</ele>
        <time>2020-08-23T09:33:33Z</time>
      </trkpt>
      <trkpt lat="49.95795" lon="2.43327">
        <ele>40.982</ele>
        <time>2020-08-23T09:33:37Z</time>
      </trkpt>
      <trkpt lat="49.95795" lon="2.43335">
        <ele>40.743</ele>
        <time>2020-08-23T09:33:41Z</time>
      </trkpt>
      <trkpt lat="49.95794" lon="2.43342">
        <ele>40.417</ele>
        <time>2020-08-23T09:33:45Z</time>
      </trkpt>
      <trkpt lat="49.95794" lon="2.43349">
        <ele>40.508</ele>
        <time>2020-08-23T09:33:52Z</time>
      </trkpt>
      <trkpt lat="49.95793" lon="2.43356">
        <ele>40.133</ele>
        <time>2020-08-23T09:34:19Z</time>
      </trkpt>
      <trkpt lat="49.95799" lon="2.43364">
        <ele>39.543</ele>
        <time>2020-08-23T09:35:21Z</time>
      </trkpt>
      <trkpt lat="49.95797" lon="2.4337">
        <ele>39.391</ele>
        <time>2020-08-23T09:35:29Z</time>
      </trkpt>
      <trkpt lat="49.95798" lon="2.43378">
        <ele>39.519</ele>
        <time>2020-08-23T09:35:37Z</time>
      </trkpt>
      <trkpt lat="49.95801" lon="2.43387">
        <ele>39.419</ele>
        <time>2020-08-23T09:35:48Z</time>
      </trkpt>
      <trkpt lat="49.95805" lon="2.43389">
        <ele>39.264</ele>
        <time>2020-08-23T09:35:53Z</time>
      </trkpt>
      <trkpt lat="49.95809" lon="2.43395">
        <ele>39.245</ele>
        <time>2020-08-23T09:35:59Z</time>
      </trkpt>
      <trkpt lat="49.95811" lon="2.43402">
        <ele>39.33</ele>
        <time>2020-08-23T09:36:05Z</time>
      </trkpt>
      <trkpt lat="49.95814" lon="2.43407">
        <ele>39.487</ele>
        <time>2020-08-23T09:36:08Z</time>
      </trkpt>
      <trkpt lat="49.95815" lon="2.43419">
        <ele>39.442</ele>
        <time>2020-08-23T09:36:10Z</time>
      </trkpt>
      <trkpt lat="49.95818" lon="2.43425">
        <ele>39.326</ele>
        <time>2020-08-23T09:36:15Z</time>
      </trkpt>
      <trkpt lat="49.9582" lon="2.43432">
        <ele>39.208</ele>
        <time>2020-08-23T09:36:18Z</time>
      </trkpt>
      <trkpt lat="49.95823" lon="2.43439">
        <ele>39.283</ele>
        <time>2020-08-23T09:36:21Z</time>
      </trkpt>
      <trkpt lat="49.95826" lon="2.43447">
        <ele>39.133</ele>
        <time>2020-08-23T09:36:26Z</time>
      </trkpt>
      <trkpt lat="49.95828" lon="2.43453">
        <ele>39.261</ele>
        <time>2020-08-23T09:36:29Z</time>
      </trkpt>
      <trkpt lat="49.95831" lon="2.43459">
        <ele>39.239</ele>
        <time>2020-08-23T09:36:32Z</time>
      </trkpt>
      <trkpt lat="49.95835" lon="2.43464">
        <ele>39.229</ele>
        <time>2020-08-23T09:36:36Z</time>
      </trkpt>
      <trkpt lat="49.95837" lon="2.4347">
        <ele>39.244</ele>
        <time>2020-08-23T09:36:41Z</time>
      </trkpt>
      <trkpt lat="49.9584" lon="2.43475">
        <ele>39.125</ele>
        <time>2020-08-23T09:36:45Z</time>
      </trkpt>
      <trkpt lat="49.95842" lon="2.43482">
        <ele>39.04</ele>
        <time>2020-08-23T09:36:48Z</time>
      </trkpt>
      <trkpt lat="49.95843" lon="2.4349">
        <ele>38.963</ele>
        <time>2020-08-23T09:36:52Z</time>
      </trkpt>
      <trkpt lat="49.95844" lon="2.43499">
        <ele>39.144</ele>
        <time>2020-08-23T09:36:57Z</time>
      </trkpt>
      <trkpt lat="49.95847" lon="2.43506">
        <ele>39.118</ele>
        <time>2020-08-23T09:37:01Z</time>
      </trkpt>
      <trkpt lat="49.95849" lon="2.43513">
        <ele>39.008</ele>
        <time>2020-08-23T09:37:04Z</time>
      </trkpt>
      <trkpt lat="49.95852" lon="2.4352">
        <ele>39.051</ele>
        <time>2020-08-23T09:37:08Z</time>
      </trkpt>
      <trkpt lat="49.95854" lon="2.43529">
        <ele>39.171</ele>
        <time>2020-08-23T09:37:11Z</time>
      </trkpt>
      <trkpt lat="49.95856" lon="2.43536">
        <ele>39.039</ele>
        <time>2020-08-23T09:37:14Z</time>
      </trkpt>
      <trkpt lat="49.9586" lon="2.4354">
        <ele>38.987</ele>
        <time>2020-08-23T09:37:18Z</time>
      </trkpt>
      <trkpt lat="49.95863" lon="2.43546">
        <ele>38.957</ele>
        <time>2020-08-23T09:37:20Z</time>
      </trkpt>
      <trkpt lat="49.95866" lon="2.43552">
        <ele>38.872</ele>
        <time>2020-08-23T09:37:22Z</time>
      </trkpt>
      <trkpt lat="49.95867" lon="2.4356">
        <ele>38.723</ele>
        <time>2020-08-23T09:37:25Z</time>
      </trkpt>
      <trkpt lat="49.95869" lon="2.43568">
        <ele>38.918</ele>
        <time>2020-08-23T09:37:30Z</time>
      </trkpt>
      <trkpt lat="49.95872" lon="2.43575">
        <ele>38.994</ele>
        <time>2020-08-23T09:37:33Z</time>
      </trkpt>
      <trkpt lat="49.95874" lon="2.43581">
        <ele>38.957</ele>
        <time>2020-08-23T09:37:36Z</time>
      </trkpt>
      <trkpt lat="49.95877" lon="2.43589">
        <ele>38.722</ele>
        <time>2020-08-23T09:37:40Z</time>
      </trkpt>
      <trkpt lat="49.95879" lon="2.43597">
        <ele>38.608</ele>
        <time>2020-08-23T09:37:42Z</time>
      </trkpt>
      <trkpt lat="49.95881" lon="2.43604">
        <ele>38.584</ele>
        <time>2020-08-23T09:37:45Z</time>
      </trkpt>
      <trkpt lat="49.95883" lon="2.43613">
        <ele>38.564</ele>
        <time>2020-08-23T09:37:48Z</time>
      </trkpt>
      <trkpt lat="49.95884" lon="2.4362">
        <ele>38.582</ele>
        <time>2020-08-23T09:37:53Z</time>
      </trkpt>
      <trkpt lat="49.95887" lon="2.43626">
        <ele>38.34</ele>
        <time>2020-08-23T09:37:57Z</time>
      </trkpt>
      <trkpt lat="49.95891" lon="2.43631">
        <ele>38.29</ele>
        <time>2020-08-23T09:38:01Z</time>
      </trkpt>
      <trkpt lat="49.95894" lon="2.43638">
        <ele>38.165</ele>
        <time>2020-08-23T09:38:05Z</time>
      </trkpt>
      <trkpt lat="49.95898" lon="2.43644">
        <ele>38.266</ele>
        <time>2020-08-23T09:38:11Z</time>
      </trkpt>
      <trkpt lat="49.95902" lon="2.43648">
        <ele>38.311</ele>
        <time>2020-08-23T09:38:20Z</time>
      </trkpt>
      <trkpt lat="49.95907" lon="2.43654">
        <ele>38.324</ele>
        <time>2020-08-23T09:38:24Z</time>
      </trkpt>
      <trkpt lat="49.95911" lon="2.4366">
        <ele>38.504</ele>
        <time>2020-08-23T09:38:27Z</time>
      </trkpt>
      <trkpt lat="49.95915" lon="2.43665">
        <ele>38.614</ele>
        <time>2020-08-23T09:38:30Z</time>
      </trkpt>
      <trkpt lat="49.95918" lon="2.43671">
        <ele>38.808</ele>
        <time>2020-08-23T09:38:34Z</time>
      </trkpt>
      <trkpt lat="49.95924" lon="2.43675">
        <ele>38.877</ele>
        <time>2020-08-23T09:38:38Z</time>
      </trkpt>
      <trkpt lat="49.95928" lon="2.43677">
        <ele>38.897</ele>
        <time>2020-08-23T09:38:41Z</time>
      </trkpt>
      <trkpt lat="49.95933" lon="2.43679">
        <ele>38.945</ele>
        <time>2020-08-23T09:38:45Z</time>
      </trkpt>
      <trkpt lat="49.95937" lon="2.43682">
        <ele>38.983</ele>
        <time>2020-08-23T09:38:49Z</time>
      </trkpt>
      <trkpt lat="49.95942" lon="2.43684">
        <ele>38.823</ele>
        <time>2020-08-23T09:38:53Z</time>
      </trkpt>
      <trkpt lat="49.95947" lon="2.43687">
        <ele>38.668</ele>
        <time>2020-08-23T09:38:57Z</time>
      </trkpt>
      <trkpt lat="49.95951" lon="2.43692">
        <ele>38.639</ele>
        <time>2020-08-23T09:39:01Z</time>
      </trkpt>
      <trkpt lat="49.95956" lon="2.43693">
        <ele>38.444</ele>
        <time>2020-08-23T09:39:05Z</time>
      </trkpt>
      <trkpt lat="49.9596" lon="2.43696">
        <ele>38.314</ele>
        <time>2020-08-23T09:39:08Z</time>
      </trkpt>
      <trkpt lat="49.95967" lon="2.43698">
        <ele>38.254</ele>
        <time>2020-08-23T09:39:11Z</time>
      </trkpt>
      <trkpt lat="49.95971" lon="2.437">
        <ele>38.109</ele>
        <time>2020-08-23T09:39:14Z</time>
      </trkpt>
      <trkpt lat="49.95976" lon="2.43699">
        <ele>38.008</ele>
        <time>2020-08-23T09:39:17Z</time>
      </trkpt>
      <trkpt lat="49.95981" lon="2.43698">
        <ele>38.076</ele>
        <time>2020-08-23T09:39:21Z</time>
      </trkpt>
      <trkpt lat="49.95986" lon="2.43699">
        <ele>38.076</ele>
        <time>2020-08-23T09:39:25Z</time>
      </trkpt>
      <trkpt lat="49.95991" lon="2.43696">
        <ele>37.864</ele>
        <time>2020-08-23T09:39:29Z</time>
      </trkpt>
      <trkpt lat="49.95996" lon="2.43694">
        <ele>38.032</ele>
        <time>2020-08-23T09:39:32Z</time>
      </trkpt>
      <trkpt lat="49.96002" lon="2.43696">
        <ele>38.032</ele>
        <time>2020-08-23T09:39:36Z</time>
      </trkpt>
      <trkpt lat="49.96007" lon="2.43694">
        <ele>37.947</ele>
        <time>2020-08-23T09:39:39Z</time>
      </trkpt>
      <trkpt lat="49.96013" lon="2.43694">
        <ele>37.858</ele>
        <time>2020-08-23T09:39:42Z</time>
      </trkpt>
      <trkpt lat="49.96019" lon="2.43692">
        <ele>37.753</ele>
        <time>2020-08-23T09:39:46Z</time>
      </trkpt>
      <trkpt lat="49.96024" lon="2.43689">
        <ele>37.747</ele>
        <time>2020-08-23T09:39:49Z</time>
      </trkpt>
      <trkpt lat="49.9603" lon="2.43686">
        <ele>37.829</ele>
        <time>2020-08-23T09:39:52Z</time>
      </trkpt>
      <trkpt lat="49.96035" lon="2.43684">
        <ele>37.821</ele>
        <time>2020-08-23T09:39:55Z</time>
      </trkpt>
      <trkpt lat="49.9604" lon="2.43683">
        <ele>37.708</ele>
        <time>2020-08-23T09:39:59Z</time>
      </trkpt>
      <trkpt lat="49.96044" lon="2.43681">
        <ele>37.669</ele>
        <time>2020-08-23T09:40:02Z</time>
      </trkpt>
      <trkpt lat="49.9605" lon="2.4368">
        <ele>37.669</ele>
        <time>2020-08-23T09:40:05Z</time>
      </trkpt>
      <trkpt lat="49.96055" lon="2.43678">
        <ele>37.677</ele>
        <time>2020-08-23T09:40:09Z</time>
      </trkpt>
      <trkpt lat="49.9606" lon="2.43677">
        <ele>37.785</ele>
        <time>2020-08-23T09:40:13Z</time>
      </trkpt>
      <trkpt lat="49.96064" lon="2.43676">
        <ele>37.875</ele>
        <time>2020-08-23T09:40:16Z</time>
      </trkpt>
      <trkpt lat="49.96071" lon="2.43675">
        <ele>37.93</ele>
        <time>2020-08-23T09:40:20Z</time>
      </trkpt>
      <trkpt lat="49.96076" lon="2.43675">
        <ele>37.951</ele>
        <time>2020-08-23T09:40:23Z</time>
      </trkpt>
      <trkpt lat="49.96081" lon="2.43673">
        <ele>38.126</ele>
        <time>2020-08-23T09:40:26Z</time>
      </trkpt>
      <trkpt lat="49.96086" lon="2.43672">
        <ele>38.128</ele>
        <time>2020-08-23T09:40:29Z</time>
      </trkpt>
      <trkpt lat="49.96091" lon="2.43672">
        <ele>38.089</ele>
        <time>2020-08-23T09:40:32Z</time>
      </trkpt>
      <trkpt lat="49.96097" lon="2.43672">
        <ele>38.017</ele>
        <time>2020-08-23T09:40:36Z</time>
      </trkpt>
      <trkpt lat="49.96102" lon="2.43672">
        <ele>38.008</ele>
        <time>2020-08-23T09:40:39Z</time>
      </trkpt>
      <trkpt lat="49.96107" lon="2.43673">
        <ele>38.197</ele>
        <time>2020-08-23T09:40:42Z</time>
      </trkpt>
      <trkpt lat="49.96113" lon="2.43672">
        <ele>38.317</ele>
        <time>2020-08-23T09:40:45Z</time>
      </trkpt>
      <trkpt lat="49.96118" lon="2.43671">
        <ele>38.325</ele>
        <time>2020-08-23T09:40:48Z</time>
      </trkpt>
      <trkpt lat="49.96123" lon="2.43671">
        <ele>38.363</ele>
        <time>2020-08-23T09:40:51Z</time>
      </trkpt>
      <trkpt lat="49.96127" lon="2.43672">
        <ele>38.653</ele>
        <time>2020-08-23T09:40:55Z</time>
      </trkpt>
      <trkpt lat="49.96133" lon="2.43672">
        <ele>38.848</ele>
        <time>2020-08-23T09:40:59Z</time>
      </trkpt>
      <trkpt lat="49.96138" lon="2.43671">
        <ele>38.939</ele>
        <time>2020-08-23T09:41:03Z</time>
      </trkpt>
      <trkpt lat="49.96144" lon="2.43669">
        <ele>38.974</ele>
        <time>2020-08-23T09:41:08Z</time>
      </trkpt>
      <trkpt lat="49.96149" lon="2.43669">
        <ele>39.073</ele>
        <time>2020-08-23T09:41:12Z</time>
      </trkpt>
      <trkpt lat="49.96155" lon="2.43669">
        <ele>38.985</ele>
        <time>2020-08-23T09:41:16Z</time>
      </trkpt>
      <trkpt lat="49.9616" lon="2.4367">
        <ele>39.013</ele>
        <time>2020-08-23T09:41:19Z</time>
      </trkpt>
      <trkpt lat="49.96165" lon="2.43671">
        <ele>39.108</ele>
        <time>2020-08-23T09:41:25Z</time>
      </trkpt>
      <trkpt lat="49.9617" lon="2.43669">
        <ele>39.272</ele>
        <time>2020-08-23T09:41:29Z</time>
      </trkpt>
      <trkpt lat="49.96174" lon="2.43665">
        <ele>39.382</ele>
        <time>2020-08-23T09:41:32Z</time>
      </trkpt>
      <trkpt lat="49.96179" lon="2.43663">
        <ele>39.46</ele>
        <time>2020-08-23T09:42:07Z</time>
      </trkpt>
      <trkpt lat="49.96184" lon="2.43664">
        <ele>39.158</ele>
        <time>2020-08-23T09:42:17Z</time>
      </trkpt>
      <trkpt lat="49.96188" lon="2.43667">
        <ele>39.278</ele>
        <time>2020-08-23T09:42:23Z</time>
      </trkpt>
      <trkpt lat="49.96193" lon="2.43669">
        <ele>39.243</ele>
        <time>2020-08-23T09:42:28Z</time>
      </trkpt>
      <trkpt lat="49.96199" lon="2.43671">
        <ele>39.424</ele>
        <time>2020-08-23T09:42:42Z</time>
      </trkpt>
      <trkpt lat="49.96201" lon="2.43678">
        <ele>38.569</ele>
        <time>2020-08-23T09:42:49Z</time>
      </trkpt>
      <trkpt lat="49.96206" lon="2.4368">
        <ele>38.276</ele>
        <time>2020-08-23T09:43:01Z</time>
      </trkpt>
      <trkpt lat="49.96206" lon="2.43687">
        <ele>38.49</ele>
        <time>2020-08-23T09:43:09Z</time>
      </trkpt>
      <trkpt lat="49.96207" lon="2.43695">
        <ele>38.319</ele>
        <time>2020-08-23T09:43:22Z</time>
      </trkpt>
      <trkpt lat="49.96211" lon="2.43702">
        <ele>38.308</ele>
        <time>2020-08-23T09:43:41Z</time>
      </trkpt>
      <trkpt lat="49.96213" lon="2.43708">
        <ele>38.392</ele>
        <time>2020-08-23T09:43:45Z</time>
      </trkpt>
      <trkpt lat="49.96215" lon="2.43715">
        <ele>38.282</ele>
        <time>2020-08-23T09:43:51Z</time>
      </trkpt>
      <trkpt lat="49.96219" lon="2.43721">
        <ele>38.32</ele>
        <time>2020-08-23T09:43:57Z</time>
      </trkpt>
      <trkpt lat="49.96223" lon="2.43725">
        <ele>38.678</ele>
        <time>2020-08-23T09:44:04Z</time>
      </trkpt>
      <trkpt lat="49.96227" lon="2.43729">
        <ele>38.558</ele>
        <time>2020-08-23T09:44:09Z</time>
      </trkpt>
      <trkpt lat="49.96231" lon="2.43733">
        <ele>38.613</ele>
        <time>2020-08-23T09:44:16Z</time>
      </trkpt>
      <trkpt lat="49.96237" lon="2.43737">
        <ele>38.844</ele>
        <time>2020-08-23T09:44:21Z</time>
      </trkpt>
      <trkpt lat="49.96242" lon="2.43736">
        <ele>38.829</ele>
        <time>2020-08-23T09:44:27Z</time>
      </trkpt>
      <trkpt lat="49.96247" lon="2.43735">
        <ele>38.937</ele>
        <time>2020-08-23T09:44:33Z</time>
      </trkpt>
      <trkpt lat="49.96252" lon="2.43738">
        <ele>39.049</ele>
        <time>2020-08-23T09:44:37Z</time>
      </trkpt>
      <trkpt lat="49.96257" lon="2.43742">
        <ele>38.913</ele>
        <time>2020-08-23T09:44:46Z</time>
      </trkpt>
      <trkpt lat="49.96261" lon="2.43746">
        <ele>39.008</ele>
        <time>2020-08-23T09:44:53Z</time>
      </trkpt>
      <trkpt lat="49.96265" lon="2.43749">
        <ele>38.948</ele>
        <time>2020-08-23T09:44:56Z</time>
      </trkpt>
      <trkpt lat="49.96269" lon="2.43751">
        <ele>39.138</ele>
        <time>2020-08-23T09:45:08Z</time>
      </trkpt>
      <trkpt lat="49.96273" lon="2.43758">
        <ele>39.256</ele>
        <time>2020-08-23T09:45:15Z</time>
      </trkpt>
      <trkpt lat="49.96278" lon="2.43756">
        <ele>39.254</ele>
        <time>2020-08-23T09:45:22Z</time>
      </trkpt>
      <trkpt lat="49.96282" lon="2.43761">
        <ele>38.924</ele>
        <time>2020-08-23T09:45:28Z</time>
      </trkpt>
      <trkpt lat="49.96286" lon="2.43767">
        <ele>38.959</ele>
        <time>2020-08-23T09:45:30Z</time>
      </trkpt>
      <trkpt lat="49.9629" lon="2.4377">
        <ele>39.13</ele>
        <time>2020-08-23T09:45:42Z</time>
      </trkpt>
      <trkpt lat="49.96295" lon="2.4377">
        <ele>38.865</ele>
        <time>2020-08-23T09:45:57Z</time>
      </trkpt>
      <trkpt lat="49.963" lon="2.43774">
        <ele>38.939</ele>
        <time>2020-08-23T09:46:06Z</time>
      </trkpt>
      <trkpt lat="49.96303" lon="2.43781">
        <ele>38.601</ele>
        <time>2020-08-23T09:46:14Z</time>
      </trkpt>
      <trkpt lat="49.96305" lon="2.43788">
        <ele>38.621</ele>
        <time>2020-08-23T09:46:19Z</time>
      </trkpt>
      <trkpt lat="49.96309" lon="2.43795">
        <ele>38.708</ele>
        <time>2020-08-23T09:46:26Z</time>
      </trkpt>
      <trkpt lat="49.96313" lon="2.43798">
        <ele>38.748</ele>
        <time>2020-08-23T09:46:29Z</time>
      </trkpt>
      <trkpt lat="49.96319" lon="2.43798">
        <ele>38.868</ele>
        <time>2020-08-23T09:46:33Z</time>
      </trkpt>
      <trkpt lat="49.96323" lon="2.43801">
        <ele>38.826</ele>
        <time>2020-08-23T09:46:40Z</time>
      </trkpt>
      <trkpt lat="49.96325" lon="2.43807">
        <ele>38.844</ele>
        <time>2020-08-23T09:46:52Z</time>
      </trkpt>
      <trkpt lat="49.96324" lon="2.43816">
        <ele>38.574</ele>
        <time>2020-08-23T09:46:57Z</time>
      </trkpt>
      <trkpt lat="49.96325" lon="2.43824">
        <ele>38.369</ele>
        <time>2020-08-23T09:47:02Z</time>
      </trkpt>
      <trkpt lat="49.96324" lon="2.43832">
        <ele>38.34</ele>
        <time>2020-08-23T09:47:08Z</time>
      </trkpt>
      <trkpt lat="49.96325" lon="2.4384">
        <ele>38.575</ele>
        <time>2020-08-23T09:47:12Z</time>
      </trkpt>
      <trkpt lat="49.96328" lon="2.43846">
        <ele>38.973</ele>
        <time>2020-08-23T09:47:17Z</time>
      </trkpt>
      <trkpt lat="49.96331" lon="2.43853">
        <ele>39.685</ele>
        <time>2020-08-23T09:47:22Z</time>
      </trkpt>
      <trkpt lat="49.96336" lon="2.43855">
        <ele>39.713</ele>
        <time>2020-08-23T09:47:27Z</time>
      </trkpt>
      <trkpt lat="49.96337" lon="2.43863">
        <ele>39.608</ele>
        <time>2020-08-23T09:47:35Z</time>
      </trkpt>
      <trkpt lat="49.96341" lon="2.43862">
        <ele>39.332</ele>
        <time>2020-08-23T09:47:47Z</time>
      </trkpt>
      <trkpt lat="49.9635" lon="2.43863">
        <ele>39.562</ele>
        <time>2020-08-23T09:48:56Z</time>
      </trkpt>
      <trkpt lat="49.96354" lon="2.43864">
        <ele>39.57</ele>
        <time>2020-08-23T09:49:08Z</time>
      </trkpt>
      <trkpt lat="49.96353" lon="2.43872">
        <ele>39.328</ele>
        <time>2020-08-23T09:49:27Z</time>
      </trkpt>
      <trkpt lat="49.96353" lon="2.4388">
        <ele>39.458</ele>
        <time>2020-08-23T09:49:31Z</time>
      </trkpt>
      <trkpt lat="49.96354" lon="2.43889">
        <ele>39.533</ele>
        <time>2020-08-23T09:49:37Z</time>
      </trkpt>
      <trkpt lat="49.96354" lon="2.43896">
        <ele>39.674</ele>
        <time>2020-08-23T09:49:41Z</time>
      </trkpt>
      <trkpt lat="49.96355" lon="2.43904">
        <ele>39.519</ele>
        <time>2020-08-23T09:49:45Z</time>
      </trkpt>
      <trkpt lat="49.96357" lon="2.43911">
        <ele>39.575</ele>
        <time>2020-08-23T09:49:49Z</time>
      </trkpt>
      <trkpt lat="49.9636" lon="2.43919">
        <ele>39.428</ele>
        <time>2020-08-23T09:49:55Z</time>
      </trkpt>
      <trkpt lat="49.9636" lon="2.43927">
        <ele>39.42</ele>
        <time>2020-08-23T09:50:00Z</time>
      </trkpt>
      <trkpt lat="49.96363" lon="2.43934">
        <ele>39.408</ele>
        <time>2020-08-23T09:50:04Z</time>
      </trkpt>
      <trkpt lat="49.96365" lon="2.43942">
        <ele>39.432</ele>
        <time>2020-08-23T09:50:09Z</time>
      </trkpt>
      <trkpt lat="49.96366" lon="2.43949">
        <ele>39.532</ele>
        <time>2020-08-23T09:50:13Z</time>
      </trkpt>
      <trkpt lat="49.9637" lon="2.43956">
        <ele>39.72</ele>
        <time>2020-08-23T09:50:17Z</time>
      </trkpt>
      <trkpt lat="49.96373" lon="2.43961">
        <ele>39.728</ele>
        <time>2020-08-23T09:50:20Z</time>
      </trkpt>
      <trkpt lat="49.96376" lon="2.43966">
        <ele>39.588</ele>
        <time>2020-08-23T09:50:24Z</time>
      </trkpt>
      <trkpt lat="49.9638" lon="2.43972">
        <ele>39.363</ele>
        <time>2020-08-23T09:50:28Z</time>
      </trkpt>
      <trkpt lat="49.96381" lon="2.43979">
        <ele>39.664</ele>
        <time>2020-08-23T09:50:36Z</time>
      </trkpt>
      <trkpt lat="49.96384" lon="2.43986">
        <ele>39.749</ele>
        <time>2020-08-23T09:50:42Z</time>
      </trkpt>
      <trkpt lat="49.96389" lon="2.43989">
        <ele>39.486</ele>
        <time>2020-08-23T09:50:49Z</time>
      </trkpt>
      <trkpt lat="49.96392" lon="2.43994">
        <ele>39.56</ele>
        <time>2020-08-23T09:50:52Z</time>
      </trkpt>
      <trkpt lat="49.96397" lon="2.43999">
        <ele>39.726</ele>
        <time>2020-08-23T09:50:57Z</time>
      </trkpt>
      <trkpt lat="49.96402" lon="2.44003">
        <ele>39.708</ele>
        <time>2020-08-23T09:51:01Z</time>
      </trkpt>
      <trkpt lat="49.96406" lon="2.44009">
        <ele>40.433</ele>
        <time>2020-08-23T09:51:04Z</time>
      </trkpt>
      <trkpt lat="49.96411" lon="2.44011">
        <ele>41.113</ele>
        <time>2020-08-23T09:51:09Z</time>
      </trkpt>
      <trkpt lat="49.96415" lon="2.4401">
        <ele>41.621</ele>
        <time>2020-08-23T09:51:14Z</time>
      </trkpt>
      <trkpt lat="49.96421" lon="2.44009">
        <ele>42.229</ele>
        <time>2020-08-23T09:51:19Z</time>
      </trkpt>
      <trkpt lat="49.96426" lon="2.44006">
        <ele>43.369</ele>
        <time>2020-08-23T09:51:28Z</time>
      </trkpt>
      <trkpt lat="49.96431" lon="2.44006">
        <ele>43.934</ele>
        <time>2020-08-23T09:51:31Z</time>
      </trkpt>
      <trkpt lat="49.96436" lon="2.44003">
        <ele>44.475</ele>
        <time>2020-08-23T09:51:36Z</time>
      </trkpt>
      <trkpt lat="49.96441" lon="2.44001">
        <ele>44.88</ele>
        <time>2020-08-23T09:51:40Z</time>
      </trkpt>
      <trkpt lat="49.96447" lon="2.43999">
        <ele>45.323</ele>
        <time>2020-08-23T09:51:45Z</time>
      </trkpt>
      <trkpt lat="49.96451" lon="2.43996">
        <ele>46.283</ele>
        <time>2020-08-23T09:51:49Z</time>
      </trkpt>
      <trkpt lat="49.96456" lon="2.43993">
        <ele>47.011</ele>
        <time>2020-08-23T09:51:53Z</time>
      </trkpt>
      <trkpt lat="49.96461" lon="2.43993">
        <ele>47.608</ele>
        <time>2020-08-23T09:51:57Z</time>
      </trkpt>
      <trkpt lat="49.96465" lon="2.43995">
        <ele>48.787</ele>
        <time>2020-08-23T09:52:02Z</time>
      </trkpt>
      <trkpt lat="49.9647" lon="2.43995">
        <ele>48.637</ele>
        <time>2020-08-23T09:52:05Z</time>
      </trkpt>
      <trkpt lat="49.96474" lon="2.43994">
        <ele>49.255</ele>
        <time>2020-08-23T09:52:16Z</time>
      </trkpt>
      <trkpt lat="49.96477" lon="2.43985">
        <ele>50.063</ele>
        <time>2020-08-23T09:52:34Z</time>
      </trkpt>
    </trkseg>
  </trk>
</gpx>